<?xml version="1.0" encoding="UTF-8" standalone="no" ?>
<gpx xmlns="http://www.topografix.com/GPX/1/1" xmlns:xsi="http://www.w3.org/2001/XMLSchema-instance" xsi:schemaLocation="http://www.topografix.com/GPX/1/1 http://www.topografix.com/GPX/1/1/gpx.xsd" version="1.1" creator="VisuGPX - https://www.visugpx.com">
  <metadata>
    <name>lundi 2015 01 12</name>
    <desc><![CDATA[rando du lundi]]></desc>
  </metadata>
  <trk>
    <name><![CDATA[12/01/2015 20:17]]></name>
    <desc><![CDATA[]]></desc>
    <trkseg>
      <trkpt lat="48.85739" lon="2.34721">
        <ele>90</ele>
        <time>2015-01-12T19:17:50.281Z</time>
      </trkpt>
      <trkpt lat="48.8574" lon="2.34723">
        <ele>87.1</ele>
        <time>2015-01-12T19:18:19.695Z</time>
      </trkpt>
      <trkpt lat="48.8574" lon="2.34723">
        <ele>87.1</ele>
        <time>2015-01-12T19:18:20.773Z</time>
      </trkpt>
      <trkpt lat="48.8574" lon="2.34723">
        <ele>87</ele>
        <time>2015-01-12T19:18:21.803Z</time>
      </trkpt>
      <trkpt lat="48.8574" lon="2.34723">
        <ele>87.1</ele>
        <time>2015-01-12T19:18:22.701Z</time>
      </trkpt>
      <trkpt lat="48.8574" lon="2.34724">
        <ele>87.1</ele>
        <time>2015-01-12T19:18:23.734Z</time>
      </trkpt>
      <trkpt lat="48.8574" lon="2.34724">
        <ele>87.1</ele>
        <time>2015-01-12T19:18:25.262Z</time>
      </trkpt>
      <trkpt lat="48.8574" lon="2.34724">
        <ele>87.1</ele>
        <time>2015-01-12T19:18:25.724Z</time>
      </trkpt>
      <trkpt lat="48.8574" lon="2.34725">
        <ele>87.1</ele>
        <time>2015-01-12T19:18:29.773Z</time>
      </trkpt>
      <trkpt lat="48.8574" lon="2.34724">
        <ele>87.4</ele>
        <time>2015-01-12T19:18:30.782Z</time>
      </trkpt>
      <trkpt lat="48.85739" lon="2.34722">
        <ele>87.3</ele>
        <time>2015-01-12T19:18:35.764Z</time>
      </trkpt>
      <trkpt lat="48.85739" lon="2.34722">
        <ele>87.2</ele>
        <time>2015-01-12T19:18:36.763Z</time>
      </trkpt>
      <trkpt lat="48.85739" lon="2.34723">
        <ele>87.3</ele>
        <time>2015-01-12T19:18:45.744Z</time>
      </trkpt>
      <trkpt lat="48.85739" lon="2.34724">
        <ele>87.5</ele>
        <time>2015-01-12T19:18:46.788Z</time>
      </trkpt>
      <trkpt lat="48.85739" lon="2.34724">
        <ele>87.4</ele>
        <time>2015-01-12T19:18:48.711Z</time>
      </trkpt>
      <trkpt lat="48.85739" lon="2.34724">
        <ele>87.4</ele>
        <time>2015-01-12T19:18:49.722Z</time>
      </trkpt>
      <trkpt lat="48.85739" lon="2.34724">
        <ele>87.4</ele>
        <time>2015-01-12T19:18:54.763Z</time>
      </trkpt>
      <trkpt lat="48.8574" lon="2.34725">
        <ele>87.9</ele>
        <time>2015-01-12T19:18:55.762Z</time>
      </trkpt>
      <trkpt lat="48.85739" lon="2.34724">
        <ele>87.8</ele>
        <time>2015-01-12T19:18:57.815Z</time>
      </trkpt>
      <trkpt lat="48.85739" lon="2.34723">
        <ele>87.6</ele>
        <time>2015-01-12T19:18:58.732Z</time>
      </trkpt>
      <trkpt lat="48.85739" lon="2.34723">
        <ele>87.6</ele>
        <time>2015-01-12T19:20:34.732Z</time>
      </trkpt>
      <trkpt lat="48.85743" lon="2.34732">
        <ele>90.3</ele>
        <time>2015-01-12T19:20:35.743Z</time>
      </trkpt>
      <trkpt lat="48.85746" lon="2.34744">
        <ele>90.7</ele>
        <time>2015-01-12T19:20:41.704Z</time>
      </trkpt>
      <trkpt lat="48.85747" lon="2.34746">
        <ele>90.7</ele>
        <time>2015-01-12T19:20:42.843Z</time>
      </trkpt>
      <trkpt lat="48.85753" lon="2.34754">
        <ele>90.9</ele>
        <time>2015-01-12T19:20:47.741Z</time>
      </trkpt>
      <trkpt lat="48.85755" lon="2.34755">
        <ele>90.7</ele>
        <time>2015-01-12T19:20:48.741Z</time>
      </trkpt>
      <trkpt lat="48.85763" lon="2.34759">
        <ele>90.3</ele>
        <time>2015-01-12T19:20:53.702Z</time>
      </trkpt>
      <trkpt lat="48.85765" lon="2.3476">
        <ele>90.5</ele>
        <time>2015-01-12T19:20:54.729Z</time>
      </trkpt>
      <trkpt lat="48.85772" lon="2.34763">
        <ele>90.3</ele>
        <time>2015-01-12T19:20:57.790Z</time>
      </trkpt>
      <trkpt lat="48.85775" lon="2.34765">
        <ele>90.1</ele>
        <time>2015-01-12T19:20:58.939Z</time>
      </trkpt>
      <trkpt lat="48.85782" lon="2.34771">
        <ele>90.2</ele>
        <time>2015-01-12T19:21:02.825Z</time>
      </trkpt>
      <trkpt lat="48.85782" lon="2.34772">
        <ele>90.1</ele>
        <time>2015-01-12T19:21:03.924Z</time>
      </trkpt>
      <trkpt lat="48.85782" lon="2.34773">
        <ele>90.1</ele>
        <time>2015-01-12T19:21:04.717Z</time>
      </trkpt>
      <trkpt lat="48.85782" lon="2.34774">
        <ele>89.8</ele>
        <time>2015-01-12T19:21:15.713Z</time>
      </trkpt>
      <trkpt lat="48.85782" lon="2.34778">
        <ele>85.2</ele>
        <time>2015-01-12T19:21:16.725Z</time>
      </trkpt>
      <trkpt lat="48.85787" lon="2.34784">
        <ele>84.9</ele>
        <time>2015-01-12T19:21:20.771Z</time>
      </trkpt>
      <trkpt lat="48.8579" lon="2.34786">
        <ele>85</ele>
        <time>2015-01-12T19:21:21.807Z</time>
      </trkpt>
      <trkpt lat="48.85796" lon="2.3479">
        <ele>85.3</ele>
        <time>2015-01-12T19:21:23.723Z</time>
      </trkpt>
      <trkpt lat="48.85799" lon="2.34791">
        <ele>85.2</ele>
        <time>2015-01-12T19:21:24.765Z</time>
      </trkpt>
      <trkpt lat="48.85804" lon="2.34796">
        <ele>85.2</ele>
        <time>2015-01-12T19:21:26.845Z</time>
      </trkpt>
      <trkpt lat="48.85807" lon="2.348">
        <ele>84.9</ele>
        <time>2015-01-12T19:21:27.732Z</time>
      </trkpt>
      <trkpt lat="48.85814" lon="2.34804">
        <ele>85</ele>
        <time>2015-01-12T19:21:29.747Z</time>
      </trkpt>
      <trkpt lat="48.85819" lon="2.34805">
        <ele>84.9</ele>
        <time>2015-01-12T19:21:30.776Z</time>
      </trkpt>
      <trkpt lat="48.85826" lon="2.34807">
        <ele>85.1</ele>
        <time>2015-01-12T19:21:32.842Z</time>
      </trkpt>
      <trkpt lat="48.85829" lon="2.34809">
        <ele>85.2</ele>
        <time>2015-01-12T19:21:33.856Z</time>
      </trkpt>
      <trkpt lat="48.85838" lon="2.34811">
        <ele>83.7</ele>
        <time>2015-01-12T19:21:36.900Z</time>
      </trkpt>
      <trkpt lat="48.85838" lon="2.34812">
        <ele>83.8</ele>
        <time>2015-01-12T19:21:37.715Z</time>
      </trkpt>
      <trkpt lat="48.85839" lon="2.34813">
        <ele>84</ele>
        <time>2015-01-12T19:21:38.804Z</time>
      </trkpt>
      <trkpt lat="48.85839" lon="2.34814">
        <ele>84.1</ele>
        <time>2015-01-12T19:21:39.703Z</time>
      </trkpt>
      <trkpt lat="48.85839" lon="2.34815">
        <ele>84.3</ele>
        <time>2015-01-12T19:21:41.776Z</time>
      </trkpt>
      <trkpt lat="48.85839" lon="2.34816">
        <ele>84.2</ele>
        <time>2015-01-12T19:21:42.810Z</time>
      </trkpt>
      <trkpt lat="48.85839" lon="2.34817">
        <ele>84.2</ele>
        <time>2015-01-12T19:21:43.728Z</time>
      </trkpt>
      <trkpt lat="48.8584" lon="2.34817">
        <ele>84.3</ele>
        <time>2015-01-12T19:21:44.836Z</time>
      </trkpt>
      <trkpt lat="48.8584" lon="2.34818">
        <ele>84.6</ele>
        <time>2015-01-12T19:22:01.817Z</time>
      </trkpt>
      <trkpt lat="48.85842" lon="2.34824">
        <ele>85.2</ele>
        <time>2015-01-12T19:22:02.839Z</time>
      </trkpt>
      <trkpt lat="48.8585" lon="2.34827">
        <ele>85.8</ele>
        <time>2015-01-12T19:22:07.792Z</time>
      </trkpt>
      <trkpt lat="48.85852" lon="2.34828">
        <ele>85.7</ele>
        <time>2015-01-12T19:22:08.814Z</time>
      </trkpt>
      <trkpt lat="48.85859" lon="2.34831">
        <ele>85.9</ele>
        <time>2015-01-12T19:22:12.746Z</time>
      </trkpt>
      <trkpt lat="48.85862" lon="2.34833">
        <ele>86.5</ele>
        <time>2015-01-12T19:22:13.770Z</time>
      </trkpt>
      <trkpt lat="48.85864" lon="2.34844">
        <ele>87.3</ele>
        <time>2015-01-12T19:22:19.733Z</time>
      </trkpt>
      <trkpt lat="48.85864" lon="2.34847">
        <ele>87.2</ele>
        <time>2015-01-12T19:22:20.789Z</time>
      </trkpt>
      <trkpt lat="48.85868" lon="2.34857">
        <ele>86.9</ele>
        <time>2015-01-12T19:22:23.812Z</time>
      </trkpt>
      <trkpt lat="48.8587" lon="2.34863">
        <ele>86.6</ele>
        <time>2015-01-12T19:22:24.815Z</time>
      </trkpt>
      <trkpt lat="48.85873" lon="2.34873">
        <ele>86.3</ele>
        <time>2015-01-12T19:22:26.822Z</time>
      </trkpt>
      <trkpt lat="48.85875" lon="2.34879">
        <ele>86.1</ele>
        <time>2015-01-12T19:22:27.720Z</time>
      </trkpt>
      <trkpt lat="48.85875" lon="2.34889">
        <ele>86.2</ele>
        <time>2015-01-12T19:22:29.757Z</time>
      </trkpt>
      <trkpt lat="48.85874" lon="2.34894">
        <ele>86.3</ele>
        <time>2015-01-12T19:22:30.800Z</time>
      </trkpt>
      <trkpt lat="48.85872" lon="2.34904">
        <ele>86.5</ele>
        <time>2015-01-12T19:22:33.256Z</time>
      </trkpt>
      <trkpt lat="48.85872" lon="2.34908">
        <ele>86.6</ele>
        <time>2015-01-12T19:22:33.779Z</time>
      </trkpt>
      <trkpt lat="48.85869" lon="2.3492">
        <ele>86.9</ele>
        <time>2015-01-12T19:22:36.798Z</time>
      </trkpt>
      <trkpt lat="48.85869" lon="2.34923">
        <ele>86.9</ele>
        <time>2015-01-12T19:22:37.741Z</time>
      </trkpt>
      <trkpt lat="48.85866" lon="2.34932">
        <ele>86.8</ele>
        <time>2015-01-12T19:22:39.698Z</time>
      </trkpt>
      <trkpt lat="48.85866" lon="2.34936">
        <ele>86.8</ele>
        <time>2015-01-12T19:22:40.737Z</time>
      </trkpt>
      <trkpt lat="48.85866" lon="2.34949">
        <ele>87.1</ele>
        <time>2015-01-12T19:22:44.760Z</time>
      </trkpt>
      <trkpt lat="48.85866" lon="2.3495">
        <ele>87.1</ele>
        <time>2015-01-12T19:22:45.774Z</time>
      </trkpt>
      <trkpt lat="48.85866" lon="2.34954">
        <ele>87.6</ele>
        <time>2015-01-12T19:22:50.371Z</time>
      </trkpt>
      <trkpt lat="48.85866" lon="2.34955">
        <ele>87.7</ele>
        <time>2015-01-12T19:22:50.755Z</time>
      </trkpt>
      <trkpt lat="48.85866" lon="2.34957">
        <ele>87.6</ele>
        <time>2015-01-12T19:22:51.762Z</time>
      </trkpt>
      <trkpt lat="48.85864" lon="2.34967">
        <ele>87.7</ele>
        <time>2015-01-12T19:22:53.769Z</time>
      </trkpt>
      <trkpt lat="48.85862" lon="2.34971">
        <ele>87.8</ele>
        <time>2015-01-12T19:22:54.790Z</time>
      </trkpt>
      <trkpt lat="48.85856" lon="2.34979">
        <ele>87.7</ele>
        <time>2015-01-12T19:22:56.816Z</time>
      </trkpt>
      <trkpt lat="48.85855" lon="2.34982">
        <ele>87.8</ele>
        <time>2015-01-12T19:22:57.695Z</time>
      </trkpt>
      <trkpt lat="48.85853" lon="2.34995">
        <ele>88.5</ele>
        <time>2015-01-12T19:23:02.791Z</time>
      </trkpt>
      <trkpt lat="48.85852" lon="2.34996">
        <ele>88.9</ele>
        <time>2015-01-12T19:23:03.792Z</time>
      </trkpt>
      <trkpt lat="48.85853" lon="2.35006">
        <ele>92.7</ele>
        <time>2015-01-12T19:23:14.797Z</time>
      </trkpt>
      <trkpt lat="48.85854" lon="2.3501">
        <ele>92.8</ele>
        <time>2015-01-12T19:23:15.707Z</time>
      </trkpt>
      <trkpt lat="48.85856" lon="2.3502">
        <ele>92.8</ele>
        <time>2015-01-12T19:23:17.773Z</time>
      </trkpt>
      <trkpt lat="48.85853" lon="2.35052">
        <ele>92.3</ele>
        <time>2015-01-12T19:23:26.729Z</time>
      </trkpt>
      <trkpt lat="48.85848" lon="2.35061">
        <ele>92.3</ele>
        <time>2015-01-12T19:23:28.746Z</time>
      </trkpt>
      <trkpt lat="48.85845" lon="2.35065">
        <ele>92.2</ele>
        <time>2015-01-12T19:23:29.710Z</time>
      </trkpt>
      <trkpt lat="48.85843" lon="2.35075">
        <ele>92.3</ele>
        <time>2015-01-12T19:23:31.740Z</time>
      </trkpt>
      <trkpt lat="48.85842" lon="2.3508">
        <ele>92.3</ele>
        <time>2015-01-12T19:23:32.746Z</time>
      </trkpt>
      <trkpt lat="48.85839" lon="2.35092">
        <ele>92.3</ele>
        <time>2015-01-12T19:23:36.614Z</time>
      </trkpt>
      <trkpt lat="48.85838" lon="2.35097">
        <ele>92.3</ele>
        <time>2015-01-12T19:23:36.746Z</time>
      </trkpt>
      <trkpt lat="48.85833" lon="2.35106">
        <ele>92.4</ele>
        <time>2015-01-12T19:23:38.729Z</time>
      </trkpt>
      <trkpt lat="48.85837" lon="2.35117">
        <ele>92</ele>
        <time>2015-01-12T19:23:39.729Z</time>
      </trkpt>
      <trkpt lat="48.85835" lon="2.35127">
        <ele>92.1</ele>
        <time>2015-01-12T19:23:42.697Z</time>
      </trkpt>
      <trkpt lat="48.85833" lon="2.35129">
        <ele>92.1</ele>
        <time>2015-01-12T19:23:43.716Z</time>
      </trkpt>
      <trkpt lat="48.85826" lon="2.35137">
        <ele>92.8</ele>
        <time>2015-01-12T19:23:45.732Z</time>
      </trkpt>
      <trkpt lat="48.85825" lon="2.35139">
        <ele>93</ele>
        <time>2015-01-12T19:23:46.849Z</time>
      </trkpt>
      <trkpt lat="48.8582" lon="2.3515">
        <ele>94.7</ele>
        <time>2015-01-12T19:23:52.774Z</time>
      </trkpt>
      <trkpt lat="48.85821" lon="2.35152">
        <ele>95.5</ele>
        <time>2015-01-12T19:23:53.802Z</time>
      </trkpt>
      <trkpt lat="48.85823" lon="2.3516">
        <ele>96.4</ele>
        <time>2015-01-12T19:23:57.733Z</time>
      </trkpt>
      <trkpt lat="48.85826" lon="2.35165">
        <ele>96.9</ele>
        <time>2015-01-12T19:23:58.750Z</time>
      </trkpt>
      <trkpt lat="48.85827" lon="2.35174">
        <ele>97</ele>
        <time>2015-01-12T19:24:01.722Z</time>
      </trkpt>
      <trkpt lat="48.85827" lon="2.35178">
        <ele>97.1</ele>
        <time>2015-01-12T19:24:02.771Z</time>
      </trkpt>
      <trkpt lat="48.85827" lon="2.35191">
        <ele>96.9</ele>
        <time>2015-01-12T19:24:05.696Z</time>
      </trkpt>
      <trkpt lat="48.85827" lon="2.35194">
        <ele>96.9</ele>
        <time>2015-01-12T19:24:06.697Z</time>
      </trkpt>
      <trkpt lat="48.85822" lon="2.35203">
        <ele>96.6</ele>
        <time>2015-01-12T19:24:09.746Z</time>
      </trkpt>
      <trkpt lat="48.85819" lon="2.35205">
        <ele>96.6</ele>
        <time>2015-01-12T19:24:10.767Z</time>
      </trkpt>
      <trkpt lat="48.85816" lon="2.35214">
        <ele>96.5</ele>
        <time>2015-01-12T19:24:12.676Z</time>
      </trkpt>
      <trkpt lat="48.85815" lon="2.35219">
        <ele>96.5</ele>
        <time>2015-01-12T19:24:13.715Z</time>
      </trkpt>
      <trkpt lat="48.85813" lon="2.35231">
        <ele>96.2</ele>
        <time>2015-01-12T19:24:16.677Z</time>
      </trkpt>
      <trkpt lat="48.85813" lon="2.35235">
        <ele>96.1</ele>
        <time>2015-01-12T19:24:17.680Z</time>
      </trkpt>
      <trkpt lat="48.85815" lon="2.35247">
        <ele>95.4</ele>
        <time>2015-01-12T19:24:19.750Z</time>
      </trkpt>
      <trkpt lat="48.85815" lon="2.35253">
        <ele>95.1</ele>
        <time>2015-01-12T19:24:20.757Z</time>
      </trkpt>
      <trkpt lat="48.85813" lon="2.35265">
        <ele>94.7</ele>
        <time>2015-01-12T19:24:23.693Z</time>
      </trkpt>
      <trkpt lat="48.85812" lon="2.35268">
        <ele>94.6</ele>
        <time>2015-01-12T19:24:24.773Z</time>
      </trkpt>
      <trkpt lat="48.85809" lon="2.35272">
        <ele>94.5</ele>
        <time>2015-01-12T19:24:26.751Z</time>
      </trkpt>
      <trkpt lat="48.85804" lon="2.35276">
        <ele>94.6</ele>
        <time>2015-01-12T19:24:27.765Z</time>
      </trkpt>
      <trkpt lat="48.85797" lon="2.35282">
        <ele>94.8</ele>
        <time>2015-01-12T19:24:29.770Z</time>
      </trkpt>
      <trkpt lat="48.85793" lon="2.35285">
        <ele>94.9</ele>
        <time>2015-01-12T19:24:30.764Z</time>
      </trkpt>
      <trkpt lat="48.85787" lon="2.35295">
        <ele>94.5</ele>
        <time>2015-01-12T19:24:34.782Z</time>
      </trkpt>
      <trkpt lat="48.85787" lon="2.35298">
        <ele>94.1</ele>
        <time>2015-01-12T19:24:35.825Z</time>
      </trkpt>
      <trkpt lat="48.85783" lon="2.35307">
        <ele>93.7</ele>
        <time>2015-01-12T19:24:38.843Z</time>
      </trkpt>
      <trkpt lat="48.85782" lon="2.35309">
        <ele>94</ele>
        <time>2015-01-12T19:24:39.726Z</time>
      </trkpt>
      <trkpt lat="48.85779" lon="2.35313">
        <ele>94</ele>
        <time>2015-01-12T19:24:40.742Z</time>
      </trkpt>
      <trkpt lat="48.85779" lon="2.35315">
        <ele>93.9</ele>
        <time>2015-01-12T19:24:41.767Z</time>
      </trkpt>
      <trkpt lat="48.8578" lon="2.35317">
        <ele>94.2</ele>
        <time>2015-01-12T19:24:49.755Z</time>
      </trkpt>
      <trkpt lat="48.85779" lon="2.35324">
        <ele>92.4</ele>
        <time>2015-01-12T19:24:50.763Z</time>
      </trkpt>
      <trkpt lat="48.8578" lon="2.35336">
        <ele>91.1</ele>
        <time>2015-01-12T19:24:54.730Z</time>
      </trkpt>
      <trkpt lat="48.85779" lon="2.35339">
        <ele>90.9</ele>
        <time>2015-01-12T19:24:55.735Z</time>
      </trkpt>
      <trkpt lat="48.85777" lon="2.3535">
        <ele>90.3</ele>
        <time>2015-01-12T19:24:59.711Z</time>
      </trkpt>
      <trkpt lat="48.85776" lon="2.35353">
        <ele>90.3</ele>
        <time>2015-01-12T19:25:00.714Z</time>
      </trkpt>
      <trkpt lat="48.85771" lon="2.35362">
        <ele>89.3</ele>
        <time>2015-01-12T19:25:03.692Z</time>
      </trkpt>
      <trkpt lat="48.8577" lon="2.35366">
        <ele>88.9</ele>
        <time>2015-01-12T19:25:04.720Z</time>
      </trkpt>
      <trkpt lat="48.85765" lon="2.35371">
        <ele>88.4</ele>
        <time>2015-01-12T19:25:06.721Z</time>
      </trkpt>
      <trkpt lat="48.85762" lon="2.35372">
        <ele>88</ele>
        <time>2015-01-12T19:25:07.727Z</time>
      </trkpt>
      <trkpt lat="48.8576" lon="2.35384">
        <ele>87.4</ele>
        <time>2015-01-12T19:25:11.733Z</time>
      </trkpt>
      <trkpt lat="48.85759" lon="2.35387">
        <ele>87.4</ele>
        <time>2015-01-12T19:25:12.716Z</time>
      </trkpt>
      <trkpt lat="48.85753" lon="2.35396">
        <ele>87.8</ele>
        <time>2015-01-12T19:25:18.324Z</time>
      </trkpt>
      <trkpt lat="48.85751" lon="2.35399">
        <ele>87.9</ele>
        <time>2015-01-12T19:25:19.342Z</time>
      </trkpt>
      <trkpt lat="48.85747" lon="2.35407">
        <ele>87.4</ele>
        <time>2015-01-12T19:25:21.352Z</time>
      </trkpt>
      <trkpt lat="48.85744" lon="2.35412">
        <ele>87.3</ele>
        <time>2015-01-12T19:25:22.350Z</time>
      </trkpt>
      <trkpt lat="48.85738" lon="2.35421">
        <ele>86.3</ele>
        <time>2015-01-12T19:25:24.257Z</time>
      </trkpt>
      <trkpt lat="48.85735" lon="2.35425">
        <ele>85.9</ele>
        <time>2015-01-12T19:25:25.313Z</time>
      </trkpt>
      <trkpt lat="48.85731" lon="2.35435">
        <ele>85.1</ele>
        <time>2015-01-12T19:25:27.362Z</time>
      </trkpt>
      <trkpt lat="48.85729" lon="2.3544">
        <ele>84.8</ele>
        <time>2015-01-12T19:25:28.383Z</time>
      </trkpt>
      <trkpt lat="48.85724" lon="2.35449">
        <ele>83.6</ele>
        <time>2015-01-12T19:25:31.018Z</time>
      </trkpt>
      <trkpt lat="48.85721" lon="2.35452">
        <ele>82.8</ele>
        <time>2015-01-12T19:25:31.281Z</time>
      </trkpt>
      <trkpt lat="48.85715" lon="2.35459">
        <ele>81.6</ele>
        <time>2015-01-12T19:25:33.309Z</time>
      </trkpt>
      <trkpt lat="48.85713" lon="2.35462">
        <ele>81.5</ele>
        <time>2015-01-12T19:25:34.297Z</time>
      </trkpt>
      <trkpt lat="48.85708" lon="2.35473">
        <ele>82.1</ele>
        <time>2015-01-12T19:25:37.229Z</time>
      </trkpt>
      <trkpt lat="48.85705" lon="2.35477">
        <ele>82.3</ele>
        <time>2015-01-12T19:25:38.278Z</time>
      </trkpt>
      <trkpt lat="48.85702" lon="2.35486">
        <ele>82.4</ele>
        <time>2015-01-12T19:25:40.389Z</time>
      </trkpt>
      <trkpt lat="48.85699" lon="2.3549">
        <ele>82.5</ele>
        <time>2015-01-12T19:25:41.338Z</time>
      </trkpt>
      <trkpt lat="48.85695" lon="2.35501">
        <ele>82.6</ele>
        <time>2015-01-12T19:25:44.540Z</time>
      </trkpt>
      <trkpt lat="48.85694" lon="2.35505">
        <ele>82.7</ele>
        <time>2015-01-12T19:25:45.342Z</time>
      </trkpt>
      <trkpt lat="48.85696" lon="2.35518">
        <ele>83.7</ele>
        <time>2015-01-12T19:25:48.357Z</time>
      </trkpt>
      <trkpt lat="48.85698" lon="2.35523">
        <ele>84</ele>
        <time>2015-01-12T19:25:49.298Z</time>
      </trkpt>
      <trkpt lat="48.85732" lon="2.35589">
        <ele>86.6</ele>
        <time>2015-01-12T19:26:03.259Z</time>
      </trkpt>
      <trkpt lat="48.85779" lon="2.35687">
        <ele>94</ele>
        <time>2015-01-12T19:26:23.386Z</time>
      </trkpt>
      <trkpt lat="48.85782" lon="2.35698">
        <ele>93.3</ele>
        <time>2015-01-12T19:26:25.320Z</time>
      </trkpt>
      <trkpt lat="48.85782" lon="2.35701">
        <ele>93.7</ele>
        <time>2015-01-12T19:26:26.330Z</time>
      </trkpt>
      <trkpt lat="48.85784" lon="2.35711">
        <ele>92.6</ele>
        <time>2015-01-12T19:26:28.450Z</time>
      </trkpt>
      <trkpt lat="48.85785" lon="2.35715">
        <ele>91.6</ele>
        <time>2015-01-12T19:26:29.349Z</time>
      </trkpt>
      <trkpt lat="48.85784" lon="2.35724">
        <ele>90.5</ele>
        <time>2015-01-12T19:26:31.297Z</time>
      </trkpt>
      <trkpt lat="48.85783" lon="2.35731">
        <ele>89.5</ele>
        <time>2015-01-12T19:26:32.392Z</time>
      </trkpt>
      <trkpt lat="48.85783" lon="2.35744">
        <ele>87.2</ele>
        <time>2015-01-12T19:26:34.322Z</time>
      </trkpt>
      <trkpt lat="48.85785" lon="2.3575">
        <ele>86.3</ele>
        <time>2015-01-12T19:26:35.270Z</time>
      </trkpt>
      <trkpt lat="48.85789" lon="2.35762">
        <ele>85.4</ele>
        <time>2015-01-12T19:26:37.294Z</time>
      </trkpt>
      <trkpt lat="48.85792" lon="2.35767">
        <ele>85.5</ele>
        <time>2015-01-12T19:26:38.308Z</time>
      </trkpt>
      <trkpt lat="48.85798" lon="2.35778">
        <ele>86.3</ele>
        <time>2015-01-12T19:26:40.399Z</time>
      </trkpt>
      <trkpt lat="48.85801" lon="2.35782">
        <ele>86.3</ele>
        <time>2015-01-12T19:26:41.281Z</time>
      </trkpt>
      <trkpt lat="48.85808" lon="2.3579">
        <ele>88.3</ele>
        <time>2015-01-12T19:26:43.317Z</time>
      </trkpt>
      <trkpt lat="48.85811" lon="2.35794">
        <ele>87.7</ele>
        <time>2015-01-12T19:26:44.329Z</time>
      </trkpt>
      <trkpt lat="48.85833" lon="2.35795">
        <ele>81.7</ele>
        <time>2015-01-12T19:26:49.285Z</time>
      </trkpt>
      <trkpt lat="48.85837" lon="2.35792">
        <ele>80.1</ele>
        <time>2015-01-12T19:26:50.348Z</time>
      </trkpt>
      <trkpt lat="48.85841" lon="2.35789">
        <ele>78.5</ele>
        <time>2015-01-12T19:26:51.349Z</time>
      </trkpt>
      <trkpt lat="48.8584" lon="2.35801">
        <ele>80.3</ele>
        <time>2015-01-12T19:26:55.400Z</time>
      </trkpt>
      <trkpt lat="48.85837" lon="2.35805">
        <ele>80.6</ele>
        <time>2015-01-12T19:26:56.344Z</time>
      </trkpt>
      <trkpt lat="48.85832" lon="2.35811">
        <ele>81.4</ele>
        <time>2015-01-12T19:26:58.362Z</time>
      </trkpt>
      <trkpt lat="48.8583" lon="2.35813">
        <ele>82</ele>
        <time>2015-01-12T19:26:59.373Z</time>
      </trkpt>
      <trkpt lat="48.85826" lon="2.35823">
        <ele>82.9</ele>
        <time>2015-01-12T19:27:02.348Z</time>
      </trkpt>
      <trkpt lat="48.85825" lon="2.35826">
        <ele>82.6</ele>
        <time>2015-01-12T19:27:03.352Z</time>
      </trkpt>
      <trkpt lat="48.85827" lon="2.35837">
        <ele>80.6</ele>
        <time>2015-01-12T19:27:06.302Z</time>
      </trkpt>
      <trkpt lat="48.85829" lon="2.3584">
        <ele>80</ele>
        <time>2015-01-12T19:27:07.322Z</time>
      </trkpt>
      <trkpt lat="48.85835" lon="2.35848">
        <ele>79.3</ele>
        <time>2015-01-12T19:27:09.345Z</time>
      </trkpt>
      <trkpt lat="48.85839" lon="2.35853">
        <ele>78.8</ele>
        <time>2015-01-12T19:27:10.379Z</time>
      </trkpt>
      <trkpt lat="48.85845" lon="2.35859">
        <ele>78.5</ele>
        <time>2015-01-12T19:27:12.289Z</time>
      </trkpt>
      <trkpt lat="48.85848" lon="2.35863">
        <ele>78.8</ele>
        <time>2015-01-12T19:27:13.315Z</time>
      </trkpt>
      <trkpt lat="48.85852" lon="2.35868">
        <ele>81.6</ele>
        <time>2015-01-12T19:27:14.353Z</time>
      </trkpt>
      <trkpt lat="48.85855" lon="2.35873">
        <ele>84.8</ele>
        <time>2015-01-12T19:27:15.361Z</time>
      </trkpt>
      <trkpt lat="48.85857" lon="2.35883">
        <ele>87.4</ele>
        <time>2015-01-12T19:27:17.312Z</time>
      </trkpt>
      <trkpt lat="48.85857" lon="2.35887">
        <ele>87.2</ele>
        <time>2015-01-12T19:27:18.326Z</time>
      </trkpt>
      <trkpt lat="48.85852" lon="2.35897">
        <ele>86</ele>
        <time>2015-01-12T19:27:21.366Z</time>
      </trkpt>
      <trkpt lat="48.8585" lon="2.359">
        <ele>85.2</ele>
        <time>2015-01-12T19:27:22.388Z</time>
      </trkpt>
      <trkpt lat="48.85845" lon="2.35911">
        <ele>85.3</ele>
        <time>2015-01-12T19:27:25.337Z</time>
      </trkpt>
      <trkpt lat="48.85843" lon="2.35914">
        <ele>85.9</ele>
        <time>2015-01-12T19:27:26.353Z</time>
      </trkpt>
      <trkpt lat="48.85836" lon="2.35917">
        <ele>87.6</ele>
        <time>2015-01-12T19:27:30.354Z</time>
      </trkpt>
      <trkpt lat="48.85833" lon="2.35917">
        <ele>87.8</ele>
        <time>2015-01-12T19:27:32.376Z</time>
      </trkpt>
      <trkpt lat="48.85825" lon="2.35923">
        <ele>87.9</ele>
        <time>2015-01-12T19:27:35.314Z</time>
      </trkpt>
      <trkpt lat="48.85823" lon="2.35927">
        <ele>87.8</ele>
        <time>2015-01-12T19:27:36.434Z</time>
      </trkpt>
      <trkpt lat="48.85817" lon="2.35934">
        <ele>87.8</ele>
        <time>2015-01-12T19:27:38.390Z</time>
      </trkpt>
      <trkpt lat="48.85814" lon="2.35939">
        <ele>87.8</ele>
        <time>2015-01-12T19:27:39.301Z</time>
      </trkpt>
      <trkpt lat="48.8581" lon="2.35944">
        <ele>87.7</ele>
        <time>2015-01-12T19:27:40.266Z</time>
      </trkpt>
      <trkpt lat="48.85807" lon="2.35949">
        <ele>87.7</ele>
        <time>2015-01-12T19:27:41.304Z</time>
      </trkpt>
      <trkpt lat="48.85804" lon="2.35954">
        <ele>87.7</ele>
        <time>2015-01-12T19:27:42.318Z</time>
      </trkpt>
      <trkpt lat="48.85801" lon="2.35959">
        <ele>87.7</ele>
        <time>2015-01-12T19:27:43.336Z</time>
      </trkpt>
      <trkpt lat="48.85796" lon="2.35969">
        <ele>88</ele>
        <time>2015-01-12T19:27:45.367Z</time>
      </trkpt>
      <trkpt lat="48.85795" lon="2.35972">
        <ele>88</ele>
        <time>2015-01-12T19:27:46.369Z</time>
      </trkpt>
      <trkpt lat="48.8579" lon="2.35981">
        <ele>86.9</ele>
        <time>2015-01-12T19:27:48.267Z</time>
      </trkpt>
      <trkpt lat="48.85788" lon="2.35986">
        <ele>86.7</ele>
        <time>2015-01-12T19:27:49.296Z</time>
      </trkpt>
      <trkpt lat="48.85785" lon="2.35996">
        <ele>86.6</ele>
        <time>2015-01-12T19:27:51.315Z</time>
      </trkpt>
      <trkpt lat="48.85783" lon="2.36002">
        <ele>86.5</ele>
        <time>2015-01-12T19:27:52.341Z</time>
      </trkpt>
      <trkpt lat="48.85778" lon="2.36013">
        <ele>86.5</ele>
        <time>2015-01-12T19:27:54.336Z</time>
      </trkpt>
      <trkpt lat="48.85776" lon="2.36019">
        <ele>86.4</ele>
        <time>2015-01-12T19:27:55.366Z</time>
      </trkpt>
      <trkpt lat="48.85773" lon="2.36029">
        <ele>86.5</ele>
        <time>2015-01-12T19:27:57.309Z</time>
      </trkpt>
      <trkpt lat="48.85771" lon="2.36034">
        <ele>86.6</ele>
        <time>2015-01-12T19:27:58.335Z</time>
      </trkpt>
      <trkpt lat="48.85768" lon="2.36042">
        <ele>86.1</ele>
        <time>2015-01-12T19:28:00.348Z</time>
      </trkpt>
      <trkpt lat="48.85766" lon="2.36046">
        <ele>85.9</ele>
        <time>2015-01-12T19:28:01.362Z</time>
      </trkpt>
      <trkpt lat="48.85761" lon="2.36053">
        <ele>85.7</ele>
        <time>2015-01-12T19:28:03.300Z</time>
      </trkpt>
      <trkpt lat="48.85757" lon="2.36056">
        <ele>85.7</ele>
        <time>2015-01-12T19:28:04.313Z</time>
      </trkpt>
      <trkpt lat="48.85753" lon="2.36061">
        <ele>85.7</ele>
        <time>2015-01-12T19:28:06.180Z</time>
      </trkpt>
      <trkpt lat="48.85749" lon="2.36066">
        <ele>85.7</ele>
        <time>2015-01-12T19:28:06.367Z</time>
      </trkpt>
      <trkpt lat="48.85746" lon="2.36071">
        <ele>85.7</ele>
        <time>2015-01-12T19:28:07.369Z</time>
      </trkpt>
      <trkpt lat="48.85743" lon="2.36078">
        <ele>85.6</ele>
        <time>2015-01-12T19:28:08.393Z</time>
      </trkpt>
      <trkpt lat="48.85741" lon="2.36084">
        <ele>85.6</ele>
        <time>2015-01-12T19:28:09.296Z</time>
      </trkpt>
      <trkpt lat="48.85738" lon="2.36092">
        <ele>85.3</ele>
        <time>2015-01-12T19:28:10.299Z</time>
      </trkpt>
      <trkpt lat="48.85736" lon="2.36098">
        <ele>85.2</ele>
        <time>2015-01-12T19:28:11.419Z</time>
      </trkpt>
      <trkpt lat="48.85733" lon="2.36105">
        <ele>85.2</ele>
        <time>2015-01-12T19:28:12.296Z</time>
      </trkpt>
      <trkpt lat="48.85731" lon="2.36111">
        <ele>85.3</ele>
        <time>2015-01-12T19:28:13.318Z</time>
      </trkpt>
      <trkpt lat="48.85729" lon="2.36117">
        <ele>85.2</ele>
        <time>2015-01-12T19:28:14.355Z</time>
      </trkpt>
      <trkpt lat="48.85724" lon="2.36128">
        <ele>85</ele>
        <time>2015-01-12T19:28:16.267Z</time>
      </trkpt>
      <trkpt lat="48.85722" lon="2.36133">
        <ele>84.8</ele>
        <time>2015-01-12T19:28:17.269Z</time>
      </trkpt>
      <trkpt lat="48.85725" lon="2.36141">
        <ele>84.7</ele>
        <time>2015-01-12T19:28:18.287Z</time>
      </trkpt>
      <trkpt lat="48.85723" lon="2.36151">
        <ele>84.9</ele>
        <time>2015-01-12T19:28:20.333Z</time>
      </trkpt>
      <trkpt lat="48.8572" lon="2.3616">
        <ele>85.2</ele>
        <time>2015-01-12T19:28:22.342Z</time>
      </trkpt>
      <trkpt lat="48.85719" lon="2.36164">
        <ele>85.3</ele>
        <time>2015-01-12T19:28:23.357Z</time>
      </trkpt>
      <trkpt lat="48.85716" lon="2.36176">
        <ele>85.9</ele>
        <time>2015-01-12T19:28:26.309Z</time>
      </trkpt>
      <trkpt lat="48.85714" lon="2.36191">
        <ele>86.7</ele>
        <time>2015-01-12T19:28:29.291Z</time>
      </trkpt>
      <trkpt lat="48.85711" lon="2.36203">
        <ele>88.9</ele>
        <time>2015-01-12T19:28:31.307Z</time>
      </trkpt>
      <trkpt lat="48.8571" lon="2.36209">
        <ele>89.1</ele>
        <time>2015-01-12T19:28:32.314Z</time>
      </trkpt>
      <trkpt lat="48.85706" lon="2.36218">
        <ele>88.5</ele>
        <time>2015-01-12T19:28:34.360Z</time>
      </trkpt>
      <trkpt lat="48.85706" lon="2.36222">
        <ele>88.5</ele>
        <time>2015-01-12T19:28:35.268Z</time>
      </trkpt>
      <trkpt lat="48.85705" lon="2.36226">
        <ele>88.6</ele>
        <time>2015-01-12T19:28:36.437Z</time>
      </trkpt>
      <trkpt lat="48.85696" lon="2.36252">
        <ele>88.1</ele>
        <time>2015-01-12T19:28:41.292Z</time>
      </trkpt>
      <trkpt lat="48.85692" lon="2.36264">
        <ele>87.8</ele>
        <time>2015-01-12T19:28:44.319Z</time>
      </trkpt>
      <trkpt lat="48.85691" lon="2.36268">
        <ele>87.6</ele>
        <time>2015-01-12T19:28:45.354Z</time>
      </trkpt>
      <trkpt lat="48.8569" lon="2.36281">
        <ele>87.4</ele>
        <time>2015-01-12T19:28:47.322Z</time>
      </trkpt>
      <trkpt lat="48.85689" lon="2.36289">
        <ele>87.4</ele>
        <time>2015-01-12T19:28:48.379Z</time>
      </trkpt>
      <trkpt lat="48.85689" lon="2.36302">
        <ele>87.2</ele>
        <time>2015-01-12T19:28:50.307Z</time>
      </trkpt>
      <trkpt lat="48.85687" lon="2.36308">
        <ele>87</ele>
        <time>2015-01-12T19:28:51.351Z</time>
      </trkpt>
      <trkpt lat="48.85682" lon="2.36318">
        <ele>86.5</ele>
        <time>2015-01-12T19:28:53.281Z</time>
      </trkpt>
      <trkpt lat="48.8568" lon="2.36325">
        <ele>86.3</ele>
        <time>2015-01-12T19:28:54.313Z</time>
      </trkpt>
      <trkpt lat="48.85678" lon="2.36331">
        <ele>86.1</ele>
        <time>2015-01-12T19:28:55.381Z</time>
      </trkpt>
      <trkpt lat="48.85675" lon="2.36338">
        <ele>86.1</ele>
        <time>2015-01-12T19:28:56.401Z</time>
      </trkpt>
      <trkpt lat="48.85673" lon="2.36345">
        <ele>86.1</ele>
        <time>2015-01-12T19:28:57.361Z</time>
      </trkpt>
      <trkpt lat="48.85672" lon="2.36351">
        <ele>86</ele>
        <time>2015-01-12T19:28:58.295Z</time>
      </trkpt>
      <trkpt lat="48.8567" lon="2.36363">
        <ele>85.9</ele>
        <time>2015-01-12T19:29:00.444Z</time>
      </trkpt>
      <trkpt lat="48.85668" lon="2.36368">
        <ele>85.8</ele>
        <time>2015-01-12T19:29:01.259Z</time>
      </trkpt>
      <trkpt lat="48.85665" lon="2.3638">
        <ele>85.6</ele>
        <time>2015-01-12T19:29:03.287Z</time>
      </trkpt>
      <trkpt lat="48.85665" lon="2.36386">
        <ele>85.5</ele>
        <time>2015-01-12T19:29:04.288Z</time>
      </trkpt>
      <trkpt lat="48.85665" lon="2.36398">
        <ele>85.1</ele>
        <time>2015-01-12T19:29:05.341Z</time>
      </trkpt>
      <trkpt lat="48.85663" lon="2.36406">
        <ele>86.4</ele>
        <time>2015-01-12T19:29:06.347Z</time>
      </trkpt>
      <trkpt lat="48.85657" lon="2.36413">
        <ele>91.1</ele>
        <time>2015-01-12T19:29:09.376Z</time>
      </trkpt>
      <trkpt lat="48.85656" lon="2.36415">
        <ele>91.8</ele>
        <time>2015-01-12T19:29:10.285Z</time>
      </trkpt>
      <trkpt lat="48.85661" lon="2.36425">
        <ele>92.4</ele>
        <time>2015-01-12T19:29:16.299Z</time>
      </trkpt>
      <trkpt lat="48.85662" lon="2.36427">
        <ele>92.2</ele>
        <time>2015-01-12T19:29:17.301Z</time>
      </trkpt>
      <trkpt lat="48.85667" lon="2.36432">
        <ele>92.2</ele>
        <time>2015-01-12T19:29:20.373Z</time>
      </trkpt>
      <trkpt lat="48.8567" lon="2.36433">
        <ele>92</ele>
        <time>2015-01-12T19:29:21.400Z</time>
      </trkpt>
      <trkpt lat="48.85677" lon="2.36436">
        <ele>92.3</ele>
        <time>2015-01-12T19:29:23.298Z</time>
      </trkpt>
      <trkpt lat="48.85682" lon="2.36437">
        <ele>92.5</ele>
        <time>2015-01-12T19:29:24.319Z</time>
      </trkpt>
      <trkpt lat="48.85686" lon="2.36438">
        <ele>92.7</ele>
        <time>2015-01-12T19:29:25.331Z</time>
      </trkpt>
      <trkpt lat="48.8569" lon="2.36438">
        <ele>92.9</ele>
        <time>2015-01-12T19:29:26.336Z</time>
      </trkpt>
      <trkpt lat="48.85698" lon="2.36441">
        <ele>93.5</ele>
        <time>2015-01-12T19:29:28.317Z</time>
      </trkpt>
      <trkpt lat="48.85701" lon="2.36442">
        <ele>93.8</ele>
        <time>2015-01-12T19:29:29.311Z</time>
      </trkpt>
      <trkpt lat="48.85708" lon="2.36445">
        <ele>93.9</ele>
        <time>2015-01-12T19:29:31.388Z</time>
      </trkpt>
      <trkpt lat="48.85713" lon="2.36447">
        <ele>94</ele>
        <time>2015-01-12T19:29:32.485Z</time>
      </trkpt>
      <trkpt lat="48.85717" lon="2.36448">
        <ele>94</ele>
        <time>2015-01-12T19:29:33.327Z</time>
      </trkpt>
      <trkpt lat="48.85722" lon="2.36449">
        <ele>94.1</ele>
        <time>2015-01-12T19:29:34.339Z</time>
      </trkpt>
      <trkpt lat="48.85728" lon="2.36451">
        <ele>94.1</ele>
        <time>2015-01-12T19:29:35.348Z</time>
      </trkpt>
      <trkpt lat="48.85733" lon="2.36451">
        <ele>94.1</ele>
        <time>2015-01-12T19:29:36.358Z</time>
      </trkpt>
      <trkpt lat="48.85741" lon="2.36455">
        <ele>93.9</ele>
        <time>2015-01-12T19:29:38.389Z</time>
      </trkpt>
      <trkpt lat="48.85746" lon="2.36461">
        <ele>93.4</ele>
        <time>2015-01-12T19:29:39.275Z</time>
      </trkpt>
      <trkpt lat="48.85749" lon="2.36472">
        <ele>93.4</ele>
        <time>2015-01-12T19:29:42.320Z</time>
      </trkpt>
      <trkpt lat="48.85748" lon="2.36477">
        <ele>93.4</ele>
        <time>2015-01-12T19:29:43.307Z</time>
      </trkpt>
      <trkpt lat="48.85747" lon="2.36489">
        <ele>93.5</ele>
        <time>2015-01-12T19:29:45.347Z</time>
      </trkpt>
      <trkpt lat="48.85746" lon="2.36496">
        <ele>93.8</ele>
        <time>2015-01-12T19:29:46.263Z</time>
      </trkpt>
      <trkpt lat="48.85746" lon="2.36507">
        <ele>93.8</ele>
        <time>2015-01-12T19:29:48.300Z</time>
      </trkpt>
      <trkpt lat="48.85746" lon="2.36512">
        <ele>93.7</ele>
        <time>2015-01-12T19:29:49.363Z</time>
      </trkpt>
      <trkpt lat="48.85746" lon="2.36522">
        <ele>93.4</ele>
        <time>2015-01-12T19:29:51.364Z</time>
      </trkpt>
      <trkpt lat="48.85745" lon="2.36529">
        <ele>93.6</ele>
        <time>2015-01-12T19:29:52.387Z</time>
      </trkpt>
      <trkpt lat="48.85743" lon="2.36539">
        <ele>93.7</ele>
        <time>2015-01-12T19:29:54.302Z</time>
      </trkpt>
      <trkpt lat="48.85742" lon="2.36544">
        <ele>93.8</ele>
        <time>2015-01-12T19:29:55.309Z</time>
      </trkpt>
      <trkpt lat="48.85739" lon="2.36555">
        <ele>93.8</ele>
        <time>2015-01-12T19:29:57.337Z</time>
      </trkpt>
      <trkpt lat="48.85736" lon="2.3656">
        <ele>93.5</ele>
        <time>2015-01-12T19:29:58.355Z</time>
      </trkpt>
      <trkpt lat="48.85733" lon="2.3657">
        <ele>93.2</ele>
        <time>2015-01-12T19:30:00.276Z</time>
      </trkpt>
      <trkpt lat="48.85732" lon="2.36575">
        <ele>92.8</ele>
        <time>2015-01-12T19:30:01.339Z</time>
      </trkpt>
      <trkpt lat="48.85729" lon="2.3658">
        <ele>92.6</ele>
        <time>2015-01-12T19:30:02.401Z</time>
      </trkpt>
      <trkpt lat="48.85725" lon="2.36586">
        <ele>92.1</ele>
        <time>2015-01-12T19:30:03.369Z</time>
      </trkpt>
      <trkpt lat="48.85722" lon="2.36597">
        <ele>92.2</ele>
        <time>2015-01-12T19:30:05.302Z</time>
      </trkpt>
      <trkpt lat="48.85722" lon="2.36605">
        <ele>92.4</ele>
        <time>2015-01-12T19:30:06.377Z</time>
      </trkpt>
      <trkpt lat="48.85721" lon="2.36617">
        <ele>92.4</ele>
        <time>2015-01-12T19:30:08.317Z</time>
      </trkpt>
      <trkpt lat="48.85721" lon="2.36624">
        <ele>92.2</ele>
        <time>2015-01-12T19:30:09.265Z</time>
      </trkpt>
      <trkpt lat="48.8572" lon="2.36631">
        <ele>92</ele>
        <time>2015-01-12T19:30:10.353Z</time>
      </trkpt>
      <trkpt lat="48.8572" lon="2.36638">
        <ele>92</ele>
        <time>2015-01-12T19:30:11.416Z</time>
      </trkpt>
      <trkpt lat="48.8572" lon="2.36647">
        <ele>92.2</ele>
        <time>2015-01-12T19:30:12.263Z</time>
      </trkpt>
      <trkpt lat="48.8572" lon="2.36653">
        <ele>92.1</ele>
        <time>2015-01-12T19:30:13.269Z</time>
      </trkpt>
      <trkpt lat="48.85717" lon="2.36663">
        <ele>92.4</ele>
        <time>2015-01-12T19:30:15.331Z</time>
      </trkpt>
      <trkpt lat="48.85715" lon="2.36668">
        <ele>92.4</ele>
        <time>2015-01-12T19:30:16.346Z</time>
      </trkpt>
      <trkpt lat="48.85711" lon="2.36677">
        <ele>93</ele>
        <time>2015-01-12T19:30:18.296Z</time>
      </trkpt>
      <trkpt lat="48.85707" lon="2.36683">
        <ele>92.6</ele>
        <time>2015-01-12T19:30:19.311Z</time>
      </trkpt>
      <trkpt lat="48.85702" lon="2.36688">
        <ele>92.6</ele>
        <time>2015-01-12T19:30:20.332Z</time>
      </trkpt>
      <trkpt lat="48.857" lon="2.36693">
        <ele>92.4</ele>
        <time>2015-01-12T19:30:21.343Z</time>
      </trkpt>
      <trkpt lat="48.85695" lon="2.36703">
        <ele>92.5</ele>
        <time>2015-01-12T19:30:24.306Z</time>
      </trkpt>
      <trkpt lat="48.85693" lon="2.36705">
        <ele>92.6</ele>
        <time>2015-01-12T19:30:25.336Z</time>
      </trkpt>
      <trkpt lat="48.85702" lon="2.36701">
        <ele>92.9</ele>
        <time>2015-01-12T19:30:32.488Z</time>
      </trkpt>
      <trkpt lat="48.85705" lon="2.36698">
        <ele>92.8</ele>
        <time>2015-01-12T19:30:33.274Z</time>
      </trkpt>
      <trkpt lat="48.85712" lon="2.36694">
        <ele>92.6</ele>
        <time>2015-01-12T19:30:35.336Z</time>
      </trkpt>
      <trkpt lat="48.85716" lon="2.36693">
        <ele>92.6</ele>
        <time>2015-01-12T19:30:36.363Z</time>
      </trkpt>
      <trkpt lat="48.85721" lon="2.36692">
        <ele>92.7</ele>
        <time>2015-01-12T19:30:37.294Z</time>
      </trkpt>
      <trkpt lat="48.85727" lon="2.36692">
        <ele>92.8</ele>
        <time>2015-01-12T19:30:38.333Z</time>
      </trkpt>
      <trkpt lat="48.85737" lon="2.36696">
        <ele>93.9</ele>
        <time>2015-01-12T19:30:39.342Z</time>
      </trkpt>
      <trkpt lat="48.85745" lon="2.36698">
        <ele>94.9</ele>
        <time>2015-01-12T19:30:40.368Z</time>
      </trkpt>
      <trkpt lat="48.8575" lon="2.36699">
        <ele>95</ele>
        <time>2015-01-12T19:30:41.380Z</time>
      </trkpt>
      <trkpt lat="48.85754" lon="2.36701">
        <ele>95</ele>
        <time>2015-01-12T19:30:42.383Z</time>
      </trkpt>
      <trkpt lat="48.8576" lon="2.36704">
        <ele>94.9</ele>
        <time>2015-01-12T19:30:43.304Z</time>
      </trkpt>
      <trkpt lat="48.85764" lon="2.36706">
        <ele>94.9</ele>
        <time>2015-01-12T19:30:44.428Z</time>
      </trkpt>
      <trkpt lat="48.85769" lon="2.36709">
        <ele>95</ele>
        <time>2015-01-12T19:30:45.296Z</time>
      </trkpt>
      <trkpt lat="48.85777" lon="2.3671">
        <ele>95.2</ele>
        <time>2015-01-12T19:30:47.305Z</time>
      </trkpt>
      <trkpt lat="48.8578" lon="2.36709">
        <ele>95.3</ele>
        <time>2015-01-12T19:30:48.327Z</time>
      </trkpt>
      <trkpt lat="48.85789" lon="2.36713">
        <ele>95.5</ele>
        <time>2015-01-12T19:30:51.296Z</time>
      </trkpt>
      <trkpt lat="48.85792" lon="2.36713">
        <ele>95.6</ele>
        <time>2015-01-12T19:30:52.309Z</time>
      </trkpt>
      <trkpt lat="48.85799" lon="2.36716">
        <ele>95.8</ele>
        <time>2015-01-12T19:30:54.352Z</time>
      </trkpt>
      <trkpt lat="48.85802" lon="2.36718">
        <ele>95.9</ele>
        <time>2015-01-12T19:30:55.364Z</time>
      </trkpt>
      <trkpt lat="48.85809" lon="2.36721">
        <ele>96.2</ele>
        <time>2015-01-12T19:30:57.296Z</time>
      </trkpt>
      <trkpt lat="48.85813" lon="2.36723">
        <ele>96.4</ele>
        <time>2015-01-12T19:30:58.332Z</time>
      </trkpt>
      <trkpt lat="48.85817" lon="2.36725">
        <ele>96.3</ele>
        <time>2015-01-12T19:30:59.367Z</time>
      </trkpt>
      <trkpt lat="48.85822" lon="2.36729">
        <ele>96.2</ele>
        <time>2015-01-12T19:31:00.393Z</time>
      </trkpt>
      <trkpt lat="48.85827" lon="2.36735">
        <ele>95.8</ele>
        <time>2015-01-12T19:31:01.273Z</time>
      </trkpt>
      <trkpt lat="48.85831" lon="2.3674">
        <ele>95.7</ele>
        <time>2015-01-12T19:31:02.339Z</time>
      </trkpt>
      <trkpt lat="48.85835" lon="2.36744">
        <ele>95.7</ele>
        <time>2015-01-12T19:31:03.362Z</time>
      </trkpt>
      <trkpt lat="48.85838" lon="2.36748">
        <ele>95.5</ele>
        <time>2015-01-12T19:31:04.359Z</time>
      </trkpt>
      <trkpt lat="48.85843" lon="2.36751">
        <ele>95.5</ele>
        <time>2015-01-12T19:31:05.382Z</time>
      </trkpt>
      <trkpt lat="48.8585" lon="2.36754">
        <ele>95.1</ele>
        <time>2015-01-12T19:31:06.296Z</time>
      </trkpt>
      <trkpt lat="48.85856" lon="2.36763">
        <ele>95.1</ele>
        <time>2015-01-12T19:31:10.746Z</time>
      </trkpt>
      <trkpt lat="48.85857" lon="2.36766">
        <ele>95.3</ele>
        <time>2015-01-12T19:31:11.273Z</time>
      </trkpt>
      <trkpt lat="48.8586" lon="2.36775">
        <ele>103.9</ele>
        <time>2015-01-12T19:31:35.382Z</time>
      </trkpt>
      <trkpt lat="48.8586" lon="2.36782">
        <ele>106</ele>
        <time>2015-01-12T19:31:36.291Z</time>
      </trkpt>
      <trkpt lat="48.85859" lon="2.36783">
        <ele>106.4</ele>
        <time>2015-01-12T19:31:37.969Z</time>
      </trkpt>
      <trkpt lat="48.85859" lon="2.36783">
        <ele>106.7</ele>
        <time>2015-01-12T19:31:38.386Z</time>
      </trkpt>
      <trkpt lat="48.85859" lon="2.36783">
        <ele>107.3</ele>
        <time>2015-01-12T19:31:43.295Z</time>
      </trkpt>
      <trkpt lat="48.85861" lon="2.36787">
        <ele>108.4</ele>
        <time>2015-01-12T19:31:44.411Z</time>
      </trkpt>
      <trkpt lat="48.85859" lon="2.36799">
        <ele>109.2</ele>
        <time>2015-01-12T19:31:50.283Z</time>
      </trkpt>
      <trkpt lat="48.85859" lon="2.36801">
        <ele>109.3</ele>
        <time>2015-01-12T19:31:50.381Z</time>
      </trkpt>
      <trkpt lat="48.85863" lon="2.36813">
        <ele>108.9</ele>
        <time>2015-01-12T19:31:59.307Z</time>
      </trkpt>
      <trkpt lat="48.85864" lon="2.36815">
        <ele>108.8</ele>
        <time>2015-01-12T19:32:00.312Z</time>
      </trkpt>
      <trkpt lat="48.85867" lon="2.36826">
        <ele>107.6</ele>
        <time>2015-01-12T19:32:05.748Z</time>
      </trkpt>
      <trkpt lat="48.85867" lon="2.36828">
        <ele>107.3</ele>
        <time>2015-01-12T19:32:06.364Z</time>
      </trkpt>
      <trkpt lat="48.85867" lon="2.3683">
        <ele>107.1</ele>
        <time>2015-01-12T19:32:08.394Z</time>
      </trkpt>
      <trkpt lat="48.85867" lon="2.3683">
        <ele>107</ele>
        <time>2015-01-12T19:32:09.433Z</time>
      </trkpt>
      <trkpt lat="48.85867" lon="2.36831">
        <ele>107.2</ele>
        <time>2015-01-12T19:32:10.815Z</time>
      </trkpt>
      <trkpt lat="48.85865" lon="2.36834">
        <ele>108.7</ele>
        <time>2015-01-12T19:32:11.316Z</time>
      </trkpt>
      <trkpt lat="48.85865" lon="2.36835">
        <ele>109</ele>
        <time>2015-01-12T19:32:12.336Z</time>
      </trkpt>
      <trkpt lat="48.85865" lon="2.36835">
        <ele>109.2</ele>
        <time>2015-01-12T19:32:13.363Z</time>
      </trkpt>
      <trkpt lat="48.85864" lon="2.36833">
        <ele>109.2</ele>
        <time>2015-01-12T19:32:16.294Z</time>
      </trkpt>
      <trkpt lat="48.85865" lon="2.36833">
        <ele>109.3</ele>
        <time>2015-01-12T19:32:17.304Z</time>
      </trkpt>
      <trkpt lat="48.85865" lon="2.36834">
        <ele>109.4</ele>
        <time>2015-01-12T19:32:21.001Z</time>
      </trkpt>
      <trkpt lat="48.85865" lon="2.36834">
        <ele>109.5</ele>
        <time>2015-01-12T19:32:21.280Z</time>
      </trkpt>
      <trkpt lat="48.85863" lon="2.36832">
        <ele>109.1</ele>
        <time>2015-01-12T19:32:24.352Z</time>
      </trkpt>
      <trkpt lat="48.85862" lon="2.36834">
        <ele>109</ele>
        <time>2015-01-12T19:32:25.371Z</time>
      </trkpt>
      <trkpt lat="48.85862" lon="2.36834">
        <ele>109</ele>
        <time>2015-01-12T19:32:26.026Z</time>
      </trkpt>
      <trkpt lat="48.85862" lon="2.36835">
        <ele>109</ele>
        <time>2015-01-12T19:32:26.408Z</time>
      </trkpt>
      <trkpt lat="48.85864" lon="2.36836">
        <ele>109.8</ele>
        <time>2015-01-12T19:32:30.333Z</time>
      </trkpt>
      <trkpt lat="48.85864" lon="2.36836">
        <ele>109.7</ele>
        <time>2015-01-12T19:32:31.339Z</time>
      </trkpt>
      <trkpt lat="48.85863" lon="2.36836">
        <ele>109.5</ele>
        <time>2015-01-12T19:32:35.295Z</time>
      </trkpt>
      <trkpt lat="48.85863" lon="2.36836">
        <ele>109.3</ele>
        <time>2015-01-12T19:32:36.269Z</time>
      </trkpt>
      <trkpt lat="48.85856" lon="2.36843">
        <ele>110.2</ele>
        <time>2015-01-12T19:32:49.756Z</time>
      </trkpt>
      <trkpt lat="48.85855" lon="2.36844">
        <ele>110.1</ele>
        <time>2015-01-12T19:32:50.691Z</time>
      </trkpt>
      <trkpt lat="48.85852" lon="2.36845">
        <ele>109.5</ele>
        <time>2015-01-12T19:32:57.768Z</time>
      </trkpt>
      <trkpt lat="48.85852" lon="2.36845">
        <ele>109.5</ele>
        <time>2015-01-12T19:32:58.760Z</time>
      </trkpt>
      <trkpt lat="48.85852" lon="2.36845">
        <ele>109.5</ele>
        <time>2015-01-12T19:32:59.681Z</time>
      </trkpt>
      <trkpt lat="48.85852" lon="2.36844">
        <ele>109.5</ele>
        <time>2015-01-12T19:33:00.753Z</time>
      </trkpt>
      <trkpt lat="48.85852" lon="2.36844">
        <ele>109.4</ele>
        <time>2015-01-12T19:33:01.778Z</time>
      </trkpt>
      <trkpt lat="48.85852" lon="2.36844">
        <ele>109.5</ele>
        <time>2015-01-12T19:33:02.660Z</time>
      </trkpt>
      <trkpt lat="48.85853" lon="2.36845">
        <ele>109.8</ele>
        <time>2015-01-12T19:33:03.682Z</time>
      </trkpt>
      <trkpt lat="48.85849" lon="2.36856">
        <ele>109.9</ele>
        <time>2015-01-12T19:33:11.711Z</time>
      </trkpt>
      <trkpt lat="48.85848" lon="2.36858">
        <ele>110</ele>
        <time>2015-01-12T19:33:12.736Z</time>
      </trkpt>
      <trkpt lat="48.8584" lon="2.3686">
        <ele>109.9</ele>
        <time>2015-01-12T19:33:15.647Z</time>
      </trkpt>
      <trkpt lat="48.85836" lon="2.3686">
        <ele>109.8</ele>
        <time>2015-01-12T19:33:16.657Z</time>
      </trkpt>
      <trkpt lat="48.8583" lon="2.36858">
        <ele>109.7</ele>
        <time>2015-01-12T19:33:18.671Z</time>
      </trkpt>
      <trkpt lat="48.85827" lon="2.36857">
        <ele>109.6</ele>
        <time>2015-01-12T19:33:19.680Z</time>
      </trkpt>
      <trkpt lat="48.8582" lon="2.36857">
        <ele>109.3</ele>
        <time>2015-01-12T19:33:21.730Z</time>
      </trkpt>
      <trkpt lat="48.85817" lon="2.36856">
        <ele>109</ele>
        <time>2015-01-12T19:33:22.738Z</time>
      </trkpt>
      <trkpt lat="48.85809" lon="2.36856">
        <ele>108.7</ele>
        <time>2015-01-12T19:33:26.074Z</time>
      </trkpt>
      <trkpt lat="48.85807" lon="2.36855">
        <ele>108.6</ele>
        <time>2015-01-12T19:33:26.653Z</time>
      </trkpt>
      <trkpt lat="48.85801" lon="2.36855">
        <ele>108.4</ele>
        <time>2015-01-12T19:33:28.698Z</time>
      </trkpt>
      <trkpt lat="48.85796" lon="2.36856">
        <ele>108.5</ele>
        <time>2015-01-12T19:33:29.692Z</time>
      </trkpt>
      <trkpt lat="48.85791" lon="2.36858">
        <ele>108.8</ele>
        <time>2015-01-12T19:33:31.248Z</time>
      </trkpt>
      <trkpt lat="48.85786" lon="2.36859">
        <ele>108.8</ele>
        <time>2015-01-12T19:33:31.768Z</time>
      </trkpt>
      <trkpt lat="48.85781" lon="2.36861">
        <ele>108.7</ele>
        <time>2015-01-12T19:33:32.672Z</time>
      </trkpt>
      <trkpt lat="48.85777" lon="2.36862">
        <ele>108.7</ele>
        <time>2015-01-12T19:33:33.691Z</time>
      </trkpt>
      <trkpt lat="48.85772" lon="2.36863">
        <ele>108.6</ele>
        <time>2015-01-12T19:33:34.699Z</time>
      </trkpt>
      <trkpt lat="48.85767" lon="2.36865">
        <ele>108</ele>
        <time>2015-01-12T19:33:35.730Z</time>
      </trkpt>
      <trkpt lat="48.85759" lon="2.36866">
        <ele>107.7</ele>
        <time>2015-01-12T19:33:36.655Z</time>
      </trkpt>
      <trkpt lat="48.8575" lon="2.36869">
        <ele>107</ele>
        <time>2015-01-12T19:33:37.664Z</time>
      </trkpt>
      <trkpt lat="48.85741" lon="2.36873">
        <ele>106.1</ele>
        <time>2015-01-12T19:33:39.683Z</time>
      </trkpt>
      <trkpt lat="48.85737" lon="2.36874">
        <ele>105.9</ele>
        <time>2015-01-12T19:33:40.635Z</time>
      </trkpt>
      <trkpt lat="48.85729" lon="2.36877">
        <ele>105.3</ele>
        <time>2015-01-12T19:33:44.747Z</time>
      </trkpt>
      <trkpt lat="48.85727" lon="2.36878">
        <ele>105.3</ele>
        <time>2015-01-12T19:33:45.763Z</time>
      </trkpt>
      <trkpt lat="48.8572" lon="2.36881">
        <ele>105.8</ele>
        <time>2015-01-12T19:33:49.471Z</time>
      </trkpt>
      <trkpt lat="48.85717" lon="2.36884">
        <ele>105.9</ele>
        <time>2015-01-12T19:33:49.854Z</time>
      </trkpt>
      <trkpt lat="48.8571" lon="2.36886">
        <ele>105.8</ele>
        <time>2015-01-12T19:33:52.785Z</time>
      </trkpt>
      <trkpt lat="48.85706" lon="2.36888">
        <ele>105.7</ele>
        <time>2015-01-12T19:33:53.754Z</time>
      </trkpt>
      <trkpt lat="48.85702" lon="2.3689">
        <ele>105.6</ele>
        <time>2015-01-12T19:33:54.663Z</time>
      </trkpt>
      <trkpt lat="48.85698" lon="2.36893">
        <ele>105.7</ele>
        <time>2015-01-12T19:33:55.715Z</time>
      </trkpt>
      <trkpt lat="48.85693" lon="2.36894">
        <ele>105.2</ele>
        <time>2015-01-12T19:33:56.721Z</time>
      </trkpt>
      <trkpt lat="48.85687" lon="2.36897">
        <ele>104.8</ele>
        <time>2015-01-12T19:33:57.726Z</time>
      </trkpt>
      <trkpt lat="48.85683" lon="2.36898">
        <ele>104.7</ele>
        <time>2015-01-12T19:33:58.751Z</time>
      </trkpt>
      <trkpt lat="48.85678" lon="2.36899">
        <ele>104.5</ele>
        <time>2015-01-12T19:33:59.749Z</time>
      </trkpt>
      <trkpt lat="48.85674" lon="2.369">
        <ele>104.3</ele>
        <time>2015-01-12T19:34:00.665Z</time>
      </trkpt>
      <trkpt lat="48.85669" lon="2.36902">
        <ele>104.1</ele>
        <time>2015-01-12T19:34:01.699Z</time>
      </trkpt>
      <trkpt lat="48.85662" lon="2.36903">
        <ele>104</ele>
        <time>2015-01-12T19:34:04.616Z</time>
      </trkpt>
      <trkpt lat="48.85658" lon="2.36904">
        <ele>104</ele>
        <time>2015-01-12T19:34:04.750Z</time>
      </trkpt>
      <trkpt lat="48.85651" lon="2.36907">
        <ele>103.7</ele>
        <time>2015-01-12T19:34:06.719Z</time>
      </trkpt>
      <trkpt lat="48.85646" lon="2.36909">
        <ele>103.3</ele>
        <time>2015-01-12T19:34:07.709Z</time>
      </trkpt>
      <trkpt lat="48.85641" lon="2.36914">
        <ele>102.7</ele>
        <time>2015-01-12T19:34:08.738Z</time>
      </trkpt>
      <trkpt lat="48.85636" lon="2.36917">
        <ele>102.4</ele>
        <time>2015-01-12T19:34:09.660Z</time>
      </trkpt>
      <trkpt lat="48.85629" lon="2.36923">
        <ele>102.4</ele>
        <time>2015-01-12T19:34:11.660Z</time>
      </trkpt>
      <trkpt lat="48.85627" lon="2.36925">
        <ele>102.5</ele>
        <time>2015-01-12T19:34:12.755Z</time>
      </trkpt>
      <trkpt lat="48.85622" lon="2.36929">
        <ele>102.6</ele>
        <time>2015-01-12T19:34:14.745Z</time>
      </trkpt>
      <trkpt lat="48.85619" lon="2.3693">
        <ele>102.7</ele>
        <time>2015-01-12T19:34:15.758Z</time>
      </trkpt>
      <trkpt lat="48.85611" lon="2.36932">
        <ele>103</ele>
        <time>2015-01-12T19:34:17.656Z</time>
      </trkpt>
      <trkpt lat="48.85606" lon="2.36933">
        <ele>103.1</ele>
        <time>2015-01-12T19:34:18.665Z</time>
      </trkpt>
      <trkpt lat="48.85598" lon="2.36935">
        <ele>103.4</ele>
        <time>2015-01-12T19:34:20.696Z</time>
      </trkpt>
      <trkpt lat="48.85593" lon="2.36936">
        <ele>103.5</ele>
        <time>2015-01-12T19:34:21.705Z</time>
      </trkpt>
      <trkpt lat="48.85584" lon="2.36938">
        <ele>103.7</ele>
        <time>2015-01-12T19:34:23.720Z</time>
      </trkpt>
      <trkpt lat="48.8558" lon="2.3694">
        <ele>103.7</ele>
        <time>2015-01-12T19:34:24.729Z</time>
      </trkpt>
      <trkpt lat="48.85576" lon="2.36942">
        <ele>103.8</ele>
        <time>2015-01-12T19:34:25.738Z</time>
      </trkpt>
      <trkpt lat="48.85571" lon="2.36944">
        <ele>104.1</ele>
        <time>2015-01-12T19:34:26.751Z</time>
      </trkpt>
      <trkpt lat="48.85567" lon="2.36945">
        <ele>104.2</ele>
        <time>2015-01-12T19:34:27.665Z</time>
      </trkpt>
      <trkpt lat="48.85561" lon="2.36947">
        <ele>104.2</ele>
        <time>2015-01-12T19:34:28.771Z</time>
      </trkpt>
      <trkpt lat="48.85553" lon="2.36951">
        <ele>103.8</ele>
        <time>2015-01-12T19:34:29.951Z</time>
      </trkpt>
      <trkpt lat="48.85546" lon="2.36954">
        <ele>103.6</ele>
        <time>2015-01-12T19:34:30.656Z</time>
      </trkpt>
      <trkpt lat="48.85537" lon="2.36955">
        <ele>103.9</ele>
        <time>2015-01-12T19:34:31.676Z</time>
      </trkpt>
      <trkpt lat="48.85525" lon="2.36956">
        <ele>104.3</ele>
        <time>2015-01-12T19:34:32.703Z</time>
      </trkpt>
      <trkpt lat="48.85516" lon="2.36958">
        <ele>104.5</ele>
        <time>2015-01-12T19:34:33.726Z</time>
      </trkpt>
      <trkpt lat="48.8551" lon="2.36959">
        <ele>104.7</ele>
        <time>2015-01-12T19:34:34.724Z</time>
      </trkpt>
      <trkpt lat="48.85504" lon="2.36962">
        <ele>104.8</ele>
        <time>2015-01-12T19:34:35.742Z</time>
      </trkpt>
      <trkpt lat="48.85499" lon="2.36963">
        <ele>105.1</ele>
        <time>2015-01-12T19:34:36.650Z</time>
      </trkpt>
      <trkpt lat="48.85495" lon="2.36965">
        <ele>105.4</ele>
        <time>2015-01-12T19:34:37.709Z</time>
      </trkpt>
      <trkpt lat="48.8549" lon="2.36967">
        <ele>105.9</ele>
        <time>2015-01-12T19:34:38.704Z</time>
      </trkpt>
      <trkpt lat="48.85484" lon="2.36971">
        <ele>106.6</ele>
        <time>2015-01-12T19:34:41.652Z</time>
      </trkpt>
      <trkpt lat="48.85482" lon="2.36973">
        <ele>107</ele>
        <time>2015-01-12T19:34:42.688Z</time>
      </trkpt>
      <trkpt lat="48.85481" lon="2.36975">
        <ele>107.2</ele>
        <time>2015-01-12T19:34:43.697Z</time>
      </trkpt>
      <trkpt lat="48.85473" lon="2.36978">
        <ele>106.2</ele>
        <time>2015-01-12T19:34:47.681Z</time>
      </trkpt>
      <trkpt lat="48.85471" lon="2.36979">
        <ele>106.4</ele>
        <time>2015-01-12T19:34:48.692Z</time>
      </trkpt>
      <trkpt lat="48.85464" lon="2.3698">
        <ele>106.9</ele>
        <time>2015-01-12T19:34:51.727Z</time>
      </trkpt>
      <trkpt lat="48.8546" lon="2.36981">
        <ele>107.4</ele>
        <time>2015-01-12T19:34:52.742Z</time>
      </trkpt>
      <trkpt lat="48.85452" lon="2.36979">
        <ele>106.7</ele>
        <time>2015-01-12T19:34:55.924Z</time>
      </trkpt>
      <trkpt lat="48.85449" lon="2.3698">
        <ele>106.7</ele>
        <time>2015-01-12T19:34:56.736Z</time>
      </trkpt>
      <trkpt lat="48.85441" lon="2.36978">
        <ele>105.8</ele>
        <time>2015-01-12T19:35:01.489Z</time>
      </trkpt>
      <trkpt lat="48.85438" lon="2.36978">
        <ele>105.9</ele>
        <time>2015-01-12T19:35:01.726Z</time>
      </trkpt>
      <trkpt lat="48.85431" lon="2.36979">
        <ele>105.2</ele>
        <time>2015-01-12T19:35:04.724Z</time>
      </trkpt>
      <trkpt lat="48.85427" lon="2.36979">
        <ele>104.3</ele>
        <time>2015-01-12T19:35:04.761Z</time>
      </trkpt>
      <trkpt lat="48.8542" lon="2.36976">
        <ele>103.5</ele>
        <time>2015-01-12T19:35:06.756Z</time>
      </trkpt>
      <trkpt lat="48.85417" lon="2.36974">
        <ele>103.2</ele>
        <time>2015-01-12T19:35:07.758Z</time>
      </trkpt>
      <trkpt lat="48.8541" lon="2.36971">
        <ele>102.6</ele>
        <time>2015-01-12T19:35:09.733Z</time>
      </trkpt>
      <trkpt lat="48.85407" lon="2.36969">
        <ele>102.5</ele>
        <time>2015-01-12T19:35:10.713Z</time>
      </trkpt>
      <trkpt lat="48.854" lon="2.36966">
        <ele>101.9</ele>
        <time>2015-01-12T19:35:12.755Z</time>
      </trkpt>
      <trkpt lat="48.85396" lon="2.36963">
        <ele>101.6</ele>
        <time>2015-01-12T19:35:13.757Z</time>
      </trkpt>
      <trkpt lat="48.8539" lon="2.36957">
        <ele>100.8</ele>
        <time>2015-01-12T19:35:15.775Z</time>
      </trkpt>
      <trkpt lat="48.85386" lon="2.36954">
        <ele>100</ele>
        <time>2015-01-12T19:35:16.793Z</time>
      </trkpt>
      <trkpt lat="48.85378" lon="2.3695">
        <ele>98.6</ele>
        <time>2015-01-12T19:35:19.944Z</time>
      </trkpt>
      <trkpt lat="48.85376" lon="2.36948">
        <ele>98.2</ele>
        <time>2015-01-12T19:35:20.763Z</time>
      </trkpt>
      <trkpt lat="48.8537" lon="2.36958">
        <ele>97.9</ele>
        <time>2015-01-12T19:35:26.740Z</time>
      </trkpt>
      <trkpt lat="48.8537" lon="2.36962">
        <ele>97.8</ele>
        <time>2015-01-12T19:35:27.755Z</time>
      </trkpt>
      <trkpt lat="48.85365" lon="2.36973">
        <ele>97.5</ele>
        <time>2015-01-12T19:35:30.687Z</time>
      </trkpt>
      <trkpt lat="48.85364" lon="2.36976">
        <ele>97.3</ele>
        <time>2015-01-12T19:35:31.728Z</time>
      </trkpt>
      <trkpt lat="48.85359" lon="2.36984">
        <ele>97.1</ele>
        <time>2015-01-12T19:35:35.141Z</time>
      </trkpt>
      <trkpt lat="48.85357" lon="2.36986">
        <ele>96.9</ele>
        <time>2015-01-12T19:35:35.768Z</time>
      </trkpt>
      <trkpt lat="48.85349" lon="2.36991">
        <ele>96.4</ele>
        <time>2015-01-12T19:35:38.738Z</time>
      </trkpt>
      <trkpt lat="48.85347" lon="2.36991">
        <ele>96</ele>
        <time>2015-01-12T19:35:39.740Z</time>
      </trkpt>
      <trkpt lat="48.8534" lon="2.36996">
        <ele>95.8</ele>
        <time>2015-01-12T19:35:43.911Z</time>
      </trkpt>
      <trkpt lat="48.85338" lon="2.36996">
        <ele>95.8</ele>
        <time>2015-01-12T19:35:44.750Z</time>
      </trkpt>
      <trkpt lat="48.85332" lon="2.37006">
        <ele>93.4</ele>
        <time>2015-01-12T19:35:54.506Z</time>
      </trkpt>
      <trkpt lat="48.85331" lon="2.37006">
        <ele>93.5</ele>
        <time>2015-01-12T19:35:54.690Z</time>
      </trkpt>
      <trkpt lat="48.85331" lon="2.37006">
        <ele>93.3</ele>
        <time>2015-01-12T19:35:55.722Z</time>
      </trkpt>
      <trkpt lat="48.8533" lon="2.37006">
        <ele>93</ele>
        <time>2015-01-12T19:35:56.720Z</time>
      </trkpt>
      <trkpt lat="48.85323" lon="2.37012">
        <ele>91.2</ele>
        <time>2015-01-12T19:36:02.780Z</time>
      </trkpt>
      <trkpt lat="48.85322" lon="2.37014">
        <ele>91.1</ele>
        <time>2015-01-12T19:36:03.687Z</time>
      </trkpt>
      <trkpt lat="48.85318" lon="2.37023">
        <ele>90.8</ele>
        <time>2015-01-12T19:36:06.722Z</time>
      </trkpt>
      <trkpt lat="48.85317" lon="2.37026">
        <ele>90.8</ele>
        <time>2015-01-12T19:36:07.748Z</time>
      </trkpt>
      <trkpt lat="48.85311" lon="2.37036">
        <ele>91.4</ele>
        <time>2015-01-12T19:36:10.784Z</time>
      </trkpt>
      <trkpt lat="48.85309" lon="2.37039">
        <ele>91.4</ele>
        <time>2015-01-12T19:36:11.681Z</time>
      </trkpt>
      <trkpt lat="48.85304" lon="2.37047">
        <ele>91.4</ele>
        <time>2015-01-12T19:36:14.763Z</time>
      </trkpt>
      <trkpt lat="48.85301" lon="2.37049">
        <ele>91.4</ele>
        <time>2015-01-12T19:36:15.729Z</time>
      </trkpt>
      <trkpt lat="48.85296" lon="2.37054">
        <ele>91.4</ele>
        <time>2015-01-12T19:36:17.722Z</time>
      </trkpt>
      <trkpt lat="48.85294" lon="2.37057">
        <ele>91.3</ele>
        <time>2015-01-12T19:36:18.732Z</time>
      </trkpt>
      <trkpt lat="48.85289" lon="2.37065">
        <ele>91.2</ele>
        <time>2015-01-12T19:36:21.392Z</time>
      </trkpt>
      <trkpt lat="48.85285" lon="2.37069">
        <ele>91.1</ele>
        <time>2015-01-12T19:36:21.747Z</time>
      </trkpt>
      <trkpt lat="48.85281" lon="2.37073">
        <ele>91</ele>
        <time>2015-01-12T19:36:22.688Z</time>
      </trkpt>
      <trkpt lat="48.85277" lon="2.37076">
        <ele>91</ele>
        <time>2015-01-12T19:36:23.695Z</time>
      </trkpt>
      <trkpt lat="48.85272" lon="2.3708">
        <ele>90.9</ele>
        <time>2015-01-12T19:36:24.849Z</time>
      </trkpt>
      <trkpt lat="48.85267" lon="2.37084">
        <ele>90.8</ele>
        <time>2015-01-12T19:36:25.702Z</time>
      </trkpt>
      <trkpt lat="48.85263" lon="2.37087">
        <ele>90.7</ele>
        <time>2015-01-12T19:36:26.717Z</time>
      </trkpt>
      <trkpt lat="48.85259" lon="2.37091">
        <ele>90.8</ele>
        <time>2015-01-12T19:36:27.744Z</time>
      </trkpt>
      <trkpt lat="48.85256" lon="2.37095">
        <ele>90.9</ele>
        <time>2015-01-12T19:36:28.665Z</time>
      </trkpt>
      <trkpt lat="48.85252" lon="2.37101">
        <ele>90.8</ele>
        <time>2015-01-12T19:36:29.669Z</time>
      </trkpt>
      <trkpt lat="48.85248" lon="2.37106">
        <ele>90.8</ele>
        <time>2015-01-12T19:36:30.693Z</time>
      </trkpt>
      <trkpt lat="48.85243" lon="2.3711">
        <ele>90.7</ele>
        <time>2015-01-12T19:36:31.747Z</time>
      </trkpt>
      <trkpt lat="48.85237" lon="2.37113">
        <ele>90.4</ele>
        <time>2015-01-12T19:36:32.653Z</time>
      </trkpt>
      <trkpt lat="48.85233" lon="2.37116">
        <ele>90.4</ele>
        <time>2015-01-12T19:36:33.662Z</time>
      </trkpt>
      <trkpt lat="48.85228" lon="2.3712">
        <ele>90.4</ele>
        <time>2015-01-12T19:36:34.705Z</time>
      </trkpt>
      <trkpt lat="48.85223" lon="2.37125">
        <ele>90.3</ele>
        <time>2015-01-12T19:36:35.712Z</time>
      </trkpt>
      <trkpt lat="48.85218" lon="2.37129">
        <ele>90.2</ele>
        <time>2015-01-12T19:36:36.725Z</time>
      </trkpt>
      <trkpt lat="48.85212" lon="2.37133">
        <ele>90.1</ele>
        <time>2015-01-12T19:36:37.759Z</time>
      </trkpt>
      <trkpt lat="48.85207" lon="2.37137">
        <ele>90</ele>
        <time>2015-01-12T19:36:38.636Z</time>
      </trkpt>
      <trkpt lat="48.85202" lon="2.37142">
        <ele>89.9</ele>
        <time>2015-01-12T19:36:39.645Z</time>
      </trkpt>
      <trkpt lat="48.85198" lon="2.37147">
        <ele>89.8</ele>
        <time>2015-01-12T19:36:40.664Z</time>
      </trkpt>
      <trkpt lat="48.85193" lon="2.3715">
        <ele>89.6</ele>
        <time>2015-01-12T19:36:42.081Z</time>
      </trkpt>
      <trkpt lat="48.85189" lon="2.37153">
        <ele>89.5</ele>
        <time>2015-01-12T19:36:42.666Z</time>
      </trkpt>
      <trkpt lat="48.85184" lon="2.37156">
        <ele>89.3</ele>
        <time>2015-01-12T19:36:43.673Z</time>
      </trkpt>
      <trkpt lat="48.85176" lon="2.37161">
        <ele>89.2</ele>
        <time>2015-01-12T19:36:45.698Z</time>
      </trkpt>
      <trkpt lat="48.85172" lon="2.37163">
        <ele>89.1</ele>
        <time>2015-01-12T19:36:46.710Z</time>
      </trkpt>
      <trkpt lat="48.85165" lon="2.37169">
        <ele>88.9</ele>
        <time>2015-01-12T19:36:48.738Z</time>
      </trkpt>
      <trkpt lat="48.85162" lon="2.37171">
        <ele>88.9</ele>
        <time>2015-01-12T19:36:49.754Z</time>
      </trkpt>
      <trkpt lat="48.85157" lon="2.37176">
        <ele>88.7</ele>
        <time>2015-01-12T19:36:51.653Z</time>
      </trkpt>
      <trkpt lat="48.85154" lon="2.37179">
        <ele>88.5</ele>
        <time>2015-01-12T19:36:52.680Z</time>
      </trkpt>
      <trkpt lat="48.85149" lon="2.37188">
        <ele>88.1</ele>
        <time>2015-01-12T19:36:54.775Z</time>
      </trkpt>
      <trkpt lat="48.85146" lon="2.37192">
        <ele>88</ele>
        <time>2015-01-12T19:36:55.716Z</time>
      </trkpt>
      <trkpt lat="48.85141" lon="2.372">
        <ele>88.3</ele>
        <time>2015-01-12T19:36:57.736Z</time>
      </trkpt>
      <trkpt lat="48.8514" lon="2.37208">
        <ele>89</ele>
        <time>2015-01-12T19:36:58.998Z</time>
      </trkpt>
      <trkpt lat="48.85138" lon="2.37218">
        <ele>89.6</ele>
        <time>2015-01-12T19:37:00.724Z</time>
      </trkpt>
      <trkpt lat="48.85136" lon="2.37222">
        <ele>89.5</ele>
        <time>2015-01-12T19:37:01.767Z</time>
      </trkpt>
      <trkpt lat="48.8513" lon="2.37231">
        <ele>89.1</ele>
        <time>2015-01-12T19:37:03.712Z</time>
      </trkpt>
      <trkpt lat="48.85127" lon="2.37236">
        <ele>89</ele>
        <time>2015-01-12T19:37:04.720Z</time>
      </trkpt>
      <trkpt lat="48.85119" lon="2.37241">
        <ele>89</ele>
        <time>2015-01-12T19:37:06.738Z</time>
      </trkpt>
      <trkpt lat="48.85116" lon="2.37244">
        <ele>89.1</ele>
        <time>2015-01-12T19:37:07.756Z</time>
      </trkpt>
      <trkpt lat="48.85109" lon="2.37251">
        <ele>89.4</ele>
        <time>2015-01-12T19:37:09.671Z</time>
      </trkpt>
      <trkpt lat="48.85104" lon="2.37254">
        <ele>89.5</ele>
        <time>2015-01-12T19:37:10.679Z</time>
      </trkpt>
      <trkpt lat="48.851" lon="2.37258">
        <ele>89.6</ele>
        <time>2015-01-12T19:37:11.721Z</time>
      </trkpt>
      <trkpt lat="48.85096" lon="2.37264">
        <ele>89.6</ele>
        <time>2015-01-12T19:37:12.743Z</time>
      </trkpt>
      <trkpt lat="48.85092" lon="2.37268">
        <ele>89.7</ele>
        <time>2015-01-12T19:37:13.777Z</time>
      </trkpt>
      <trkpt lat="48.85087" lon="2.37273">
        <ele>89.7</ele>
        <time>2015-01-12T19:37:14.680Z</time>
      </trkpt>
      <trkpt lat="48.85082" lon="2.37276">
        <ele>89.7</ele>
        <time>2015-01-12T19:37:15.672Z</time>
      </trkpt>
      <trkpt lat="48.85077" lon="2.37279">
        <ele>89.8</ele>
        <time>2015-01-12T19:37:16.677Z</time>
      </trkpt>
      <trkpt lat="48.85069" lon="2.37283">
        <ele>89.7</ele>
        <time>2015-01-12T19:37:18.710Z</time>
      </trkpt>
      <trkpt lat="48.85065" lon="2.37285">
        <ele>89.7</ele>
        <time>2015-01-12T19:37:19.725Z</time>
      </trkpt>
      <trkpt lat="48.85059" lon="2.37293">
        <ele>90</ele>
        <time>2015-01-12T19:37:21.668Z</time>
      </trkpt>
      <trkpt lat="48.85057" lon="2.37301">
        <ele>90</ele>
        <time>2015-01-12T19:37:22.683Z</time>
      </trkpt>
      <trkpt lat="48.85055" lon="2.37309">
        <ele>89.9</ele>
        <time>2015-01-12T19:37:23.672Z</time>
      </trkpt>
      <trkpt lat="48.85052" lon="2.37314">
        <ele>89.7</ele>
        <time>2015-01-12T19:37:24.664Z</time>
      </trkpt>
      <trkpt lat="48.85046" lon="2.37323">
        <ele>90.1</ele>
        <time>2015-01-12T19:37:26.705Z</time>
      </trkpt>
      <trkpt lat="48.85042" lon="2.37327">
        <ele>90.3</ele>
        <time>2015-01-12T19:37:27.708Z</time>
      </trkpt>
      <trkpt lat="48.85035" lon="2.37333">
        <ele>90.7</ele>
        <time>2015-01-12T19:37:29.729Z</time>
      </trkpt>
      <trkpt lat="48.85032" lon="2.37336">
        <ele>90.9</ele>
        <time>2015-01-12T19:37:30.744Z</time>
      </trkpt>
      <trkpt lat="48.85028" lon="2.3734">
        <ele>91.1</ele>
        <time>2015-01-12T19:37:31.751Z</time>
      </trkpt>
      <trkpt lat="48.85023" lon="2.37347">
        <ele>91.4</ele>
        <time>2015-01-12T19:37:32.647Z</time>
      </trkpt>
      <trkpt lat="48.85017" lon="2.37355">
        <ele>91.3</ele>
        <time>2015-01-12T19:37:34.677Z</time>
      </trkpt>
      <trkpt lat="48.85014" lon="2.37359">
        <ele>91.3</ele>
        <time>2015-01-12T19:37:35.678Z</time>
      </trkpt>
      <trkpt lat="48.8501" lon="2.37365">
        <ele>91.3</ele>
        <time>2015-01-12T19:37:36.695Z</time>
      </trkpt>
      <trkpt lat="48.85007" lon="2.37371">
        <ele>91.3</ele>
        <time>2015-01-12T19:37:37.746Z</time>
      </trkpt>
      <trkpt lat="48.85001" lon="2.37379">
        <ele>91.4</ele>
        <time>2015-01-12T19:37:39.692Z</time>
      </trkpt>
      <trkpt lat="48.84999" lon="2.37382">
        <ele>91.4</ele>
        <time>2015-01-12T19:37:40.678Z</time>
      </trkpt>
      <trkpt lat="48.84994" lon="2.37393">
        <ele>91.6</ele>
        <time>2015-01-12T19:37:42.701Z</time>
      </trkpt>
      <trkpt lat="48.84992" lon="2.37398">
        <ele>91.8</ele>
        <time>2015-01-12T19:37:43.710Z</time>
      </trkpt>
      <trkpt lat="48.84985" lon="2.37405">
        <ele>91.7</ele>
        <time>2015-01-12T19:37:46.142Z</time>
      </trkpt>
      <trkpt lat="48.84983" lon="2.37408">
        <ele>91.7</ele>
        <time>2015-01-12T19:37:46.685Z</time>
      </trkpt>
      <trkpt lat="48.84976" lon="2.37416">
        <ele>91.5</ele>
        <time>2015-01-12T19:37:50.663Z</time>
      </trkpt>
      <trkpt lat="48.84974" lon="2.37417">
        <ele>91.5</ele>
        <time>2015-01-12T19:37:51.681Z</time>
      </trkpt>
      <trkpt lat="48.84972" lon="2.37421">
        <ele>90.6</ele>
        <time>2015-01-12T19:37:56.742Z</time>
      </trkpt>
      <trkpt lat="48.84972" lon="2.37422">
        <ele>90.5</ele>
        <time>2015-01-12T19:37:57.749Z</time>
      </trkpt>
      <trkpt lat="48.8497" lon="2.37422">
        <ele>90.6</ele>
        <time>2015-01-12T19:37:58.654Z</time>
      </trkpt>
      <trkpt lat="48.84965" lon="2.37432">
        <ele>91.5</ele>
        <time>2015-01-12T19:38:02.067Z</time>
      </trkpt>
      <trkpt lat="48.84963" lon="2.37436">
        <ele>91.8</ele>
        <time>2015-01-12T19:38:02.761Z</time>
      </trkpt>
      <trkpt lat="48.8496" lon="2.37445">
        <ele>91.9</ele>
        <time>2015-01-12T19:38:06.650Z</time>
      </trkpt>
      <trkpt lat="48.84959" lon="2.37448">
        <ele>91.9</ele>
        <time>2015-01-12T19:38:06.738Z</time>
      </trkpt>
      <trkpt lat="48.84954" lon="2.37456">
        <ele>91.7</ele>
        <time>2015-01-12T19:38:08.731Z</time>
      </trkpt>
      <trkpt lat="48.8495" lon="2.37458">
        <ele>91.7</ele>
        <time>2015-01-12T19:38:09.735Z</time>
      </trkpt>
      <trkpt lat="48.84944" lon="2.37465">
        <ele>91.8</ele>
        <time>2015-01-12T19:38:11.753Z</time>
      </trkpt>
      <trkpt lat="48.84941" lon="2.37469">
        <ele>91.7</ele>
        <time>2015-01-12T19:38:12.762Z</time>
      </trkpt>
      <trkpt lat="48.84937" lon="2.37473">
        <ele>91.8</ele>
        <time>2015-01-12T19:38:13.777Z</time>
      </trkpt>
      <trkpt lat="48.84933" lon="2.37476">
        <ele>91.8</ele>
        <time>2015-01-12T19:38:14.739Z</time>
      </trkpt>
      <trkpt lat="48.84927" lon="2.37478">
        <ele>91.4</ele>
        <time>2015-01-12T19:38:15.776Z</time>
      </trkpt>
      <trkpt lat="48.84922" lon="2.37479">
        <ele>91.2</ele>
        <time>2015-01-12T19:38:16.680Z</time>
      </trkpt>
      <trkpt lat="48.84914" lon="2.37487">
        <ele>91.6</ele>
        <time>2015-01-12T19:38:18.716Z</time>
      </trkpt>
      <trkpt lat="48.84911" lon="2.37489">
        <ele>91.6</ele>
        <time>2015-01-12T19:38:19.809Z</time>
      </trkpt>
      <trkpt lat="48.84903" lon="2.37494">
        <ele>91.6</ele>
        <time>2015-01-12T19:38:21.661Z</time>
      </trkpt>
      <trkpt lat="48.84899" lon="2.37497">
        <ele>91.6</ele>
        <time>2015-01-12T19:38:22.688Z</time>
      </trkpt>
      <trkpt lat="48.84893" lon="2.37504">
        <ele>91.5</ele>
        <time>2015-01-12T19:38:24.727Z</time>
      </trkpt>
      <trkpt lat="48.8489" lon="2.37507">
        <ele>91.4</ele>
        <time>2015-01-12T19:38:25.746Z</time>
      </trkpt>
      <trkpt lat="48.84883" lon="2.37514">
        <ele>91.1</ele>
        <time>2015-01-12T19:38:27.757Z</time>
      </trkpt>
      <trkpt lat="48.8488" lon="2.37518">
        <ele>90.9</ele>
        <time>2015-01-12T19:38:28.723Z</time>
      </trkpt>
      <trkpt lat="48.84876" lon="2.37526">
        <ele>90.6</ele>
        <time>2015-01-12T19:38:30.693Z</time>
      </trkpt>
      <trkpt lat="48.84873" lon="2.37529">
        <ele>90.4</ele>
        <time>2015-01-12T19:38:31.816Z</time>
      </trkpt>
      <trkpt lat="48.84868" lon="2.37535">
        <ele>90.3</ele>
        <time>2015-01-12T19:38:33.683Z</time>
      </trkpt>
      <trkpt lat="48.84866" lon="2.37539">
        <ele>90.3</ele>
        <time>2015-01-12T19:38:34.709Z</time>
      </trkpt>
      <trkpt lat="48.84862" lon="2.37546">
        <ele>90.3</ele>
        <time>2015-01-12T19:38:36.757Z</time>
      </trkpt>
      <trkpt lat="48.8486" lon="2.3755">
        <ele>90.4</ele>
        <time>2015-01-12T19:38:37.774Z</time>
      </trkpt>
      <trkpt lat="48.84857" lon="2.37561">
        <ele>90.5</ele>
        <time>2015-01-12T19:38:39.988Z</time>
      </trkpt>
      <trkpt lat="48.84854" lon="2.37565">
        <ele>90.5</ele>
        <time>2015-01-12T19:38:40.859Z</time>
      </trkpt>
      <trkpt lat="48.84846" lon="2.37573">
        <ele>90.6</ele>
        <time>2015-01-12T19:38:42.697Z</time>
      </trkpt>
      <trkpt lat="48.84843" lon="2.37576">
        <ele>90.7</ele>
        <time>2015-01-12T19:38:43.812Z</time>
      </trkpt>
      <trkpt lat="48.84836" lon="2.37582">
        <ele>90.6</ele>
        <time>2015-01-12T19:38:45.677Z</time>
      </trkpt>
      <trkpt lat="48.84833" lon="2.37589">
        <ele>90.1</ele>
        <time>2015-01-12T19:38:46.679Z</time>
      </trkpt>
      <trkpt lat="48.84828" lon="2.376">
        <ele>90.1</ele>
        <time>2015-01-12T19:38:49.397Z</time>
      </trkpt>
      <trkpt lat="48.84824" lon="2.37603">
        <ele>90.2</ele>
        <time>2015-01-12T19:38:49.763Z</time>
      </trkpt>
      <trkpt lat="48.84819" lon="2.37608">
        <ele>90.2</ele>
        <time>2015-01-12T19:38:51.687Z</time>
      </trkpt>
      <trkpt lat="48.84817" lon="2.37612">
        <ele>90.2</ele>
        <time>2015-01-12T19:38:52.695Z</time>
      </trkpt>
      <trkpt lat="48.84814" lon="2.3762">
        <ele>90.3</ele>
        <time>2015-01-12T19:38:54.721Z</time>
      </trkpt>
      <trkpt lat="48.84813" lon="2.37624">
        <ele>90.4</ele>
        <time>2015-01-12T19:38:55.732Z</time>
      </trkpt>
      <trkpt lat="48.84809" lon="2.37636">
        <ele>89.8</ele>
        <time>2015-01-12T19:38:57.774Z</time>
      </trkpt>
      <trkpt lat="48.84807" lon="2.37642">
        <ele>90</ele>
        <time>2015-01-12T19:38:58.646Z</time>
      </trkpt>
      <trkpt lat="48.84801" lon="2.37651">
        <ele>90.1</ele>
        <time>2015-01-12T19:39:01.533Z</time>
      </trkpt>
      <trkpt lat="48.84797" lon="2.37654">
        <ele>90</ele>
        <time>2015-01-12T19:39:01.709Z</time>
      </trkpt>
      <trkpt lat="48.8479" lon="2.37661">
        <ele>89.8</ele>
        <time>2015-01-12T19:39:04.587Z</time>
      </trkpt>
      <trkpt lat="48.84787" lon="2.37666">
        <ele>89.8</ele>
        <time>2015-01-12T19:39:04.654Z</time>
      </trkpt>
      <trkpt lat="48.84783" lon="2.3767">
        <ele>89.7</ele>
        <time>2015-01-12T19:39:05.701Z</time>
      </trkpt>
      <trkpt lat="48.8478" lon="2.37675">
        <ele>89.8</ele>
        <time>2015-01-12T19:39:06.740Z</time>
      </trkpt>
      <trkpt lat="48.84774" lon="2.37684">
        <ele>90</ele>
        <time>2015-01-12T19:39:09.685Z</time>
      </trkpt>
      <trkpt lat="48.84771" lon="2.37688">
        <ele>90.1</ele>
        <time>2015-01-12T19:39:09.813Z</time>
      </trkpt>
      <trkpt lat="48.84767" lon="2.37694">
        <ele>89.6</ele>
        <time>2015-01-12T19:39:10.849Z</time>
      </trkpt>
      <trkpt lat="48.84764" lon="2.377">
        <ele>89.2</ele>
        <time>2015-01-12T19:39:11.668Z</time>
      </trkpt>
      <trkpt lat="48.84761" lon="2.37706">
        <ele>88.6</ele>
        <time>2015-01-12T19:39:12.699Z</time>
      </trkpt>
      <trkpt lat="48.84758" lon="2.37712">
        <ele>87.7</ele>
        <time>2015-01-12T19:39:13.723Z</time>
      </trkpt>
      <trkpt lat="48.84755" lon="2.37718">
        <ele>87.3</ele>
        <time>2015-01-12T19:39:14.725Z</time>
      </trkpt>
      <trkpt lat="48.84753" lon="2.37724">
        <ele>86.9</ele>
        <time>2015-01-12T19:39:15.747Z</time>
      </trkpt>
      <trkpt lat="48.8475" lon="2.37731">
        <ele>86.1</ele>
        <time>2015-01-12T19:39:16.645Z</time>
      </trkpt>
      <trkpt lat="48.84747" lon="2.37736">
        <ele>85.7</ele>
        <time>2015-01-12T19:39:17.675Z</time>
      </trkpt>
      <trkpt lat="48.84747" lon="2.37748">
        <ele>86.3</ele>
        <time>2015-01-12T19:39:18.681Z</time>
      </trkpt>
      <trkpt lat="48.84746" lon="2.37756">
        <ele>86.3</ele>
        <time>2015-01-12T19:39:19.717Z</time>
      </trkpt>
      <trkpt lat="48.84741" lon="2.37767">
        <ele>86.5</ele>
        <time>2015-01-12T19:39:21.762Z</time>
      </trkpt>
      <trkpt lat="48.84738" lon="2.37773">
        <ele>86.5</ele>
        <time>2015-01-12T19:39:22.673Z</time>
      </trkpt>
      <trkpt lat="48.84735" lon="2.37779">
        <ele>86.4</ele>
        <time>2015-01-12T19:39:23.682Z</time>
      </trkpt>
      <trkpt lat="48.84731" lon="2.37786">
        <ele>86.4</ele>
        <time>2015-01-12T19:39:24.711Z</time>
      </trkpt>
      <trkpt lat="48.84727" lon="2.3779">
        <ele>86.5</ele>
        <time>2015-01-12T19:39:25.785Z</time>
      </trkpt>
      <trkpt lat="48.84723" lon="2.37794">
        <ele>86.6</ele>
        <time>2015-01-12T19:39:26.702Z</time>
      </trkpt>
      <trkpt lat="48.84719" lon="2.37798">
        <ele>86.5</ele>
        <time>2015-01-12T19:39:27.697Z</time>
      </trkpt>
      <trkpt lat="48.84716" lon="2.37803">
        <ele>86.4</ele>
        <time>2015-01-12T19:39:28.712Z</time>
      </trkpt>
      <trkpt lat="48.84712" lon="2.37808">
        <ele>86.3</ele>
        <time>2015-01-12T19:39:30.015Z</time>
      </trkpt>
      <trkpt lat="48.84709" lon="2.37813">
        <ele>86.2</ele>
        <time>2015-01-12T19:39:30.718Z</time>
      </trkpt>
      <trkpt lat="48.84705" lon="2.37817">
        <ele>86.2</ele>
        <time>2015-01-12T19:39:31.734Z</time>
      </trkpt>
      <trkpt lat="48.84704" lon="2.37825">
        <ele>86.8</ele>
        <time>2015-01-12T19:39:32.752Z</time>
      </trkpt>
      <trkpt lat="48.84702" lon="2.37834">
        <ele>87.1</ele>
        <time>2015-01-12T19:39:33.751Z</time>
      </trkpt>
      <trkpt lat="48.847" lon="2.37842">
        <ele>87.3</ele>
        <time>2015-01-12T19:39:34.769Z</time>
      </trkpt>
      <trkpt lat="48.84697" lon="2.3785">
        <ele>87.6</ele>
        <time>2015-01-12T19:39:35.675Z</time>
      </trkpt>
      <trkpt lat="48.84695" lon="2.37856">
        <ele>87.7</ele>
        <time>2015-01-12T19:39:36.687Z</time>
      </trkpt>
      <trkpt lat="48.8469" lon="2.37867">
        <ele>87.8</ele>
        <time>2015-01-12T19:39:38.711Z</time>
      </trkpt>
      <trkpt lat="48.84689" lon="2.3787">
        <ele>87.8</ele>
        <time>2015-01-12T19:39:39.731Z</time>
      </trkpt>
      <trkpt lat="48.84685" lon="2.3788">
        <ele>87.4</ele>
        <time>2015-01-12T19:39:42.708Z</time>
      </trkpt>
      <trkpt lat="48.84682" lon="2.37881">
        <ele>87.6</ele>
        <time>2015-01-12T19:39:43.827Z</time>
      </trkpt>
      <trkpt lat="48.84673" lon="2.37882">
        <ele>88.9</ele>
        <time>2015-01-12T19:39:47.731Z</time>
      </trkpt>
      <trkpt lat="48.84672" lon="2.37883">
        <ele>89.3</ele>
        <time>2015-01-12T19:39:48.761Z</time>
      </trkpt>
      <trkpt lat="48.84666" lon="2.37889">
        <ele>92</ele>
        <time>2015-01-12T19:39:55.691Z</time>
      </trkpt>
      <trkpt lat="48.84664" lon="2.37889">
        <ele>92.8</ele>
        <time>2015-01-12T19:39:56.724Z</time>
      </trkpt>
      <trkpt lat="48.84659" lon="2.37892">
        <ele>94.3</ele>
        <time>2015-01-12T19:40:00.715Z</time>
      </trkpt>
      <trkpt lat="48.84659" lon="2.37892">
        <ele>94.5</ele>
        <time>2015-01-12T19:40:01.763Z</time>
      </trkpt>
      <trkpt lat="48.84658" lon="2.37892">
        <ele>94.9</ele>
        <time>2015-01-12T19:40:02.766Z</time>
      </trkpt>
      <trkpt lat="48.84653" lon="2.37902">
        <ele>95.9</ele>
        <time>2015-01-12T19:40:07.735Z</time>
      </trkpt>
      <trkpt lat="48.84651" lon="2.37904">
        <ele>95.5</ele>
        <time>2015-01-12T19:40:08.747Z</time>
      </trkpt>
      <trkpt lat="48.84646" lon="2.37909">
        <ele>95.1</ele>
        <time>2015-01-12T19:40:10.708Z</time>
      </trkpt>
      <trkpt lat="48.84643" lon="2.37911">
        <ele>95</ele>
        <time>2015-01-12T19:40:11.742Z</time>
      </trkpt>
      <trkpt lat="48.84637" lon="2.37918">
        <ele>95.1</ele>
        <time>2015-01-12T19:40:13.832Z</time>
      </trkpt>
      <trkpt lat="48.84634" lon="2.37921">
        <ele>95.1</ele>
        <time>2015-01-12T19:40:14.656Z</time>
      </trkpt>
      <trkpt lat="48.84629" lon="2.37926">
        <ele>94.9</ele>
        <time>2015-01-12T19:40:16.692Z</time>
      </trkpt>
      <trkpt lat="48.84626" lon="2.37928">
        <ele>94.9</ele>
        <time>2015-01-12T19:40:17.689Z</time>
      </trkpt>
      <trkpt lat="48.8462" lon="2.37931">
        <ele>94.9</ele>
        <time>2015-01-12T19:40:20.342Z</time>
      </trkpt>
      <trkpt lat="48.84617" lon="2.37932">
        <ele>94.9</ele>
        <time>2015-01-12T19:40:20.735Z</time>
      </trkpt>
      <trkpt lat="48.84609" lon="2.37937">
        <ele>94.8</ele>
        <time>2015-01-12T19:40:23.766Z</time>
      </trkpt>
      <trkpt lat="48.84608" lon="2.3794">
        <ele>94.7</ele>
        <time>2015-01-12T19:40:24.762Z</time>
      </trkpt>
      <trkpt lat="48.84604" lon="2.37949">
        <ele>94.6</ele>
        <time>2015-01-12T19:40:26.685Z</time>
      </trkpt>
      <trkpt lat="48.84603" lon="2.37954">
        <ele>94.5</ele>
        <time>2015-01-12T19:40:27.665Z</time>
      </trkpt>
      <trkpt lat="48.84598" lon="2.37963">
        <ele>94.3</ele>
        <time>2015-01-12T19:40:30.440Z</time>
      </trkpt>
      <trkpt lat="48.84594" lon="2.37968">
        <ele>94.2</ele>
        <time>2015-01-12T19:40:30.684Z</time>
      </trkpt>
      <trkpt lat="48.8459" lon="2.37972">
        <ele>94</ele>
        <time>2015-01-12T19:40:31.708Z</time>
      </trkpt>
      <trkpt lat="48.84585" lon="2.37976">
        <ele>93.8</ele>
        <time>2015-01-12T19:40:32.710Z</time>
      </trkpt>
      <trkpt lat="48.84581" lon="2.3798">
        <ele>93.6</ele>
        <time>2015-01-12T19:40:33.718Z</time>
      </trkpt>
      <trkpt lat="48.84577" lon="2.37983">
        <ele>93.4</ele>
        <time>2015-01-12T19:40:34.730Z</time>
      </trkpt>
      <trkpt lat="48.84573" lon="2.37993">
        <ele>93.3</ele>
        <time>2015-01-12T19:40:36.749Z</time>
      </trkpt>
      <trkpt lat="48.84572" lon="2.37999">
        <ele>93.3</ele>
        <time>2015-01-12T19:40:37.774Z</time>
      </trkpt>
      <trkpt lat="48.84571" lon="2.38011">
        <ele>93.2</ele>
        <time>2015-01-12T19:40:39.657Z</time>
      </trkpt>
      <trkpt lat="48.84569" lon="2.38017">
        <ele>93.1</ele>
        <time>2015-01-12T19:40:40.835Z</time>
      </trkpt>
      <trkpt lat="48.84564" lon="2.38027">
        <ele>93.2</ele>
        <time>2015-01-12T19:40:42.680Z</time>
      </trkpt>
      <trkpt lat="48.84561" lon="2.38031">
        <ele>93.2</ele>
        <time>2015-01-12T19:40:43.686Z</time>
      </trkpt>
      <trkpt lat="48.84556" lon="2.38039">
        <ele>93.3</ele>
        <time>2015-01-12T19:40:46.148Z</time>
      </trkpt>
      <trkpt lat="48.84554" lon="2.38046">
        <ele>93.3</ele>
        <time>2015-01-12T19:40:46.652Z</time>
      </trkpt>
      <trkpt lat="48.84551" lon="2.38052">
        <ele>93.3</ele>
        <time>2015-01-12T19:40:47.663Z</time>
      </trkpt>
      <trkpt lat="48.84551" lon="2.38063">
        <ele>93.3</ele>
        <time>2015-01-12T19:40:48.675Z</time>
      </trkpt>
      <trkpt lat="48.84548" lon="2.38071">
        <ele>93.2</ele>
        <time>2015-01-12T19:40:49.699Z</time>
      </trkpt>
      <trkpt lat="48.84545" lon="2.38077">
        <ele>93.1</ele>
        <time>2015-01-12T19:40:50.729Z</time>
      </trkpt>
      <trkpt lat="48.84543" lon="2.38086">
        <ele>93.4</ele>
        <time>2015-01-12T19:40:51.772Z</time>
      </trkpt>
      <trkpt lat="48.84542" lon="2.38091">
        <ele>93.7</ele>
        <time>2015-01-12T19:40:52.673Z</time>
      </trkpt>
      <trkpt lat="48.84539" lon="2.38097">
        <ele>93.7</ele>
        <time>2015-01-12T19:40:54.877Z</time>
      </trkpt>
      <trkpt lat="48.84537" lon="2.38103">
        <ele>93.7</ele>
        <time>2015-01-12T19:40:55.701Z</time>
      </trkpt>
      <trkpt lat="48.84533" lon="2.38115">
        <ele>93.5</ele>
        <time>2015-01-12T19:40:57.726Z</time>
      </trkpt>
      <trkpt lat="48.84531" lon="2.3812">
        <ele>93.4</ele>
        <time>2015-01-12T19:40:58.729Z</time>
      </trkpt>
      <trkpt lat="48.84526" lon="2.38131">
        <ele>93.1</ele>
        <time>2015-01-12T19:41:00.685Z</time>
      </trkpt>
      <trkpt lat="48.84524" lon="2.38136">
        <ele>92.9</ele>
        <time>2015-01-12T19:41:01.703Z</time>
      </trkpt>
      <trkpt lat="48.84521" lon="2.38147">
        <ele>92.5</ele>
        <time>2015-01-12T19:41:03.753Z</time>
      </trkpt>
      <trkpt lat="48.8452" lon="2.38151">
        <ele>92.4</ele>
        <time>2015-01-12T19:41:04.641Z</time>
      </trkpt>
      <trkpt lat="48.84517" lon="2.38161">
        <ele>92.4</ele>
        <time>2015-01-12T19:41:06.679Z</time>
      </trkpt>
      <trkpt lat="48.84515" lon="2.38167">
        <ele>92.4</ele>
        <time>2015-01-12T19:41:07.774Z</time>
      </trkpt>
      <trkpt lat="48.84513" lon="2.38178">
        <ele>92.2</ele>
        <time>2015-01-12T19:41:09.688Z</time>
      </trkpt>
      <trkpt lat="48.84512" lon="2.38183">
        <ele>92.1</ele>
        <time>2015-01-12T19:41:10.703Z</time>
      </trkpt>
      <trkpt lat="48.8451" lon="2.38194">
        <ele>92.1</ele>
        <time>2015-01-12T19:41:12.771Z</time>
      </trkpt>
      <trkpt lat="48.84509" lon="2.38199">
        <ele>92.1</ele>
        <time>2015-01-12T19:41:13.737Z</time>
      </trkpt>
      <trkpt lat="48.84507" lon="2.3821">
        <ele>92.2</ele>
        <time>2015-01-12T19:41:15.652Z</time>
      </trkpt>
      <trkpt lat="48.84505" lon="2.38217">
        <ele>92</ele>
        <time>2015-01-12T19:41:16.688Z</time>
      </trkpt>
      <trkpt lat="48.84506" lon="2.38224">
        <ele>91.9</ele>
        <time>2015-01-12T19:41:17.715Z</time>
      </trkpt>
      <trkpt lat="48.84506" lon="2.3823">
        <ele>92</ele>
        <time>2015-01-12T19:41:18.632Z</time>
      </trkpt>
      <trkpt lat="48.84507" lon="2.38241">
        <ele>92.2</ele>
        <time>2015-01-12T19:41:20.687Z</time>
      </trkpt>
      <trkpt lat="48.84508" lon="2.38244">
        <ele>92.3</ele>
        <time>2015-01-12T19:41:21.691Z</time>
      </trkpt>
      <trkpt lat="48.8451" lon="2.38256">
        <ele>92.6</ele>
        <time>2015-01-12T19:41:24.760Z</time>
      </trkpt>
      <trkpt lat="48.84511" lon="2.38262">
        <ele>92.6</ele>
        <time>2015-01-12T19:41:25.785Z</time>
      </trkpt>
      <trkpt lat="48.84512" lon="2.38273">
        <ele>92.5</ele>
        <time>2015-01-12T19:41:27.772Z</time>
      </trkpt>
      <trkpt lat="48.84512" lon="2.38277">
        <ele>92.3</ele>
        <time>2015-01-12T19:41:28.681Z</time>
      </trkpt>
      <trkpt lat="48.84511" lon="2.38285">
        <ele>91.4</ele>
        <time>2015-01-12T19:41:30.785Z</time>
      </trkpt>
      <trkpt lat="48.8451" lon="2.38291">
        <ele>91.2</ele>
        <time>2015-01-12T19:41:31.840Z</time>
      </trkpt>
      <trkpt lat="48.84509" lon="2.38299">
        <ele>91.7</ele>
        <time>2015-01-12T19:41:32.701Z</time>
      </trkpt>
      <trkpt lat="48.84508" lon="2.38305">
        <ele>91.8</ele>
        <time>2015-01-12T19:41:33.741Z</time>
      </trkpt>
      <trkpt lat="48.84508" lon="2.38316">
        <ele>91.8</ele>
        <time>2015-01-12T19:41:35.730Z</time>
      </trkpt>
      <trkpt lat="48.84503" lon="2.38323">
        <ele>92.1</ele>
        <time>2015-01-12T19:41:36.746Z</time>
      </trkpt>
      <trkpt lat="48.84496" lon="2.38331">
        <ele>92.1</ele>
        <time>2015-01-12T19:41:37.784Z</time>
      </trkpt>
      <trkpt lat="48.8449" lon="2.38338">
        <ele>92.3</ele>
        <time>2015-01-12T19:41:38.676Z</time>
      </trkpt>
      <trkpt lat="48.84485" lon="2.38345">
        <ele>92.6</ele>
        <time>2015-01-12T19:41:39.681Z</time>
      </trkpt>
      <trkpt lat="48.84481" lon="2.38352">
        <ele>92.9</ele>
        <time>2015-01-12T19:41:40.693Z</time>
      </trkpt>
      <trkpt lat="48.84478" lon="2.38358">
        <ele>93.4</ele>
        <time>2015-01-12T19:41:41.708Z</time>
      </trkpt>
      <trkpt lat="48.84476" lon="2.38364">
        <ele>93.7</ele>
        <time>2015-01-12T19:41:42.717Z</time>
      </trkpt>
      <trkpt lat="48.84471" lon="2.38375">
        <ele>93.9</ele>
        <time>2015-01-12T19:41:44.651Z</time>
      </trkpt>
      <trkpt lat="48.84471" lon="2.38379">
        <ele>93.8</ele>
        <time>2015-01-12T19:41:45.716Z</time>
      </trkpt>
      <trkpt lat="48.84468" lon="2.38389">
        <ele>93.8</ele>
        <time>2015-01-12T19:41:47.761Z</time>
      </trkpt>
      <trkpt lat="48.84466" lon="2.38394">
        <ele>93.7</ele>
        <time>2015-01-12T19:41:48.827Z</time>
      </trkpt>
      <trkpt lat="48.84462" lon="2.38401">
        <ele>93.6</ele>
        <time>2015-01-12T19:41:50.763Z</time>
      </trkpt>
      <trkpt lat="48.8446" lon="2.38406">
        <ele>93.8</ele>
        <time>2015-01-12T19:41:51.691Z</time>
      </trkpt>
      <trkpt lat="48.84457" lon="2.38416">
        <ele>93.7</ele>
        <time>2015-01-12T19:41:54.519Z</time>
      </trkpt>
      <trkpt lat="48.84456" lon="2.38421">
        <ele>94.2</ele>
        <time>2015-01-12T19:41:54.670Z</time>
      </trkpt>
      <trkpt lat="48.84453" lon="2.38433">
        <ele>94.6</ele>
        <time>2015-01-12T19:41:56.651Z</time>
      </trkpt>
      <trkpt lat="48.84451" lon="2.38439">
        <ele>94.9</ele>
        <time>2015-01-12T19:41:57.681Z</time>
      </trkpt>
      <trkpt lat="48.84446" lon="2.38446">
        <ele>94.9</ele>
        <time>2015-01-12T19:41:59.721Z</time>
      </trkpt>
      <trkpt lat="48.84439" lon="2.38445">
        <ele>94.4</ele>
        <time>2015-01-12T19:42:00.807Z</time>
      </trkpt>
      <trkpt lat="48.8443" lon="2.38443">
        <ele>93.7</ele>
        <time>2015-01-12T19:42:01.809Z</time>
      </trkpt>
      <trkpt lat="48.84423" lon="2.38443">
        <ele>93.2</ele>
        <time>2015-01-12T19:42:02.664Z</time>
      </trkpt>
      <trkpt lat="48.84417" lon="2.38444">
        <ele>93.1</ele>
        <time>2015-01-12T19:42:04.672Z</time>
      </trkpt>
      <trkpt lat="48.84413" lon="2.38447">
        <ele>92.9</ele>
        <time>2015-01-12T19:42:04.715Z</time>
      </trkpt>
      <trkpt lat="48.84405" lon="2.38452">
        <ele>92.4</ele>
        <time>2015-01-12T19:42:06.718Z</time>
      </trkpt>
      <trkpt lat="48.84401" lon="2.38455">
        <ele>92.1</ele>
        <time>2015-01-12T19:42:07.824Z</time>
      </trkpt>
      <trkpt lat="48.84394" lon="2.38461">
        <ele>91.6</ele>
        <time>2015-01-12T19:42:09.768Z</time>
      </trkpt>
      <trkpt lat="48.84391" lon="2.38465">
        <ele>91.3</ele>
        <time>2015-01-12T19:42:10.732Z</time>
      </trkpt>
      <trkpt lat="48.84387" lon="2.38468">
        <ele>91.1</ele>
        <time>2015-01-12T19:42:11.743Z</time>
      </trkpt>
      <trkpt lat="48.84382" lon="2.38471">
        <ele>90.9</ele>
        <time>2015-01-12T19:42:12.764Z</time>
      </trkpt>
      <trkpt lat="48.84378" lon="2.38475">
        <ele>90.8</ele>
        <time>2015-01-12T19:42:13.796Z</time>
      </trkpt>
      <trkpt lat="48.84374" lon="2.38478">
        <ele>90.8</ele>
        <time>2015-01-12T19:42:14.680Z</time>
      </trkpt>
      <trkpt lat="48.8437" lon="2.38482">
        <ele>90.8</ele>
        <time>2015-01-12T19:42:15.673Z</time>
      </trkpt>
      <trkpt lat="48.84365" lon="2.38485">
        <ele>90.7</ele>
        <time>2015-01-12T19:42:16.706Z</time>
      </trkpt>
      <trkpt lat="48.84361" lon="2.3849">
        <ele>90.5</ele>
        <time>2015-01-12T19:42:17.738Z</time>
      </trkpt>
      <trkpt lat="48.84358" lon="2.38495">
        <ele>90.5</ele>
        <time>2015-01-12T19:42:18.747Z</time>
      </trkpt>
      <trkpt lat="48.84354" lon="2.38499">
        <ele>90.5</ele>
        <time>2015-01-12T19:42:19.854Z</time>
      </trkpt>
      <trkpt lat="48.8435" lon="2.38503">
        <ele>90.4</ele>
        <time>2015-01-12T19:42:20.647Z</time>
      </trkpt>
      <trkpt lat="48.84343" lon="2.38511">
        <ele>90.5</ele>
        <time>2015-01-12T19:42:22.673Z</time>
      </trkpt>
      <trkpt lat="48.8434" lon="2.38516">
        <ele>90.3</ele>
        <time>2015-01-12T19:42:23.692Z</time>
      </trkpt>
      <trkpt lat="48.84336" lon="2.3852">
        <ele>90.4</ele>
        <time>2015-01-12T19:42:24.706Z</time>
      </trkpt>
      <trkpt lat="48.84332" lon="2.38524">
        <ele>90.3</ele>
        <time>2015-01-12T19:42:25.717Z</time>
      </trkpt>
      <trkpt lat="48.84329" lon="2.38529">
        <ele>90.4</ele>
        <time>2015-01-12T19:42:26.736Z</time>
      </trkpt>
      <trkpt lat="48.84325" lon="2.38533">
        <ele>90.3</ele>
        <time>2015-01-12T19:42:27.745Z</time>
      </trkpt>
      <trkpt lat="48.84321" lon="2.38537">
        <ele>90.5</ele>
        <time>2015-01-12T19:42:28.748Z</time>
      </trkpt>
      <trkpt lat="48.84318" lon="2.38541">
        <ele>90.6</ele>
        <time>2015-01-12T19:42:29.757Z</time>
      </trkpt>
      <trkpt lat="48.84312" lon="2.38549">
        <ele>90.8</ele>
        <time>2015-01-12T19:42:31.716Z</time>
      </trkpt>
      <trkpt lat="48.84309" lon="2.38553">
        <ele>90.9</ele>
        <time>2015-01-12T19:42:32.737Z</time>
      </trkpt>
      <trkpt lat="48.84303" lon="2.38561">
        <ele>91</ele>
        <time>2015-01-12T19:42:34.662Z</time>
      </trkpt>
      <trkpt lat="48.843" lon="2.38564">
        <ele>91</ele>
        <time>2015-01-12T19:42:35.681Z</time>
      </trkpt>
      <trkpt lat="48.84295" lon="2.38571">
        <ele>90.9</ele>
        <time>2015-01-12T19:42:37.711Z</time>
      </trkpt>
      <trkpt lat="48.84293" lon="2.38574">
        <ele>90.8</ele>
        <time>2015-01-12T19:42:38.740Z</time>
      </trkpt>
      <trkpt lat="48.84288" lon="2.38577">
        <ele>90.7</ele>
        <time>2015-01-12T19:42:40.653Z</time>
      </trkpt>
      <trkpt lat="48.84284" lon="2.38578">
        <ele>90.5</ele>
        <time>2015-01-12T19:42:41.661Z</time>
      </trkpt>
      <trkpt lat="48.84276" lon="2.38583">
        <ele>89.9</ele>
        <time>2015-01-12T19:42:43.687Z</time>
      </trkpt>
      <trkpt lat="48.84273" lon="2.38585">
        <ele>89.7</ele>
        <time>2015-01-12T19:42:44.698Z</time>
      </trkpt>
      <trkpt lat="48.84265" lon="2.38592">
        <ele>89.8</ele>
        <time>2015-01-12T19:42:46.770Z</time>
      </trkpt>
      <trkpt lat="48.84261" lon="2.38594">
        <ele>89.4</ele>
        <time>2015-01-12T19:42:47.734Z</time>
      </trkpt>
      <trkpt lat="48.84255" lon="2.386">
        <ele>89</ele>
        <time>2015-01-12T19:42:49.848Z</time>
      </trkpt>
      <trkpt lat="48.84252" lon="2.38602">
        <ele>89</ele>
        <time>2015-01-12T19:42:50.742Z</time>
      </trkpt>
      <trkpt lat="48.84251" lon="2.38613">
        <ele>88.8</ele>
        <time>2015-01-12T19:43:00.650Z</time>
      </trkpt>
      <trkpt lat="48.84251" lon="2.38616">
        <ele>88.7</ele>
        <time>2015-01-12T19:43:01.756Z</time>
      </trkpt>
      <trkpt lat="48.84247" lon="2.38626">
        <ele>90.3</ele>
        <time>2015-01-12T19:43:10.689Z</time>
      </trkpt>
      <trkpt lat="48.84247" lon="2.38628">
        <ele>90.4</ele>
        <time>2015-01-12T19:43:11.785Z</time>
      </trkpt>
      <trkpt lat="48.84248" lon="2.38637">
        <ele>90.4</ele>
        <time>2015-01-12T19:43:17.725Z</time>
      </trkpt>
      <trkpt lat="48.84247" lon="2.38637">
        <ele>90.4</ele>
        <time>2015-01-12T19:43:18.745Z</time>
      </trkpt>
      <trkpt lat="48.84247" lon="2.38638">
        <ele>90.5</ele>
        <time>2015-01-12T19:43:19.782Z</time>
      </trkpt>
      <trkpt lat="48.84249" lon="2.38651">
        <ele>91.1</ele>
        <time>2015-01-12T19:43:28.711Z</time>
      </trkpt>
      <trkpt lat="48.8425" lon="2.38652">
        <ele>91</ele>
        <time>2015-01-12T19:43:29.709Z</time>
      </trkpt>
      <trkpt lat="48.84249" lon="2.3866">
        <ele>92</ele>
        <time>2015-01-12T19:43:37.753Z</time>
      </trkpt>
      <trkpt lat="48.84249" lon="2.38661">
        <ele>92.1</ele>
        <time>2015-01-12T19:43:38.756Z</time>
      </trkpt>
      <trkpt lat="48.84249" lon="2.38662">
        <ele>92</ele>
        <time>2015-01-12T19:43:39.650Z</time>
      </trkpt>
      <trkpt lat="48.84248" lon="2.38673">
        <ele>92.3</ele>
        <time>2015-01-12T19:43:45.427Z</time>
      </trkpt>
      <trkpt lat="48.84248" lon="2.38676">
        <ele>92.5</ele>
        <time>2015-01-12T19:43:45.696Z</time>
      </trkpt>
      <trkpt lat="48.84249" lon="2.38689">
        <ele>93</ele>
        <time>2015-01-12T19:43:49.690Z</time>
      </trkpt>
      <trkpt lat="48.84249" lon="2.38693">
        <ele>93.1</ele>
        <time>2015-01-12T19:43:50.723Z</time>
      </trkpt>
      <trkpt lat="48.84244" lon="2.38704">
        <ele>93.2</ele>
        <time>2015-01-12T19:43:54.680Z</time>
      </trkpt>
      <trkpt lat="48.84243" lon="2.38707">
        <ele>93.4</ele>
        <time>2015-01-12T19:43:55.856Z</time>
      </trkpt>
      <trkpt lat="48.8424" lon="2.38718">
        <ele>93.5</ele>
        <time>2015-01-12T19:43:59.722Z</time>
      </trkpt>
      <trkpt lat="48.84239" lon="2.38721">
        <ele>93.5</ele>
        <time>2015-01-12T19:44:00.645Z</time>
      </trkpt>
      <trkpt lat="48.84237" lon="2.38732">
        <ele>94.3</ele>
        <time>2015-01-12T19:44:05.646Z</time>
      </trkpt>
      <trkpt lat="48.84236" lon="2.38734">
        <ele>94.3</ele>
        <time>2015-01-12T19:44:06.678Z</time>
      </trkpt>
      <trkpt lat="48.84232" lon="2.38746">
        <ele>93.6</ele>
        <time>2015-01-12T19:44:13.795Z</time>
      </trkpt>
      <trkpt lat="48.84232" lon="2.38747">
        <ele>93.4</ele>
        <time>2015-01-12T19:44:14.709Z</time>
      </trkpt>
      <trkpt lat="48.84229" lon="2.38758">
        <ele>93</ele>
        <time>2015-01-12T19:44:20.665Z</time>
      </trkpt>
      <trkpt lat="48.84229" lon="2.3876">
        <ele>92.7</ele>
        <time>2015-01-12T19:44:21.676Z</time>
      </trkpt>
      <trkpt lat="48.84227" lon="2.38771">
        <ele>92.5</ele>
        <time>2015-01-12T19:44:26.766Z</time>
      </trkpt>
      <trkpt lat="48.84226" lon="2.38773">
        <ele>92.8</ele>
        <time>2015-01-12T19:44:27.667Z</time>
      </trkpt>
      <trkpt lat="48.84223" lon="2.38786">
        <ele>93.1</ele>
        <time>2015-01-12T19:44:32.796Z</time>
      </trkpt>
      <trkpt lat="48.84223" lon="2.38788">
        <ele>93.2</ele>
        <time>2015-01-12T19:44:33.704Z</time>
      </trkpt>
      <trkpt lat="48.8422" lon="2.38799">
        <ele>93.7</ele>
        <time>2015-01-12T19:44:38.722Z</time>
      </trkpt>
      <trkpt lat="48.84219" lon="2.38802">
        <ele>94.1</ele>
        <time>2015-01-12T19:44:39.742Z</time>
      </trkpt>
      <trkpt lat="48.84217" lon="2.38814">
        <ele>94.5</ele>
        <time>2015-01-12T19:44:45.886Z</time>
      </trkpt>
      <trkpt lat="48.84216" lon="2.38816">
        <ele>94.8</ele>
        <time>2015-01-12T19:44:46.658Z</time>
      </trkpt>
      <trkpt lat="48.84215" lon="2.38829">
        <ele>95.1</ele>
        <time>2015-01-12T19:44:59.891Z</time>
      </trkpt>
      <trkpt lat="48.84214" lon="2.38829">
        <ele>95.2</ele>
        <time>2015-01-12T19:45:00.650Z</time>
      </trkpt>
      <trkpt lat="48.84211" lon="2.38838">
        <ele>94.4</ele>
        <time>2015-01-12T19:45:18.676Z</time>
      </trkpt>
      <trkpt lat="48.84211" lon="2.38845">
        <ele>94.1</ele>
        <time>2015-01-12T19:45:19.710Z</time>
      </trkpt>
      <trkpt lat="48.8421" lon="2.38851">
        <ele>94.8</ele>
        <time>2015-01-12T19:45:25.061Z</time>
      </trkpt>
      <trkpt lat="48.84209" lon="2.38852">
        <ele>95.1</ele>
        <time>2015-01-12T19:45:25.769Z</time>
      </trkpt>
      <trkpt lat="48.84209" lon="2.38852">
        <ele>95</ele>
        <time>2015-01-12T19:45:50.694Z</time>
      </trkpt>
      <trkpt lat="48.8421" lon="2.38851">
        <ele>94.8</ele>
        <time>2015-01-12T19:45:51.702Z</time>
      </trkpt>
      <trkpt lat="48.8421" lon="2.38852">
        <ele>94.7</ele>
        <time>2015-01-12T19:45:52.722Z</time>
      </trkpt>
      <trkpt lat="48.84211" lon="2.38853">
        <ele>94.7</ele>
        <time>2015-01-12T19:45:53.743Z</time>
      </trkpt>
      <trkpt lat="48.8421" lon="2.38855">
        <ele>95.2</ele>
        <time>2015-01-12T19:45:58.674Z</time>
      </trkpt>
      <trkpt lat="48.84207" lon="2.38858">
        <ele>96.6</ele>
        <time>2015-01-12T19:45:59.711Z</time>
      </trkpt>
      <trkpt lat="48.84204" lon="2.38869">
        <ele>96.6</ele>
        <time>2015-01-12T19:46:05.671Z</time>
      </trkpt>
      <trkpt lat="48.84203" lon="2.38872">
        <ele>96.7</ele>
        <time>2015-01-12T19:46:06.680Z</time>
      </trkpt>
      <trkpt lat="48.842" lon="2.38882">
        <ele>97.8</ele>
        <time>2015-01-12T19:46:10.660Z</time>
      </trkpt>
      <trkpt lat="48.842" lon="2.38886">
        <ele>97.9</ele>
        <time>2015-01-12T19:46:11.678Z</time>
      </trkpt>
      <trkpt lat="48.84197" lon="2.38896">
        <ele>98.5</ele>
        <time>2015-01-12T19:46:15.734Z</time>
      </trkpt>
      <trkpt lat="48.84197" lon="2.38899">
        <ele>98.5</ele>
        <time>2015-01-12T19:46:16.740Z</time>
      </trkpt>
      <trkpt lat="48.84193" lon="2.3891">
        <ele>99.2</ele>
        <time>2015-01-12T19:46:23.667Z</time>
      </trkpt>
      <trkpt lat="48.84193" lon="2.38912">
        <ele>99.7</ele>
        <time>2015-01-12T19:46:24.676Z</time>
      </trkpt>
      <trkpt lat="48.84193" lon="2.38912">
        <ele>99.7</ele>
        <time>2015-01-12T19:46:24.990Z</time>
      </trkpt>
      <trkpt lat="48.84192" lon="2.38913">
        <ele>100</ele>
        <time>2015-01-12T19:46:25.729Z</time>
      </trkpt>
      <trkpt lat="48.84192" lon="2.38915">
        <ele>100.4</ele>
        <time>2015-01-12T19:46:26.890Z</time>
      </trkpt>
      <trkpt lat="48.8419" lon="2.38917">
        <ele>101.2</ele>
        <time>2015-01-12T19:46:28.721Z</time>
      </trkpt>
      <trkpt lat="48.8419" lon="2.38918">
        <ele>101.6</ele>
        <time>2015-01-12T19:46:29.726Z</time>
      </trkpt>
      <trkpt lat="48.8419" lon="2.38918">
        <ele>101.6</ele>
        <time>2015-01-12T19:46:30.102Z</time>
      </trkpt>
      <trkpt lat="48.84189" lon="2.3892">
        <ele>101.9</ele>
        <time>2015-01-12T19:46:30.740Z</time>
      </trkpt>
      <trkpt lat="48.84189" lon="2.3893">
        <ele>101.5</ele>
        <time>2015-01-12T19:46:33.662Z</time>
      </trkpt>
      <trkpt lat="48.84188" lon="2.38935">
        <ele>101.7</ele>
        <time>2015-01-12T19:46:34.707Z</time>
      </trkpt>
      <trkpt lat="48.84187" lon="2.38946">
        <ele>102.3</ele>
        <time>2015-01-12T19:46:36.713Z</time>
      </trkpt>
      <trkpt lat="48.84186" lon="2.38952">
        <ele>102.7</ele>
        <time>2015-01-12T19:46:37.722Z</time>
      </trkpt>
      <trkpt lat="48.84185" lon="2.38964">
        <ele>103.1</ele>
        <time>2015-01-12T19:46:40.672Z</time>
      </trkpt>
      <trkpt lat="48.84186" lon="2.38967">
        <ele>103.2</ele>
        <time>2015-01-12T19:46:41.677Z</time>
      </trkpt>
      <trkpt lat="48.84185" lon="2.3898">
        <ele>103.6</ele>
        <time>2015-01-12T19:46:45.310Z</time>
      </trkpt>
      <trkpt lat="48.84185" lon="2.38985">
        <ele>103.8</ele>
        <time>2015-01-12T19:46:45.740Z</time>
      </trkpt>
      <trkpt lat="48.84185" lon="2.38995">
        <ele>104</ele>
        <time>2015-01-12T19:46:47.643Z</time>
      </trkpt>
      <trkpt lat="48.84184" lon="2.39">
        <ele>104.1</ele>
        <time>2015-01-12T19:46:48.658Z</time>
      </trkpt>
      <trkpt lat="48.84182" lon="2.39014">
        <ele>104.1</ele>
        <time>2015-01-12T19:46:51.706Z</time>
      </trkpt>
      <trkpt lat="48.84182" lon="2.39018">
        <ele>104.2</ele>
        <time>2015-01-12T19:46:52.717Z</time>
      </trkpt>
      <trkpt lat="48.84182" lon="2.39028">
        <ele>104.6</ele>
        <time>2015-01-12T19:46:54.663Z</time>
      </trkpt>
      <trkpt lat="48.84182" lon="2.39033">
        <ele>104.6</ele>
        <time>2015-01-12T19:46:55.725Z</time>
      </trkpt>
      <trkpt lat="48.84179" lon="2.39045">
        <ele>104.5</ele>
        <time>2015-01-12T19:46:58.684Z</time>
      </trkpt>
      <trkpt lat="48.8418" lon="2.39048">
        <ele>104.5</ele>
        <time>2015-01-12T19:46:59.709Z</time>
      </trkpt>
      <trkpt lat="48.84181" lon="2.3906">
        <ele>104.8</ele>
        <time>2015-01-12T19:47:02.633Z</time>
      </trkpt>
      <trkpt lat="48.84181" lon="2.39065">
        <ele>105</ele>
        <time>2015-01-12T19:47:03.656Z</time>
      </trkpt>
      <trkpt lat="48.84179" lon="2.39074">
        <ele>105</ele>
        <time>2015-01-12T19:47:05.673Z</time>
      </trkpt>
      <trkpt lat="48.84178" lon="2.39079">
        <ele>105.1</ele>
        <time>2015-01-12T19:47:06.731Z</time>
      </trkpt>
      <trkpt lat="48.84175" lon="2.3909">
        <ele>105.5</ele>
        <time>2015-01-12T19:47:08.675Z</time>
      </trkpt>
      <trkpt lat="48.84175" lon="2.39096">
        <ele>105.9</ele>
        <time>2015-01-12T19:47:09.702Z</time>
      </trkpt>
      <trkpt lat="48.84175" lon="2.39103">
        <ele>106.2</ele>
        <time>2015-01-12T19:47:10.698Z</time>
      </trkpt>
      <trkpt lat="48.84175" lon="2.3911">
        <ele>106.7</ele>
        <time>2015-01-12T19:47:11.716Z</time>
      </trkpt>
      <trkpt lat="48.84174" lon="2.39123">
        <ele>107.3</ele>
        <time>2015-01-12T19:47:13.771Z</time>
      </trkpt>
      <trkpt lat="48.84173" lon="2.39128">
        <ele>107.4</ele>
        <time>2015-01-12T19:47:14.655Z</time>
      </trkpt>
      <trkpt lat="48.84169" lon="2.39139">
        <ele>107.6</ele>
        <time>2015-01-12T19:47:16.738Z</time>
      </trkpt>
      <trkpt lat="48.84167" lon="2.39144">
        <ele>107.6</ele>
        <time>2015-01-12T19:47:17.649Z</time>
      </trkpt>
      <trkpt lat="48.84164" lon="2.3915">
        <ele>107.6</ele>
        <time>2015-01-12T19:47:18.661Z</time>
      </trkpt>
      <trkpt lat="48.84161" lon="2.39156">
        <ele>107.7</ele>
        <time>2015-01-12T19:47:19.721Z</time>
      </trkpt>
      <trkpt lat="48.84157" lon="2.39168">
        <ele>107.8</ele>
        <time>2015-01-12T19:47:21.734Z</time>
      </trkpt>
      <trkpt lat="48.84156" lon="2.39172">
        <ele>108</ele>
        <time>2015-01-12T19:47:22.709Z</time>
      </trkpt>
      <trkpt lat="48.84153" lon="2.39177">
        <ele>107.9</ele>
        <time>2015-01-12T19:47:23.643Z</time>
      </trkpt>
      <trkpt lat="48.84148" lon="2.39184">
        <ele>107.5</ele>
        <time>2015-01-12T19:47:24.675Z</time>
      </trkpt>
      <trkpt lat="48.84143" lon="2.39191">
        <ele>107.2</ele>
        <time>2015-01-12T19:47:25.706Z</time>
      </trkpt>
      <trkpt lat="48.84139" lon="2.39197">
        <ele>106.9</ele>
        <time>2015-01-12T19:47:26.720Z</time>
      </trkpt>
      <trkpt lat="48.84136" lon="2.39202">
        <ele>106.5</ele>
        <time>2015-01-12T19:47:27.729Z</time>
      </trkpt>
      <trkpt lat="48.84133" lon="2.39207">
        <ele>106.4</ele>
        <time>2015-01-12T19:47:28.726Z</time>
      </trkpt>
      <trkpt lat="48.84129" lon="2.39216">
        <ele>106.1</ele>
        <time>2015-01-12T19:47:30.739Z</time>
      </trkpt>
      <trkpt lat="48.84127" lon="2.39221">
        <ele>106</ele>
        <time>2015-01-12T19:47:31.752Z</time>
      </trkpt>
      <trkpt lat="48.84124" lon="2.39232">
        <ele>106.4</ele>
        <time>2015-01-12T19:47:33.810Z</time>
      </trkpt>
      <trkpt lat="48.84122" lon="2.39237">
        <ele>106.6</ele>
        <time>2015-01-12T19:47:34.722Z</time>
      </trkpt>
      <trkpt lat="48.84118" lon="2.39249">
        <ele>107</ele>
        <time>2015-01-12T19:47:36.734Z</time>
      </trkpt>
      <trkpt lat="48.84118" lon="2.39254">
        <ele>107.2</ele>
        <time>2015-01-12T19:47:37.734Z</time>
      </trkpt>
      <trkpt lat="48.84115" lon="2.39263">
        <ele>107.8</ele>
        <time>2015-01-12T19:47:40.802Z</time>
      </trkpt>
      <trkpt lat="48.84113" lon="2.39268">
        <ele>108</ele>
        <time>2015-01-12T19:47:41.050Z</time>
      </trkpt>
      <trkpt lat="48.8411" lon="2.39277">
        <ele>108.7</ele>
        <time>2015-01-12T19:47:42.756Z</time>
      </trkpt>
      <trkpt lat="48.84109" lon="2.39282">
        <ele>109</ele>
        <time>2015-01-12T19:47:43.763Z</time>
      </trkpt>
      <trkpt lat="48.84109" lon="2.39292">
        <ele>109.4</ele>
        <time>2015-01-12T19:47:45.834Z</time>
      </trkpt>
      <trkpt lat="48.8411" lon="2.39297">
        <ele>109.6</ele>
        <time>2015-01-12T19:47:46.710Z</time>
      </trkpt>
      <trkpt lat="48.8411" lon="2.39308">
        <ele>109.9</ele>
        <time>2015-01-12T19:47:49.635Z</time>
      </trkpt>
      <trkpt lat="48.84109" lon="2.39313">
        <ele>110</ele>
        <time>2015-01-12T19:47:49.697Z</time>
      </trkpt>
      <trkpt lat="48.84107" lon="2.39323">
        <ele>110.2</ele>
        <time>2015-01-12T19:47:51.732Z</time>
      </trkpt>
      <trkpt lat="48.84104" lon="2.39329">
        <ele>110.1</ele>
        <time>2015-01-12T19:47:52.747Z</time>
      </trkpt>
      <trkpt lat="48.84101" lon="2.39334">
        <ele>109.9</ele>
        <time>2015-01-12T19:47:53.675Z</time>
      </trkpt>
      <trkpt lat="48.84097" lon="2.3934">
        <ele>109.9</ele>
        <time>2015-01-12T19:47:54.707Z</time>
      </trkpt>
      <trkpt lat="48.84091" lon="2.39348">
        <ele>109.8</ele>
        <time>2015-01-12T19:47:56.713Z</time>
      </trkpt>
      <trkpt lat="48.84089" lon="2.3935">
        <ele>109.8</ele>
        <time>2015-01-12T19:47:57.649Z</time>
      </trkpt>
      <trkpt lat="48.84096" lon="2.39344">
        <ele>112.3</ele>
        <time>2015-01-12T19:48:04.728Z</time>
      </trkpt>
      <trkpt lat="48.84098" lon="2.39344">
        <ele>112.7</ele>
        <time>2015-01-12T19:48:05.655Z</time>
      </trkpt>
      <trkpt lat="48.841" lon="2.39346">
        <ele>114.6</ele>
        <time>2015-01-12T19:48:09.752Z</time>
      </trkpt>
      <trkpt lat="48.841" lon="2.39346">
        <ele>115.4</ele>
        <time>2015-01-12T19:48:10.764Z</time>
      </trkpt>
      <trkpt lat="48.841" lon="2.39347">
        <ele>116.3</ele>
        <time>2015-01-12T19:48:11.710Z</time>
      </trkpt>
      <trkpt lat="48.84103" lon="2.3935">
        <ele>118.1</ele>
        <time>2015-01-12T19:48:17.718Z</time>
      </trkpt>
      <trkpt lat="48.84104" lon="2.39351">
        <ele>118.2</ele>
        <time>2015-01-12T19:48:18.727Z</time>
      </trkpt>
      <trkpt lat="48.84105" lon="2.39351">
        <ele>118.7</ele>
        <time>2015-01-12T19:48:19.681Z</time>
      </trkpt>
      <trkpt lat="48.84107" lon="2.39352">
        <ele>119.2</ele>
        <time>2015-01-12T19:48:20.715Z</time>
      </trkpt>
      <trkpt lat="48.84113" lon="2.39357">
        <ele>121</ele>
        <time>2015-01-12T19:48:24.774Z</time>
      </trkpt>
      <trkpt lat="48.84116" lon="2.39358">
        <ele>122</ele>
        <time>2015-01-12T19:48:25.790Z</time>
      </trkpt>
      <trkpt lat="48.84116" lon="2.39358">
        <ele>122</ele>
        <time>2015-01-12T19:48:26.115Z</time>
      </trkpt>
      <trkpt lat="48.84117" lon="2.39359">
        <ele>122.5</ele>
        <time>2015-01-12T19:48:26.683Z</time>
      </trkpt>
      <trkpt lat="48.84118" lon="2.3936">
        <ele>123</ele>
        <time>2015-01-12T19:48:27.691Z</time>
      </trkpt>
      <trkpt lat="48.84121" lon="2.3936">
        <ele>124.4</ele>
        <time>2015-01-12T19:48:31.164Z</time>
      </trkpt>
      <trkpt lat="48.84122" lon="2.39361">
        <ele>124.8</ele>
        <time>2015-01-12T19:48:31.744Z</time>
      </trkpt>
      <trkpt lat="48.84122" lon="2.39362">
        <ele>124.8</ele>
        <time>2015-01-12T19:48:33.645Z</time>
      </trkpt>
      <trkpt lat="48.84123" lon="2.3937">
        <ele>124.3</ele>
        <time>2015-01-12T19:48:34.666Z</time>
      </trkpt>
      <trkpt lat="48.84122" lon="2.39383">
        <ele>123.6</ele>
        <time>2015-01-12T19:48:43.935Z</time>
      </trkpt>
      <trkpt lat="48.84122" lon="2.39385">
        <ele>123.6</ele>
        <time>2015-01-12T19:48:44.731Z</time>
      </trkpt>
      <trkpt lat="48.84121" lon="2.39386">
        <ele>123.8</ele>
        <time>2015-01-12T19:48:46.351Z</time>
      </trkpt>
      <trkpt lat="48.8412" lon="2.39385">
        <ele>123.8</ele>
        <time>2015-01-12T19:48:46.650Z</time>
      </trkpt>
      <trkpt lat="48.84119" lon="2.39382">
        <ele>123.6</ele>
        <time>2015-01-12T19:48:52.703Z</time>
      </trkpt>
      <trkpt lat="48.84119" lon="2.39381">
        <ele>124</ele>
        <time>2015-01-12T19:48:53.659Z</time>
      </trkpt>
      <trkpt lat="48.84111" lon="2.39387">
        <ele>123.9</ele>
        <time>2015-01-12T19:48:59.677Z</time>
      </trkpt>
      <trkpt lat="48.8411" lon="2.39388">
        <ele>123.9</ele>
        <time>2015-01-12T19:49:00.680Z</time>
      </trkpt>
      <trkpt lat="48.84105" lon="2.39399">
        <ele>124.6</ele>
        <time>2015-01-12T19:49:06.634Z</time>
      </trkpt>
      <trkpt lat="48.84104" lon="2.39401">
        <ele>124.7</ele>
        <time>2015-01-12T19:49:07.690Z</time>
      </trkpt>
      <trkpt lat="48.84105" lon="2.39413">
        <ele>124.7</ele>
        <time>2015-01-12T19:49:12.801Z</time>
      </trkpt>
      <trkpt lat="48.84105" lon="2.39416">
        <ele>124.7</ele>
        <time>2015-01-12T19:49:13.744Z</time>
      </trkpt>
      <trkpt lat="48.84109" lon="2.39424">
        <ele>124.2</ele>
        <time>2015-01-12T19:49:15.659Z</time>
      </trkpt>
      <trkpt lat="48.84111" lon="2.39428">
        <ele>123.8</ele>
        <time>2015-01-12T19:49:16.686Z</time>
      </trkpt>
      <trkpt lat="48.84116" lon="2.39438">
        <ele>122.2</ele>
        <time>2015-01-12T19:49:18.724Z</time>
      </trkpt>
      <trkpt lat="48.84119" lon="2.39444">
        <ele>120.1</ele>
        <time>2015-01-12T19:49:19.744Z</time>
      </trkpt>
      <trkpt lat="48.84122" lon="2.3945">
        <ele>118.8</ele>
        <time>2015-01-12T19:49:20.669Z</time>
      </trkpt>
      <trkpt lat="48.84125" lon="2.39456">
        <ele>118.1</ele>
        <time>2015-01-12T19:49:21.704Z</time>
      </trkpt>
      <trkpt lat="48.84128" lon="2.39462">
        <ele>117.6</ele>
        <time>2015-01-12T19:49:22.710Z</time>
      </trkpt>
      <trkpt lat="48.84131" lon="2.39467">
        <ele>117.2</ele>
        <time>2015-01-12T19:49:23.722Z</time>
      </trkpt>
      <trkpt lat="48.84137" lon="2.39475">
        <ele>116.8</ele>
        <time>2015-01-12T19:49:25.755Z</time>
      </trkpt>
      <trkpt lat="48.8414" lon="2.3948">
        <ele>116.9</ele>
        <time>2015-01-12T19:49:26.666Z</time>
      </trkpt>
      <trkpt lat="48.84144" lon="2.39485">
        <ele>116.1</ele>
        <time>2015-01-12T19:49:27.669Z</time>
      </trkpt>
      <trkpt lat="48.84146" lon="2.39492">
        <ele>115.5</ele>
        <time>2015-01-12T19:49:28.683Z</time>
      </trkpt>
      <trkpt lat="48.84149" lon="2.39498">
        <ele>115.1</ele>
        <time>2015-01-12T19:49:29.933Z</time>
      </trkpt>
      <trkpt lat="48.84151" lon="2.39504">
        <ele>114.6</ele>
        <time>2015-01-12T19:49:30.729Z</time>
      </trkpt>
      <trkpt lat="48.84155" lon="2.39509">
        <ele>114.2</ele>
        <time>2015-01-12T19:49:31.741Z</time>
      </trkpt>
      <trkpt lat="48.84158" lon="2.39515">
        <ele>113.8</ele>
        <time>2015-01-12T19:49:32.750Z</time>
      </trkpt>
      <trkpt lat="48.84161" lon="2.39521">
        <ele>113.4</ele>
        <time>2015-01-12T19:49:33.662Z</time>
      </trkpt>
      <trkpt lat="48.84163" lon="2.39527">
        <ele>113.1</ele>
        <time>2015-01-12T19:49:34.658Z</time>
      </trkpt>
      <trkpt lat="48.84166" lon="2.39533">
        <ele>113</ele>
        <time>2015-01-12T19:49:35.659Z</time>
      </trkpt>
      <trkpt lat="48.8417" lon="2.39539">
        <ele>112.7</ele>
        <time>2015-01-12T19:49:36.686Z</time>
      </trkpt>
      <trkpt lat="48.84173" lon="2.39545">
        <ele>112.6</ele>
        <time>2015-01-12T19:49:37.694Z</time>
      </trkpt>
      <trkpt lat="48.84176" lon="2.39551">
        <ele>112.3</ele>
        <time>2015-01-12T19:49:38.760Z</time>
      </trkpt>
      <trkpt lat="48.84178" lon="2.39557">
        <ele>111.9</ele>
        <time>2015-01-12T19:49:39.630Z</time>
      </trkpt>
      <trkpt lat="48.84181" lon="2.39563">
        <ele>111.6</ele>
        <time>2015-01-12T19:49:40.656Z</time>
      </trkpt>
      <trkpt lat="48.84185" lon="2.39573">
        <ele>110.7</ele>
        <time>2015-01-12T19:49:42.710Z</time>
      </trkpt>
      <trkpt lat="48.84187" lon="2.39578">
        <ele>110.4</ele>
        <time>2015-01-12T19:49:43.747Z</time>
      </trkpt>
      <trkpt lat="48.84193" lon="2.39586">
        <ele>109.9</ele>
        <time>2015-01-12T19:49:45.669Z</time>
      </trkpt>
      <trkpt lat="48.84195" lon="2.3959">
        <ele>109.7</ele>
        <time>2015-01-12T19:49:46.698Z</time>
      </trkpt>
      <trkpt lat="48.842" lon="2.396">
        <ele>109.5</ele>
        <time>2015-01-12T19:49:48.665Z</time>
      </trkpt>
      <trkpt lat="48.84202" lon="2.39607">
        <ele>109.8</ele>
        <time>2015-01-12T19:49:49.701Z</time>
      </trkpt>
      <trkpt lat="48.84205" lon="2.39612">
        <ele>110</ele>
        <time>2015-01-12T19:49:50.665Z</time>
      </trkpt>
      <trkpt lat="48.84208" lon="2.39618">
        <ele>110.2</ele>
        <time>2015-01-12T19:49:51.666Z</time>
      </trkpt>
      <trkpt lat="48.84212" lon="2.39628">
        <ele>110.1</ele>
        <time>2015-01-12T19:49:53.667Z</time>
      </trkpt>
      <trkpt lat="48.84213" lon="2.39634">
        <ele>110.1</ele>
        <time>2015-01-12T19:49:54.682Z</time>
      </trkpt>
      <trkpt lat="48.84218" lon="2.39637">
        <ele>110.1</ele>
        <time>2015-01-12T19:49:55.776Z</time>
      </trkpt>
      <trkpt lat="48.84221" lon="2.39642">
        <ele>110.1</ele>
        <time>2015-01-12T19:49:56.663Z</time>
      </trkpt>
      <trkpt lat="48.84225" lon="2.39653">
        <ele>110.7</ele>
        <time>2015-01-12T19:49:58.687Z</time>
      </trkpt>
      <trkpt lat="48.84227" lon="2.39659">
        <ele>111.2</ele>
        <time>2015-01-12T19:49:59.699Z</time>
      </trkpt>
      <trkpt lat="48.8423" lon="2.39667">
        <ele>111.6</ele>
        <time>2015-01-12T19:50:00.731Z</time>
      </trkpt>
      <trkpt lat="48.84232" lon="2.39674">
        <ele>111.9</ele>
        <time>2015-01-12T19:50:01.742Z</time>
      </trkpt>
      <trkpt lat="48.84234" lon="2.39682">
        <ele>112.3</ele>
        <time>2015-01-12T19:50:02.676Z</time>
      </trkpt>
      <trkpt lat="48.84237" lon="2.39689">
        <ele>112.4</ele>
        <time>2015-01-12T19:50:03.680Z</time>
      </trkpt>
      <trkpt lat="48.84239" lon="2.39695">
        <ele>112.2</ele>
        <time>2015-01-12T19:50:04.694Z</time>
      </trkpt>
      <trkpt lat="48.84241" lon="2.39701">
        <ele>112.1</ele>
        <time>2015-01-12T19:50:05.799Z</time>
      </trkpt>
      <trkpt lat="48.84245" lon="2.39713">
        <ele>112</ele>
        <time>2015-01-12T19:50:07.709Z</time>
      </trkpt>
      <trkpt lat="48.84246" lon="2.39718">
        <ele>112.1</ele>
        <time>2015-01-12T19:50:08.725Z</time>
      </trkpt>
      <trkpt lat="48.84249" lon="2.39729">
        <ele>112.4</ele>
        <time>2015-01-12T19:50:10.678Z</time>
      </trkpt>
      <trkpt lat="48.84253" lon="2.39731">
        <ele>113.1</ele>
        <time>2015-01-12T19:50:11.718Z</time>
      </trkpt>
      <trkpt lat="48.84259" lon="2.39738">
        <ele>114.5</ele>
        <time>2015-01-12T19:50:13.699Z</time>
      </trkpt>
      <trkpt lat="48.84262" lon="2.3974">
        <ele>115.6</ele>
        <time>2015-01-12T19:50:14.711Z</time>
      </trkpt>
      <trkpt lat="48.84269" lon="2.39744">
        <ele>117.8</ele>
        <time>2015-01-12T19:50:17.672Z</time>
      </trkpt>
      <trkpt lat="48.8427" lon="2.39744">
        <ele>118</ele>
        <time>2015-01-12T19:50:18.675Z</time>
      </trkpt>
      <trkpt lat="48.84271" lon="2.39743">
        <ele>118.1</ele>
        <time>2015-01-12T19:50:19.714Z</time>
      </trkpt>
      <trkpt lat="48.84275" lon="2.39751">
        <ele>120</ele>
        <time>2015-01-12T19:50:24.697Z</time>
      </trkpt>
      <trkpt lat="48.84276" lon="2.39755">
        <ele>120.4</ele>
        <time>2015-01-12T19:50:25.711Z</time>
      </trkpt>
      <trkpt lat="48.84279" lon="2.39767">
        <ele>121.9</ele>
        <time>2015-01-12T19:50:28.750Z</time>
      </trkpt>
      <trkpt lat="48.8428" lon="2.39773">
        <ele>122.4</ele>
        <time>2015-01-12T19:50:29.694Z</time>
      </trkpt>
      <trkpt lat="48.84283" lon="2.39783">
        <ele>123.5</ele>
        <time>2015-01-12T19:50:31.745Z</time>
      </trkpt>
      <trkpt lat="48.84284" lon="2.39788">
        <ele>123.9</ele>
        <time>2015-01-12T19:50:32.678Z</time>
      </trkpt>
      <trkpt lat="48.84286" lon="2.39798">
        <ele>124.5</ele>
        <time>2015-01-12T19:50:34.737Z</time>
      </trkpt>
      <trkpt lat="48.84287" lon="2.39804">
        <ele>124.7</ele>
        <time>2015-01-12T19:50:35.739Z</time>
      </trkpt>
      <trkpt lat="48.84288" lon="2.39815">
        <ele>125.1</ele>
        <time>2015-01-12T19:50:37.697Z</time>
      </trkpt>
      <trkpt lat="48.84288" lon="2.39822">
        <ele>125</ele>
        <time>2015-01-12T19:50:38.687Z</time>
      </trkpt>
      <trkpt lat="48.84288" lon="2.39835">
        <ele>125</ele>
        <time>2015-01-12T19:50:40.661Z</time>
      </trkpt>
      <trkpt lat="48.84288" lon="2.39841">
        <ele>125</ele>
        <time>2015-01-12T19:50:41.659Z</time>
      </trkpt>
      <trkpt lat="48.84289" lon="2.39848">
        <ele>124.7</ele>
        <time>2015-01-12T19:50:42.679Z</time>
      </trkpt>
      <trkpt lat="48.8429" lon="2.39854">
        <ele>124.6</ele>
        <time>2015-01-12T19:50:43.696Z</time>
      </trkpt>
      <trkpt lat="48.8429" lon="2.39868">
        <ele>124.3</ele>
        <time>2015-01-12T19:50:45.708Z</time>
      </trkpt>
      <trkpt lat="48.84291" lon="2.39875">
        <ele>124.2</ele>
        <time>2015-01-12T19:50:46.720Z</time>
      </trkpt>
      <trkpt lat="48.84291" lon="2.39882">
        <ele>124</ele>
        <time>2015-01-12T19:50:47.662Z</time>
      </trkpt>
      <trkpt lat="48.84292" lon="2.39889">
        <ele>123.8</ele>
        <time>2015-01-12T19:50:48.665Z</time>
      </trkpt>
      <trkpt lat="48.84293" lon="2.39896">
        <ele>123.5</ele>
        <time>2015-01-12T19:50:49.701Z</time>
      </trkpt>
      <trkpt lat="48.84294" lon="2.39902">
        <ele>123.3</ele>
        <time>2015-01-12T19:50:50.694Z</time>
      </trkpt>
      <trkpt lat="48.84294" lon="2.39909">
        <ele>123.2</ele>
        <time>2015-01-12T19:50:51.703Z</time>
      </trkpt>
      <trkpt lat="48.84294" lon="2.39916">
        <ele>123.3</ele>
        <time>2015-01-12T19:50:52.714Z</time>
      </trkpt>
      <trkpt lat="48.84293" lon="2.39924">
        <ele>123.4</ele>
        <time>2015-01-12T19:50:53.721Z</time>
      </trkpt>
      <trkpt lat="48.84292" lon="2.39931">
        <ele>123.6</ele>
        <time>2015-01-12T19:50:54.725Z</time>
      </trkpt>
      <trkpt lat="48.8429" lon="2.39939">
        <ele>123.6</ele>
        <time>2015-01-12T19:50:55.729Z</time>
      </trkpt>
      <trkpt lat="48.84288" lon="2.39946">
        <ele>123.6</ele>
        <time>2015-01-12T19:50:56.738Z</time>
      </trkpt>
      <trkpt lat="48.84287" lon="2.39954">
        <ele>123.7</ele>
        <time>2015-01-12T19:50:57.751Z</time>
      </trkpt>
      <trkpt lat="48.84286" lon="2.39962">
        <ele>123.7</ele>
        <time>2015-01-12T19:50:58.658Z</time>
      </trkpt>
      <trkpt lat="48.84285" lon="2.39969">
        <ele>123.6</ele>
        <time>2015-01-12T19:50:59.652Z</time>
      </trkpt>
      <trkpt lat="48.84285" lon="2.39975">
        <ele>123.4</ele>
        <time>2015-01-12T19:51:00.667Z</time>
      </trkpt>
      <trkpt lat="48.84286" lon="2.39988">
        <ele>123.2</ele>
        <time>2015-01-12T19:51:02.730Z</time>
      </trkpt>
      <trkpt lat="48.84286" lon="2.39995">
        <ele>123.2</ele>
        <time>2015-01-12T19:51:03.802Z</time>
      </trkpt>
      <trkpt lat="48.84287" lon="2.40002">
        <ele>123.1</ele>
        <time>2015-01-12T19:51:04.643Z</time>
      </trkpt>
      <trkpt lat="48.84287" lon="2.40009">
        <ele>123.1</ele>
        <time>2015-01-12T19:51:05.652Z</time>
      </trkpt>
      <trkpt lat="48.84288" lon="2.40022">
        <ele>123.3</ele>
        <time>2015-01-12T19:51:07.691Z</time>
      </trkpt>
      <trkpt lat="48.84288" lon="2.40028">
        <ele>123.5</ele>
        <time>2015-01-12T19:51:08.705Z</time>
      </trkpt>
      <trkpt lat="48.84287" lon="2.40034">
        <ele>123.8</ele>
        <time>2015-01-12T19:51:09.715Z</time>
      </trkpt>
      <trkpt lat="48.84286" lon="2.40042">
        <ele>124.6</ele>
        <time>2015-01-12T19:51:10.677Z</time>
      </trkpt>
      <trkpt lat="48.84285" lon="2.4005">
        <ele>125.2</ele>
        <time>2015-01-12T19:51:11.682Z</time>
      </trkpt>
      <trkpt lat="48.84285" lon="2.40056">
        <ele>125.7</ele>
        <time>2015-01-12T19:51:12.797Z</time>
      </trkpt>
      <trkpt lat="48.84288" lon="2.40065">
        <ele>126.2</ele>
        <time>2015-01-12T19:51:13.721Z</time>
      </trkpt>
      <trkpt lat="48.8429" lon="2.40074">
        <ele>127</ele>
        <time>2015-01-12T19:51:14.764Z</time>
      </trkpt>
      <trkpt lat="48.84292" lon="2.40082">
        <ele>128</ele>
        <time>2015-01-12T19:51:15.660Z</time>
      </trkpt>
      <trkpt lat="48.84293" lon="2.40089">
        <ele>128.8</ele>
        <time>2015-01-12T19:51:16.662Z</time>
      </trkpt>
      <trkpt lat="48.84296" lon="2.40097">
        <ele>130</ele>
        <time>2015-01-12T19:51:17.686Z</time>
      </trkpt>
      <trkpt lat="48.84302" lon="2.40103">
        <ele>130.8</ele>
        <time>2015-01-12T19:51:18.699Z</time>
      </trkpt>
      <trkpt lat="48.84304" lon="2.40114">
        <ele>130.2</ele>
        <time>2015-01-12T19:51:20.660Z</time>
      </trkpt>
      <trkpt lat="48.84304" lon="2.4012">
        <ele>130.2</ele>
        <time>2015-01-12T19:51:21.676Z</time>
      </trkpt>
      <trkpt lat="48.84307" lon="2.40129">
        <ele>129.7</ele>
        <time>2015-01-12T19:51:23.678Z</time>
      </trkpt>
      <trkpt lat="48.84308" lon="2.40132">
        <ele>129.7</ele>
        <time>2015-01-12T19:51:24.685Z</time>
      </trkpt>
      <trkpt lat="48.8431" lon="2.40134">
        <ele>129.8</ele>
        <time>2015-01-12T19:51:25.708Z</time>
      </trkpt>
      <trkpt lat="48.84311" lon="2.40135">
        <ele>129.8</ele>
        <time>2015-01-12T19:51:26.738Z</time>
      </trkpt>
      <trkpt lat="48.84311" lon="2.40135">
        <ele>129.7</ele>
        <time>2015-01-12T19:51:37.705Z</time>
      </trkpt>
      <trkpt lat="48.84305" lon="2.40146">
        <ele>132.4</ele>
        <time>2015-01-12T19:51:38.721Z</time>
      </trkpt>
      <trkpt lat="48.84305" lon="2.40147">
        <ele>132.5</ele>
        <time>2015-01-12T19:51:39.760Z</time>
      </trkpt>
      <trkpt lat="48.84304" lon="2.40149">
        <ele>133</ele>
        <time>2015-01-12T19:51:40.656Z</time>
      </trkpt>
      <trkpt lat="48.84302" lon="2.40153">
        <ele>135</ele>
        <time>2015-01-12T19:51:42.679Z</time>
      </trkpt>
      <trkpt lat="48.84301" lon="2.40154">
        <ele>133.6</ele>
        <time>2015-01-12T19:51:43.713Z</time>
      </trkpt>
      <trkpt lat="48.84302" lon="2.40152">
        <ele>129.7</ele>
        <time>2015-01-12T19:51:51.711Z</time>
      </trkpt>
      <trkpt lat="48.84303" lon="2.40151">
        <ele>128.7</ele>
        <time>2015-01-12T19:51:52.739Z</time>
      </trkpt>
      <trkpt lat="48.84304" lon="2.40151">
        <ele>127.7</ele>
        <time>2015-01-12T19:51:53.762Z</time>
      </trkpt>
      <trkpt lat="48.84305" lon="2.40152">
        <ele>127.6</ele>
        <time>2015-01-12T19:51:54.648Z</time>
      </trkpt>
      <trkpt lat="48.84305" lon="2.40152">
        <ele>127.6</ele>
        <time>2015-01-12T19:51:55.708Z</time>
      </trkpt>
      <trkpt lat="48.84306" lon="2.40152">
        <ele>127.6</ele>
        <time>2015-01-12T19:51:56.666Z</time>
      </trkpt>
      <trkpt lat="48.84306" lon="2.40153">
        <ele>127.6</ele>
        <time>2015-01-12T19:51:57.661Z</time>
      </trkpt>
      <trkpt lat="48.84307" lon="2.40158">
        <ele>128.1</ele>
        <time>2015-01-12T19:52:03.755Z</time>
      </trkpt>
      <trkpt lat="48.84307" lon="2.40158">
        <ele>128.2</ele>
        <time>2015-01-12T19:52:04.766Z</time>
      </trkpt>
      <trkpt lat="48.84306" lon="2.40158">
        <ele>128.3</ele>
        <time>2015-01-12T19:52:09.679Z</time>
      </trkpt>
      <trkpt lat="48.84302" lon="2.4016">
        <ele>129.3</ele>
        <time>2015-01-12T19:52:10.717Z</time>
      </trkpt>
      <trkpt lat="48.84299" lon="2.4016">
        <ele>130</ele>
        <time>2015-01-12T19:52:11.769Z</time>
      </trkpt>
      <trkpt lat="48.84298" lon="2.4016">
        <ele>130.4</ele>
        <time>2015-01-12T19:52:12.685Z</time>
      </trkpt>
      <trkpt lat="48.84298" lon="2.4016">
        <ele>130.4</ele>
        <time>2015-01-12T19:52:22.654Z</time>
      </trkpt>
      <trkpt lat="48.84291" lon="2.40157">
        <ele>130.9</ele>
        <time>2015-01-12T19:52:23.744Z</time>
      </trkpt>
      <trkpt lat="48.84292" lon="2.40157">
        <ele>131.3</ele>
        <time>2015-01-12T19:52:26.694Z</time>
      </trkpt>
      <trkpt lat="48.84292" lon="2.40158">
        <ele>131.3</ele>
        <time>2015-01-12T19:52:27.661Z</time>
      </trkpt>
      <trkpt lat="48.84293" lon="2.40155">
        <ele>130.4</ele>
        <time>2015-01-12T19:52:28.706Z</time>
      </trkpt>
      <trkpt lat="48.84292" lon="2.40154">
        <ele>129.7</ele>
        <time>2015-01-12T19:52:29.715Z</time>
      </trkpt>
      <trkpt lat="48.84293" lon="2.40153">
        <ele>129.4</ele>
        <time>2015-01-12T19:52:37.698Z</time>
      </trkpt>
      <trkpt lat="48.84292" lon="2.4015">
        <ele>129.1</ele>
        <time>2015-01-12T19:52:38.718Z</time>
      </trkpt>
      <trkpt lat="48.84287" lon="2.40161">
        <ele>128.7</ele>
        <time>2015-01-12T19:52:45.715Z</time>
      </trkpt>
      <trkpt lat="48.84286" lon="2.40163">
        <ele>128.4</ele>
        <time>2015-01-12T19:52:46.729Z</time>
      </trkpt>
      <trkpt lat="48.84283" lon="2.40172">
        <ele>127.6</ele>
        <time>2015-01-12T19:52:49.793Z</time>
      </trkpt>
      <trkpt lat="48.84283" lon="2.40176">
        <ele>127.3</ele>
        <time>2015-01-12T19:52:50.657Z</time>
      </trkpt>
      <trkpt lat="48.84282" lon="2.40187">
        <ele>127.2</ele>
        <time>2015-01-12T19:52:53.686Z</time>
      </trkpt>
      <trkpt lat="48.8428" lon="2.40191">
        <ele>127.3</ele>
        <time>2015-01-12T19:52:54.709Z</time>
      </trkpt>
      <trkpt lat="48.84278" lon="2.40202">
        <ele>127.3</ele>
        <time>2015-01-12T19:52:58.695Z</time>
      </trkpt>
      <trkpt lat="48.84278" lon="2.40205">
        <ele>127.3</ele>
        <time>2015-01-12T19:52:59.697Z</time>
      </trkpt>
      <trkpt lat="48.8428" lon="2.40215">
        <ele>126.7</ele>
        <time>2015-01-12T19:53:00.671Z</time>
      </trkpt>
      <trkpt lat="48.84282" lon="2.40221">
        <ele>126.7</ele>
        <time>2015-01-12T19:53:01.698Z</time>
      </trkpt>
      <trkpt lat="48.84283" lon="2.40231">
        <ele>126.2</ele>
        <time>2015-01-12T19:53:04.749Z</time>
      </trkpt>
      <trkpt lat="48.84284" lon="2.40234">
        <ele>126.1</ele>
        <time>2015-01-12T19:53:05.780Z</time>
      </trkpt>
      <trkpt lat="48.84287" lon="2.40245">
        <ele>127.2</ele>
        <time>2015-01-12T19:53:09.775Z</time>
      </trkpt>
      <trkpt lat="48.84287" lon="2.40248">
        <ele>127.4</ele>
        <time>2015-01-12T19:53:10.664Z</time>
      </trkpt>
      <trkpt lat="48.84287" lon="2.40258">
        <ele>127.7</ele>
        <time>2015-01-12T19:53:12.713Z</time>
      </trkpt>
      <trkpt lat="48.84287" lon="2.40265">
        <ele>127.6</ele>
        <time>2015-01-12T19:53:13.791Z</time>
      </trkpt>
      <trkpt lat="48.84287" lon="2.40272">
        <ele>127.5</ele>
        <time>2015-01-12T19:53:14.660Z</time>
      </trkpt>
      <trkpt lat="48.84286" lon="2.40279">
        <ele>127.3</ele>
        <time>2015-01-12T19:53:15.669Z</time>
      </trkpt>
      <trkpt lat="48.8429" lon="2.4029">
        <ele>127.2</ele>
        <time>2015-01-12T19:53:16.675Z</time>
      </trkpt>
      <trkpt lat="48.84296" lon="2.403">
        <ele>126.9</ele>
        <time>2015-01-12T19:53:17.685Z</time>
      </trkpt>
      <trkpt lat="48.84297" lon="2.40311">
        <ele>126.7</ele>
        <time>2015-01-12T19:53:18.693Z</time>
      </trkpt>
      <trkpt lat="48.843" lon="2.40321">
        <ele>126.5</ele>
        <time>2015-01-12T19:53:19.707Z</time>
      </trkpt>
      <trkpt lat="48.84303" lon="2.40329">
        <ele>126.4</ele>
        <time>2015-01-12T19:53:20.735Z</time>
      </trkpt>
      <trkpt lat="48.84307" lon="2.40343">
        <ele>126.1</ele>
        <time>2015-01-12T19:53:21.635Z</time>
      </trkpt>
      <trkpt lat="48.84308" lon="2.40351">
        <ele>126</ele>
        <time>2015-01-12T19:53:22.670Z</time>
      </trkpt>
      <trkpt lat="48.84309" lon="2.40359">
        <ele>125.9</ele>
        <time>2015-01-12T19:53:23.676Z</time>
      </trkpt>
      <trkpt lat="48.84309" lon="2.40366">
        <ele>125.9</ele>
        <time>2015-01-12T19:53:24.687Z</time>
      </trkpt>
      <trkpt lat="48.84308" lon="2.40373">
        <ele>125.8</ele>
        <time>2015-01-12T19:53:25.692Z</time>
      </trkpt>
      <trkpt lat="48.84306" lon="2.40381">
        <ele>125.8</ele>
        <time>2015-01-12T19:53:26.727Z</time>
      </trkpt>
      <trkpt lat="48.84305" lon="2.4039">
        <ele>125.9</ele>
        <time>2015-01-12T19:53:27.652Z</time>
      </trkpt>
      <trkpt lat="48.84304" lon="2.40398">
        <ele>125.9</ele>
        <time>2015-01-12T19:53:28.650Z</time>
      </trkpt>
      <trkpt lat="48.84302" lon="2.40407">
        <ele>126</ele>
        <time>2015-01-12T19:53:29.680Z</time>
      </trkpt>
      <trkpt lat="48.843" lon="2.40418">
        <ele>126</ele>
        <time>2015-01-12T19:53:30.721Z</time>
      </trkpt>
      <trkpt lat="48.84299" lon="2.40431">
        <ele>125.6</ele>
        <time>2015-01-12T19:53:31.738Z</time>
      </trkpt>
      <trkpt lat="48.84297" lon="2.40441">
        <ele>125.6</ele>
        <time>2015-01-12T19:53:32.712Z</time>
      </trkpt>
      <trkpt lat="48.84295" lon="2.4045">
        <ele>125.5</ele>
        <time>2015-01-12T19:53:33.704Z</time>
      </trkpt>
      <trkpt lat="48.84294" lon="2.40457">
        <ele>125.3</ele>
        <time>2015-01-12T19:53:34.659Z</time>
      </trkpt>
      <trkpt lat="48.84292" lon="2.40464">
        <ele>125.3</ele>
        <time>2015-01-12T19:53:35.664Z</time>
      </trkpt>
      <trkpt lat="48.84292" lon="2.40477">
        <ele>124.8</ele>
        <time>2015-01-12T19:53:37.711Z</time>
      </trkpt>
      <trkpt lat="48.84294" lon="2.40486">
        <ele>123.5</ele>
        <time>2015-01-12T19:53:38.740Z</time>
      </trkpt>
      <trkpt lat="48.84296" lon="2.40495">
        <ele>122.2</ele>
        <time>2015-01-12T19:53:39.663Z</time>
      </trkpt>
      <trkpt lat="48.84296" lon="2.40502">
        <ele>121</ele>
        <time>2015-01-12T19:53:40.674Z</time>
      </trkpt>
      <trkpt lat="48.84294" lon="2.40514">
        <ele>118.8</ele>
        <time>2015-01-12T19:53:44.758Z</time>
      </trkpt>
      <trkpt lat="48.84294" lon="2.40515">
        <ele>118.3</ele>
        <time>2015-01-12T19:53:45.670Z</time>
      </trkpt>
      <trkpt lat="48.84299" lon="2.40525">
        <ele>118</ele>
        <time>2015-01-12T19:53:50.663Z</time>
      </trkpt>
      <trkpt lat="48.84301" lon="2.40528">
        <ele>118.1</ele>
        <time>2015-01-12T19:53:51.669Z</time>
      </trkpt>
      <trkpt lat="48.84308" lon="2.40533">
        <ele>118.2</ele>
        <time>2015-01-12T19:53:54.698Z</time>
      </trkpt>
      <trkpt lat="48.8431" lon="2.40534">
        <ele>118.3</ele>
        <time>2015-01-12T19:53:55.710Z</time>
      </trkpt>
      <trkpt lat="48.84315" lon="2.40539">
        <ele>118.3</ele>
        <time>2015-01-12T19:53:58.670Z</time>
      </trkpt>
      <trkpt lat="48.84317" lon="2.4054">
        <ele>118.3</ele>
        <time>2015-01-12T19:53:59.708Z</time>
      </trkpt>
      <trkpt lat="48.84319" lon="2.4054">
        <ele>118.5</ele>
        <time>2015-01-12T19:54:00.638Z</time>
      </trkpt>
      <trkpt lat="48.84321" lon="2.4055">
        <ele>119.8</ele>
        <time>2015-01-12T19:54:05.767Z</time>
      </trkpt>
      <trkpt lat="48.84321" lon="2.40554">
        <ele>120.2</ele>
        <time>2015-01-12T19:54:06.715Z</time>
      </trkpt>
      <trkpt lat="48.8432" lon="2.40566">
        <ele>121.7</ele>
        <time>2015-01-12T19:54:09.809Z</time>
      </trkpt>
      <trkpt lat="48.84319" lon="2.40572">
        <ele>122.2</ele>
        <time>2015-01-12T19:54:10.810Z</time>
      </trkpt>
      <trkpt lat="48.84318" lon="2.4058">
        <ele>122.5</ele>
        <time>2015-01-12T19:54:11.709Z</time>
      </trkpt>
      <trkpt lat="48.84317" lon="2.40587">
        <ele>122.7</ele>
        <time>2015-01-12T19:54:12.716Z</time>
      </trkpt>
      <trkpt lat="48.84314" lon="2.40599">
        <ele>123.2</ele>
        <time>2015-01-12T19:54:14.745Z</time>
      </trkpt>
      <trkpt lat="48.84313" lon="2.40605">
        <ele>123.5</ele>
        <time>2015-01-12T19:54:15.810Z</time>
      </trkpt>
      <trkpt lat="48.84312" lon="2.40617">
        <ele>123.6</ele>
        <time>2015-01-12T19:54:17.667Z</time>
      </trkpt>
      <trkpt lat="48.84312" lon="2.40622">
        <ele>123.5</ele>
        <time>2015-01-12T19:54:18.690Z</time>
      </trkpt>
      <trkpt lat="48.84311" lon="2.40634">
        <ele>123.3</ele>
        <time>2015-01-12T19:54:20.769Z</time>
      </trkpt>
      <trkpt lat="48.84309" lon="2.4064">
        <ele>123.2</ele>
        <time>2015-01-12T19:54:21.702Z</time>
      </trkpt>
      <trkpt lat="48.84307" lon="2.40652">
        <ele>123.3</ele>
        <time>2015-01-12T19:54:23.636Z</time>
      </trkpt>
      <trkpt lat="48.84308" lon="2.40659">
        <ele>123.3</ele>
        <time>2015-01-12T19:54:24.705Z</time>
      </trkpt>
      <trkpt lat="48.84305" lon="2.40672">
        <ele>123.3</ele>
        <time>2015-01-12T19:54:26.692Z</time>
      </trkpt>
      <trkpt lat="48.84303" lon="2.40678">
        <ele>123.2</ele>
        <time>2015-01-12T19:54:27.716Z</time>
      </trkpt>
      <trkpt lat="48.84302" lon="2.40685">
        <ele>123.1</ele>
        <time>2015-01-12T19:54:28.712Z</time>
      </trkpt>
      <trkpt lat="48.843" lon="2.40692">
        <ele>123.1</ele>
        <time>2015-01-12T19:54:29.740Z</time>
      </trkpt>
      <trkpt lat="48.84299" lon="2.40699">
        <ele>123.1</ele>
        <time>2015-01-12T19:54:30.640Z</time>
      </trkpt>
      <trkpt lat="48.84298" lon="2.40706">
        <ele>123.1</ele>
        <time>2015-01-12T19:54:31.711Z</time>
      </trkpt>
      <trkpt lat="48.84296" lon="2.40719">
        <ele>123.2</ele>
        <time>2015-01-12T19:54:33.622Z</time>
      </trkpt>
      <trkpt lat="48.84296" lon="2.40726">
        <ele>123.1</ele>
        <time>2015-01-12T19:54:34.636Z</time>
      </trkpt>
      <trkpt lat="48.84297" lon="2.40736">
        <ele>123</ele>
        <time>2015-01-12T19:54:35.638Z</time>
      </trkpt>
      <trkpt lat="48.84298" lon="2.40742">
        <ele>123</ele>
        <time>2015-01-12T19:54:36.646Z</time>
      </trkpt>
      <trkpt lat="48.84301" lon="2.40753">
        <ele>122.6</ele>
        <time>2015-01-12T19:54:38.752Z</time>
      </trkpt>
      <trkpt lat="48.84302" lon="2.40758">
        <ele>122.6</ele>
        <time>2015-01-12T19:54:39.668Z</time>
      </trkpt>
      <trkpt lat="48.84302" lon="2.40769">
        <ele>122.3</ele>
        <time>2015-01-12T19:54:42.722Z</time>
      </trkpt>
      <trkpt lat="48.84302" lon="2.40773">
        <ele>122.2</ele>
        <time>2015-01-12T19:54:43.645Z</time>
      </trkpt>
      <trkpt lat="48.84303" lon="2.40781">
        <ele>120.4</ele>
        <time>2015-01-12T19:54:49.538Z</time>
      </trkpt>
      <trkpt lat="48.84303" lon="2.40781">
        <ele>119.9</ele>
        <time>2015-01-12T19:54:49.665Z</time>
      </trkpt>
      <trkpt lat="48.84304" lon="2.4078">
        <ele>119.6</ele>
        <time>2015-01-12T19:54:58.704Z</time>
      </trkpt>
      <trkpt lat="48.84304" lon="2.40776">
        <ele>117.7</ele>
        <time>2015-01-12T19:54:59.738Z</time>
      </trkpt>
      <trkpt lat="48.84305" lon="2.40782">
        <ele>116.8</ele>
        <time>2015-01-12T19:55:07.685Z</time>
      </trkpt>
      <trkpt lat="48.84306" lon="2.40782">
        <ele>116.9</ele>
        <time>2015-01-12T19:55:08.682Z</time>
      </trkpt>
      <trkpt lat="48.84307" lon="2.40784">
        <ele>116.9</ele>
        <time>2015-01-12T19:55:09.706Z</time>
      </trkpt>
      <trkpt lat="48.84314" lon="2.40788">
        <ele>116.6</ele>
        <time>2015-01-12T19:55:15.640Z</time>
      </trkpt>
      <trkpt lat="48.84316" lon="2.40788">
        <ele>116.5</ele>
        <time>2015-01-12T19:55:16.711Z</time>
      </trkpt>
      <trkpt lat="48.84323" lon="2.40787">
        <ele>116.2</ele>
        <time>2015-01-12T19:55:20.102Z</time>
      </trkpt>
      <trkpt lat="48.84326" lon="2.40788">
        <ele>116.1</ele>
        <time>2015-01-12T19:55:20.635Z</time>
      </trkpt>
      <trkpt lat="48.84334" lon="2.40794">
        <ele>115.7</ele>
        <time>2015-01-12T19:55:23.680Z</time>
      </trkpt>
      <trkpt lat="48.84337" lon="2.40795">
        <ele>115.6</ele>
        <time>2015-01-12T19:55:24.683Z</time>
      </trkpt>
      <trkpt lat="48.84342" lon="2.40801">
        <ele>115.2</ele>
        <time>2015-01-12T19:55:27.667Z</time>
      </trkpt>
      <trkpt lat="48.84345" lon="2.40803">
        <ele>115.1</ele>
        <time>2015-01-12T19:55:28.688Z</time>
      </trkpt>
      <trkpt lat="48.8435" lon="2.40809">
        <ele>114.9</ele>
        <time>2015-01-12T19:55:30.647Z</time>
      </trkpt>
      <trkpt lat="48.84353" lon="2.40812">
        <ele>114.9</ele>
        <time>2015-01-12T19:55:31.714Z</time>
      </trkpt>
      <trkpt lat="48.84356" lon="2.40814">
        <ele>114.6</ele>
        <time>2015-01-12T19:55:32.712Z</time>
      </trkpt>
      <trkpt lat="48.84365" lon="2.40808">
        <ele>110.8</ele>
        <time>2015-01-12T19:55:33.821Z</time>
      </trkpt>
      <trkpt lat="48.84374" lon="2.40811">
        <ele>110.9</ele>
        <time>2015-01-12T19:55:35.707Z</time>
      </trkpt>
      <trkpt lat="48.84377" lon="2.40812">
        <ele>111.1</ele>
        <time>2015-01-12T19:55:36.793Z</time>
      </trkpt>
      <trkpt lat="48.84383" lon="2.4082">
        <ele>110.7</ele>
        <time>2015-01-12T19:55:40.296Z</time>
      </trkpt>
      <trkpt lat="48.84384" lon="2.40823">
        <ele>110.6</ele>
        <time>2015-01-12T19:55:40.661Z</time>
      </trkpt>
      <trkpt lat="48.8439" lon="2.40829">
        <ele>111.2</ele>
        <time>2015-01-12T19:55:46.741Z</time>
      </trkpt>
      <trkpt lat="48.84391" lon="2.40832">
        <ele>111</ele>
        <time>2015-01-12T19:55:47.773Z</time>
      </trkpt>
      <trkpt lat="48.84391" lon="2.40843">
        <ele>111.2</ele>
        <time>2015-01-12T19:55:52.634Z</time>
      </trkpt>
      <trkpt lat="48.8439" lon="2.40845">
        <ele>111.1</ele>
        <time>2015-01-12T19:55:53.663Z</time>
      </trkpt>
      <trkpt lat="48.84387" lon="2.40857">
        <ele>109.7</ele>
        <time>2015-01-12T19:56:01.707Z</time>
      </trkpt>
      <trkpt lat="48.84386" lon="2.40857">
        <ele>109.5</ele>
        <time>2015-01-12T19:56:02.717Z</time>
      </trkpt>
      <trkpt lat="48.84385" lon="2.40859">
        <ele>109.4</ele>
        <time>2015-01-12T19:56:14.972Z</time>
      </trkpt>
      <trkpt lat="48.84385" lon="2.40859">
        <ele>109.6</ele>
        <time>2015-01-12T19:56:15.745Z</time>
      </trkpt>
      <trkpt lat="48.84386" lon="2.40859">
        <ele>109.7</ele>
        <time>2015-01-12T19:56:18.661Z</time>
      </trkpt>
      <trkpt lat="48.84386" lon="2.40857">
        <ele>109.7</ele>
        <time>2015-01-12T19:56:19.687Z</time>
      </trkpt>
      <trkpt lat="48.84386" lon="2.40856">
        <ele>109.7</ele>
        <time>2015-01-12T19:56:20.688Z</time>
      </trkpt>
      <trkpt lat="48.84386" lon="2.40854">
        <ele>109.6</ele>
        <time>2015-01-12T19:56:21.714Z</time>
      </trkpt>
      <trkpt lat="48.84386" lon="2.40854">
        <ele>109.7</ele>
        <time>2015-01-12T19:56:22.731Z</time>
      </trkpt>
      <trkpt lat="48.84385" lon="2.40854">
        <ele>109.6</ele>
        <time>2015-01-12T19:56:23.733Z</time>
      </trkpt>
      <trkpt lat="48.84386" lon="2.40853">
        <ele>109.7</ele>
        <time>2015-01-12T19:56:26.760Z</time>
      </trkpt>
      <trkpt lat="48.84387" lon="2.40852">
        <ele>109.3</ele>
        <time>2015-01-12T19:56:27.765Z</time>
      </trkpt>
      <trkpt lat="48.8439" lon="2.40842">
        <ele>109.7</ele>
        <time>2015-01-12T19:56:32.633Z</time>
      </trkpt>
      <trkpt lat="48.84391" lon="2.40838">
        <ele>110.1</ele>
        <time>2015-01-12T19:56:33.741Z</time>
      </trkpt>
      <trkpt lat="48.84393" lon="2.40827">
        <ele>111.4</ele>
        <time>2015-01-12T19:56:36.655Z</time>
      </trkpt>
      <trkpt lat="48.84393" lon="2.40825">
        <ele>111.3</ele>
        <time>2015-01-12T19:56:37.685Z</time>
      </trkpt>
      <trkpt lat="48.84401" lon="2.40819">
        <ele>111.1</ele>
        <time>2015-01-12T19:56:43.771Z</time>
      </trkpt>
      <trkpt lat="48.84403" lon="2.4082">
        <ele>110.8</ele>
        <time>2015-01-12T19:56:44.653Z</time>
      </trkpt>
      <trkpt lat="48.84411" lon="2.4082">
        <ele>110.8</ele>
        <time>2015-01-12T19:56:47.625Z</time>
      </trkpt>
      <trkpt lat="48.84414" lon="2.40821">
        <ele>110.8</ele>
        <time>2015-01-12T19:56:48.656Z</time>
      </trkpt>
      <trkpt lat="48.8442" lon="2.40821">
        <ele>110.5</ele>
        <time>2015-01-12T19:56:51.697Z</time>
      </trkpt>
      <trkpt lat="48.84423" lon="2.40823">
        <ele>109.9</ele>
        <time>2015-01-12T19:56:52.725Z</time>
      </trkpt>
      <trkpt lat="48.84431" lon="2.40825">
        <ele>109.1</ele>
        <time>2015-01-12T19:56:56.188Z</time>
      </trkpt>
      <trkpt lat="48.84435" lon="2.40831">
        <ele>107.4</ele>
        <time>2015-01-12T19:56:56.759Z</time>
      </trkpt>
      <trkpt lat="48.84438" lon="2.40841">
        <ele>107.4</ele>
        <time>2015-01-12T19:56:59.761Z</time>
      </trkpt>
      <trkpt lat="48.8444" lon="2.40844">
        <ele>107.5</ele>
        <time>2015-01-12T19:57:00.664Z</time>
      </trkpt>
      <trkpt lat="48.84442" lon="2.40853">
        <ele>107.5</ele>
        <time>2015-01-12T19:57:03.687Z</time>
      </trkpt>
      <trkpt lat="48.84442" lon="2.40857">
        <ele>107.4</ele>
        <time>2015-01-12T19:57:04.708Z</time>
      </trkpt>
      <trkpt lat="48.84443" lon="2.40871">
        <ele>108</ele>
        <time>2015-01-12T19:57:10.748Z</time>
      </trkpt>
      <trkpt lat="48.84443" lon="2.40871">
        <ele>108.2</ele>
        <time>2015-01-12T19:57:11.661Z</time>
      </trkpt>
      <trkpt lat="48.84436" lon="2.40871">
        <ele>109.2</ele>
        <time>2015-01-12T19:57:14.967Z</time>
      </trkpt>
      <trkpt lat="48.84433" lon="2.40871">
        <ele>109.5</ele>
        <time>2015-01-12T19:57:15.699Z</time>
      </trkpt>
      <trkpt lat="48.84426" lon="2.40872">
        <ele>109.6</ele>
        <time>2015-01-12T19:57:17.737Z</time>
      </trkpt>
      <trkpt lat="48.84423" lon="2.40871">
        <ele>109.6</ele>
        <time>2015-01-12T19:57:18.756Z</time>
      </trkpt>
      <trkpt lat="48.84414" lon="2.40872">
        <ele>110.3</ele>
        <time>2015-01-12T19:57:20.653Z</time>
      </trkpt>
      <trkpt lat="48.8441" lon="2.40872">
        <ele>110.6</ele>
        <time>2015-01-12T19:57:21.667Z</time>
      </trkpt>
      <trkpt lat="48.84405" lon="2.40872">
        <ele>110.9</ele>
        <time>2015-01-12T19:57:22.672Z</time>
      </trkpt>
      <trkpt lat="48.844" lon="2.40873">
        <ele>111.5</ele>
        <time>2015-01-12T19:57:23.697Z</time>
      </trkpt>
      <trkpt lat="48.84392" lon="2.40875">
        <ele>110.8</ele>
        <time>2015-01-12T19:57:26.741Z</time>
      </trkpt>
      <trkpt lat="48.84389" lon="2.40877">
        <ele>110.3</ele>
        <time>2015-01-12T19:57:27.726Z</time>
      </trkpt>
      <trkpt lat="48.84381" lon="2.40878">
        <ele>109.9</ele>
        <time>2015-01-12T19:57:30.677Z</time>
      </trkpt>
      <trkpt lat="48.84379" lon="2.40878">
        <ele>109.9</ele>
        <time>2015-01-12T19:57:31.682Z</time>
      </trkpt>
      <trkpt lat="48.84381" lon="2.40889">
        <ele>110.2</ele>
        <time>2015-01-12T19:57:36.694Z</time>
      </trkpt>
      <trkpt lat="48.84382" lon="2.40891">
        <ele>110.3</ele>
        <time>2015-01-12T19:57:37.723Z</time>
      </trkpt>
      <trkpt lat="48.84381" lon="2.40894">
        <ele>110.4</ele>
        <time>2015-01-12T19:57:45.652Z</time>
      </trkpt>
      <trkpt lat="48.84352" lon="2.40902">
        <ele>110.3</ele>
        <time>2015-01-12T19:58:05.624Z</time>
      </trkpt>
      <trkpt lat="48.84346" lon="2.40909">
        <ele>109.9</ele>
        <time>2015-01-12T19:58:10.085Z</time>
      </trkpt>
      <trkpt lat="48.84345" lon="2.40911">
        <ele>109.9</ele>
        <time>2015-01-12T19:58:10.644Z</time>
      </trkpt>
      <trkpt lat="48.84338" lon="2.40918">
        <ele>109.9</ele>
        <time>2015-01-12T19:58:15.177Z</time>
      </trkpt>
      <trkpt lat="48.84335" lon="2.40922">
        <ele>109.6</ele>
        <time>2015-01-12T19:58:15.648Z</time>
      </trkpt>
      <trkpt lat="48.84312" lon="2.40944">
        <ele>108.5</ele>
        <time>2015-01-12T19:58:27.688Z</time>
      </trkpt>
      <trkpt lat="48.84294" lon="2.40956">
        <ele>109</ele>
        <time>2015-01-12T19:58:35.665Z</time>
      </trkpt>
      <trkpt lat="48.84285" lon="2.40959">
        <ele>108.4</ele>
        <time>2015-01-12T19:58:40.492Z</time>
      </trkpt>
      <trkpt lat="48.84283" lon="2.4096">
        <ele>108.9</ele>
        <time>2015-01-12T19:58:40.703Z</time>
      </trkpt>
      <trkpt lat="48.84275" lon="2.40963">
        <ele>111.2</ele>
        <time>2015-01-12T19:58:43.743Z</time>
      </trkpt>
      <trkpt lat="48.84272" lon="2.40963">
        <ele>112.1</ele>
        <time>2015-01-12T19:58:44.684Z</time>
      </trkpt>
      <trkpt lat="48.84264" lon="2.40967">
        <ele>116.7</ele>
        <time>2015-01-12T19:58:49.751Z</time>
      </trkpt>
      <trkpt lat="48.84262" lon="2.40967">
        <ele>117</ele>
        <time>2015-01-12T19:58:50.642Z</time>
      </trkpt>
      <trkpt lat="48.84254" lon="2.4097">
        <ele>120.4</ele>
        <time>2015-01-12T19:58:54.712Z</time>
      </trkpt>
      <trkpt lat="48.84253" lon="2.40971">
        <ele>121.3</ele>
        <time>2015-01-12T19:58:55.731Z</time>
      </trkpt>
      <trkpt lat="48.84244" lon="2.4097">
        <ele>122.1</ele>
        <time>2015-01-12T19:58:59.783Z</time>
      </trkpt>
      <trkpt lat="48.84242" lon="2.4097">
        <ele>122.8</ele>
        <time>2015-01-12T19:59:00.676Z</time>
      </trkpt>
      <trkpt lat="48.84235" lon="2.40971">
        <ele>124.6</ele>
        <time>2015-01-12T19:59:03.670Z</time>
      </trkpt>
      <trkpt lat="48.84233" lon="2.40972">
        <ele>126.3</ele>
        <time>2015-01-12T19:59:04.693Z</time>
      </trkpt>
      <trkpt lat="48.84224" lon="2.40975">
        <ele>130.4</ele>
        <time>2015-01-12T19:59:08.682Z</time>
      </trkpt>
      <trkpt lat="48.84222" lon="2.40975">
        <ele>131</ele>
        <time>2015-01-12T19:59:09.707Z</time>
      </trkpt>
      <trkpt lat="48.84214" lon="2.40979">
        <ele>133</ele>
        <time>2015-01-12T19:59:13.764Z</time>
      </trkpt>
      <trkpt lat="48.84212" lon="2.40981">
        <ele>133.3</ele>
        <time>2015-01-12T19:59:14.683Z</time>
      </trkpt>
      <trkpt lat="48.84203" lon="2.40979">
        <ele>131.9</ele>
        <time>2015-01-12T19:59:17.730Z</time>
      </trkpt>
      <trkpt lat="48.842" lon="2.4098">
        <ele>132.5</ele>
        <time>2015-01-12T19:59:18.628Z</time>
      </trkpt>
      <trkpt lat="48.84193" lon="2.40982">
        <ele>133.4</ele>
        <time>2015-01-12T19:59:20.655Z</time>
      </trkpt>
      <trkpt lat="48.84189" lon="2.40982">
        <ele>133.8</ele>
        <time>2015-01-12T19:59:21.663Z</time>
      </trkpt>
      <trkpt lat="48.84181" lon="2.40978">
        <ele>133.2</ele>
        <time>2015-01-12T19:59:23.670Z</time>
      </trkpt>
      <trkpt lat="48.84177" lon="2.40977">
        <ele>133.8</ele>
        <time>2015-01-12T19:59:24.690Z</time>
      </trkpt>
      <trkpt lat="48.84172" lon="2.40976">
        <ele>134.3</ele>
        <time>2015-01-12T19:59:25.714Z</time>
      </trkpt>
      <trkpt lat="48.84167" lon="2.40974">
        <ele>135.1</ele>
        <time>2015-01-12T19:59:26.744Z</time>
      </trkpt>
      <trkpt lat="48.84159" lon="2.40972">
        <ele>136.5</ele>
        <time>2015-01-12T19:59:28.659Z</time>
      </trkpt>
      <trkpt lat="48.84154" lon="2.40972">
        <ele>137.6</ele>
        <time>2015-01-12T19:59:29.681Z</time>
      </trkpt>
      <trkpt lat="48.84149" lon="2.40971">
        <ele>138.5</ele>
        <time>2015-01-12T19:59:30.691Z</time>
      </trkpt>
      <trkpt lat="48.84144" lon="2.40971">
        <ele>139.3</ele>
        <time>2015-01-12T19:59:31.729Z</time>
      </trkpt>
      <trkpt lat="48.84138" lon="2.4097">
        <ele>140.4</ele>
        <time>2015-01-12T19:59:32.662Z</time>
      </trkpt>
      <trkpt lat="48.84132" lon="2.40969">
        <ele>141.2</ele>
        <time>2015-01-12T19:59:33.666Z</time>
      </trkpt>
      <trkpt lat="48.84126" lon="2.40968">
        <ele>142</ele>
        <time>2015-01-12T19:59:35.266Z</time>
      </trkpt>
      <trkpt lat="48.84121" lon="2.40967">
        <ele>142.7</ele>
        <time>2015-01-12T19:59:35.685Z</time>
      </trkpt>
      <trkpt lat="48.84115" lon="2.40966">
        <ele>143.4</ele>
        <time>2015-01-12T19:59:36.692Z</time>
      </trkpt>
      <trkpt lat="48.8411" lon="2.40964">
        <ele>143.9</ele>
        <time>2015-01-12T19:59:37.703Z</time>
      </trkpt>
      <trkpt lat="48.84106" lon="2.40962">
        <ele>144</ele>
        <time>2015-01-12T19:59:38.710Z</time>
      </trkpt>
      <trkpt lat="48.84101" lon="2.4096">
        <ele>144.4</ele>
        <time>2015-01-12T19:59:39.722Z</time>
      </trkpt>
      <trkpt lat="48.84097" lon="2.40959">
        <ele>144.3</ele>
        <time>2015-01-12T19:59:40.640Z</time>
      </trkpt>
      <trkpt lat="48.84093" lon="2.40952">
        <ele>142.1</ele>
        <time>2015-01-12T19:59:41.637Z</time>
      </trkpt>
      <trkpt lat="48.84089" lon="2.40947">
        <ele>140.3</ele>
        <time>2015-01-12T19:59:42.651Z</time>
      </trkpt>
      <trkpt lat="48.84085" lon="2.40944">
        <ele>138.8</ele>
        <time>2015-01-12T19:59:43.704Z</time>
      </trkpt>
      <trkpt lat="48.84077" lon="2.40946">
        <ele>136.6</ele>
        <time>2015-01-12T19:59:47.724Z</time>
      </trkpt>
      <trkpt lat="48.84076" lon="2.40948">
        <ele>136.6</ele>
        <time>2015-01-12T19:59:48.748Z</time>
      </trkpt>
      <trkpt lat="48.84075" lon="2.40956">
        <ele>137.2</ele>
        <time>2015-01-12T19:59:54.674Z</time>
      </trkpt>
      <trkpt lat="48.84074" lon="2.40957">
        <ele>138</ele>
        <time>2015-01-12T19:59:55.755Z</time>
      </trkpt>
      <trkpt lat="48.84074" lon="2.40957">
        <ele>138.1</ele>
        <time>2015-01-12T20:00:02.715Z</time>
      </trkpt>
      <trkpt lat="48.84073" lon="2.40958">
        <ele>138.4</ele>
        <time>2015-01-12T20:00:03.650Z</time>
      </trkpt>
      <trkpt lat="48.84068" lon="2.40967">
        <ele>137.5</ele>
        <time>2015-01-12T20:00:08.746Z</time>
      </trkpt>
      <trkpt lat="48.84066" lon="2.4097">
        <ele>137.8</ele>
        <time>2015-01-12T20:00:09.658Z</time>
      </trkpt>
      <trkpt lat="48.84064" lon="2.40982">
        <ele>138.4</ele>
        <time>2015-01-12T20:00:12.715Z</time>
      </trkpt>
      <trkpt lat="48.84063" lon="2.40985">
        <ele>138.4</ele>
        <time>2015-01-12T20:00:13.727Z</time>
      </trkpt>
      <trkpt lat="48.84065" lon="2.40998">
        <ele>137</ele>
        <time>2015-01-12T20:00:17.655Z</time>
      </trkpt>
      <trkpt lat="48.84066" lon="2.41002">
        <ele>136.8</ele>
        <time>2015-01-12T20:00:18.662Z</time>
      </trkpt>
      <trkpt lat="48.84067" lon="2.41012">
        <ele>136.3</ele>
        <time>2015-01-12T20:00:20.653Z</time>
      </trkpt>
      <trkpt lat="48.84067" lon="2.41017">
        <ele>135.8</ele>
        <time>2015-01-12T20:00:21.654Z</time>
      </trkpt>
      <trkpt lat="48.84068" lon="2.41028">
        <ele>134.8</ele>
        <time>2015-01-12T20:00:23.697Z</time>
      </trkpt>
      <trkpt lat="48.84068" lon="2.41032">
        <ele>133</ele>
        <time>2015-01-12T20:00:24.701Z</time>
      </trkpt>
      <trkpt lat="48.84069" lon="2.41042">
        <ele>132.2</ele>
        <time>2015-01-12T20:00:26.700Z</time>
      </trkpt>
      <trkpt lat="48.84071" lon="2.41047">
        <ele>131.3</ele>
        <time>2015-01-12T20:00:27.761Z</time>
      </trkpt>
      <trkpt lat="48.84073" lon="2.41058">
        <ele>130.6</ele>
        <time>2015-01-12T20:00:29.657Z</time>
      </trkpt>
      <trkpt lat="48.84074" lon="2.41063">
        <ele>130.4</ele>
        <time>2015-01-12T20:00:30.714Z</time>
      </trkpt>
      <trkpt lat="48.84074" lon="2.41075">
        <ele>130.2</ele>
        <time>2015-01-12T20:00:32.650Z</time>
      </trkpt>
      <trkpt lat="48.84075" lon="2.41082">
        <ele>130.4</ele>
        <time>2015-01-12T20:00:33.660Z</time>
      </trkpt>
      <trkpt lat="48.84077" lon="2.4109">
        <ele>130</ele>
        <time>2015-01-12T20:00:34.681Z</time>
      </trkpt>
      <trkpt lat="48.8408" lon="2.41097">
        <ele>126.9</ele>
        <time>2015-01-12T20:00:35.695Z</time>
      </trkpt>
      <trkpt lat="48.84082" lon="2.41104">
        <ele>124</ele>
        <time>2015-01-12T20:00:36.718Z</time>
      </trkpt>
      <trkpt lat="48.84085" lon="2.41109">
        <ele>121.5</ele>
        <time>2015-01-12T20:00:37.730Z</time>
      </trkpt>
      <trkpt lat="48.84091" lon="2.41119">
        <ele>118.1</ele>
        <time>2015-01-12T20:00:39.677Z</time>
      </trkpt>
      <trkpt lat="48.84095" lon="2.41124">
        <ele>117.3</ele>
        <time>2015-01-12T20:00:40.786Z</time>
      </trkpt>
      <trkpt lat="48.84099" lon="2.41128">
        <ele>116.5</ele>
        <time>2015-01-12T20:00:41.659Z</time>
      </trkpt>
      <trkpt lat="48.84102" lon="2.41132">
        <ele>115.9</ele>
        <time>2015-01-12T20:00:42.666Z</time>
      </trkpt>
      <trkpt lat="48.84106" lon="2.41143">
        <ele>114.6</ele>
        <time>2015-01-12T20:00:44.656Z</time>
      </trkpt>
      <trkpt lat="48.84107" lon="2.41147">
        <ele>114.3</ele>
        <time>2015-01-12T20:00:45.664Z</time>
      </trkpt>
      <trkpt lat="48.84109" lon="2.41157">
        <ele>113.8</ele>
        <time>2015-01-12T20:00:47.690Z</time>
      </trkpt>
      <trkpt lat="48.84109" lon="2.41163">
        <ele>113.9</ele>
        <time>2015-01-12T20:00:48.699Z</time>
      </trkpt>
      <trkpt lat="48.84111" lon="2.41174">
        <ele>114.1</ele>
        <time>2015-01-12T20:00:50.640Z</time>
      </trkpt>
      <trkpt lat="48.84112" lon="2.4118">
        <ele>113.5</ele>
        <time>2015-01-12T20:00:51.653Z</time>
      </trkpt>
      <trkpt lat="48.84114" lon="2.41192">
        <ele>112.7</ele>
        <time>2015-01-12T20:00:53.669Z</time>
      </trkpt>
      <trkpt lat="48.84115" lon="2.412">
        <ele>112.5</ele>
        <time>2015-01-12T20:00:54.682Z</time>
      </trkpt>
      <trkpt lat="48.84117" lon="2.41212">
        <ele>111.7</ele>
        <time>2015-01-12T20:00:56.721Z</time>
      </trkpt>
      <trkpt lat="48.84119" lon="2.41217">
        <ele>111.1</ele>
        <time>2015-01-12T20:00:57.765Z</time>
      </trkpt>
      <trkpt lat="48.84122" lon="2.41224">
        <ele>110.8</ele>
        <time>2015-01-12T20:00:58.646Z</time>
      </trkpt>
      <trkpt lat="48.84124" lon="2.4123">
        <ele>110.8</ele>
        <time>2015-01-12T20:00:59.686Z</time>
      </trkpt>
      <trkpt lat="48.84126" lon="2.41237">
        <ele>110.6</ele>
        <time>2015-01-12T20:01:00.663Z</time>
      </trkpt>
      <trkpt lat="48.84128" lon="2.41245">
        <ele>110.3</ele>
        <time>2015-01-12T20:01:01.694Z</time>
      </trkpt>
      <trkpt lat="48.8413" lon="2.41254">
        <ele>109.9</ele>
        <time>2015-01-12T20:01:02.647Z</time>
      </trkpt>
      <trkpt lat="48.84131" lon="2.41262">
        <ele>109.6</ele>
        <time>2015-01-12T20:01:03.688Z</time>
      </trkpt>
      <trkpt lat="48.84132" lon="2.41271">
        <ele>109.7</ele>
        <time>2015-01-12T20:01:04.799Z</time>
      </trkpt>
      <trkpt lat="48.84134" lon="2.4128">
        <ele>109.6</ele>
        <time>2015-01-12T20:01:05.651Z</time>
      </trkpt>
      <trkpt lat="48.84136" lon="2.41288">
        <ele>109.3</ele>
        <time>2015-01-12T20:01:06.661Z</time>
      </trkpt>
      <trkpt lat="48.84139" lon="2.41296">
        <ele>109</ele>
        <time>2015-01-12T20:01:07.698Z</time>
      </trkpt>
      <trkpt lat="48.84141" lon="2.41305">
        <ele>108.7</ele>
        <time>2015-01-12T20:01:08.722Z</time>
      </trkpt>
      <trkpt lat="48.84143" lon="2.41311">
        <ele>108.6</ele>
        <time>2015-01-12T20:01:09.625Z</time>
      </trkpt>
      <trkpt lat="48.84149" lon="2.41317">
        <ele>107.9</ele>
        <time>2015-01-12T20:01:11.648Z</time>
      </trkpt>
      <trkpt lat="48.84153" lon="2.41317">
        <ele>107.3</ele>
        <time>2015-01-12T20:01:12.689Z</time>
      </trkpt>
      <trkpt lat="48.84158" lon="2.41317">
        <ele>107</ele>
        <time>2015-01-12T20:01:13.748Z</time>
      </trkpt>
      <trkpt lat="48.84164" lon="2.41316">
        <ele>106.5</ele>
        <time>2015-01-12T20:01:14.758Z</time>
      </trkpt>
      <trkpt lat="48.84172" lon="2.41315">
        <ele>106.1</ele>
        <time>2015-01-12T20:01:16.682Z</time>
      </trkpt>
      <trkpt lat="48.84176" lon="2.41315">
        <ele>106.1</ele>
        <time>2015-01-12T20:01:17.688Z</time>
      </trkpt>
      <trkpt lat="48.84184" lon="2.41316">
        <ele>106.1</ele>
        <time>2015-01-12T20:01:19.753Z</time>
      </trkpt>
      <trkpt lat="48.84189" lon="2.41315">
        <ele>105.8</ele>
        <time>2015-01-12T20:01:20.767Z</time>
      </trkpt>
      <trkpt lat="48.84194" lon="2.41315">
        <ele>105.9</ele>
        <time>2015-01-12T20:01:21.680Z</time>
      </trkpt>
      <trkpt lat="48.84199" lon="2.41314">
        <ele>106.3</ele>
        <time>2015-01-12T20:01:22.699Z</time>
      </trkpt>
      <trkpt lat="48.84205" lon="2.41314">
        <ele>106.9</ele>
        <time>2015-01-12T20:01:23.712Z</time>
      </trkpt>
      <trkpt lat="48.84209" lon="2.41313">
        <ele>107.1</ele>
        <time>2015-01-12T20:01:24.739Z</time>
      </trkpt>
      <trkpt lat="48.84217" lon="2.41312">
        <ele>107.5</ele>
        <time>2015-01-12T20:01:27.585Z</time>
      </trkpt>
      <trkpt lat="48.84222" lon="2.41311">
        <ele>108</ele>
        <time>2015-01-12T20:01:27.638Z</time>
      </trkpt>
      <trkpt lat="48.8423" lon="2.41307">
        <ele>108.2</ele>
        <time>2015-01-12T20:01:29.705Z</time>
      </trkpt>
      <trkpt lat="48.84235" lon="2.41304">
        <ele>107.9</ele>
        <time>2015-01-12T20:01:30.709Z</time>
      </trkpt>
      <trkpt lat="48.8424" lon="2.41303">
        <ele>107.5</ele>
        <time>2015-01-12T20:01:31.752Z</time>
      </trkpt>
      <trkpt lat="48.84245" lon="2.41302">
        <ele>107.3</ele>
        <time>2015-01-12T20:01:32.643Z</time>
      </trkpt>
      <trkpt lat="48.8425" lon="2.41301">
        <ele>107.2</ele>
        <time>2015-01-12T20:01:33.663Z</time>
      </trkpt>
      <trkpt lat="48.84254" lon="2.41301">
        <ele>107.1</ele>
        <time>2015-01-12T20:01:34.675Z</time>
      </trkpt>
      <trkpt lat="48.84259" lon="2.413">
        <ele>106.9</ele>
        <time>2015-01-12T20:01:35.694Z</time>
      </trkpt>
      <trkpt lat="48.84265" lon="2.41299">
        <ele>106.9</ele>
        <time>2015-01-12T20:01:36.707Z</time>
      </trkpt>
      <trkpt lat="48.8427" lon="2.41299">
        <ele>106.9</ele>
        <time>2015-01-12T20:01:37.953Z</time>
      </trkpt>
      <trkpt lat="48.84274" lon="2.41299">
        <ele>106.7</ele>
        <time>2015-01-12T20:01:38.731Z</time>
      </trkpt>
      <trkpt lat="48.84279" lon="2.413">
        <ele>106.6</ele>
        <time>2015-01-12T20:01:39.651Z</time>
      </trkpt>
      <trkpt lat="48.84284" lon="2.41301">
        <ele>106.1</ele>
        <time>2015-01-12T20:01:40.662Z</time>
      </trkpt>
      <trkpt lat="48.84289" lon="2.41302">
        <ele>105.8</ele>
        <time>2015-01-12T20:01:41.678Z</time>
      </trkpt>
      <trkpt lat="48.84293" lon="2.41301">
        <ele>105.7</ele>
        <time>2015-01-12T20:01:42.683Z</time>
      </trkpt>
      <trkpt lat="48.84298" lon="2.41301">
        <ele>105.7</ele>
        <time>2015-01-12T20:01:43.698Z</time>
      </trkpt>
      <trkpt lat="48.84302" lon="2.413">
        <ele>105.7</ele>
        <time>2015-01-12T20:01:44.709Z</time>
      </trkpt>
      <trkpt lat="48.84309" lon="2.41299">
        <ele>105.9</ele>
        <time>2015-01-12T20:01:46.715Z</time>
      </trkpt>
      <trkpt lat="48.84313" lon="2.41299">
        <ele>106</ele>
        <time>2015-01-12T20:01:47.733Z</time>
      </trkpt>
      <trkpt lat="48.84321" lon="2.41297">
        <ele>106</ele>
        <time>2015-01-12T20:01:49.741Z</time>
      </trkpt>
      <trkpt lat="48.84325" lon="2.41296">
        <ele>106.1</ele>
        <time>2015-01-12T20:01:50.640Z</time>
      </trkpt>
      <trkpt lat="48.84334" lon="2.41294">
        <ele>105.3</ele>
        <time>2015-01-12T20:01:52.661Z</time>
      </trkpt>
      <trkpt lat="48.84338" lon="2.41294">
        <ele>105</ele>
        <time>2015-01-12T20:01:53.661Z</time>
      </trkpt>
      <trkpt lat="48.84346" lon="2.41295">
        <ele>104.4</ele>
        <time>2015-01-12T20:01:55.750Z</time>
      </trkpt>
      <trkpt lat="48.84349" lon="2.41296">
        <ele>104.3</ele>
        <time>2015-01-12T20:01:56.773Z</time>
      </trkpt>
      <trkpt lat="48.84354" lon="2.41298">
        <ele>104.8</ele>
        <time>2015-01-12T20:01:59.645Z</time>
      </trkpt>
      <trkpt lat="48.84357" lon="2.413">
        <ele>104.6</ele>
        <time>2015-01-12T20:01:59.691Z</time>
      </trkpt>
      <trkpt lat="48.84365" lon="2.41303">
        <ele>104.7</ele>
        <time>2015-01-12T20:02:02.716Z</time>
      </trkpt>
      <trkpt lat="48.84368" lon="2.41303">
        <ele>104.8</ele>
        <time>2015-01-12T20:02:03.684Z</time>
      </trkpt>
      <trkpt lat="48.84376" lon="2.41302">
        <ele>104.5</ele>
        <time>2015-01-12T20:02:07.720Z</time>
      </trkpt>
      <trkpt lat="48.84379" lon="2.41302">
        <ele>104</ele>
        <time>2015-01-12T20:02:08.757Z</time>
      </trkpt>
      <trkpt lat="48.84386" lon="2.41305">
        <ele>101.7</ele>
        <time>2015-01-12T20:02:12.685Z</time>
      </trkpt>
      <trkpt lat="48.84388" lon="2.41304">
        <ele>101.2</ele>
        <time>2015-01-12T20:02:13.693Z</time>
      </trkpt>
      <trkpt lat="48.84394" lon="2.41314">
        <ele>101</ele>
        <time>2015-01-12T20:02:19.967Z</time>
      </trkpt>
      <trkpt lat="48.84394" lon="2.41318">
        <ele>101.3</ele>
        <time>2015-01-12T20:02:20.706Z</time>
      </trkpt>
      <trkpt lat="48.84394" lon="2.4133">
        <ele>101.6</ele>
        <time>2015-01-12T20:02:23.646Z</time>
      </trkpt>
      <trkpt lat="48.84394" lon="2.41335">
        <ele>101.7</ele>
        <time>2015-01-12T20:02:24.666Z</time>
      </trkpt>
      <trkpt lat="48.84395" lon="2.41344">
        <ele>101.7</ele>
        <time>2015-01-12T20:02:26.699Z</time>
      </trkpt>
      <trkpt lat="48.84395" lon="2.41349">
        <ele>101.6</ele>
        <time>2015-01-12T20:02:27.749Z</time>
      </trkpt>
      <trkpt lat="48.84396" lon="2.41359">
        <ele>101.3</ele>
        <time>2015-01-12T20:02:30.050Z</time>
      </trkpt>
      <trkpt lat="48.84396" lon="2.41364">
        <ele>101.3</ele>
        <time>2015-01-12T20:02:30.718Z</time>
      </trkpt>
      <trkpt lat="48.84397" lon="2.41374">
        <ele>101.2</ele>
        <time>2015-01-12T20:02:32.647Z</time>
      </trkpt>
      <trkpt lat="48.84397" lon="2.41379">
        <ele>101.2</ele>
        <time>2015-01-12T20:02:33.642Z</time>
      </trkpt>
      <trkpt lat="48.84398" lon="2.41391">
        <ele>101.5</ele>
        <time>2015-01-12T20:02:36.730Z</time>
      </trkpt>
      <trkpt lat="48.84398" lon="2.41394">
        <ele>101.5</ele>
        <time>2015-01-12T20:02:37.861Z</time>
      </trkpt>
      <trkpt lat="48.84399" lon="2.41407">
        <ele>101.6</ele>
        <time>2015-01-12T20:02:40.688Z</time>
      </trkpt>
      <trkpt lat="48.84399" lon="2.41411">
        <ele>101.7</ele>
        <time>2015-01-12T20:02:41.697Z</time>
      </trkpt>
      <trkpt lat="48.84401" lon="2.41423">
        <ele>101.9</ele>
        <time>2015-01-12T20:02:44.745Z</time>
      </trkpt>
      <trkpt lat="48.84402" lon="2.41427">
        <ele>101.8</ele>
        <time>2015-01-12T20:02:45.765Z</time>
      </trkpt>
      <trkpt lat="48.84407" lon="2.41435">
        <ele>102.1</ele>
        <time>2015-01-12T20:02:49.596Z</time>
      </trkpt>
      <trkpt lat="48.84409" lon="2.41437">
        <ele>101.9</ele>
        <time>2015-01-12T20:02:49.697Z</time>
      </trkpt>
      <trkpt lat="48.84417" lon="2.41441">
        <ele>101.4</ele>
        <time>2015-01-12T20:02:52.658Z</time>
      </trkpt>
      <trkpt lat="48.84419" lon="2.41443">
        <ele>101.3</ele>
        <time>2015-01-12T20:02:53.679Z</time>
      </trkpt>
      <trkpt lat="48.84427" lon="2.41447">
        <ele>102</ele>
        <time>2015-01-12T20:02:57.720Z</time>
      </trkpt>
      <trkpt lat="48.8443" lon="2.41448">
        <ele>102.3</ele>
        <time>2015-01-12T20:02:58.734Z</time>
      </trkpt>
      <trkpt lat="48.84437" lon="2.41448">
        <ele>102</ele>
        <time>2015-01-12T20:03:00.650Z</time>
      </trkpt>
      <trkpt lat="48.84441" lon="2.41448">
        <ele>101.8</ele>
        <time>2015-01-12T20:03:01.744Z</time>
      </trkpt>
      <trkpt lat="48.84449" lon="2.41449">
        <ele>101.7</ele>
        <time>2015-01-12T20:03:03.697Z</time>
      </trkpt>
      <trkpt lat="48.84453" lon="2.4145">
        <ele>101.7</ele>
        <time>2015-01-12T20:03:04.736Z</time>
      </trkpt>
      <trkpt lat="48.84457" lon="2.41451">
        <ele>101.6</ele>
        <time>2015-01-12T20:03:05.734Z</time>
      </trkpt>
      <trkpt lat="48.84462" lon="2.41452">
        <ele>101.6</ele>
        <time>2015-01-12T20:03:06.758Z</time>
      </trkpt>
      <trkpt lat="48.8447" lon="2.41455">
        <ele>101.6</ele>
        <time>2015-01-12T20:03:08.689Z</time>
      </trkpt>
      <trkpt lat="48.84474" lon="2.41457">
        <ele>101.6</ele>
        <time>2015-01-12T20:03:09.737Z</time>
      </trkpt>
      <trkpt lat="48.84481" lon="2.4146">
        <ele>101.6</ele>
        <time>2015-01-12T20:03:11.681Z</time>
      </trkpt>
      <trkpt lat="48.84484" lon="2.41461">
        <ele>101.6</ele>
        <time>2015-01-12T20:03:12.805Z</time>
      </trkpt>
      <trkpt lat="48.84493" lon="2.41466">
        <ele>101.5</ele>
        <time>2015-01-12T20:03:15.728Z</time>
      </trkpt>
      <trkpt lat="48.84495" lon="2.41467">
        <ele>101.4</ele>
        <time>2015-01-12T20:03:16.734Z</time>
      </trkpt>
      <trkpt lat="48.84501" lon="2.4147">
        <ele>101.6</ele>
        <time>2015-01-12T20:03:20.118Z</time>
      </trkpt>
      <trkpt lat="48.84504" lon="2.41472">
        <ele>101.5</ele>
        <time>2015-01-12T20:03:20.707Z</time>
      </trkpt>
      <trkpt lat="48.84508" lon="2.41478">
        <ele>101.4</ele>
        <time>2015-01-12T20:03:22.751Z</time>
      </trkpt>
      <trkpt lat="48.84511" lon="2.41483">
        <ele>101.6</ele>
        <time>2015-01-12T20:03:23.665Z</time>
      </trkpt>
      <trkpt lat="48.84516" lon="2.41491">
        <ele>102.9</ele>
        <time>2015-01-12T20:03:25.726Z</time>
      </trkpt>
      <trkpt lat="48.84517" lon="2.41495">
        <ele>102.8</ele>
        <time>2015-01-12T20:03:26.746Z</time>
      </trkpt>
      <trkpt lat="48.84518" lon="2.41505">
        <ele>102.6</ele>
        <time>2015-01-12T20:03:28.666Z</time>
      </trkpt>
      <trkpt lat="48.84519" lon="2.4151">
        <ele>102.4</ele>
        <time>2015-01-12T20:03:29.679Z</time>
      </trkpt>
      <trkpt lat="48.84521" lon="2.41519">
        <ele>102.3</ele>
        <time>2015-01-12T20:03:31.712Z</time>
      </trkpt>
      <trkpt lat="48.84522" lon="2.41524">
        <ele>102.1</ele>
        <time>2015-01-12T20:03:32.745Z</time>
      </trkpt>
      <trkpt lat="48.84524" lon="2.41534">
        <ele>101.8</ele>
        <time>2015-01-12T20:03:35.546Z</time>
      </trkpt>
      <trkpt lat="48.84524" lon="2.41539">
        <ele>101.9</ele>
        <time>2015-01-12T20:03:35.649Z</time>
      </trkpt>
      <trkpt lat="48.84527" lon="2.4155">
        <ele>102.7</ele>
        <time>2015-01-12T20:03:39.639Z</time>
      </trkpt>
      <trkpt lat="48.84529" lon="2.41551">
        <ele>103</ele>
        <time>2015-01-12T20:03:40.648Z</time>
      </trkpt>
      <trkpt lat="48.84537" lon="2.41552">
        <ele>104.7</ele>
        <time>2015-01-12T20:03:44.759Z</time>
      </trkpt>
      <trkpt lat="48.8454" lon="2.41551">
        <ele>105.3</ele>
        <time>2015-01-12T20:03:45.662Z</time>
      </trkpt>
      <trkpt lat="48.84546" lon="2.41551">
        <ele>106</ele>
        <time>2015-01-12T20:03:47.696Z</time>
      </trkpt>
      <trkpt lat="48.8455" lon="2.41551">
        <ele>106.4</ele>
        <time>2015-01-12T20:03:48.706Z</time>
      </trkpt>
      <trkpt lat="48.84558" lon="2.41551">
        <ele>107.8</ele>
        <time>2015-01-12T20:03:52.645Z</time>
      </trkpt>
      <trkpt lat="48.8456" lon="2.41551">
        <ele>108.1</ele>
        <time>2015-01-12T20:03:53.642Z</time>
      </trkpt>
      <trkpt lat="48.84566" lon="2.41552">
        <ele>108.9</ele>
        <time>2015-01-12T20:03:55.675Z</time>
      </trkpt>
      <trkpt lat="48.84569" lon="2.41552">
        <ele>109.3</ele>
        <time>2015-01-12T20:03:56.675Z</time>
      </trkpt>
      <trkpt lat="48.84576" lon="2.41552">
        <ele>110.1</ele>
        <time>2015-01-12T20:03:59.016Z</time>
      </trkpt>
      <trkpt lat="48.8458" lon="2.41552">
        <ele>110.4</ele>
        <time>2015-01-12T20:03:59.741Z</time>
      </trkpt>
      <trkpt lat="48.84589" lon="2.41554">
        <ele>110.9</ele>
        <time>2015-01-12T20:04:02.708Z</time>
      </trkpt>
      <trkpt lat="48.84592" lon="2.41555">
        <ele>111</ele>
        <time>2015-01-12T20:04:03.720Z</time>
      </trkpt>
      <trkpt lat="48.84599" lon="2.41558">
        <ele>111.1</ele>
        <time>2015-01-12T20:04:05.649Z</time>
      </trkpt>
      <trkpt lat="48.84602" lon="2.41559">
        <ele>111.1</ele>
        <time>2015-01-12T20:04:06.688Z</time>
      </trkpt>
      <trkpt lat="48.8461" lon="2.41565">
        <ele>110.5</ele>
        <time>2015-01-12T20:04:08.610Z</time>
      </trkpt>
      <trkpt lat="48.84613" lon="2.41569">
        <ele>109.8</ele>
        <time>2015-01-12T20:04:09.672Z</time>
      </trkpt>
      <trkpt lat="48.84619" lon="2.41574">
        <ele>108.6</ele>
        <time>2015-01-12T20:04:11.643Z</time>
      </trkpt>
      <trkpt lat="48.84622" lon="2.41574">
        <ele>107.8</ele>
        <time>2015-01-12T20:04:12.689Z</time>
      </trkpt>
      <trkpt lat="48.84629" lon="2.4158">
        <ele>107.7</ele>
        <time>2015-01-12T20:04:15.761Z</time>
      </trkpt>
      <trkpt lat="48.84631" lon="2.41587">
        <ele>107.9</ele>
        <time>2015-01-12T20:04:16.655Z</time>
      </trkpt>
      <trkpt lat="48.84632" lon="2.41599">
        <ele>107.6</ele>
        <time>2015-01-12T20:04:19.972Z</time>
      </trkpt>
      <trkpt lat="48.84633" lon="2.41603">
        <ele>107.4</ele>
        <time>2015-01-12T20:04:20.650Z</time>
      </trkpt>
      <trkpt lat="48.84633" lon="2.41614">
        <ele>107</ele>
        <time>2015-01-12T20:04:23.677Z</time>
      </trkpt>
      <trkpt lat="48.84634" lon="2.41618">
        <ele>107</ele>
        <time>2015-01-12T20:04:24.784Z</time>
      </trkpt>
      <trkpt lat="48.84635" lon="2.41628">
        <ele>106.5</ele>
        <time>2015-01-12T20:04:27.747Z</time>
      </trkpt>
      <trkpt lat="48.84635" lon="2.41632">
        <ele>106.3</ele>
        <time>2015-01-12T20:04:28.709Z</time>
      </trkpt>
      <trkpt lat="48.84637" lon="2.41644">
        <ele>106.2</ele>
        <time>2015-01-12T20:04:31.693Z</time>
      </trkpt>
      <trkpt lat="48.84637" lon="2.41648">
        <ele>106</ele>
        <time>2015-01-12T20:04:32.712Z</time>
      </trkpt>
      <trkpt lat="48.84636" lon="2.41658">
        <ele>105.7</ele>
        <time>2015-01-12T20:04:35.168Z</time>
      </trkpt>
      <trkpt lat="48.84636" lon="2.41662">
        <ele>105.6</ele>
        <time>2015-01-12T20:04:35.706Z</time>
      </trkpt>
      <trkpt lat="48.84635" lon="2.41675">
        <ele>105.2</ele>
        <time>2015-01-12T20:04:38.644Z</time>
      </trkpt>
      <trkpt lat="48.84635" lon="2.41679">
        <ele>105</ele>
        <time>2015-01-12T20:04:39.707Z</time>
      </trkpt>
      <trkpt lat="48.84633" lon="2.41692">
        <ele>104.1</ele>
        <time>2015-01-12T20:04:42.806Z</time>
      </trkpt>
      <trkpt lat="48.84633" lon="2.41696">
        <ele>103.8</ele>
        <time>2015-01-12T20:04:43.739Z</time>
      </trkpt>
      <trkpt lat="48.84633" lon="2.41706">
        <ele>103.5</ele>
        <time>2015-01-12T20:04:45.634Z</time>
      </trkpt>
      <trkpt lat="48.84634" lon="2.41711">
        <ele>103.4</ele>
        <time>2015-01-12T20:04:46.667Z</time>
      </trkpt>
      <trkpt lat="48.84635" lon="2.41724">
        <ele>103.9</ele>
        <time>2015-01-12T20:04:50.671Z</time>
      </trkpt>
      <trkpt lat="48.84635" lon="2.41727">
        <ele>103.9</ele>
        <time>2015-01-12T20:04:51.667Z</time>
      </trkpt>
      <trkpt lat="48.84635" lon="2.4174">
        <ele>104.2</ele>
        <time>2015-01-12T20:04:55.734Z</time>
      </trkpt>
      <trkpt lat="48.84636" lon="2.41742">
        <ele>104.3</ele>
        <time>2015-01-12T20:04:56.641Z</time>
      </trkpt>
      <trkpt lat="48.84641" lon="2.41752">
        <ele>105.1</ele>
        <time>2015-01-12T20:05:02.647Z</time>
      </trkpt>
      <trkpt lat="48.84642" lon="2.41753">
        <ele>105.2</ele>
        <time>2015-01-12T20:05:03.675Z</time>
      </trkpt>
      <trkpt lat="48.84649" lon="2.41761">
        <ele>105.4</ele>
        <time>2015-01-12T20:05:10.646Z</time>
      </trkpt>
      <trkpt lat="48.8465" lon="2.41763">
        <ele>105.4</ele>
        <time>2015-01-12T20:05:11.650Z</time>
      </trkpt>
      <trkpt lat="48.84658" lon="2.41767">
        <ele>106.4</ele>
        <time>2015-01-12T20:05:18.672Z</time>
      </trkpt>
      <trkpt lat="48.84659" lon="2.41766">
        <ele>106.4</ele>
        <time>2015-01-12T20:05:19.737Z</time>
      </trkpt>
      <trkpt lat="48.84666" lon="2.41763">
        <ele>106.1</ele>
        <time>2015-01-12T20:05:22.683Z</time>
      </trkpt>
      <trkpt lat="48.84668" lon="2.41762">
        <ele>106.5</ele>
        <time>2015-01-12T20:05:23.676Z</time>
      </trkpt>
      <trkpt lat="48.84677" lon="2.41761">
        <ele>107.9</ele>
        <time>2015-01-12T20:05:26.780Z</time>
      </trkpt>
      <trkpt lat="48.8468" lon="2.41762">
        <ele>108.3</ele>
        <time>2015-01-12T20:05:27.797Z</time>
      </trkpt>
      <trkpt lat="48.84689" lon="2.41763">
        <ele>110</ele>
        <time>2015-01-12T20:05:30.747Z</time>
      </trkpt>
      <trkpt lat="48.84691" lon="2.41762">
        <ele>110.7</ele>
        <time>2015-01-12T20:05:31.748Z</time>
      </trkpt>
      <trkpt lat="48.847" lon="2.41759">
        <ele>111.3</ele>
        <time>2015-01-12T20:05:35.182Z</time>
      </trkpt>
      <trkpt lat="48.84704" lon="2.4176">
        <ele>111.6</ele>
        <time>2015-01-12T20:05:35.685Z</time>
      </trkpt>
      <trkpt lat="48.84712" lon="2.41762">
        <ele>111.9</ele>
        <time>2015-01-12T20:05:37.673Z</time>
      </trkpt>
      <trkpt lat="48.84716" lon="2.41762">
        <ele>112.1</ele>
        <time>2015-01-12T20:05:38.803Z</time>
      </trkpt>
      <trkpt lat="48.84721" lon="2.41763">
        <ele>112.3</ele>
        <time>2015-01-12T20:05:40.301Z</time>
      </trkpt>
      <trkpt lat="48.84726" lon="2.41764">
        <ele>112.5</ele>
        <time>2015-01-12T20:05:40.664Z</time>
      </trkpt>
      <trkpt lat="48.84735" lon="2.41762">
        <ele>113.5</ele>
        <time>2015-01-12T20:05:41.685Z</time>
      </trkpt>
      <trkpt lat="48.84743" lon="2.41761">
        <ele>114.4</ele>
        <time>2015-01-12T20:05:42.694Z</time>
      </trkpt>
      <trkpt lat="48.84749" lon="2.41762">
        <ele>115.1</ele>
        <time>2015-01-12T20:05:43.728Z</time>
      </trkpt>
      <trkpt lat="48.84753" lon="2.41763">
        <ele>115.4</ele>
        <time>2015-01-12T20:05:44.642Z</time>
      </trkpt>
      <trkpt lat="48.8476" lon="2.41764">
        <ele>115.9</ele>
        <time>2015-01-12T20:05:46.649Z</time>
      </trkpt>
      <trkpt lat="48.84763" lon="2.41766">
        <ele>116</ele>
        <time>2015-01-12T20:05:47.655Z</time>
      </trkpt>
      <trkpt lat="48.84769" lon="2.41769">
        <ele>116.3</ele>
        <time>2015-01-12T20:05:49.688Z</time>
      </trkpt>
      <trkpt lat="48.84773" lon="2.41769">
        <ele>116.5</ele>
        <time>2015-01-12T20:05:50.676Z</time>
      </trkpt>
      <trkpt lat="48.84781" lon="2.41768">
        <ele>116.9</ele>
        <time>2015-01-12T20:05:52.709Z</time>
      </trkpt>
      <trkpt lat="48.84785" lon="2.41769">
        <ele>117.1</ele>
        <time>2015-01-12T20:05:53.723Z</time>
      </trkpt>
      <trkpt lat="48.84793" lon="2.4177">
        <ele>117.3</ele>
        <time>2015-01-12T20:05:55.685Z</time>
      </trkpt>
      <trkpt lat="48.84798" lon="2.41772">
        <ele>117.2</ele>
        <time>2015-01-12T20:05:56.688Z</time>
      </trkpt>
      <trkpt lat="48.84807" lon="2.41772">
        <ele>116.7</ele>
        <time>2015-01-12T20:05:58.706Z</time>
      </trkpt>
      <trkpt lat="48.84811" lon="2.41772">
        <ele>116.9</ele>
        <time>2015-01-12T20:05:59.709Z</time>
      </trkpt>
      <trkpt lat="48.84819" lon="2.41773">
        <ele>117.6</ele>
        <time>2015-01-12T20:06:01.737Z</time>
      </trkpt>
      <trkpt lat="48.84823" lon="2.41774">
        <ele>117.8</ele>
        <time>2015-01-12T20:06:02.754Z</time>
      </trkpt>
      <trkpt lat="48.84831" lon="2.41776">
        <ele>118</ele>
        <time>2015-01-12T20:06:04.879Z</time>
      </trkpt>
      <trkpt lat="48.84835" lon="2.41777">
        <ele>118.3</ele>
        <time>2015-01-12T20:06:05.746Z</time>
      </trkpt>
      <trkpt lat="48.84843" lon="2.41777">
        <ele>118.9</ele>
        <time>2015-01-12T20:06:07.811Z</time>
      </trkpt>
      <trkpt lat="48.84846" lon="2.41777">
        <ele>119</ele>
        <time>2015-01-12T20:06:08.648Z</time>
      </trkpt>
      <trkpt lat="48.84853" lon="2.41779">
        <ele>119.2</ele>
        <time>2015-01-12T20:06:10.709Z</time>
      </trkpt>
      <trkpt lat="48.84857" lon="2.4178">
        <ele>119.2</ele>
        <time>2015-01-12T20:06:11.720Z</time>
      </trkpt>
      <trkpt lat="48.84865" lon="2.4178">
        <ele>119.2</ele>
        <time>2015-01-12T20:06:13.733Z</time>
      </trkpt>
      <trkpt lat="48.84868" lon="2.41781">
        <ele>119.1</ele>
        <time>2015-01-12T20:06:14.661Z</time>
      </trkpt>
      <trkpt lat="48.84875" lon="2.41782">
        <ele>119.2</ele>
        <time>2015-01-12T20:06:16.661Z</time>
      </trkpt>
      <trkpt lat="48.84879" lon="2.41782">
        <ele>119.3</ele>
        <time>2015-01-12T20:06:17.665Z</time>
      </trkpt>
      <trkpt lat="48.84887" lon="2.41782">
        <ele>119.7</ele>
        <time>2015-01-12T20:06:20.146Z</time>
      </trkpt>
      <trkpt lat="48.84891" lon="2.4178">
        <ele>119.8</ele>
        <time>2015-01-12T20:06:20.672Z</time>
      </trkpt>
      <trkpt lat="48.84896" lon="2.41779">
        <ele>119.6</ele>
        <time>2015-01-12T20:06:21.647Z</time>
      </trkpt>
      <trkpt lat="48.84901" lon="2.41775">
        <ele>118.1</ele>
        <time>2015-01-12T20:06:22.677Z</time>
      </trkpt>
      <trkpt lat="48.84908" lon="2.41769">
        <ele>116.2</ele>
        <time>2015-01-12T20:06:25.261Z</time>
      </trkpt>
      <trkpt lat="48.84911" lon="2.4177">
        <ele>115.9</ele>
        <time>2015-01-12T20:06:25.787Z</time>
      </trkpt>
      <trkpt lat="48.84916" lon="2.41773">
        <ele>115.6</ele>
        <time>2015-01-12T20:06:26.663Z</time>
      </trkpt>
      <trkpt lat="48.8492" lon="2.41777">
        <ele>115.3</ele>
        <time>2015-01-12T20:06:27.662Z</time>
      </trkpt>
      <trkpt lat="48.84926" lon="2.41784">
        <ele>115.1</ele>
        <time>2015-01-12T20:06:30.348Z</time>
      </trkpt>
      <trkpt lat="48.84929" lon="2.41786">
        <ele>115</ele>
        <time>2015-01-12T20:06:30.696Z</time>
      </trkpt>
      <trkpt lat="48.84935" lon="2.41789">
        <ele>114.4</ele>
        <time>2015-01-12T20:06:32.728Z</time>
      </trkpt>
      <trkpt lat="48.84938" lon="2.41791">
        <ele>114.1</ele>
        <time>2015-01-12T20:06:33.624Z</time>
      </trkpt>
      <trkpt lat="48.84944" lon="2.41796">
        <ele>113.9</ele>
        <time>2015-01-12T20:06:35.681Z</time>
      </trkpt>
      <trkpt lat="48.84948" lon="2.41798">
        <ele>114.3</ele>
        <time>2015-01-12T20:06:36.715Z</time>
      </trkpt>
      <trkpt lat="48.84955" lon="2.418">
        <ele>114.5</ele>
        <time>2015-01-12T20:06:38.628Z</time>
      </trkpt>
      <trkpt lat="48.8496" lon="2.41801">
        <ele>114.6</ele>
        <time>2015-01-12T20:06:39.646Z</time>
      </trkpt>
      <trkpt lat="48.84968" lon="2.41802">
        <ele>114.7</ele>
        <time>2015-01-12T20:06:41.680Z</time>
      </trkpt>
      <trkpt lat="48.84974" lon="2.418">
        <ele>113.3</ele>
        <time>2015-01-12T20:06:42.749Z</time>
      </trkpt>
      <trkpt lat="48.84983" lon="2.41801">
        <ele>113.1</ele>
        <time>2015-01-12T20:06:45.638Z</time>
      </trkpt>
      <trkpt lat="48.84987" lon="2.418">
        <ele>113.3</ele>
        <time>2015-01-12T20:06:45.683Z</time>
      </trkpt>
      <trkpt lat="48.84993" lon="2.41802">
        <ele>114</ele>
        <time>2015-01-12T20:06:47.715Z</time>
      </trkpt>
      <trkpt lat="48.84996" lon="2.41804">
        <ele>114.5</ele>
        <time>2015-01-12T20:06:48.797Z</time>
      </trkpt>
      <trkpt lat="48.85004" lon="2.41808">
        <ele>115.3</ele>
        <time>2015-01-12T20:06:50.658Z</time>
      </trkpt>
      <trkpt lat="48.85007" lon="2.41809">
        <ele>115.5</ele>
        <time>2015-01-12T20:06:51.680Z</time>
      </trkpt>
      <trkpt lat="48.85014" lon="2.41811">
        <ele>116</ele>
        <time>2015-01-12T20:06:54.585Z</time>
      </trkpt>
      <trkpt lat="48.85022" lon="2.41821">
        <ele>115.3</ele>
        <time>2015-01-12T20:06:54.634Z</time>
      </trkpt>
      <trkpt lat="48.8503" lon="2.41823">
        <ele>115.7</ele>
        <time>2015-01-12T20:06:56.652Z</time>
      </trkpt>
      <trkpt lat="48.85034" lon="2.41823">
        <ele>116.1</ele>
        <time>2015-01-12T20:06:57.681Z</time>
      </trkpt>
      <trkpt lat="48.85041" lon="2.41823">
        <ele>116.5</ele>
        <time>2015-01-12T20:06:59.698Z</time>
      </trkpt>
      <trkpt lat="48.85044" lon="2.41823">
        <ele>116.6</ele>
        <time>2015-01-12T20:07:00.632Z</time>
      </trkpt>
      <trkpt lat="48.8505" lon="2.41827">
        <ele>115.9</ele>
        <time>2015-01-12T20:07:02.619Z</time>
      </trkpt>
      <trkpt lat="48.85053" lon="2.41828">
        <ele>115.4</ele>
        <time>2015-01-12T20:07:03.650Z</time>
      </trkpt>
      <trkpt lat="48.85061" lon="2.41827">
        <ele>114.2</ele>
        <time>2015-01-12T20:07:05.661Z</time>
      </trkpt>
      <trkpt lat="48.85064" lon="2.41828">
        <ele>113.7</ele>
        <time>2015-01-12T20:07:06.670Z</time>
      </trkpt>
      <trkpt lat="48.85071" lon="2.41829">
        <ele>114.4</ele>
        <time>2015-01-12T20:07:09.883Z</time>
      </trkpt>
      <trkpt lat="48.85074" lon="2.41831">
        <ele>114.7</ele>
        <time>2015-01-12T20:07:10.674Z</time>
      </trkpt>
      <trkpt lat="48.85081" lon="2.41832">
        <ele>115.4</ele>
        <time>2015-01-12T20:07:12.648Z</time>
      </trkpt>
      <trkpt lat="48.85084" lon="2.41832">
        <ele>115.6</ele>
        <time>2015-01-12T20:07:13.652Z</time>
      </trkpt>
      <trkpt lat="48.8509" lon="2.41832">
        <ele>115.3</ele>
        <time>2015-01-12T20:07:15.627Z</time>
      </trkpt>
      <trkpt lat="48.85094" lon="2.41832">
        <ele>115.6</ele>
        <time>2015-01-12T20:07:16.717Z</time>
      </trkpt>
      <trkpt lat="48.85101" lon="2.41831">
        <ele>116.1</ele>
        <time>2015-01-12T20:07:18.620Z</time>
      </trkpt>
      <trkpt lat="48.85105" lon="2.4183">
        <ele>116.3</ele>
        <time>2015-01-12T20:07:19.720Z</time>
      </trkpt>
      <trkpt lat="48.85112" lon="2.41829">
        <ele>116.6</ele>
        <time>2015-01-12T20:07:21.660Z</time>
      </trkpt>
      <trkpt lat="48.85116" lon="2.41829">
        <ele>116.8</ele>
        <time>2015-01-12T20:07:22.666Z</time>
      </trkpt>
      <trkpt lat="48.85125" lon="2.41829">
        <ele>117.1</ele>
        <time>2015-01-12T20:07:25.197Z</time>
      </trkpt>
      <trkpt lat="48.85129" lon="2.41829">
        <ele>117</ele>
        <time>2015-01-12T20:07:25.693Z</time>
      </trkpt>
      <trkpt lat="48.8514" lon="2.41826">
        <ele>117.3</ele>
        <time>2015-01-12T20:07:28.664Z</time>
      </trkpt>
      <trkpt lat="48.85147" lon="2.41824">
        <ele>117.5</ele>
        <time>2015-01-12T20:07:31.702Z</time>
      </trkpt>
      <trkpt lat="48.8515" lon="2.41824">
        <ele>117.4</ele>
        <time>2015-01-12T20:07:32.785Z</time>
      </trkpt>
      <trkpt lat="48.85158" lon="2.4182">
        <ele>116.7</ele>
        <time>2015-01-12T20:07:37.708Z</time>
      </trkpt>
      <trkpt lat="48.8516" lon="2.4182">
        <ele>116.8</ele>
        <time>2015-01-12T20:07:38.725Z</time>
      </trkpt>
      <trkpt lat="48.85169" lon="2.41822">
        <ele>117.1</ele>
        <time>2015-01-12T20:07:42.603Z</time>
      </trkpt>
      <trkpt lat="48.85173" lon="2.41822">
        <ele>117.5</ele>
        <time>2015-01-12T20:07:43.655Z</time>
      </trkpt>
      <trkpt lat="48.85178" lon="2.41822">
        <ele>117.8</ele>
        <time>2015-01-12T20:07:45.657Z</time>
      </trkpt>
      <trkpt lat="48.85183" lon="2.4182">
        <ele>118.1</ele>
        <time>2015-01-12T20:07:45.714Z</time>
      </trkpt>
      <trkpt lat="48.85188" lon="2.41819">
        <ele>118.5</ele>
        <time>2015-01-12T20:07:46.650Z</time>
      </trkpt>
      <trkpt lat="48.85193" lon="2.41817">
        <ele>118.9</ele>
        <time>2015-01-12T20:07:47.655Z</time>
      </trkpt>
      <trkpt lat="48.85201" lon="2.41814">
        <ele>119.6</ele>
        <time>2015-01-12T20:07:49.670Z</time>
      </trkpt>
      <trkpt lat="48.85204" lon="2.41814">
        <ele>119.9</ele>
        <time>2015-01-12T20:07:50.741Z</time>
      </trkpt>
      <trkpt lat="48.85211" lon="2.41812">
        <ele>120.8</ele>
        <time>2015-01-12T20:07:52.639Z</time>
      </trkpt>
      <trkpt lat="48.85214" lon="2.41811">
        <ele>121.3</ele>
        <time>2015-01-12T20:07:53.648Z</time>
      </trkpt>
      <trkpt lat="48.85221" lon="2.41807">
        <ele>122.4</ele>
        <time>2015-01-12T20:07:56.844Z</time>
      </trkpt>
      <trkpt lat="48.85224" lon="2.41806">
        <ele>123</ele>
        <time>2015-01-12T20:07:57.665Z</time>
      </trkpt>
      <trkpt lat="48.85231" lon="2.41809">
        <ele>124.9</ele>
        <time>2015-01-12T20:07:59.840Z</time>
      </trkpt>
      <trkpt lat="48.85233" lon="2.41809">
        <ele>125.2</ele>
        <time>2015-01-12T20:08:00.728Z</time>
      </trkpt>
      <trkpt lat="48.85239" lon="2.41802">
        <ele>124</ele>
        <time>2015-01-12T20:08:03.637Z</time>
      </trkpt>
      <trkpt lat="48.85241" lon="2.418">
        <ele>123.4</ele>
        <time>2015-01-12T20:08:04.647Z</time>
      </trkpt>
      <trkpt lat="48.85248" lon="2.41794">
        <ele>120.5</ele>
        <time>2015-01-12T20:08:09.982Z</time>
      </trkpt>
      <trkpt lat="48.8525" lon="2.41794">
        <ele>120.4</ele>
        <time>2015-01-12T20:08:10.647Z</time>
      </trkpt>
      <trkpt lat="48.85258" lon="2.41795">
        <ele>121.4</ele>
        <time>2015-01-12T20:08:15.093Z</time>
      </trkpt>
      <trkpt lat="48.8526" lon="2.41795">
        <ele>121.8</ele>
        <time>2015-01-12T20:08:15.650Z</time>
      </trkpt>
      <trkpt lat="48.85266" lon="2.41795">
        <ele>122.6</ele>
        <time>2015-01-12T20:08:17.678Z</time>
      </trkpt>
      <trkpt lat="48.8527" lon="2.41795">
        <ele>122.9</ele>
        <time>2015-01-12T20:08:18.691Z</time>
      </trkpt>
      <trkpt lat="48.85277" lon="2.41794">
        <ele>123.8</ele>
        <time>2015-01-12T20:08:20.732Z</time>
      </trkpt>
      <trkpt lat="48.8528" lon="2.41794">
        <ele>124</ele>
        <time>2015-01-12T20:08:21.676Z</time>
      </trkpt>
      <trkpt lat="48.85288" lon="2.41791">
        <ele>124.9</ele>
        <time>2015-01-12T20:08:23.715Z</time>
      </trkpt>
      <trkpt lat="48.85293" lon="2.41789">
        <ele>125.1</ele>
        <time>2015-01-12T20:08:24.717Z</time>
      </trkpt>
      <trkpt lat="48.85297" lon="2.41787">
        <ele>125</ele>
        <time>2015-01-12T20:08:25.737Z</time>
      </trkpt>
      <trkpt lat="48.85302" lon="2.41786">
        <ele>125.3</ele>
        <time>2015-01-12T20:08:26.649Z</time>
      </trkpt>
      <trkpt lat="48.85306" lon="2.41785">
        <ele>125.6</ele>
        <time>2015-01-12T20:08:27.666Z</time>
      </trkpt>
      <trkpt lat="48.85311" lon="2.41785">
        <ele>125.8</ele>
        <time>2015-01-12T20:08:28.680Z</time>
      </trkpt>
      <trkpt lat="48.85316" lon="2.41784">
        <ele>126.3</ele>
        <time>2015-01-12T20:08:30.680Z</time>
      </trkpt>
      <trkpt lat="48.8532" lon="2.41783">
        <ele>126.8</ele>
        <time>2015-01-12T20:08:30.710Z</time>
      </trkpt>
      <trkpt lat="48.85327" lon="2.41781">
        <ele>127.6</ele>
        <time>2015-01-12T20:08:32.743Z</time>
      </trkpt>
      <trkpt lat="48.85331" lon="2.41779">
        <ele>128.1</ele>
        <time>2015-01-12T20:08:33.644Z</time>
      </trkpt>
      <trkpt lat="48.85338" lon="2.41777">
        <ele>128.2</ele>
        <time>2015-01-12T20:08:35.667Z</time>
      </trkpt>
      <trkpt lat="48.85341" lon="2.41777">
        <ele>128</ele>
        <time>2015-01-12T20:08:36.698Z</time>
      </trkpt>
      <trkpt lat="48.85345" lon="2.41776">
        <ele>127.6</ele>
        <time>2015-01-12T20:08:37.729Z</time>
      </trkpt>
      <trkpt lat="48.85352" lon="2.41773">
        <ele>125.4</ele>
        <time>2015-01-12T20:08:38.727Z</time>
      </trkpt>
      <trkpt lat="48.85358" lon="2.4177">
        <ele>124.2</ele>
        <time>2015-01-12T20:08:40.286Z</time>
      </trkpt>
      <trkpt lat="48.85362" lon="2.41768">
        <ele>123.5</ele>
        <time>2015-01-12T20:08:40.658Z</time>
      </trkpt>
      <trkpt lat="48.85367" lon="2.41766">
        <ele>122.8</ele>
        <time>2015-01-12T20:08:41.672Z</time>
      </trkpt>
      <trkpt lat="48.85371" lon="2.41765">
        <ele>122.1</ele>
        <time>2015-01-12T20:08:42.680Z</time>
      </trkpt>
      <trkpt lat="48.85377" lon="2.41765">
        <ele>122.6</ele>
        <time>2015-01-12T20:08:45.364Z</time>
      </trkpt>
      <trkpt lat="48.85381" lon="2.41764">
        <ele>122.6</ele>
        <time>2015-01-12T20:08:45.630Z</time>
      </trkpt>
      <trkpt lat="48.85387" lon="2.41763">
        <ele>122.5</ele>
        <time>2015-01-12T20:08:47.647Z</time>
      </trkpt>
      <trkpt lat="48.8539" lon="2.41762">
        <ele>122.6</ele>
        <time>2015-01-12T20:08:48.673Z</time>
      </trkpt>
      <trkpt lat="48.85396" lon="2.41762">
        <ele>123.6</ele>
        <time>2015-01-12T20:08:50.655Z</time>
      </trkpt>
      <trkpt lat="48.85399" lon="2.41761">
        <ele>124</ele>
        <time>2015-01-12T20:08:51.666Z</time>
      </trkpt>
      <trkpt lat="48.85405" lon="2.41758">
        <ele>125.1</ele>
        <time>2015-01-12T20:08:53.697Z</time>
      </trkpt>
      <trkpt lat="48.85409" lon="2.41754">
        <ele>125.9</ele>
        <time>2015-01-12T20:08:54.790Z</time>
      </trkpt>
      <trkpt lat="48.85412" lon="2.4175">
        <ele>126.7</ele>
        <time>2015-01-12T20:08:55.674Z</time>
      </trkpt>
      <trkpt lat="48.85416" lon="2.41745">
        <ele>127.2</ele>
        <time>2015-01-12T20:08:56.678Z</time>
      </trkpt>
      <trkpt lat="48.85422" lon="2.41737">
        <ele>128.1</ele>
        <time>2015-01-12T20:08:58.699Z</time>
      </trkpt>
      <trkpt lat="48.85424" lon="2.41735">
        <ele>128.3</ele>
        <time>2015-01-12T20:08:59.709Z</time>
      </trkpt>
      <trkpt lat="48.85432" lon="2.41729">
        <ele>128.9</ele>
        <time>2015-01-12T20:09:01.688Z</time>
      </trkpt>
      <trkpt lat="48.85435" lon="2.41731">
        <ele>129.1</ele>
        <time>2015-01-12T20:09:02.700Z</time>
      </trkpt>
      <trkpt lat="48.85443" lon="2.41729">
        <ele>129.4</ele>
        <time>2015-01-12T20:09:05.741Z</time>
      </trkpt>
      <trkpt lat="48.85446" lon="2.41729">
        <ele>129.5</ele>
        <time>2015-01-12T20:09:06.654Z</time>
      </trkpt>
      <trkpt lat="48.85454" lon="2.41729">
        <ele>130</ele>
        <time>2015-01-12T20:09:11.651Z</time>
      </trkpt>
      <trkpt lat="48.85454" lon="2.41731">
        <ele>130.4</ele>
        <time>2015-01-12T20:09:12.768Z</time>
      </trkpt>
      <trkpt lat="48.85456" lon="2.41734">
        <ele>130.3</ele>
        <time>2015-01-12T20:09:13.676Z</time>
      </trkpt>
      <trkpt lat="48.85464" lon="2.41736">
        <ele>128.7</ele>
        <time>2015-01-12T20:09:20.641Z</time>
      </trkpt>
      <trkpt lat="48.85465" lon="2.41735">
        <ele>128.5</ele>
        <time>2015-01-12T20:09:21.641Z</time>
      </trkpt>
      <trkpt lat="48.85464" lon="2.41723">
        <ele>128.1</ele>
        <time>2015-01-12T20:09:28.637Z</time>
      </trkpt>
      <trkpt lat="48.85463" lon="2.41721">
        <ele>128.2</ele>
        <time>2015-01-12T20:09:29.644Z</time>
      </trkpt>
      <trkpt lat="48.8546" lon="2.4171">
        <ele>128.6</ele>
        <time>2015-01-12T20:09:33.635Z</time>
      </trkpt>
      <trkpt lat="48.85458" lon="2.41707">
        <ele>128.8</ele>
        <time>2015-01-12T20:09:34.688Z</time>
      </trkpt>
      <trkpt lat="48.85456" lon="2.41695">
        <ele>129.2</ele>
        <time>2015-01-12T20:09:37.682Z</time>
      </trkpt>
      <trkpt lat="48.85454" lon="2.41689">
        <ele>129.3</ele>
        <time>2015-01-12T20:09:38.684Z</time>
      </trkpt>
      <trkpt lat="48.85453" lon="2.41676">
        <ele>130.3</ele>
        <time>2015-01-12T20:09:40.700Z</time>
      </trkpt>
      <trkpt lat="48.85452" lon="2.4167">
        <ele>130.7</ele>
        <time>2015-01-12T20:09:41.728Z</time>
      </trkpt>
      <trkpt lat="48.85452" lon="2.41662">
        <ele>131.1</ele>
        <time>2015-01-12T20:09:42.672Z</time>
      </trkpt>
      <trkpt lat="48.85451" lon="2.41653">
        <ele>131.8</ele>
        <time>2015-01-12T20:09:43.684Z</time>
      </trkpt>
      <trkpt lat="48.85448" lon="2.41641">
        <ele>132.7</ele>
        <time>2015-01-12T20:09:44.690Z</time>
      </trkpt>
      <trkpt lat="48.85446" lon="2.41627">
        <ele>132.7</ele>
        <time>2015-01-12T20:09:45.721Z</time>
      </trkpt>
      <trkpt lat="48.85446" lon="2.41627">
        <ele>132.7</ele>
        <time>2015-01-12T20:09:45.683Z</time>
      </trkpt>
      <trkpt lat="48.85443" lon="2.41614">
        <ele>133.3</ele>
        <time>2015-01-12T20:09:46.647Z</time>
      </trkpt>
      <trkpt lat="48.85439" lon="2.41601">
        <ele>132.8</ele>
        <time>2015-01-12T20:09:47.657Z</time>
      </trkpt>
      <trkpt lat="48.85436" lon="2.41589">
        <ele>132.8</ele>
        <time>2015-01-12T20:09:49.569Z</time>
      </trkpt>
      <trkpt lat="48.85433" lon="2.41576">
        <ele>132.2</ele>
        <time>2015-01-12T20:09:49.695Z</time>
      </trkpt>
      <trkpt lat="48.85432" lon="2.41566">
        <ele>131.5</ele>
        <time>2015-01-12T20:09:50.752Z</time>
      </trkpt>
      <trkpt lat="48.8543" lon="2.41557">
        <ele>131.3</ele>
        <time>2015-01-12T20:09:51.643Z</time>
      </trkpt>
      <trkpt lat="48.85428" lon="2.41544">
        <ele>130</ele>
        <time>2015-01-12T20:09:54.676Z</time>
      </trkpt>
      <trkpt lat="48.85428" lon="2.4154">
        <ele>129.3</ele>
        <time>2015-01-12T20:09:54.721Z</time>
      </trkpt>
      <trkpt lat="48.8543" lon="2.41527">
        <ele>129.1</ele>
        <time>2015-01-12T20:09:58.720Z</time>
      </trkpt>
      <trkpt lat="48.85431" lon="2.41524">
        <ele>129.1</ele>
        <time>2015-01-12T20:09:59.742Z</time>
      </trkpt>
      <trkpt lat="48.85437" lon="2.41516">
        <ele>129.1</ele>
        <time>2015-01-12T20:10:03.700Z</time>
      </trkpt>
      <trkpt lat="48.85437" lon="2.41516">
        <ele>129.3</ele>
        <time>2015-01-12T20:10:04.742Z</time>
      </trkpt>
      <trkpt lat="48.85437" lon="2.41518">
        <ele>129.2</ele>
        <time>2015-01-12T20:10:33.652Z</time>
      </trkpt>
      <trkpt lat="48.85437" lon="2.41517">
        <ele>128.3</ele>
        <time>2015-01-12T20:10:34.690Z</time>
      </trkpt>
      <trkpt lat="48.85442" lon="2.41508">
        <ele>127.4</ele>
        <time>2015-01-12T20:10:38.685Z</time>
      </trkpt>
      <trkpt lat="48.85443" lon="2.41506">
        <ele>126.9</ele>
        <time>2015-01-12T20:10:39.698Z</time>
      </trkpt>
      <trkpt lat="48.85444" lon="2.41495">
        <ele>127.1</ele>
        <time>2015-01-12T20:10:43.742Z</time>
      </trkpt>
      <trkpt lat="48.85443" lon="2.41492">
        <ele>127.2</ele>
        <time>2015-01-12T20:10:44.622Z</time>
      </trkpt>
      <trkpt lat="48.85441" lon="2.41479">
        <ele>126.8</ele>
        <time>2015-01-12T20:10:48.645Z</time>
      </trkpt>
      <trkpt lat="48.8544" lon="2.41477">
        <ele>126.5</ele>
        <time>2015-01-12T20:10:49.697Z</time>
      </trkpt>
      <trkpt lat="48.85447" lon="2.41471">
        <ele>125.4</ele>
        <time>2015-01-12T20:10:54.727Z</time>
      </trkpt>
      <trkpt lat="48.85449" lon="2.4147">
        <ele>124.5</ele>
        <time>2015-01-12T20:10:55.902Z</time>
      </trkpt>
      <trkpt lat="48.85456" lon="2.41464">
        <ele>122.3</ele>
        <time>2015-01-12T20:10:59.693Z</time>
      </trkpt>
      <trkpt lat="48.85458" lon="2.41462">
        <ele>122.1</ele>
        <time>2015-01-12T20:11:00.701Z</time>
      </trkpt>
      <trkpt lat="48.85464" lon="2.41456">
        <ele>120.8</ele>
        <time>2015-01-12T20:11:03.855Z</time>
      </trkpt>
      <trkpt lat="48.85466" lon="2.41454">
        <ele>120.3</ele>
        <time>2015-01-12T20:11:04.663Z</time>
      </trkpt>
      <trkpt lat="48.85472" lon="2.41447">
        <ele>118.7</ele>
        <time>2015-01-12T20:11:08.750Z</time>
      </trkpt>
      <trkpt lat="48.85473" lon="2.41444">
        <ele>117.8</ele>
        <time>2015-01-12T20:11:09.767Z</time>
      </trkpt>
      <trkpt lat="48.85475" lon="2.41433">
        <ele>116.6</ele>
        <time>2015-01-12T20:11:16.636Z</time>
      </trkpt>
      <trkpt lat="48.85475" lon="2.4143">
        <ele>116.5</ele>
        <time>2015-01-12T20:11:16.727Z</time>
      </trkpt>
      <trkpt lat="48.85476" lon="2.41418">
        <ele>115.3</ele>
        <time>2015-01-12T20:11:21.774Z</time>
      </trkpt>
      <trkpt lat="48.85476" lon="2.41414">
        <ele>115.1</ele>
        <time>2015-01-12T20:11:21.822Z</time>
      </trkpt>
      <trkpt lat="48.85478" lon="2.41402">
        <ele>115.1</ele>
        <time>2015-01-12T20:11:24.702Z</time>
      </trkpt>
      <trkpt lat="48.85478" lon="2.41399">
        <ele>115.1</ele>
        <time>2015-01-12T20:11:25.717Z</time>
      </trkpt>
      <trkpt lat="48.8548" lon="2.41386">
        <ele>115.3</ele>
        <time>2015-01-12T20:11:29.695Z</time>
      </trkpt>
      <trkpt lat="48.85481" lon="2.41383">
        <ele>115.3</ele>
        <time>2015-01-12T20:11:30.704Z</time>
      </trkpt>
      <trkpt lat="48.85481" lon="2.41372">
        <ele>115.3</ele>
        <time>2015-01-12T20:11:34.761Z</time>
      </trkpt>
      <trkpt lat="48.85481" lon="2.41369">
        <ele>115.3</ele>
        <time>2015-01-12T20:11:35.634Z</time>
      </trkpt>
      <trkpt lat="48.85479" lon="2.41356">
        <ele>115.4</ele>
        <time>2015-01-12T20:11:40.740Z</time>
      </trkpt>
      <trkpt lat="48.85478" lon="2.41354">
        <ele>115.3</ele>
        <time>2015-01-12T20:11:41.744Z</time>
      </trkpt>
      <trkpt lat="48.85477" lon="2.41342">
        <ele>114.4</ele>
        <time>2015-01-12T20:11:49.577Z</time>
      </trkpt>
      <trkpt lat="48.85476" lon="2.41337">
        <ele>115.4</ele>
        <time>2015-01-12T20:11:49.720Z</time>
      </trkpt>
      <trkpt lat="48.85471" lon="2.41326">
        <ele>114.9</ele>
        <time>2015-01-12T20:11:54.730Z</time>
      </trkpt>
      <trkpt lat="48.85469" lon="2.41323">
        <ele>114.7</ele>
        <time>2015-01-12T20:11:55.751Z</time>
      </trkpt>
      <trkpt lat="48.85465" lon="2.41315">
        <ele>114.7</ele>
        <time>2015-01-12T20:11:58.740Z</time>
      </trkpt>
      <trkpt lat="48.85463" lon="2.41312">
        <ele>114.6</ele>
        <time>2015-01-12T20:11:59.765Z</time>
      </trkpt>
      <trkpt lat="48.85458" lon="2.41301">
        <ele>114.6</ele>
        <time>2015-01-12T20:12:03.723Z</time>
      </trkpt>
      <trkpt lat="48.85457" lon="2.413">
        <ele>114.7</ele>
        <time>2015-01-12T20:12:04.739Z</time>
      </trkpt>
      <trkpt lat="48.85451" lon="2.4129">
        <ele>114.2</ele>
        <time>2015-01-12T20:12:09.956Z</time>
      </trkpt>
      <trkpt lat="48.85451" lon="2.41287">
        <ele>114.2</ele>
        <time>2015-01-12T20:12:10.664Z</time>
      </trkpt>
      <trkpt lat="48.85452" lon="2.41275">
        <ele>113</ele>
        <time>2015-01-12T20:12:13.677Z</time>
      </trkpt>
      <trkpt lat="48.85453" lon="2.41272">
        <ele>112.7</ele>
        <time>2015-01-12T20:12:14.691Z</time>
      </trkpt>
      <trkpt lat="48.85456" lon="2.41262">
        <ele>112.2</ele>
        <time>2015-01-12T20:12:17.629Z</time>
      </trkpt>
      <trkpt lat="48.85457" lon="2.41258">
        <ele>111.9</ele>
        <time>2015-01-12T20:12:18.722Z</time>
      </trkpt>
      <trkpt lat="48.85462" lon="2.41249">
        <ele>111.7</ele>
        <time>2015-01-12T20:12:21.691Z</time>
      </trkpt>
      <trkpt lat="48.85464" lon="2.41246">
        <ele>111.7</ele>
        <time>2015-01-12T20:12:22.671Z</time>
      </trkpt>
      <trkpt lat="48.85467" lon="2.41235">
        <ele>111.2</ele>
        <time>2015-01-12T20:12:25.712Z</time>
      </trkpt>
      <trkpt lat="48.85468" lon="2.41232">
        <ele>111.2</ele>
        <time>2015-01-12T20:12:26.648Z</time>
      </trkpt>
      <trkpt lat="48.85466" lon="2.41221">
        <ele>111.5</ele>
        <time>2015-01-12T20:12:30.347Z</time>
      </trkpt>
      <trkpt lat="48.85463" lon="2.41217">
        <ele>111.6</ele>
        <time>2015-01-12T20:12:30.651Z</time>
      </trkpt>
      <trkpt lat="48.85457" lon="2.41212">
        <ele>111.6</ele>
        <time>2015-01-12T20:12:33.744Z</time>
      </trkpt>
      <trkpt lat="48.85455" lon="2.41211">
        <ele>111.7</ele>
        <time>2015-01-12T20:12:34.638Z</time>
      </trkpt>
      <trkpt lat="48.85448" lon="2.41209">
        <ele>111.8</ele>
        <time>2015-01-12T20:12:36.666Z</time>
      </trkpt>
      <trkpt lat="48.85445" lon="2.41208">
        <ele>111.6</ele>
        <time>2015-01-12T20:12:37.698Z</time>
      </trkpt>
      <trkpt lat="48.85437" lon="2.41206">
        <ele>111.5</ele>
        <time>2015-01-12T20:12:40.553Z</time>
      </trkpt>
      <trkpt lat="48.85433" lon="2.41205">
        <ele>111.3</ele>
        <time>2015-01-12T20:12:40.604Z</time>
      </trkpt>
      <trkpt lat="48.85425" lon="2.41204">
        <ele>111.5</ele>
        <time>2015-01-12T20:12:42.670Z</time>
      </trkpt>
      <trkpt lat="48.85421" lon="2.41203">
        <ele>111.4</ele>
        <time>2015-01-12T20:12:43.683Z</time>
      </trkpt>
      <trkpt lat="48.85414" lon="2.41203">
        <ele>111</ele>
        <time>2015-01-12T20:12:45.768Z</time>
      </trkpt>
      <trkpt lat="48.8541" lon="2.41204">
        <ele>110.9</ele>
        <time>2015-01-12T20:12:46.616Z</time>
      </trkpt>
      <trkpt lat="48.85402" lon="2.41202">
        <ele>110.9</ele>
        <time>2015-01-12T20:12:49.606Z</time>
      </trkpt>
      <trkpt lat="48.85398" lon="2.41202">
        <ele>110.8</ele>
        <time>2015-01-12T20:12:49.686Z</time>
      </trkpt>
      <trkpt lat="48.85391" lon="2.412">
        <ele>110.8</ele>
        <time>2015-01-12T20:12:51.641Z</time>
      </trkpt>
      <trkpt lat="48.85387" lon="2.41199">
        <ele>110.9</ele>
        <time>2015-01-12T20:12:52.676Z</time>
      </trkpt>
      <trkpt lat="48.85381" lon="2.41193">
        <ele>110.9</ele>
        <time>2015-01-12T20:12:54.836Z</time>
      </trkpt>
      <trkpt lat="48.85379" lon="2.41188">
        <ele>110.9</ele>
        <time>2015-01-12T20:12:55.694Z</time>
      </trkpt>
      <trkpt lat="48.85376" lon="2.41176">
        <ele>110.9</ele>
        <time>2015-01-12T20:12:57.770Z</time>
      </trkpt>
      <trkpt lat="48.85375" lon="2.4117">
        <ele>110.9</ele>
        <time>2015-01-12T20:12:58.691Z</time>
      </trkpt>
      <trkpt lat="48.85374" lon="2.41158">
        <ele>110.2</ele>
        <time>2015-01-12T20:13:00.728Z</time>
      </trkpt>
      <trkpt lat="48.85372" lon="2.41151">
        <ele>109.9</ele>
        <time>2015-01-12T20:13:01.745Z</time>
      </trkpt>
      <trkpt lat="48.8537" lon="2.41139">
        <ele>109.5</ele>
        <time>2015-01-12T20:13:03.649Z</time>
      </trkpt>
      <trkpt lat="48.85369" lon="2.41133">
        <ele>109.4</ele>
        <time>2015-01-12T20:13:04.678Z</time>
      </trkpt>
      <trkpt lat="48.85367" lon="2.41123">
        <ele>109.2</ele>
        <time>2015-01-12T20:13:06.711Z</time>
      </trkpt>
      <trkpt lat="48.85366" lon="2.41117">
        <ele>109.2</ele>
        <time>2015-01-12T20:13:07.716Z</time>
      </trkpt>
      <trkpt lat="48.85364" lon="2.41107">
        <ele>109.1</ele>
        <time>2015-01-12T20:13:09.988Z</time>
      </trkpt>
      <trkpt lat="48.85364" lon="2.41103">
        <ele>109.1</ele>
        <time>2015-01-12T20:13:10.657Z</time>
      </trkpt>
      <trkpt lat="48.85362" lon="2.41091">
        <ele>109.2</ele>
        <time>2015-01-12T20:13:13.685Z</time>
      </trkpt>
      <trkpt lat="48.85362" lon="2.41087">
        <ele>109.2</ele>
        <time>2015-01-12T20:13:14.698Z</time>
      </trkpt>
      <trkpt lat="48.85361" lon="2.41076">
        <ele>109.9</ele>
        <time>2015-01-12T20:13:17.761Z</time>
      </trkpt>
      <trkpt lat="48.85361" lon="2.41073">
        <ele>110</ele>
        <time>2015-01-12T20:13:18.646Z</time>
      </trkpt>
      <trkpt lat="48.85357" lon="2.41062">
        <ele>110.3</ele>
        <time>2015-01-12T20:13:21.691Z</time>
      </trkpt>
      <trkpt lat="48.85356" lon="2.41057">
        <ele>110.5</ele>
        <time>2015-01-12T20:13:22.705Z</time>
      </trkpt>
      <trkpt lat="48.85351" lon="2.41048">
        <ele>110.8</ele>
        <time>2015-01-12T20:13:25.392Z</time>
      </trkpt>
      <trkpt lat="48.8535" lon="2.41044">
        <ele>110.5</ele>
        <time>2015-01-12T20:13:25.767Z</time>
      </trkpt>
      <trkpt lat="48.85346" lon="2.41035">
        <ele>110.5</ele>
        <time>2015-01-12T20:13:27.648Z</time>
      </trkpt>
      <trkpt lat="48.85346" lon="2.4103">
        <ele>110.4</ele>
        <time>2015-01-12T20:13:28.652Z</time>
      </trkpt>
      <trkpt lat="48.85344" lon="2.4102">
        <ele>110.3</ele>
        <time>2015-01-12T20:13:30.680Z</time>
      </trkpt>
      <trkpt lat="48.85343" lon="2.41015">
        <ele>110.3</ele>
        <time>2015-01-12T20:13:31.694Z</time>
      </trkpt>
      <trkpt lat="48.8534" lon="2.41003">
        <ele>110.2</ele>
        <time>2015-01-12T20:13:33.725Z</time>
      </trkpt>
      <trkpt lat="48.85339" lon="2.40998">
        <ele>110.2</ele>
        <time>2015-01-12T20:13:34.673Z</time>
      </trkpt>
      <trkpt lat="48.85337" lon="2.40985">
        <ele>110.4</ele>
        <time>2015-01-12T20:13:36.698Z</time>
      </trkpt>
      <trkpt lat="48.85337" lon="2.40979">
        <ele>110.8</ele>
        <time>2015-01-12T20:13:37.870Z</time>
      </trkpt>
      <trkpt lat="48.85335" lon="2.40967">
        <ele>111</ele>
        <time>2015-01-12T20:13:40.529Z</time>
      </trkpt>
      <trkpt lat="48.85334" lon="2.4096">
        <ele>111</ele>
        <time>2015-01-12T20:13:40.707Z</time>
      </trkpt>
      <trkpt lat="48.85332" lon="2.40949">
        <ele>110.8</ele>
        <time>2015-01-12T20:13:42.734Z</time>
      </trkpt>
      <trkpt lat="48.85332" lon="2.40943">
        <ele>110.9</ele>
        <time>2015-01-12T20:13:43.783Z</time>
      </trkpt>
      <trkpt lat="48.85331" lon="2.40936">
        <ele>110.9</ele>
        <time>2015-01-12T20:13:45.540Z</time>
      </trkpt>
      <trkpt lat="48.8533" lon="2.40929">
        <ele>110.9</ele>
        <time>2015-01-12T20:13:45.650Z</time>
      </trkpt>
      <trkpt lat="48.85328" lon="2.40922">
        <ele>111.1</ele>
        <time>2015-01-12T20:13:46.684Z</time>
      </trkpt>
      <trkpt lat="48.85327" lon="2.40915">
        <ele>111.3</ele>
        <time>2015-01-12T20:13:47.682Z</time>
      </trkpt>
      <trkpt lat="48.85325" lon="2.40902">
        <ele>111.6</ele>
        <time>2015-01-12T20:13:49.704Z</time>
      </trkpt>
      <trkpt lat="48.85324" lon="2.40895">
        <ele>111.7</ele>
        <time>2015-01-12T20:13:50.716Z</time>
      </trkpt>
      <trkpt lat="48.85323" lon="2.40882">
        <ele>111.9</ele>
        <time>2015-01-12T20:13:52.738Z</time>
      </trkpt>
      <trkpt lat="48.85322" lon="2.40875">
        <ele>112.1</ele>
        <time>2015-01-12T20:13:53.642Z</time>
      </trkpt>
      <trkpt lat="48.85322" lon="2.40868">
        <ele>112.2</ele>
        <time>2015-01-12T20:13:54.655Z</time>
      </trkpt>
      <trkpt lat="48.8532" lon="2.40861">
        <ele>112.3</ele>
        <time>2015-01-12T20:13:55.667Z</time>
      </trkpt>
      <trkpt lat="48.85319" lon="2.40854">
        <ele>112.2</ele>
        <time>2015-01-12T20:13:56.659Z</time>
      </trkpt>
      <trkpt lat="48.85317" lon="2.40846">
        <ele>112.1</ele>
        <time>2015-01-12T20:13:57.769Z</time>
      </trkpt>
      <trkpt lat="48.85314" lon="2.40839">
        <ele>112.1</ele>
        <time>2015-01-12T20:13:58.645Z</time>
      </trkpt>
      <trkpt lat="48.85311" lon="2.40832">
        <ele>112.1</ele>
        <time>2015-01-12T20:13:59.647Z</time>
      </trkpt>
      <trkpt lat="48.8531" lon="2.40826">
        <ele>112.1</ele>
        <time>2015-01-12T20:14:00.665Z</time>
      </trkpt>
      <trkpt lat="48.85308" lon="2.40818">
        <ele>112.3</ele>
        <time>2015-01-12T20:14:01.686Z</time>
      </trkpt>
      <trkpt lat="48.85305" lon="2.40805">
        <ele>112.7</ele>
        <time>2015-01-12T20:14:03.706Z</time>
      </trkpt>
      <trkpt lat="48.85304" lon="2.40799">
        <ele>112.7</ele>
        <time>2015-01-12T20:14:04.790Z</time>
      </trkpt>
      <trkpt lat="48.85303" lon="2.40793">
        <ele>112.8</ele>
        <time>2015-01-12T20:14:05.637Z</time>
      </trkpt>
      <trkpt lat="48.85302" lon="2.40785">
        <ele>112.7</ele>
        <time>2015-01-12T20:14:06.641Z</time>
      </trkpt>
      <trkpt lat="48.85301" lon="2.40776">
        <ele>112.7</ele>
        <time>2015-01-12T20:14:07.683Z</time>
      </trkpt>
      <trkpt lat="48.85301" lon="2.40766">
        <ele>112.9</ele>
        <time>2015-01-12T20:14:08.680Z</time>
      </trkpt>
      <trkpt lat="48.853" lon="2.40758">
        <ele>112.9</ele>
        <time>2015-01-12T20:14:09.692Z</time>
      </trkpt>
      <trkpt lat="48.85299" lon="2.40752">
        <ele>112.6</ele>
        <time>2015-01-12T20:14:10.704Z</time>
      </trkpt>
      <trkpt lat="48.85298" lon="2.40745">
        <ele>112.6</ele>
        <time>2015-01-12T20:14:11.629Z</time>
      </trkpt>
      <trkpt lat="48.85297" lon="2.40737">
        <ele>112.6</ele>
        <time>2015-01-12T20:14:12.644Z</time>
      </trkpt>
      <trkpt lat="48.85296" lon="2.4073">
        <ele>112.4</ele>
        <time>2015-01-12T20:14:13.679Z</time>
      </trkpt>
      <trkpt lat="48.85295" lon="2.40723">
        <ele>112.5</ele>
        <time>2015-01-12T20:14:14.700Z</time>
      </trkpt>
      <trkpt lat="48.85294" lon="2.4071">
        <ele>112.1</ele>
        <time>2015-01-12T20:14:16.732Z</time>
      </trkpt>
      <trkpt lat="48.85293" lon="2.40704">
        <ele>112.1</ele>
        <time>2015-01-12T20:14:17.643Z</time>
      </trkpt>
      <trkpt lat="48.85291" lon="2.40692">
        <ele>111.9</ele>
        <time>2015-01-12T20:14:19.738Z</time>
      </trkpt>
      <trkpt lat="48.8529" lon="2.40686">
        <ele>111.9</ele>
        <time>2015-01-12T20:14:20.612Z</time>
      </trkpt>
      <trkpt lat="48.85289" lon="2.40674">
        <ele>111.9</ele>
        <time>2015-01-12T20:14:22.623Z</time>
      </trkpt>
      <trkpt lat="48.85288" lon="2.40668">
        <ele>111.8</ele>
        <time>2015-01-12T20:14:23.679Z</time>
      </trkpt>
      <trkpt lat="48.85286" lon="2.40657">
        <ele>111.7</ele>
        <time>2015-01-12T20:14:25.739Z</time>
      </trkpt>
      <trkpt lat="48.85286" lon="2.40653">
        <ele>111.7</ele>
        <time>2015-01-12T20:14:26.622Z</time>
      </trkpt>
      <trkpt lat="48.85283" lon="2.40644">
        <ele>111.4</ele>
        <time>2015-01-12T20:14:28.665Z</time>
      </trkpt>
      <trkpt lat="48.85282" lon="2.40639">
        <ele>111.2</ele>
        <time>2015-01-12T20:14:29.693Z</time>
      </trkpt>
      <trkpt lat="48.85281" lon="2.40628">
        <ele>111.3</ele>
        <time>2015-01-12T20:14:33.712Z</time>
      </trkpt>
      <trkpt lat="48.8528" lon="2.40626">
        <ele>111.3</ele>
        <time>2015-01-12T20:14:34.631Z</time>
      </trkpt>
      <trkpt lat="48.85279" lon="2.40617">
        <ele>111</ele>
        <time>2015-01-12T20:14:39.717Z</time>
      </trkpt>
      <trkpt lat="48.85279" lon="2.40617">
        <ele>111.2</ele>
        <time>2015-01-12T20:14:40.626Z</time>
      </trkpt>
      <trkpt lat="48.85279" lon="2.40617">
        <ele>111.3</ele>
        <time>2015-01-12T20:14:52.646Z</time>
      </trkpt>
      <trkpt lat="48.85278" lon="2.40616">
        <ele>111.6</ele>
        <time>2015-01-12T20:14:53.655Z</time>
      </trkpt>
      <trkpt lat="48.85275" lon="2.40606">
        <ele>111.8</ele>
        <time>2015-01-12T20:14:57.681Z</time>
      </trkpt>
      <trkpt lat="48.85273" lon="2.40601">
        <ele>111.7</ele>
        <time>2015-01-12T20:14:58.705Z</time>
      </trkpt>
      <trkpt lat="48.8527" lon="2.40591">
        <ele>111.7</ele>
        <time>2015-01-12T20:15:00.651Z</time>
      </trkpt>
      <trkpt lat="48.85269" lon="2.40587">
        <ele>111.5</ele>
        <time>2015-01-12T20:15:01.688Z</time>
      </trkpt>
      <trkpt lat="48.85267" lon="2.40577">
        <ele>110.9</ele>
        <time>2015-01-12T20:15:03.719Z</time>
      </trkpt>
      <trkpt lat="48.85266" lon="2.40572">
        <ele>110.8</ele>
        <time>2015-01-12T20:15:04.621Z</time>
      </trkpt>
      <trkpt lat="48.85263" lon="2.4056">
        <ele>110.4</ele>
        <time>2015-01-12T20:15:06.755Z</time>
      </trkpt>
      <trkpt lat="48.85262" lon="2.40555">
        <ele>110.2</ele>
        <time>2015-01-12T20:15:07.664Z</time>
      </trkpt>
      <trkpt lat="48.8526" lon="2.40542">
        <ele>110</ele>
        <time>2015-01-12T20:15:09.727Z</time>
      </trkpt>
      <trkpt lat="48.85258" lon="2.40535">
        <ele>110</ele>
        <time>2015-01-12T20:15:10.626Z</time>
      </trkpt>
      <trkpt lat="48.85256" lon="2.40528">
        <ele>109.7</ele>
        <time>2015-01-12T20:15:11.632Z</time>
      </trkpt>
      <trkpt lat="48.85254" lon="2.40522">
        <ele>109.5</ele>
        <time>2015-01-12T20:15:12.640Z</time>
      </trkpt>
      <trkpt lat="48.85253" lon="2.40515">
        <ele>109.4</ele>
        <time>2015-01-12T20:15:13.659Z</time>
      </trkpt>
      <trkpt lat="48.85252" lon="2.40508">
        <ele>109.4</ele>
        <time>2015-01-12T20:15:14.657Z</time>
      </trkpt>
      <trkpt lat="48.85251" lon="2.40494">
        <ele>109.2</ele>
        <time>2015-01-12T20:15:17.283Z</time>
      </trkpt>
      <trkpt lat="48.8525" lon="2.40488">
        <ele>109.2</ele>
        <time>2015-01-12T20:15:17.604Z</time>
      </trkpt>
      <trkpt lat="48.85248" lon="2.40476">
        <ele>109.3</ele>
        <time>2015-01-12T20:15:19.766Z</time>
      </trkpt>
      <trkpt lat="48.85247" lon="2.4047">
        <ele>109.2</ele>
        <time>2015-01-12T20:15:20.690Z</time>
      </trkpt>
      <trkpt lat="48.85246" lon="2.40462">
        <ele>108.9</ele>
        <time>2015-01-12T20:15:21.659Z</time>
      </trkpt>
      <trkpt lat="48.85245" lon="2.40455">
        <ele>108.8</ele>
        <time>2015-01-12T20:15:22.641Z</time>
      </trkpt>
      <trkpt lat="48.85245" lon="2.40446">
        <ele>108.8</ele>
        <time>2015-01-12T20:15:23.645Z</time>
      </trkpt>
      <trkpt lat="48.85244" lon="2.40438">
        <ele>108.8</ele>
        <time>2015-01-12T20:15:24.659Z</time>
      </trkpt>
      <trkpt lat="48.85243" lon="2.40429">
        <ele>108.8</ele>
        <time>2015-01-12T20:15:25.693Z</time>
      </trkpt>
      <trkpt lat="48.85242" lon="2.40419">
        <ele>108.7</ele>
        <time>2015-01-12T20:15:26.716Z</time>
      </trkpt>
      <trkpt lat="48.8524" lon="2.4041">
        <ele>108.7</ele>
        <time>2015-01-12T20:15:27.704Z</time>
      </trkpt>
      <trkpt lat="48.85239" lon="2.40402">
        <ele>108.7</ele>
        <time>2015-01-12T20:15:28.721Z</time>
      </trkpt>
      <trkpt lat="48.85238" lon="2.40394">
        <ele>108.7</ele>
        <time>2015-01-12T20:15:30.111Z</time>
      </trkpt>
      <trkpt lat="48.85236" lon="2.40386">
        <ele>108.6</ele>
        <time>2015-01-12T20:15:30.645Z</time>
      </trkpt>
      <trkpt lat="48.85235" lon="2.40379">
        <ele>108.5</ele>
        <time>2015-01-12T20:15:31.692Z</time>
      </trkpt>
      <trkpt lat="48.85234" lon="2.40371">
        <ele>108.5</ele>
        <time>2015-01-12T20:15:32.693Z</time>
      </trkpt>
      <trkpt lat="48.85233" lon="2.40363">
        <ele>108.5</ele>
        <time>2015-01-12T20:15:33.727Z</time>
      </trkpt>
      <trkpt lat="48.85231" lon="2.40355">
        <ele>108.6</ele>
        <time>2015-01-12T20:15:34.631Z</time>
      </trkpt>
      <trkpt lat="48.8523" lon="2.40346">
        <ele>109</ele>
        <time>2015-01-12T20:15:35.636Z</time>
      </trkpt>
      <trkpt lat="48.85229" lon="2.40337">
        <ele>109.1</ele>
        <time>2015-01-12T20:15:36.645Z</time>
      </trkpt>
      <trkpt lat="48.85227" lon="2.40328">
        <ele>109.2</ele>
        <time>2015-01-12T20:15:37.657Z</time>
      </trkpt>
      <trkpt lat="48.85225" lon="2.4032">
        <ele>109.5</ele>
        <time>2015-01-12T20:15:38.657Z</time>
      </trkpt>
      <trkpt lat="48.85223" lon="2.40311">
        <ele>109.6</ele>
        <time>2015-01-12T20:15:39.668Z</time>
      </trkpt>
      <trkpt lat="48.85221" lon="2.40302">
        <ele>109.6</ele>
        <time>2015-01-12T20:15:40.702Z</time>
      </trkpt>
      <trkpt lat="48.8522" lon="2.40293">
        <ele>109.7</ele>
        <time>2015-01-12T20:15:41.724Z</time>
      </trkpt>
      <trkpt lat="48.85219" lon="2.40285">
        <ele>109.7</ele>
        <time>2015-01-12T20:15:42.750Z</time>
      </trkpt>
      <trkpt lat="48.85218" lon="2.40276">
        <ele>109.6</ele>
        <time>2015-01-12T20:15:43.663Z</time>
      </trkpt>
      <trkpt lat="48.85216" lon="2.40267">
        <ele>109.5</ele>
        <time>2015-01-12T20:15:44.664Z</time>
      </trkpt>
      <trkpt lat="48.85215" lon="2.40258">
        <ele>109.6</ele>
        <time>2015-01-12T20:15:45.699Z</time>
      </trkpt>
      <trkpt lat="48.85213" lon="2.40249">
        <ele>109.5</ele>
        <time>2015-01-12T20:15:46.707Z</time>
      </trkpt>
      <trkpt lat="48.85212" lon="2.40241">
        <ele>109.5</ele>
        <time>2015-01-12T20:15:47.715Z</time>
      </trkpt>
      <trkpt lat="48.85211" lon="2.40233">
        <ele>109.5</ele>
        <time>2015-01-12T20:15:48.631Z</time>
      </trkpt>
      <trkpt lat="48.8521" lon="2.40225">
        <ele>109.5</ele>
        <time>2015-01-12T20:15:49.732Z</time>
      </trkpt>
      <trkpt lat="48.85209" lon="2.40217">
        <ele>109.7</ele>
        <time>2015-01-12T20:15:50.631Z</time>
      </trkpt>
      <trkpt lat="48.85208" lon="2.40208">
        <ele>109.7</ele>
        <time>2015-01-12T20:15:51.639Z</time>
      </trkpt>
      <trkpt lat="48.85206" lon="2.40199">
        <ele>109.7</ele>
        <time>2015-01-12T20:15:52.644Z</time>
      </trkpt>
      <trkpt lat="48.85205" lon="2.40191">
        <ele>109.9</ele>
        <time>2015-01-12T20:15:53.652Z</time>
      </trkpt>
      <trkpt lat="48.85204" lon="2.40182">
        <ele>110</ele>
        <time>2015-01-12T20:15:54.663Z</time>
      </trkpt>
      <trkpt lat="48.85202" lon="2.40175">
        <ele>110</ele>
        <time>2015-01-12T20:15:55.748Z</time>
      </trkpt>
      <trkpt lat="48.85201" lon="2.40167">
        <ele>110.1</ele>
        <time>2015-01-12T20:15:56.633Z</time>
      </trkpt>
      <trkpt lat="48.85199" lon="2.40158">
        <ele>110.1</ele>
        <time>2015-01-12T20:15:57.637Z</time>
      </trkpt>
      <trkpt lat="48.85198" lon="2.40151">
        <ele>110.2</ele>
        <time>2015-01-12T20:15:58.643Z</time>
      </trkpt>
      <trkpt lat="48.85196" lon="2.40142">
        <ele>110</ele>
        <time>2015-01-12T20:15:59.666Z</time>
      </trkpt>
      <trkpt lat="48.85194" lon="2.40134">
        <ele>109.8</ele>
        <time>2015-01-12T20:16:00.703Z</time>
      </trkpt>
      <trkpt lat="48.85191" lon="2.40124">
        <ele>110.2</ele>
        <time>2015-01-12T20:16:01.752Z</time>
      </trkpt>
      <trkpt lat="48.85188" lon="2.40113">
        <ele>110.9</ele>
        <time>2015-01-12T20:16:02.717Z</time>
      </trkpt>
      <trkpt lat="48.85186" lon="2.40103">
        <ele>111.2</ele>
        <time>2015-01-12T20:16:03.639Z</time>
      </trkpt>
      <trkpt lat="48.85183" lon="2.40093">
        <ele>111.3</ele>
        <time>2015-01-12T20:16:04.650Z</time>
      </trkpt>
      <trkpt lat="48.85182" lon="2.40084">
        <ele>111.1</ele>
        <time>2015-01-12T20:16:05.656Z</time>
      </trkpt>
      <trkpt lat="48.8518" lon="2.40076">
        <ele>111</ele>
        <time>2015-01-12T20:16:06.672Z</time>
      </trkpt>
      <trkpt lat="48.85179" lon="2.40068">
        <ele>111.2</ele>
        <time>2015-01-12T20:16:07.694Z</time>
      </trkpt>
      <trkpt lat="48.85178" lon="2.4006">
        <ele>111.1</ele>
        <time>2015-01-12T20:16:08.705Z</time>
      </trkpt>
      <trkpt lat="48.85176" lon="2.40051">
        <ele>110.8</ele>
        <time>2015-01-12T20:16:09.614Z</time>
      </trkpt>
      <trkpt lat="48.85174" lon="2.40042">
        <ele>110.6</ele>
        <time>2015-01-12T20:16:10.624Z</time>
      </trkpt>
      <trkpt lat="48.85173" lon="2.40034">
        <ele>110.7</ele>
        <time>2015-01-12T20:16:11.645Z</time>
      </trkpt>
      <trkpt lat="48.85172" lon="2.40026">
        <ele>110.8</ele>
        <time>2015-01-12T20:16:12.647Z</time>
      </trkpt>
      <trkpt lat="48.85172" lon="2.40018">
        <ele>111</ele>
        <time>2015-01-12T20:16:13.669Z</time>
      </trkpt>
      <trkpt lat="48.85171" lon="2.40011">
        <ele>111</ele>
        <time>2015-01-12T20:16:14.668Z</time>
      </trkpt>
      <trkpt lat="48.85169" lon="2.40003">
        <ele>111</ele>
        <time>2015-01-12T20:16:15.611Z</time>
      </trkpt>
      <trkpt lat="48.85167" lon="2.39996">
        <ele>110.9</ele>
        <time>2015-01-12T20:16:16.639Z</time>
      </trkpt>
      <trkpt lat="48.85165" lon="2.3999">
        <ele>110.8</ele>
        <time>2015-01-12T20:16:17.686Z</time>
      </trkpt>
      <trkpt lat="48.85163" lon="2.39983">
        <ele>110.6</ele>
        <time>2015-01-12T20:16:18.694Z</time>
      </trkpt>
      <trkpt lat="48.85161" lon="2.39976">
        <ele>110.6</ele>
        <time>2015-01-12T20:16:19.721Z</time>
      </trkpt>
      <trkpt lat="48.85158" lon="2.39969">
        <ele>110.4</ele>
        <time>2015-01-12T20:16:20.659Z</time>
      </trkpt>
      <trkpt lat="48.85156" lon="2.39961">
        <ele>110.5</ele>
        <time>2015-01-12T20:16:21.625Z</time>
      </trkpt>
      <trkpt lat="48.85155" lon="2.39953">
        <ele>110.6</ele>
        <time>2015-01-12T20:16:22.625Z</time>
      </trkpt>
      <trkpt lat="48.85153" lon="2.39946">
        <ele>110.6</ele>
        <time>2015-01-12T20:16:23.702Z</time>
      </trkpt>
      <trkpt lat="48.85152" lon="2.39938">
        <ele>110.6</ele>
        <time>2015-01-12T20:16:24.739Z</time>
      </trkpt>
      <trkpt lat="48.85151" lon="2.39931">
        <ele>110.8</ele>
        <time>2015-01-12T20:16:25.769Z</time>
      </trkpt>
      <trkpt lat="48.85149" lon="2.39924">
        <ele>110.8</ele>
        <time>2015-01-12T20:16:26.647Z</time>
      </trkpt>
      <trkpt lat="48.85148" lon="2.39911">
        <ele>110.6</ele>
        <time>2015-01-12T20:16:28.725Z</time>
      </trkpt>
      <trkpt lat="48.85146" lon="2.39905">
        <ele>110.5</ele>
        <time>2015-01-12T20:16:29.751Z</time>
      </trkpt>
      <trkpt lat="48.85143" lon="2.39892">
        <ele>110.4</ele>
        <time>2015-01-12T20:16:31.702Z</time>
      </trkpt>
      <trkpt lat="48.85141" lon="2.39885">
        <ele>110.5</ele>
        <time>2015-01-12T20:16:32.703Z</time>
      </trkpt>
      <trkpt lat="48.8514" lon="2.39873">
        <ele>110.9</ele>
        <time>2015-01-12T20:16:34.633Z</time>
      </trkpt>
      <trkpt lat="48.85139" lon="2.39867">
        <ele>110.9</ele>
        <time>2015-01-12T20:16:35.633Z</time>
      </trkpt>
      <trkpt lat="48.85138" lon="2.3986">
        <ele>110.9</ele>
        <time>2015-01-12T20:16:36.677Z</time>
      </trkpt>
      <trkpt lat="48.85137" lon="2.39854">
        <ele>111.1</ele>
        <time>2015-01-12T20:16:37.686Z</time>
      </trkpt>
      <trkpt lat="48.85135" lon="2.39842">
        <ele>111.2</ele>
        <time>2015-01-12T20:16:39.729Z</time>
      </trkpt>
      <trkpt lat="48.85135" lon="2.39838">
        <ele>111.2</ele>
        <time>2015-01-12T20:16:40.638Z</time>
      </trkpt>
      <trkpt lat="48.85133" lon="2.39826">
        <ele>110.6</ele>
        <time>2015-01-12T20:16:43.685Z</time>
      </trkpt>
      <trkpt lat="48.85133" lon="2.39824">
        <ele>110</ele>
        <time>2015-01-12T20:16:44.648Z</time>
      </trkpt>
      <trkpt lat="48.85124" lon="2.39826">
        <ele>105.8</ele>
        <time>2015-01-12T20:16:48.666Z</time>
      </trkpt>
      <trkpt lat="48.85121" lon="2.39827">
        <ele>105.4</ele>
        <time>2015-01-12T20:16:49.737Z</time>
      </trkpt>
      <trkpt lat="48.85113" lon="2.39831">
        <ele>104.7</ele>
        <time>2015-01-12T20:16:52.713Z</time>
      </trkpt>
      <trkpt lat="48.8511" lon="2.39832">
        <ele>104.5</ele>
        <time>2015-01-12T20:16:53.634Z</time>
      </trkpt>
      <trkpt lat="48.85102" lon="2.39836">
        <ele>105.1</ele>
        <time>2015-01-12T20:16:56.760Z</time>
      </trkpt>
      <trkpt lat="48.85098" lon="2.39837">
        <ele>105.2</ele>
        <time>2015-01-12T20:16:57.713Z</time>
      </trkpt>
      <trkpt lat="48.8509" lon="2.3984">
        <ele>104.8</ele>
        <time>2015-01-12T20:17:00.679Z</time>
      </trkpt>
      <trkpt lat="48.85087" lon="2.39842">
        <ele>104.5</ele>
        <time>2015-01-12T20:17:01.686Z</time>
      </trkpt>
      <trkpt lat="48.8508" lon="2.39847">
        <ele>104.2</ele>
        <time>2015-01-12T20:17:03.710Z</time>
      </trkpt>
      <trkpt lat="48.85077" lon="2.39849">
        <ele>104.3</ele>
        <time>2015-01-12T20:17:04.718Z</time>
      </trkpt>
      <trkpt lat="48.8507" lon="2.39852">
        <ele>104.5</ele>
        <time>2015-01-12T20:17:06.671Z</time>
      </trkpt>
      <trkpt lat="48.85067" lon="2.39855">
        <ele>104.4</ele>
        <time>2015-01-12T20:17:07.682Z</time>
      </trkpt>
      <trkpt lat="48.8506" lon="2.39858">
        <ele>104.6</ele>
        <time>2015-01-12T20:17:09.719Z</time>
      </trkpt>
      <trkpt lat="48.85056" lon="2.3986">
        <ele>104.6</ele>
        <time>2015-01-12T20:17:10.766Z</time>
      </trkpt>
      <trkpt lat="48.85048" lon="2.39863">
        <ele>104.8</ele>
        <time>2015-01-12T20:17:12.735Z</time>
      </trkpt>
      <trkpt lat="48.85044" lon="2.39864">
        <ele>105.2</ele>
        <time>2015-01-12T20:17:13.682Z</time>
      </trkpt>
      <trkpt lat="48.85035" lon="2.39868">
        <ele>105.9</ele>
        <time>2015-01-12T20:17:16.718Z</time>
      </trkpt>
      <trkpt lat="48.85033" lon="2.39869">
        <ele>106.2</ele>
        <time>2015-01-12T20:17:17.731Z</time>
      </trkpt>
      <trkpt lat="48.85027" lon="2.3987">
        <ele>107.1</ele>
        <time>2015-01-12T20:17:20.641Z</time>
      </trkpt>
      <trkpt lat="48.85024" lon="2.39872">
        <ele>107.1</ele>
        <time>2015-01-12T20:17:21.661Z</time>
      </trkpt>
      <trkpt lat="48.85016" lon="2.39876">
        <ele>107.6</ele>
        <time>2015-01-12T20:17:24.720Z</time>
      </trkpt>
      <trkpt lat="48.85013" lon="2.39877">
        <ele>108</ele>
        <time>2015-01-12T20:17:25.987Z</time>
      </trkpt>
      <trkpt lat="48.85007" lon="2.39879">
        <ele>108.3</ele>
        <time>2015-01-12T20:17:27.666Z</time>
      </trkpt>
      <trkpt lat="48.85004" lon="2.3988">
        <ele>108.4</ele>
        <time>2015-01-12T20:17:28.675Z</time>
      </trkpt>
      <trkpt lat="48.84996" lon="2.39884">
        <ele>108.5</ele>
        <time>2015-01-12T20:17:30.630Z</time>
      </trkpt>
      <trkpt lat="48.84992" lon="2.39886">
        <ele>108.7</ele>
        <time>2015-01-12T20:17:31.712Z</time>
      </trkpt>
      <trkpt lat="48.84985" lon="2.3989">
        <ele>109.2</ele>
        <time>2015-01-12T20:17:33.645Z</time>
      </trkpt>
      <trkpt lat="48.8498" lon="2.39891">
        <ele>109.6</ele>
        <time>2015-01-12T20:17:34.751Z</time>
      </trkpt>
      <trkpt lat="48.84972" lon="2.39893">
        <ele>110.5</ele>
        <time>2015-01-12T20:17:36.671Z</time>
      </trkpt>
      <trkpt lat="48.84968" lon="2.39895">
        <ele>110.8</ele>
        <time>2015-01-12T20:17:37.735Z</time>
      </trkpt>
      <trkpt lat="48.8496" lon="2.39897">
        <ele>111.6</ele>
        <time>2015-01-12T20:17:39.707Z</time>
      </trkpt>
      <trkpt lat="48.84957" lon="2.39898">
        <ele>111.8</ele>
        <time>2015-01-12T20:17:40.712Z</time>
      </trkpt>
      <trkpt lat="48.84949" lon="2.39901">
        <ele>112.4</ele>
        <time>2015-01-12T20:17:42.650Z</time>
      </trkpt>
      <trkpt lat="48.84945" lon="2.39903">
        <ele>112.9</ele>
        <time>2015-01-12T20:17:43.747Z</time>
      </trkpt>
      <trkpt lat="48.84937" lon="2.39909">
        <ele>114.1</ele>
        <time>2015-01-12T20:17:45.640Z</time>
      </trkpt>
      <trkpt lat="48.84934" lon="2.39912">
        <ele>114.5</ele>
        <time>2015-01-12T20:17:46.752Z</time>
      </trkpt>
      <trkpt lat="48.84927" lon="2.39918">
        <ele>114.8</ele>
        <time>2015-01-12T20:17:48.638Z</time>
      </trkpt>
      <trkpt lat="48.84922" lon="2.39918">
        <ele>115</ele>
        <time>2015-01-12T20:17:49.685Z</time>
      </trkpt>
      <trkpt lat="48.84913" lon="2.3992">
        <ele>115.5</ele>
        <time>2015-01-12T20:17:51.637Z</time>
      </trkpt>
      <trkpt lat="48.84909" lon="2.39921">
        <ele>115.6</ele>
        <time>2015-01-12T20:17:52.640Z</time>
      </trkpt>
      <trkpt lat="48.84901" lon="2.39922">
        <ele>116</ele>
        <time>2015-01-12T20:17:54.727Z</time>
      </trkpt>
      <trkpt lat="48.84897" lon="2.39924">
        <ele>116</ele>
        <time>2015-01-12T20:17:55.744Z</time>
      </trkpt>
      <trkpt lat="48.84892" lon="2.39927">
        <ele>116.1</ele>
        <time>2015-01-12T20:17:56.628Z</time>
      </trkpt>
      <trkpt lat="48.84886" lon="2.3993">
        <ele>117.1</ele>
        <time>2015-01-12T20:17:57.633Z</time>
      </trkpt>
      <trkpt lat="48.84882" lon="2.39933">
        <ele>117.8</ele>
        <time>2015-01-12T20:17:58.640Z</time>
      </trkpt>
      <trkpt lat="48.84877" lon="2.39934">
        <ele>118.2</ele>
        <time>2015-01-12T20:17:59.651Z</time>
      </trkpt>
      <trkpt lat="48.84868" lon="2.39933">
        <ele>118.2</ele>
        <time>2015-01-12T20:18:01.674Z</time>
      </trkpt>
      <trkpt lat="48.84864" lon="2.39933">
        <ele>118.4</ele>
        <time>2015-01-12T20:18:02.673Z</time>
      </trkpt>
      <trkpt lat="48.84855" lon="2.39931">
        <ele>118.5</ele>
        <time>2015-01-12T20:18:04.697Z</time>
      </trkpt>
      <trkpt lat="48.8485" lon="2.3993">
        <ele>118.5</ele>
        <time>2015-01-12T20:18:05.611Z</time>
      </trkpt>
      <trkpt lat="48.84842" lon="2.39926">
        <ele>117.9</ele>
        <time>2015-01-12T20:18:07.680Z</time>
      </trkpt>
      <trkpt lat="48.84839" lon="2.39925">
        <ele>117.7</ele>
        <time>2015-01-12T20:18:08.736Z</time>
      </trkpt>
      <trkpt lat="48.8483" lon="2.39922">
        <ele>117.8</ele>
        <time>2015-01-12T20:18:11.663Z</time>
      </trkpt>
      <trkpt lat="48.84828" lon="2.39921">
        <ele>117.7</ele>
        <time>2015-01-12T20:18:12.672Z</time>
      </trkpt>
      <trkpt lat="48.84821" lon="2.39913">
        <ele>115.2</ele>
        <time>2015-01-12T20:18:17.723Z</time>
      </trkpt>
      <trkpt lat="48.8482" lon="2.39909">
        <ele>113.8</ele>
        <time>2015-01-12T20:18:18.607Z</time>
      </trkpt>
      <trkpt lat="48.84814" lon="2.39899">
        <ele>111.6</ele>
        <time>2015-01-12T20:18:22.681Z</time>
      </trkpt>
      <trkpt lat="48.84813" lon="2.39897">
        <ele>111</ele>
        <time>2015-01-12T20:18:23.708Z</time>
      </trkpt>
      <trkpt lat="48.84812" lon="2.39897">
        <ele>111.1</ele>
        <time>2015-01-12T20:18:26.696Z</time>
      </trkpt>
      <trkpt lat="48.84812" lon="2.39897">
        <ele>110.7</ele>
        <time>2015-01-12T20:18:27.714Z</time>
      </trkpt>
      <trkpt lat="48.84812" lon="2.39897">
        <ele>110.5</ele>
        <time>2015-01-12T20:18:41.637Z</time>
      </trkpt>
      <trkpt lat="48.84812" lon="2.39895">
        <ele>108.9</ele>
        <time>2015-01-12T20:18:42.889Z</time>
      </trkpt>
      <trkpt lat="48.84813" lon="2.39882">
        <ele>106.7</ele>
        <time>2015-01-12T20:18:58.762Z</time>
      </trkpt>
      <trkpt lat="48.84814" lon="2.3988">
        <ele>106.6</ele>
        <time>2015-01-12T20:18:59.791Z</time>
      </trkpt>
      <trkpt lat="48.84818" lon="2.39869">
        <ele>106.3</ele>
        <time>2015-01-12T20:19:03.769Z</time>
      </trkpt>
      <trkpt lat="48.84819" lon="2.39866">
        <ele>106.4</ele>
        <time>2015-01-12T20:19:04.646Z</time>
      </trkpt>
      <trkpt lat="48.84822" lon="2.39857">
        <ele>106</ele>
        <time>2015-01-12T20:19:06.681Z</time>
      </trkpt>
      <trkpt lat="48.84823" lon="2.39852">
        <ele>106</ele>
        <time>2015-01-12T20:19:07.768Z</time>
      </trkpt>
      <trkpt lat="48.84824" lon="2.39842">
        <ele>105.8</ele>
        <time>2015-01-12T20:19:10.047Z</time>
      </trkpt>
      <trkpt lat="48.84825" lon="2.39837">
        <ele>105.6</ele>
        <time>2015-01-12T20:19:10.656Z</time>
      </trkpt>
      <trkpt lat="48.84827" lon="2.39826">
        <ele>105.2</ele>
        <time>2015-01-12T20:19:12.695Z</time>
      </trkpt>
      <trkpt lat="48.84827" lon="2.39818">
        <ele>104.8</ele>
        <time>2015-01-12T20:19:13.738Z</time>
      </trkpt>
      <trkpt lat="48.84829" lon="2.39805">
        <ele>104.2</ele>
        <time>2015-01-12T20:19:15.642Z</time>
      </trkpt>
      <trkpt lat="48.8483" lon="2.39799">
        <ele>103.8</ele>
        <time>2015-01-12T20:19:16.681Z</time>
      </trkpt>
      <trkpt lat="48.84832" lon="2.39788">
        <ele>103.7</ele>
        <time>2015-01-12T20:19:18.727Z</time>
      </trkpt>
      <trkpt lat="48.84833" lon="2.39784">
        <ele>103.6</ele>
        <time>2015-01-12T20:19:19.743Z</time>
      </trkpt>
      <trkpt lat="48.84834" lon="2.39771">
        <ele>103.1</ele>
        <time>2015-01-12T20:19:22.691Z</time>
      </trkpt>
      <trkpt lat="48.84835" lon="2.39766">
        <ele>103</ele>
        <time>2015-01-12T20:19:23.701Z</time>
      </trkpt>
      <trkpt lat="48.84838" lon="2.39758">
        <ele>102.9</ele>
        <time>2015-01-12T20:19:25.672Z</time>
      </trkpt>
      <trkpt lat="48.84839" lon="2.39753">
        <ele>102.8</ele>
        <time>2015-01-12T20:19:26.690Z</time>
      </trkpt>
      <trkpt lat="48.84842" lon="2.39743">
        <ele>103</ele>
        <time>2015-01-12T20:19:28.621Z</time>
      </trkpt>
      <trkpt lat="48.84843" lon="2.39738">
        <ele>103.1</ele>
        <time>2015-01-12T20:19:29.624Z</time>
      </trkpt>
      <trkpt lat="48.84845" lon="2.39725">
        <ele>102.9</ele>
        <time>2015-01-12T20:19:31.702Z</time>
      </trkpt>
      <trkpt lat="48.84846" lon="2.39718">
        <ele>103</ele>
        <time>2015-01-12T20:19:32.709Z</time>
      </trkpt>
      <trkpt lat="48.84848" lon="2.39707">
        <ele>102.6</ele>
        <time>2015-01-12T20:19:34.617Z</time>
      </trkpt>
      <trkpt lat="48.8485" lon="2.39701">
        <ele>102.4</ele>
        <time>2015-01-12T20:19:35.622Z</time>
      </trkpt>
      <trkpt lat="48.84852" lon="2.39695">
        <ele>102.2</ele>
        <time>2015-01-12T20:19:36.676Z</time>
      </trkpt>
      <trkpt lat="48.84854" lon="2.39689">
        <ele>102</ele>
        <time>2015-01-12T20:19:37.684Z</time>
      </trkpt>
      <trkpt lat="48.84859" lon="2.39678">
        <ele>101.6</ele>
        <time>2015-01-12T20:19:39.700Z</time>
      </trkpt>
      <trkpt lat="48.84862" lon="2.39672">
        <ele>101.6</ele>
        <time>2015-01-12T20:19:40.717Z</time>
      </trkpt>
      <trkpt lat="48.84865" lon="2.39668">
        <ele>101.6</ele>
        <time>2015-01-12T20:19:41.646Z</time>
      </trkpt>
      <trkpt lat="48.84869" lon="2.39663">
        <ele>101.5</ele>
        <time>2015-01-12T20:19:42.666Z</time>
      </trkpt>
      <trkpt lat="48.84875" lon="2.39655">
        <ele>101.1</ele>
        <time>2015-01-12T20:19:44.647Z</time>
      </trkpt>
      <trkpt lat="48.84878" lon="2.3965">
        <ele>101.1</ele>
        <time>2015-01-12T20:19:45.651Z</time>
      </trkpt>
      <trkpt lat="48.84883" lon="2.39639">
        <ele>101.3</ele>
        <time>2015-01-12T20:19:47.673Z</time>
      </trkpt>
      <trkpt lat="48.84884" lon="2.39633">
        <ele>101.3</ele>
        <time>2015-01-12T20:19:48.687Z</time>
      </trkpt>
      <trkpt lat="48.84885" lon="2.39627">
        <ele>101.1</ele>
        <time>2015-01-12T20:19:49.738Z</time>
      </trkpt>
      <trkpt lat="48.84886" lon="2.39619">
        <ele>101</ele>
        <time>2015-01-12T20:19:50.702Z</time>
      </trkpt>
      <trkpt lat="48.84887" lon="2.39612">
        <ele>101.2</ele>
        <time>2015-01-12T20:19:51.714Z</time>
      </trkpt>
      <trkpt lat="48.84887" lon="2.39605">
        <ele>101.1</ele>
        <time>2015-01-12T20:19:52.726Z</time>
      </trkpt>
      <trkpt lat="48.84887" lon="2.39598">
        <ele>100.8</ele>
        <time>2015-01-12T20:19:53.645Z</time>
      </trkpt>
      <trkpt lat="48.84887" lon="2.39592">
        <ele>100.7</ele>
        <time>2015-01-12T20:19:54.647Z</time>
      </trkpt>
      <trkpt lat="48.84886" lon="2.39578">
        <ele>100.6</ele>
        <time>2015-01-12T20:19:56.689Z</time>
      </trkpt>
      <trkpt lat="48.84885" lon="2.39572">
        <ele>100.3</ele>
        <time>2015-01-12T20:19:57.709Z</time>
      </trkpt>
      <trkpt lat="48.84882" lon="2.39562">
        <ele>100</ele>
        <time>2015-01-12T20:19:59.637Z</time>
      </trkpt>
      <trkpt lat="48.84879" lon="2.39557">
        <ele>99.4</ele>
        <time>2015-01-12T20:20:00.635Z</time>
      </trkpt>
      <trkpt lat="48.84876" lon="2.39547">
        <ele>99.4</ele>
        <time>2015-01-12T20:20:02.693Z</time>
      </trkpt>
      <trkpt lat="48.84874" lon="2.39543">
        <ele>99.3</ele>
        <time>2015-01-12T20:20:03.617Z</time>
      </trkpt>
      <trkpt lat="48.84869" lon="2.39537">
        <ele>99.5</ele>
        <time>2015-01-12T20:20:05.906Z</time>
      </trkpt>
      <trkpt lat="48.84866" lon="2.39535">
        <ele>99.6</ele>
        <time>2015-01-12T20:20:06.695Z</time>
      </trkpt>
      <trkpt lat="48.8486" lon="2.39534">
        <ele>100</ele>
        <time>2015-01-12T20:20:08.714Z</time>
      </trkpt>
      <trkpt lat="48.84856" lon="2.39534">
        <ele>99.9</ele>
        <time>2015-01-12T20:20:09.723Z</time>
      </trkpt>
      <trkpt lat="48.8485" lon="2.39534">
        <ele>99.7</ele>
        <time>2015-01-12T20:20:11.645Z</time>
      </trkpt>
      <trkpt lat="48.84847" lon="2.39534">
        <ele>99.6</ele>
        <time>2015-01-12T20:20:12.692Z</time>
      </trkpt>
      <trkpt lat="48.84839" lon="2.39537">
        <ele>98.9</ele>
        <time>2015-01-12T20:20:14.704Z</time>
      </trkpt>
      <trkpt lat="48.84835" lon="2.39538">
        <ele>98.4</ele>
        <time>2015-01-12T20:20:15.744Z</time>
      </trkpt>
      <trkpt lat="48.84829" lon="2.3954">
        <ele>98</ele>
        <time>2015-01-12T20:20:16.683Z</time>
      </trkpt>
      <trkpt lat="48.84824" lon="2.39542">
        <ele>97.5</ele>
        <time>2015-01-12T20:20:17.696Z</time>
      </trkpt>
      <trkpt lat="48.8482" lon="2.39545">
        <ele>97.2</ele>
        <time>2015-01-12T20:20:18.707Z</time>
      </trkpt>
      <trkpt lat="48.84816" lon="2.39549">
        <ele>96.9</ele>
        <time>2015-01-12T20:20:19.716Z</time>
      </trkpt>
      <trkpt lat="48.84809" lon="2.39557">
        <ele>96.8</ele>
        <time>2015-01-12T20:20:21.736Z</time>
      </trkpt>
      <trkpt lat="48.84807" lon="2.39563">
        <ele>96.8</ele>
        <time>2015-01-12T20:20:22.751Z</time>
      </trkpt>
      <trkpt lat="48.84804" lon="2.39574">
        <ele>96.8</ele>
        <time>2015-01-12T20:20:24.647Z</time>
      </trkpt>
      <trkpt lat="48.84804" lon="2.3958">
        <ele>96.9</ele>
        <time>2015-01-12T20:20:25.717Z</time>
      </trkpt>
      <trkpt lat="48.84804" lon="2.39594">
        <ele>96.9</ele>
        <time>2015-01-12T20:20:27.622Z</time>
      </trkpt>
      <trkpt lat="48.84803" lon="2.396">
        <ele>96.3</ele>
        <time>2015-01-12T20:20:28.625Z</time>
      </trkpt>
      <trkpt lat="48.84805" lon="2.39612">
        <ele>96.2</ele>
        <time>2015-01-12T20:20:31.150Z</time>
      </trkpt>
      <trkpt lat="48.84806" lon="2.39619">
        <ele>96</ele>
        <time>2015-01-12T20:20:31.689Z</time>
      </trkpt>
      <trkpt lat="48.84808" lon="2.39631">
        <ele>95.8</ele>
        <time>2015-01-12T20:20:33.697Z</time>
      </trkpt>
      <trkpt lat="48.8481" lon="2.39637">
        <ele>95.8</ele>
        <time>2015-01-12T20:20:34.716Z</time>
      </trkpt>
      <trkpt lat="48.84812" lon="2.39649">
        <ele>95.9</ele>
        <time>2015-01-12T20:20:36.651Z</time>
      </trkpt>
      <trkpt lat="48.84814" lon="2.39655">
        <ele>95.7</ele>
        <time>2015-01-12T20:20:37.686Z</time>
      </trkpt>
      <trkpt lat="48.84815" lon="2.39667">
        <ele>95.8</ele>
        <time>2015-01-12T20:20:39.712Z</time>
      </trkpt>
      <trkpt lat="48.84817" lon="2.39673">
        <ele>95.8</ele>
        <time>2015-01-12T20:20:40.689Z</time>
      </trkpt>
      <trkpt lat="48.84818" lon="2.39685">
        <ele>96</ele>
        <time>2015-01-12T20:20:42.674Z</time>
      </trkpt>
      <trkpt lat="48.84818" lon="2.39691">
        <ele>96.1</ele>
        <time>2015-01-12T20:20:43.730Z</time>
      </trkpt>
      <trkpt lat="48.84818" lon="2.39702">
        <ele>96.4</ele>
        <time>2015-01-12T20:20:46.380Z</time>
      </trkpt>
      <trkpt lat="48.84818" lon="2.39707">
        <ele>96.7</ele>
        <time>2015-01-12T20:20:46.678Z</time>
      </trkpt>
      <trkpt lat="48.84819" lon="2.39718">
        <ele>96.8</ele>
        <time>2015-01-12T20:20:49.589Z</time>
      </trkpt>
      <trkpt lat="48.84818" lon="2.39722">
        <ele>96.8</ele>
        <time>2015-01-12T20:20:49.736Z</time>
      </trkpt>
      <trkpt lat="48.84814" lon="2.39733">
        <ele>97.5</ele>
        <time>2015-01-12T20:20:52.683Z</time>
      </trkpt>
      <trkpt lat="48.8481" lon="2.39742">
        <ele>99</ele>
        <time>2015-01-12T20:20:53.821Z</time>
      </trkpt>
      <trkpt lat="48.84806" lon="2.39752">
        <ele>99.3</ele>
        <time>2015-01-12T20:20:55.707Z</time>
      </trkpt>
      <trkpt lat="48.84805" lon="2.39757">
        <ele>99.6</ele>
        <time>2015-01-12T20:20:56.803Z</time>
      </trkpt>
      <trkpt lat="48.84802" lon="2.39768">
        <ele>99.8</ele>
        <time>2015-01-12T20:20:58.651Z</time>
      </trkpt>
      <trkpt lat="48.84801" lon="2.39774">
        <ele>99.9</ele>
        <time>2015-01-12T20:20:59.754Z</time>
      </trkpt>
      <trkpt lat="48.84799" lon="2.39786">
        <ele>99.5</ele>
        <time>2015-01-12T20:21:02.708Z</time>
      </trkpt>
      <trkpt lat="48.84798" lon="2.39791">
        <ele>99.7</ele>
        <time>2015-01-12T20:21:03.713Z</time>
      </trkpt>
      <trkpt lat="48.84794" lon="2.39802">
        <ele>99.8</ele>
        <time>2015-01-12T20:21:05.622Z</time>
      </trkpt>
      <trkpt lat="48.84792" lon="2.39808">
        <ele>100</ele>
        <time>2015-01-12T20:21:06.637Z</time>
      </trkpt>
      <trkpt lat="48.84785" lon="2.39816">
        <ele>100</ele>
        <time>2015-01-12T20:21:08.683Z</time>
      </trkpt>
      <trkpt lat="48.84782" lon="2.39818">
        <ele>99.9</ele>
        <time>2015-01-12T20:21:09.697Z</time>
      </trkpt>
      <trkpt lat="48.84773" lon="2.39816">
        <ele>99.7</ele>
        <time>2015-01-12T20:21:11.718Z</time>
      </trkpt>
      <trkpt lat="48.84769" lon="2.39816">
        <ele>99.8</ele>
        <time>2015-01-12T20:21:12.736Z</time>
      </trkpt>
      <trkpt lat="48.84762" lon="2.3982">
        <ele>100.2</ele>
        <time>2015-01-12T20:21:15.624Z</time>
      </trkpt>
      <trkpt lat="48.84759" lon="2.3982">
        <ele>100.3</ele>
        <time>2015-01-12T20:21:16.646Z</time>
      </trkpt>
      <trkpt lat="48.84755" lon="2.39822">
        <ele>100.6</ele>
        <time>2015-01-12T20:21:18.620Z</time>
      </trkpt>
      <trkpt lat="48.8475" lon="2.39822">
        <ele>101</ele>
        <time>2015-01-12T20:21:19.682Z</time>
      </trkpt>
      <trkpt lat="48.84742" lon="2.39826">
        <ele>101.4</ele>
        <time>2015-01-12T20:21:23.753Z</time>
      </trkpt>
      <trkpt lat="48.84741" lon="2.39827">
        <ele>101.6</ele>
        <time>2015-01-12T20:21:24.667Z</time>
      </trkpt>
      <trkpt lat="48.84732" lon="2.39828">
        <ele>102.2</ele>
        <time>2015-01-12T20:21:28.638Z</time>
      </trkpt>
      <trkpt lat="48.84731" lon="2.39828">
        <ele>102.2</ele>
        <time>2015-01-12T20:21:29.635Z</time>
      </trkpt>
      <trkpt lat="48.84723" lon="2.39832">
        <ele>102.9</ele>
        <time>2015-01-12T20:21:35.519Z</time>
      </trkpt>
      <trkpt lat="48.84721" lon="2.39832">
        <ele>103</ele>
        <time>2015-01-12T20:21:35.605Z</time>
      </trkpt>
      <trkpt lat="48.84714" lon="2.39837">
        <ele>103</ele>
        <time>2015-01-12T20:21:38.677Z</time>
      </trkpt>
      <trkpt lat="48.84711" lon="2.39839">
        <ele>103</ele>
        <time>2015-01-12T20:21:39.685Z</time>
      </trkpt>
      <trkpt lat="48.84703" lon="2.39841">
        <ele>103.1</ele>
        <time>2015-01-12T20:21:41.696Z</time>
      </trkpt>
      <trkpt lat="48.847" lon="2.39842">
        <ele>103</ele>
        <time>2015-01-12T20:21:42.700Z</time>
      </trkpt>
      <trkpt lat="48.84693" lon="2.39841">
        <ele>103.1</ele>
        <time>2015-01-12T20:21:45.729Z</time>
      </trkpt>
      <trkpt lat="48.8469" lon="2.39843">
        <ele>103.3</ele>
        <time>2015-01-12T20:21:45.768Z</time>
      </trkpt>
      <trkpt lat="48.84684" lon="2.39847">
        <ele>103.5</ele>
        <time>2015-01-12T20:21:47.620Z</time>
      </trkpt>
      <trkpt lat="48.84681" lon="2.39849">
        <ele>103.6</ele>
        <time>2015-01-12T20:21:48.654Z</time>
      </trkpt>
      <trkpt lat="48.84675" lon="2.39853">
        <ele>103.6</ele>
        <time>2015-01-12T20:21:50.686Z</time>
      </trkpt>
      <trkpt lat="48.8467" lon="2.39853">
        <ele>103.2</ele>
        <time>2015-01-12T20:21:51.699Z</time>
      </trkpt>
      <trkpt lat="48.84665" lon="2.39853">
        <ele>103.1</ele>
        <time>2015-01-12T20:21:52.620Z</time>
      </trkpt>
      <trkpt lat="48.84661" lon="2.39853">
        <ele>103.5</ele>
        <time>2015-01-12T20:21:53.625Z</time>
      </trkpt>
      <trkpt lat="48.84653" lon="2.39853">
        <ele>103.6</ele>
        <time>2015-01-12T20:21:55.656Z</time>
      </trkpt>
      <trkpt lat="48.8465" lon="2.39854">
        <ele>103.8</ele>
        <time>2015-01-12T20:21:56.671Z</time>
      </trkpt>
      <trkpt lat="48.84644" lon="2.39858">
        <ele>103.8</ele>
        <time>2015-01-12T20:21:58.624Z</time>
      </trkpt>
      <trkpt lat="48.84641" lon="2.3986">
        <ele>103.7</ele>
        <time>2015-01-12T20:21:59.648Z</time>
      </trkpt>
      <trkpt lat="48.84635" lon="2.39867">
        <ele>103.7</ele>
        <time>2015-01-12T20:22:01.716Z</time>
      </trkpt>
      <trkpt lat="48.84632" lon="2.3987">
        <ele>103.7</ele>
        <time>2015-01-12T20:22:02.609Z</time>
      </trkpt>
      <trkpt lat="48.84627" lon="2.39871">
        <ele>103.8</ele>
        <time>2015-01-12T20:22:03.613Z</time>
      </trkpt>
      <trkpt lat="48.84622" lon="2.39873">
        <ele>104.1</ele>
        <time>2015-01-12T20:22:04.619Z</time>
      </trkpt>
      <trkpt lat="48.84615" lon="2.39879">
        <ele>104.6</ele>
        <time>2015-01-12T20:22:06.603Z</time>
      </trkpt>
      <trkpt lat="48.84611" lon="2.39881">
        <ele>104.8</ele>
        <time>2015-01-12T20:22:07.698Z</time>
      </trkpt>
      <trkpt lat="48.84605" lon="2.39881">
        <ele>105.2</ele>
        <time>2015-01-12T20:22:08.681Z</time>
      </trkpt>
      <trkpt lat="48.846" lon="2.39882">
        <ele>105.5</ele>
        <time>2015-01-12T20:22:09.687Z</time>
      </trkpt>
      <trkpt lat="48.84591" lon="2.39882">
        <ele>105.9</ele>
        <time>2015-01-12T20:22:11.618Z</time>
      </trkpt>
      <trkpt lat="48.84587" lon="2.39883">
        <ele>106.1</ele>
        <time>2015-01-12T20:22:12.660Z</time>
      </trkpt>
      <trkpt lat="48.84579" lon="2.39887">
        <ele>106.7</ele>
        <time>2015-01-12T20:22:15.108Z</time>
      </trkpt>
      <trkpt lat="48.84576" lon="2.3989">
        <ele>107.1</ele>
        <time>2015-01-12T20:22:15.620Z</time>
      </trkpt>
      <trkpt lat="48.8457" lon="2.39894">
        <ele>107.7</ele>
        <time>2015-01-12T20:22:18.704Z</time>
      </trkpt>
      <trkpt lat="48.84567" lon="2.39895">
        <ele>107.8</ele>
        <time>2015-01-12T20:22:19.670Z</time>
      </trkpt>
      <trkpt lat="48.8456" lon="2.39903">
        <ele>108</ele>
        <time>2015-01-12T20:22:23.622Z</time>
      </trkpt>
      <trkpt lat="48.8456" lon="2.39904">
        <ele>107.8</ele>
        <time>2015-01-12T20:22:24.631Z</time>
      </trkpt>
      <trkpt lat="48.84552" lon="2.39909">
        <ele>108.1</ele>
        <time>2015-01-12T20:22:30.640Z</time>
      </trkpt>
      <trkpt lat="48.84551" lon="2.39908">
        <ele>107.5</ele>
        <time>2015-01-12T20:22:31.661Z</time>
      </trkpt>
      <trkpt lat="48.84548" lon="2.39897">
        <ele>104.8</ele>
        <time>2015-01-12T20:22:35.661Z</time>
      </trkpt>
      <trkpt lat="48.84547" lon="2.39893">
        <ele>104.9</ele>
        <time>2015-01-12T20:22:36.681Z</time>
      </trkpt>
      <trkpt lat="48.84544" lon="2.39885">
        <ele>104.7</ele>
        <time>2015-01-12T20:22:39.702Z</time>
      </trkpt>
      <trkpt lat="48.8454" lon="2.39881">
        <ele>105.5</ele>
        <time>2015-01-12T20:22:40.622Z</time>
      </trkpt>
      <trkpt lat="48.84536" lon="2.39872">
        <ele>107.1</ele>
        <time>2015-01-12T20:22:42.623Z</time>
      </trkpt>
      <trkpt lat="48.84536" lon="2.39868">
        <ele>107.6</ele>
        <time>2015-01-12T20:22:43.653Z</time>
      </trkpt>
      <trkpt lat="48.84536" lon="2.39857">
        <ele>108.6</ele>
        <time>2015-01-12T20:22:46.621Z</time>
      </trkpt>
      <trkpt lat="48.84537" lon="2.39852">
        <ele>109</ele>
        <time>2015-01-12T20:22:47.622Z</time>
      </trkpt>
      <trkpt lat="48.84535" lon="2.39841">
        <ele>109.7</ele>
        <time>2015-01-12T20:22:49.656Z</time>
      </trkpt>
      <trkpt lat="48.84535" lon="2.39837">
        <ele>109.9</ele>
        <time>2015-01-12T20:22:50.676Z</time>
      </trkpt>
      <trkpt lat="48.84534" lon="2.39826">
        <ele>110.2</ele>
        <time>2015-01-12T20:22:52.705Z</time>
      </trkpt>
      <trkpt lat="48.84533" lon="2.39819">
        <ele>110.2</ele>
        <time>2015-01-12T20:22:53.717Z</time>
      </trkpt>
      <trkpt lat="48.84533" lon="2.39807">
        <ele>110.5</ele>
        <time>2015-01-12T20:22:55.694Z</time>
      </trkpt>
      <trkpt lat="48.84533" lon="2.39803">
        <ele>110.5</ele>
        <time>2015-01-12T20:22:56.684Z</time>
      </trkpt>
      <trkpt lat="48.84535" lon="2.39792">
        <ele>109.4</ele>
        <time>2015-01-12T20:22:59.796Z</time>
      </trkpt>
      <trkpt lat="48.84536" lon="2.39788">
        <ele>108.9</ele>
        <time>2015-01-12T20:23:00.737Z</time>
      </trkpt>
      <trkpt lat="48.84537" lon="2.39778">
        <ele>108.2</ele>
        <time>2015-01-12T20:23:02.656Z</time>
      </trkpt>
      <trkpt lat="48.84539" lon="2.39773">
        <ele>108.1</ele>
        <time>2015-01-12T20:23:03.671Z</time>
      </trkpt>
      <trkpt lat="48.84541" lon="2.39761">
        <ele>107.5</ele>
        <time>2015-01-12T20:23:05.693Z</time>
      </trkpt>
      <trkpt lat="48.84543" lon="2.39755">
        <ele>107.3</ele>
        <time>2015-01-12T20:23:06.621Z</time>
      </trkpt>
      <trkpt lat="48.84544" lon="2.39748">
        <ele>106.9</ele>
        <time>2015-01-12T20:23:07.666Z</time>
      </trkpt>
      <trkpt lat="48.84547" lon="2.39739">
        <ele>105.5</ele>
        <time>2015-01-12T20:23:08.674Z</time>
      </trkpt>
      <trkpt lat="48.8455" lon="2.3973">
        <ele>104.2</ele>
        <time>2015-01-12T20:23:09.940Z</time>
      </trkpt>
      <trkpt lat="48.84553" lon="2.39722">
        <ele>103.2</ele>
        <time>2015-01-12T20:23:10.619Z</time>
      </trkpt>
      <trkpt lat="48.84555" lon="2.39715">
        <ele>102.8</ele>
        <time>2015-01-12T20:23:11.652Z</time>
      </trkpt>
      <trkpt lat="48.84557" lon="2.3971">
        <ele>102.5</ele>
        <time>2015-01-12T20:23:12.683Z</time>
      </trkpt>
      <trkpt lat="48.84558" lon="2.39699">
        <ele>101</ele>
        <time>2015-01-12T20:23:13.702Z</time>
      </trkpt>
      <trkpt lat="48.8456" lon="2.39689">
        <ele>99.9</ele>
        <time>2015-01-12T20:23:14.706Z</time>
      </trkpt>
      <trkpt lat="48.84561" lon="2.39681">
        <ele>99.1</ele>
        <time>2015-01-12T20:23:15.722Z</time>
      </trkpt>
      <trkpt lat="48.84563" lon="2.39672">
        <ele>98.5</ele>
        <time>2015-01-12T20:23:16.624Z</time>
      </trkpt>
      <trkpt lat="48.84563" lon="2.39663">
        <ele>98.8</ele>
        <time>2015-01-12T20:23:17.656Z</time>
      </trkpt>
      <trkpt lat="48.84562" lon="2.39651">
        <ele>98.6</ele>
        <time>2015-01-12T20:23:18.659Z</time>
      </trkpt>
      <trkpt lat="48.84563" lon="2.39642">
        <ele>98.1</ele>
        <time>2015-01-12T20:23:20.127Z</time>
      </trkpt>
      <trkpt lat="48.84563" lon="2.39632">
        <ele>97.9</ele>
        <time>2015-01-12T20:23:20.678Z</time>
      </trkpt>
      <trkpt lat="48.84563" lon="2.39622">
        <ele>98.2</ele>
        <time>2015-01-12T20:23:21.683Z</time>
      </trkpt>
      <trkpt lat="48.84562" lon="2.39612">
        <ele>98.4</ele>
        <time>2015-01-12T20:23:22.689Z</time>
      </trkpt>
      <trkpt lat="48.84562" lon="2.39602">
        <ele>98.6</ele>
        <time>2015-01-12T20:23:23.706Z</time>
      </trkpt>
      <trkpt lat="48.84562" lon="2.39594">
        <ele>98.5</ele>
        <time>2015-01-12T20:23:24.663Z</time>
      </trkpt>
      <trkpt lat="48.84563" lon="2.39587">
        <ele>98.1</ele>
        <time>2015-01-12T20:23:25.736Z</time>
      </trkpt>
      <trkpt lat="48.84563" lon="2.39578">
        <ele>98.1</ele>
        <time>2015-01-12T20:23:26.619Z</time>
      </trkpt>
      <trkpt lat="48.84563" lon="2.39569">
        <ele>99</ele>
        <time>2015-01-12T20:23:27.651Z</time>
      </trkpt>
      <trkpt lat="48.84562" lon="2.39559">
        <ele>100</ele>
        <time>2015-01-12T20:23:28.665Z</time>
      </trkpt>
      <trkpt lat="48.84561" lon="2.39551">
        <ele>100.9</ele>
        <time>2015-01-12T20:23:29.673Z</time>
      </trkpt>
      <trkpt lat="48.84559" lon="2.3954">
        <ele>101.9</ele>
        <time>2015-01-12T20:23:30.682Z</time>
      </trkpt>
      <trkpt lat="48.84556" lon="2.39526">
        <ele>103.7</ele>
        <time>2015-01-12T20:23:31.686Z</time>
      </trkpt>
      <trkpt lat="48.84554" lon="2.39515">
        <ele>105.2</ele>
        <time>2015-01-12T20:23:32.691Z</time>
      </trkpt>
      <trkpt lat="48.84555" lon="2.39509">
        <ele>105.5</ele>
        <time>2015-01-12T20:23:33.620Z</time>
      </trkpt>
      <trkpt lat="48.84559" lon="2.39502">
        <ele>105.9</ele>
        <time>2015-01-12T20:23:35.613Z</time>
      </trkpt>
      <trkpt lat="48.84561" lon="2.39499">
        <ele>106.2</ele>
        <time>2015-01-12T20:23:36.625Z</time>
      </trkpt>
      <trkpt lat="48.84568" lon="2.39494">
        <ele>106.9</ele>
        <time>2015-01-12T20:23:38.623Z</time>
      </trkpt>
      <trkpt lat="48.84572" lon="2.39492">
        <ele>107.1</ele>
        <time>2015-01-12T20:23:39.637Z</time>
      </trkpt>
      <trkpt lat="48.84576" lon="2.3949">
        <ele>107.5</ele>
        <time>2015-01-12T20:23:40.664Z</time>
      </trkpt>
      <trkpt lat="48.84581" lon="2.39489">
        <ele>107.6</ele>
        <time>2015-01-12T20:23:41.668Z</time>
      </trkpt>
      <trkpt lat="48.84588" lon="2.39481">
        <ele>108</ele>
        <time>2015-01-12T20:23:43.695Z</time>
      </trkpt>
      <trkpt lat="48.8459" lon="2.39479">
        <ele>108.2</ele>
        <time>2015-01-12T20:23:44.781Z</time>
      </trkpt>
      <trkpt lat="48.84596" lon="2.39475">
        <ele>108.6</ele>
        <time>2015-01-12T20:23:46.658Z</time>
      </trkpt>
      <trkpt lat="48.846" lon="2.39473">
        <ele>108.6</ele>
        <time>2015-01-12T20:23:47.702Z</time>
      </trkpt>
      <trkpt lat="48.84606" lon="2.39471">
        <ele>108.7</ele>
        <time>2015-01-12T20:23:49.649Z</time>
      </trkpt>
      <trkpt lat="48.84609" lon="2.3947">
        <ele>108.8</ele>
        <time>2015-01-12T20:23:50.650Z</time>
      </trkpt>
      <trkpt lat="48.84618" lon="2.3947">
        <ele>109.1</ele>
        <time>2015-01-12T20:23:53.712Z</time>
      </trkpt>
      <trkpt lat="48.84622" lon="2.39469">
        <ele>109.2</ele>
        <time>2015-01-12T20:23:54.625Z</time>
      </trkpt>
      <trkpt lat="48.84628" lon="2.39466">
        <ele>109.3</ele>
        <time>2015-01-12T20:23:55.722Z</time>
      </trkpt>
      <trkpt lat="48.84632" lon="2.39464">
        <ele>109.3</ele>
        <time>2015-01-12T20:23:56.723Z</time>
      </trkpt>
      <trkpt lat="48.84636" lon="2.39461">
        <ele>109.3</ele>
        <time>2015-01-12T20:23:57.605Z</time>
      </trkpt>
      <trkpt lat="48.8464" lon="2.39458">
        <ele>109.4</ele>
        <time>2015-01-12T20:23:58.621Z</time>
      </trkpt>
      <trkpt lat="48.84644" lon="2.39455">
        <ele>109.5</ele>
        <time>2015-01-12T20:23:59.636Z</time>
      </trkpt>
      <trkpt lat="48.84649" lon="2.39451">
        <ele>109.6</ele>
        <time>2015-01-12T20:24:00.643Z</time>
      </trkpt>
      <trkpt lat="48.84653" lon="2.39448">
        <ele>109.7</ele>
        <time>2015-01-12T20:24:01.665Z</time>
      </trkpt>
      <trkpt lat="48.84658" lon="2.39446">
        <ele>109.9</ele>
        <time>2015-01-12T20:24:02.659Z</time>
      </trkpt>
      <trkpt lat="48.84662" lon="2.39444">
        <ele>109.9</ele>
        <time>2015-01-12T20:24:03.669Z</time>
      </trkpt>
      <trkpt lat="48.84666" lon="2.39441">
        <ele>110.1</ele>
        <time>2015-01-12T20:24:04.687Z</time>
      </trkpt>
      <trkpt lat="48.84671" lon="2.39439">
        <ele>110.2</ele>
        <time>2015-01-12T20:24:06.271Z</time>
      </trkpt>
      <trkpt lat="48.84676" lon="2.39436">
        <ele>110.3</ele>
        <time>2015-01-12T20:24:06.601Z</time>
      </trkpt>
      <trkpt lat="48.84682" lon="2.39431">
        <ele>110.9</ele>
        <time>2015-01-12T20:24:07.652Z</time>
      </trkpt>
      <trkpt lat="48.84689" lon="2.39429">
        <ele>111</ele>
        <time>2015-01-12T20:24:08.667Z</time>
      </trkpt>
      <trkpt lat="48.84695" lon="2.39428">
        <ele>111.1</ele>
        <time>2015-01-12T20:24:09.677Z</time>
      </trkpt>
      <trkpt lat="48.84701" lon="2.39426">
        <ele>111.2</ele>
        <time>2015-01-12T20:24:10.689Z</time>
      </trkpt>
      <trkpt lat="48.84706" lon="2.39423">
        <ele>111.3</ele>
        <time>2015-01-12T20:24:11.709Z</time>
      </trkpt>
      <trkpt lat="48.8471" lon="2.39417">
        <ele>111.8</ele>
        <time>2015-01-12T20:24:12.728Z</time>
      </trkpt>
      <trkpt lat="48.84711" lon="2.39405">
        <ele>113</ele>
        <time>2015-01-12T20:24:14.637Z</time>
      </trkpt>
      <trkpt lat="48.8471" lon="2.394">
        <ele>113.1</ele>
        <time>2015-01-12T20:24:15.643Z</time>
      </trkpt>
      <trkpt lat="48.84717" lon="2.39391">
        <ele>113.4</ele>
        <time>2015-01-12T20:24:18.614Z</time>
      </trkpt>
      <trkpt lat="48.8472" lon="2.39383">
        <ele>111.2</ele>
        <time>2015-01-12T20:24:19.672Z</time>
      </trkpt>
      <trkpt lat="48.84725" lon="2.39374">
        <ele>109.2</ele>
        <time>2015-01-12T20:24:20.675Z</time>
      </trkpt>
      <trkpt lat="48.84728" lon="2.3937">
        <ele>109.1</ele>
        <time>2015-01-12T20:24:21.685Z</time>
      </trkpt>
      <trkpt lat="48.84732" lon="2.39367">
        <ele>109.2</ele>
        <time>2015-01-12T20:24:22.786Z</time>
      </trkpt>
      <trkpt lat="48.84736" lon="2.39362">
        <ele>109.5</ele>
        <time>2015-01-12T20:24:23.690Z</time>
      </trkpt>
      <trkpt lat="48.84739" lon="2.39358">
        <ele>109.6</ele>
        <time>2015-01-12T20:24:24.712Z</time>
      </trkpt>
      <trkpt lat="48.84743" lon="2.39353">
        <ele>109.7</ele>
        <time>2015-01-12T20:24:25.721Z</time>
      </trkpt>
      <trkpt lat="48.84746" lon="2.39348">
        <ele>110.2</ele>
        <time>2015-01-12T20:24:26.636Z</time>
      </trkpt>
      <trkpt lat="48.8475" lon="2.39344">
        <ele>110.5</ele>
        <time>2015-01-12T20:24:27.655Z</time>
      </trkpt>
      <trkpt lat="48.84757" lon="2.39335">
        <ele>111</ele>
        <time>2015-01-12T20:24:29.676Z</time>
      </trkpt>
      <trkpt lat="48.84762" lon="2.39331">
        <ele>111.6</ele>
        <time>2015-01-12T20:24:30.709Z</time>
      </trkpt>
      <trkpt lat="48.84767" lon="2.39325">
        <ele>111.8</ele>
        <time>2015-01-12T20:24:32.676Z</time>
      </trkpt>
      <trkpt lat="48.8477" lon="2.39323">
        <ele>111.9</ele>
        <time>2015-01-12T20:24:33.750Z</time>
      </trkpt>
      <trkpt lat="48.84777" lon="2.39316">
        <ele>111.9</ele>
        <time>2015-01-12T20:24:35.615Z</time>
      </trkpt>
      <trkpt lat="48.8478" lon="2.39311">
        <ele>111.5</ele>
        <time>2015-01-12T20:24:36.714Z</time>
      </trkpt>
      <trkpt lat="48.84786" lon="2.39301">
        <ele>109.7</ele>
        <time>2015-01-12T20:24:38.609Z</time>
      </trkpt>
      <trkpt lat="48.84788" lon="2.39299">
        <ele>109.5</ele>
        <time>2015-01-12T20:24:39.631Z</time>
      </trkpt>
      <trkpt lat="48.84796" lon="2.39293">
        <ele>109.4</ele>
        <time>2015-01-12T20:24:43.747Z</time>
      </trkpt>
      <trkpt lat="48.84797" lon="2.39291">
        <ele>109.6</ele>
        <time>2015-01-12T20:24:44.635Z</time>
      </trkpt>
      <trkpt lat="48.84805" lon="2.39286">
        <ele>110.1</ele>
        <time>2015-01-12T20:24:48.655Z</time>
      </trkpt>
      <trkpt lat="48.84809" lon="2.39287">
        <ele>110.3</ele>
        <time>2015-01-12T20:24:49.676Z</time>
      </trkpt>
      <trkpt lat="48.84814" lon="2.39287">
        <ele>110.5</ele>
        <time>2015-01-12T20:24:50.712Z</time>
      </trkpt>
      <trkpt lat="48.84818" lon="2.39285">
        <ele>110.4</ele>
        <time>2015-01-12T20:24:51.620Z</time>
      </trkpt>
      <trkpt lat="48.84823" lon="2.39282">
        <ele>110.4</ele>
        <time>2015-01-12T20:24:52.635Z</time>
      </trkpt>
      <trkpt lat="48.84827" lon="2.39279">
        <ele>110.4</ele>
        <time>2015-01-12T20:24:53.646Z</time>
      </trkpt>
      <trkpt lat="48.84832" lon="2.39274">
        <ele>109.9</ele>
        <time>2015-01-12T20:24:54.660Z</time>
      </trkpt>
      <trkpt lat="48.84839" lon="2.39266">
        <ele>108</ele>
        <time>2015-01-12T20:24:55.681Z</time>
      </trkpt>
      <trkpt lat="48.84844" lon="2.39259">
        <ele>106.7</ele>
        <time>2015-01-12T20:24:56.692Z</time>
      </trkpt>
      <trkpt lat="48.8485" lon="2.39252">
        <ele>105.2</ele>
        <time>2015-01-12T20:24:57.699Z</time>
      </trkpt>
      <trkpt lat="48.84856" lon="2.39246">
        <ele>104.8</ele>
        <time>2015-01-12T20:24:59.708Z</time>
      </trkpt>
      <trkpt lat="48.84859" lon="2.39242">
        <ele>104.7</ele>
        <time>2015-01-12T20:25:00.621Z</time>
      </trkpt>
      <trkpt lat="48.84862" lon="2.39238">
        <ele>104.5</ele>
        <time>2015-01-12T20:25:01.675Z</time>
      </trkpt>
      <trkpt lat="48.84866" lon="2.39232">
        <ele>103.6</ele>
        <time>2015-01-12T20:25:02.674Z</time>
      </trkpt>
      <trkpt lat="48.8487" lon="2.39229">
        <ele>103.4</ele>
        <time>2015-01-12T20:25:03.735Z</time>
      </trkpt>
      <trkpt lat="48.84875" lon="2.39223">
        <ele>102.5</ele>
        <time>2015-01-12T20:25:04.685Z</time>
      </trkpt>
      <trkpt lat="48.84879" lon="2.39218">
        <ele>101.8</ele>
        <time>2015-01-12T20:25:05.725Z</time>
      </trkpt>
      <trkpt lat="48.84883" lon="2.39213">
        <ele>101.3</ele>
        <time>2015-01-12T20:25:06.638Z</time>
      </trkpt>
      <trkpt lat="48.8489" lon="2.39206">
        <ele>100.8</ele>
        <time>2015-01-12T20:25:08.736Z</time>
      </trkpt>
      <trkpt lat="48.84892" lon="2.39202">
        <ele>100.8</ele>
        <time>2015-01-12T20:25:09.659Z</time>
      </trkpt>
      <trkpt lat="48.84898" lon="2.39195">
        <ele>101.1</ele>
        <time>2015-01-12T20:25:11.661Z</time>
      </trkpt>
      <trkpt lat="48.84901" lon="2.39191">
        <ele>101.1</ele>
        <time>2015-01-12T20:25:12.786Z</time>
      </trkpt>
      <trkpt lat="48.84908" lon="2.39186">
        <ele>101.3</ele>
        <time>2015-01-12T20:25:14.633Z</time>
      </trkpt>
      <trkpt lat="48.84912" lon="2.39184">
        <ele>101.5</ele>
        <time>2015-01-12T20:25:15.649Z</time>
      </trkpt>
      <trkpt lat="48.84921" lon="2.39182">
        <ele>101.9</ele>
        <time>2015-01-12T20:25:17.733Z</time>
      </trkpt>
      <trkpt lat="48.84925" lon="2.39179">
        <ele>102.1</ele>
        <time>2015-01-12T20:25:18.661Z</time>
      </trkpt>
      <trkpt lat="48.84929" lon="2.39176">
        <ele>102.3</ele>
        <time>2015-01-12T20:25:19.685Z</time>
      </trkpt>
      <trkpt lat="48.84934" lon="2.39172">
        <ele>102.5</ele>
        <time>2015-01-12T20:25:20.598Z</time>
      </trkpt>
      <trkpt lat="48.84942" lon="2.39167">
        <ele>102.7</ele>
        <time>2015-01-12T20:25:22.645Z</time>
      </trkpt>
      <trkpt lat="48.84943" lon="2.39158">
        <ele>104.2</ele>
        <time>2015-01-12T20:25:23.657Z</time>
      </trkpt>
      <trkpt lat="48.84946" lon="2.39152">
        <ele>105.1</ele>
        <time>2015-01-12T20:25:24.673Z</time>
      </trkpt>
      <trkpt lat="48.84951" lon="2.39149">
        <ele>105.3</ele>
        <time>2015-01-12T20:25:25.676Z</time>
      </trkpt>
      <trkpt lat="48.84955" lon="2.39146">
        <ele>105.2</ele>
        <time>2015-01-12T20:25:26.688Z</time>
      </trkpt>
      <trkpt lat="48.8496" lon="2.39144">
        <ele>105.2</ele>
        <time>2015-01-12T20:25:27.715Z</time>
      </trkpt>
      <trkpt lat="48.84965" lon="2.39138">
        <ele>105.6</ele>
        <time>2015-01-12T20:25:28.632Z</time>
      </trkpt>
      <trkpt lat="48.84969" lon="2.39133">
        <ele>105.7</ele>
        <time>2015-01-12T20:25:29.670Z</time>
      </trkpt>
      <trkpt lat="48.84972" lon="2.39126">
        <ele>105.9</ele>
        <time>2015-01-12T20:25:30.839Z</time>
      </trkpt>
      <trkpt lat="48.84976" lon="2.39119">
        <ele>106.1</ele>
        <time>2015-01-12T20:25:31.679Z</time>
      </trkpt>
      <trkpt lat="48.8498" lon="2.39113">
        <ele>106.4</ele>
        <time>2015-01-12T20:25:32.681Z</time>
      </trkpt>
      <trkpt lat="48.84984" lon="2.39106">
        <ele>106.7</ele>
        <time>2015-01-12T20:25:33.697Z</time>
      </trkpt>
      <trkpt lat="48.84989" lon="2.39099">
        <ele>107</ele>
        <time>2015-01-12T20:25:34.623Z</time>
      </trkpt>
      <trkpt lat="48.84993" lon="2.39092">
        <ele>107.1</ele>
        <time>2015-01-12T20:25:35.630Z</time>
      </trkpt>
      <trkpt lat="48.84997" lon="2.39087">
        <ele>107.2</ele>
        <time>2015-01-12T20:25:36.644Z</time>
      </trkpt>
      <trkpt lat="48.85001" lon="2.39085">
        <ele>107.6</ele>
        <time>2015-01-12T20:25:37.658Z</time>
      </trkpt>
      <trkpt lat="48.85008" lon="2.39082">
        <ele>108.5</ele>
        <time>2015-01-12T20:25:40.636Z</time>
      </trkpt>
      <trkpt lat="48.85012" lon="2.39081">
        <ele>108.6</ele>
        <time>2015-01-12T20:25:41.633Z</time>
      </trkpt>
      <trkpt lat="48.85019" lon="2.39078">
        <ele>109.2</ele>
        <time>2015-01-12T20:25:43.672Z</time>
      </trkpt>
      <trkpt lat="48.85021" lon="2.39075">
        <ele>109.9</ele>
        <time>2015-01-12T20:25:44.700Z</time>
      </trkpt>
      <trkpt lat="48.85024" lon="2.39062">
        <ele>109.6</ele>
        <time>2015-01-12T20:25:46.617Z</time>
      </trkpt>
      <trkpt lat="48.85027" lon="2.39058">
        <ele>108.9</ele>
        <time>2015-01-12T20:25:47.633Z</time>
      </trkpt>
      <trkpt lat="48.85032" lon="2.39055">
        <ele>109.9</ele>
        <time>2015-01-12T20:25:49.679Z</time>
      </trkpt>
      <trkpt lat="48.85037" lon="2.39054">
        <ele>110.4</ele>
        <time>2015-01-12T20:25:50.687Z</time>
      </trkpt>
      <trkpt lat="48.85045" lon="2.39052">
        <ele>111.6</ele>
        <time>2015-01-12T20:25:52.711Z</time>
      </trkpt>
      <trkpt lat="48.8505" lon="2.3905">
        <ele>111.9</ele>
        <time>2015-01-12T20:25:53.634Z</time>
      </trkpt>
      <trkpt lat="48.85056" lon="2.39047">
        <ele>112.2</ele>
        <time>2015-01-12T20:25:54.628Z</time>
      </trkpt>
      <trkpt lat="48.85061" lon="2.39043">
        <ele>112.6</ele>
        <time>2015-01-12T20:25:55.647Z</time>
      </trkpt>
      <trkpt lat="48.85066" lon="2.39039">
        <ele>112.9</ele>
        <time>2015-01-12T20:25:56.656Z</time>
      </trkpt>
      <trkpt lat="48.85071" lon="2.39032">
        <ele>113</ele>
        <time>2015-01-12T20:25:57.666Z</time>
      </trkpt>
      <trkpt lat="48.85075" lon="2.39024">
        <ele>113.4</ele>
        <time>2015-01-12T20:25:58.678Z</time>
      </trkpt>
      <trkpt lat="48.85081" lon="2.39016">
        <ele>114.4</ele>
        <time>2015-01-12T20:25:59.686Z</time>
      </trkpt>
      <trkpt lat="48.85085" lon="2.39011">
        <ele>114.6</ele>
        <time>2015-01-12T20:26:00.597Z</time>
      </trkpt>
      <trkpt lat="48.8509" lon="2.39007">
        <ele>114.7</ele>
        <time>2015-01-12T20:26:01.662Z</time>
      </trkpt>
      <trkpt lat="48.85094" lon="2.39001">
        <ele>114.7</ele>
        <time>2015-01-12T20:26:02.770Z</time>
      </trkpt>
      <trkpt lat="48.85098" lon="2.38994">
        <ele>114.9</ele>
        <time>2015-01-12T20:26:03.622Z</time>
      </trkpt>
      <trkpt lat="48.85104" lon="2.38984">
        <ele>114.8</ele>
        <time>2015-01-12T20:26:04.681Z</time>
      </trkpt>
      <trkpt lat="48.85109" lon="2.38974">
        <ele>114.7</ele>
        <time>2015-01-12T20:26:05.586Z</time>
      </trkpt>
      <trkpt lat="48.85114" lon="2.38962">
        <ele>114.4</ele>
        <time>2015-01-12T20:26:06.720Z</time>
      </trkpt>
      <trkpt lat="48.85121" lon="2.38955">
        <ele>114.6</ele>
        <time>2015-01-12T20:26:07.685Z</time>
      </trkpt>
      <trkpt lat="48.85128" lon="2.38947">
        <ele>115.4</ele>
        <time>2015-01-12T20:26:08.659Z</time>
      </trkpt>
      <trkpt lat="48.85134" lon="2.38941">
        <ele>116</ele>
        <time>2015-01-12T20:26:09.678Z</time>
      </trkpt>
      <trkpt lat="48.85138" lon="2.38939">
        <ele>116.4</ele>
        <time>2015-01-12T20:26:10.689Z</time>
      </trkpt>
      <trkpt lat="48.85142" lon="2.38936">
        <ele>116.8</ele>
        <time>2015-01-12T20:26:11.687Z</time>
      </trkpt>
      <trkpt lat="48.85147" lon="2.38936">
        <ele>117</ele>
        <time>2015-01-12T20:26:12.691Z</time>
      </trkpt>
      <trkpt lat="48.85152" lon="2.38934">
        <ele>117.4</ele>
        <time>2015-01-12T20:26:13.707Z</time>
      </trkpt>
      <trkpt lat="48.8516" lon="2.38929">
        <ele>118.1</ele>
        <time>2015-01-12T20:26:14.623Z</time>
      </trkpt>
      <trkpt lat="48.85167" lon="2.38933">
        <ele>118.6</ele>
        <time>2015-01-12T20:26:15.599Z</time>
      </trkpt>
      <trkpt lat="48.8517" lon="2.38934">
        <ele>118.9</ele>
        <time>2015-01-12T20:26:16.603Z</time>
      </trkpt>
      <trkpt lat="48.85179" lon="2.38932">
        <ele>118.8</ele>
        <time>2015-01-12T20:26:17.609Z</time>
      </trkpt>
      <trkpt lat="48.85187" lon="2.38931">
        <ele>118.6</ele>
        <time>2015-01-12T20:26:18.614Z</time>
      </trkpt>
      <trkpt lat="48.85194" lon="2.3893">
        <ele>118.5</ele>
        <time>2015-01-12T20:26:19.628Z</time>
      </trkpt>
      <trkpt lat="48.852" lon="2.38929">
        <ele>118.7</ele>
        <time>2015-01-12T20:26:20.636Z</time>
      </trkpt>
      <trkpt lat="48.85207" lon="2.38927">
        <ele>118.6</ele>
        <time>2015-01-12T20:26:22.663Z</time>
      </trkpt>
      <trkpt lat="48.8521" lon="2.38926">
        <ele>118.3</ele>
        <time>2015-01-12T20:26:23.670Z</time>
      </trkpt>
      <trkpt lat="48.85218" lon="2.38923">
        <ele>117.4</ele>
        <time>2015-01-12T20:26:25.715Z</time>
      </trkpt>
      <trkpt lat="48.85221" lon="2.38923">
        <ele>117.1</ele>
        <time>2015-01-12T20:26:26.628Z</time>
      </trkpt>
      <trkpt lat="48.85227" lon="2.3892">
        <ele>116.3</ele>
        <time>2015-01-12T20:26:27.671Z</time>
      </trkpt>
      <trkpt lat="48.8523" lon="2.38916">
        <ele>116</ele>
        <time>2015-01-12T20:26:28.679Z</time>
      </trkpt>
      <trkpt lat="48.85234" lon="2.38907">
        <ele>117.1</ele>
        <time>2015-01-12T20:26:45.630Z</time>
      </trkpt>
      <trkpt lat="48.85245" lon="2.38906">
        <ele>119.9</ele>
        <time>2015-01-12T20:26:46.642Z</time>
      </trkpt>
      <trkpt lat="48.8525" lon="2.38901">
        <ele>119.9</ele>
        <time>2015-01-12T20:26:48.702Z</time>
      </trkpt>
      <trkpt lat="48.85254" lon="2.38898">
        <ele>120.1</ele>
        <time>2015-01-12T20:26:49.718Z</time>
      </trkpt>
      <trkpt lat="48.85259" lon="2.38889">
        <ele>119.6</ele>
        <time>2015-01-12T20:26:51.684Z</time>
      </trkpt>
      <trkpt lat="48.85263" lon="2.38884">
        <ele>119</ele>
        <time>2015-01-12T20:26:52.700Z</time>
      </trkpt>
      <trkpt lat="48.85268" lon="2.38876">
        <ele>117.1</ele>
        <time>2015-01-12T20:26:53.621Z</time>
      </trkpt>
      <trkpt lat="48.85273" lon="2.38868">
        <ele>115</ele>
        <time>2015-01-12T20:26:54.620Z</time>
      </trkpt>
      <trkpt lat="48.85277" lon="2.38862">
        <ele>113.6</ele>
        <time>2015-01-12T20:26:55.656Z</time>
      </trkpt>
      <trkpt lat="48.85281" lon="2.38856">
        <ele>112.1</ele>
        <time>2015-01-12T20:26:56.664Z</time>
      </trkpt>
      <trkpt lat="48.85285" lon="2.38851">
        <ele>111.1</ele>
        <time>2015-01-12T20:26:57.671Z</time>
      </trkpt>
      <trkpt lat="48.85289" lon="2.38847">
        <ele>111</ele>
        <time>2015-01-12T20:26:58.677Z</time>
      </trkpt>
      <trkpt lat="48.85293" lon="2.38843">
        <ele>110.8</ele>
        <time>2015-01-12T20:26:59.683Z</time>
      </trkpt>
      <trkpt lat="48.85297" lon="2.38839">
        <ele>110.9</ele>
        <time>2015-01-12T20:27:00.693Z</time>
      </trkpt>
      <trkpt lat="48.853" lon="2.38836">
        <ele>111.2</ele>
        <time>2015-01-12T20:27:01.704Z</time>
      </trkpt>
      <trkpt lat="48.85304" lon="2.38832">
        <ele>111.1</ele>
        <time>2015-01-12T20:27:02.709Z</time>
      </trkpt>
      <trkpt lat="48.85311" lon="2.38825">
        <ele>111.5</ele>
        <time>2015-01-12T20:27:04.623Z</time>
      </trkpt>
      <trkpt lat="48.85313" lon="2.38824">
        <ele>111.7</ele>
        <time>2015-01-12T20:27:05.633Z</time>
      </trkpt>
      <trkpt lat="48.85319" lon="2.38824">
        <ele>112.1</ele>
        <time>2015-01-12T20:27:07.694Z</time>
      </trkpt>
      <trkpt lat="48.85322" lon="2.38827">
        <ele>111.4</ele>
        <time>2015-01-12T20:27:08.719Z</time>
      </trkpt>
      <trkpt lat="48.8533" lon="2.38825">
        <ele>112.7</ele>
        <time>2015-01-12T20:27:11.630Z</time>
      </trkpt>
      <trkpt lat="48.85332" lon="2.38823">
        <ele>113.1</ele>
        <time>2015-01-12T20:27:12.642Z</time>
      </trkpt>
      <trkpt lat="48.85335" lon="2.3882">
        <ele>113.4</ele>
        <time>2015-01-12T20:27:13.687Z</time>
      </trkpt>
      <trkpt lat="48.85341" lon="2.38817">
        <ele>113.4</ele>
        <time>2015-01-12T20:27:14.692Z</time>
      </trkpt>
      <trkpt lat="48.85348" lon="2.38815">
        <ele>113</ele>
        <time>2015-01-12T20:27:15.621Z</time>
      </trkpt>
      <trkpt lat="48.85355" lon="2.38811">
        <ele>113</ele>
        <time>2015-01-12T20:27:16.608Z</time>
      </trkpt>
      <trkpt lat="48.8542" lon="2.38801">
        <ele>114.3</ele>
        <time>2015-01-12T20:27:27.622Z</time>
      </trkpt>
      <trkpt lat="48.85426" lon="2.38797">
        <ele>114.5</ele>
        <time>2015-01-12T20:27:28.634Z</time>
      </trkpt>
      <trkpt lat="48.85432" lon="2.38791">
        <ele>114.9</ele>
        <time>2015-01-12T20:27:29.657Z</time>
      </trkpt>
      <trkpt lat="48.85436" lon="2.38783">
        <ele>115.6</ele>
        <time>2015-01-12T20:27:30.594Z</time>
      </trkpt>
      <trkpt lat="48.85439" lon="2.38777">
        <ele>116.2</ele>
        <time>2015-01-12T20:27:31.645Z</time>
      </trkpt>
      <trkpt lat="48.85442" lon="2.38771">
        <ele>116.3</ele>
        <time>2015-01-12T20:27:32.648Z</time>
      </trkpt>
      <trkpt lat="48.85449" lon="2.38764">
        <ele>116.3</ele>
        <time>2015-01-12T20:27:33.741Z</time>
      </trkpt>
      <trkpt lat="48.85456" lon="2.38761">
        <ele>116.1</ele>
        <time>2015-01-12T20:27:34.663Z</time>
      </trkpt>
      <trkpt lat="48.85464" lon="2.38755">
        <ele>115.7</ele>
        <time>2015-01-12T20:27:35.666Z</time>
      </trkpt>
      <trkpt lat="48.85471" lon="2.3875">
        <ele>115.6</ele>
        <time>2015-01-12T20:27:36.673Z</time>
      </trkpt>
      <trkpt lat="48.85477" lon="2.38744">
        <ele>115.5</ele>
        <time>2015-01-12T20:27:37.689Z</time>
      </trkpt>
      <trkpt lat="48.85482" lon="2.38739">
        <ele>115.2</ele>
        <time>2015-01-12T20:27:38.705Z</time>
      </trkpt>
      <trkpt lat="48.85487" lon="2.38737">
        <ele>115.2</ele>
        <time>2015-01-12T20:27:39.615Z</time>
      </trkpt>
      <trkpt lat="48.85492" lon="2.38734">
        <ele>115.1</ele>
        <time>2015-01-12T20:27:40.627Z</time>
      </trkpt>
      <trkpt lat="48.85497" lon="2.38725">
        <ele>113.8</ele>
        <time>2015-01-12T20:27:41.630Z</time>
      </trkpt>
      <trkpt lat="48.85502" lon="2.38717">
        <ele>112.3</ele>
        <time>2015-01-12T20:27:42.656Z</time>
      </trkpt>
      <trkpt lat="48.85507" lon="2.38714">
        <ele>112.6</ele>
        <time>2015-01-12T20:27:43.669Z</time>
      </trkpt>
      <trkpt lat="48.85512" lon="2.38711">
        <ele>112.5</ele>
        <time>2015-01-12T20:27:44.683Z</time>
      </trkpt>
      <trkpt lat="48.85517" lon="2.38708">
        <ele>112.5</ele>
        <time>2015-01-12T20:27:45.694Z</time>
      </trkpt>
      <trkpt lat="48.85524" lon="2.38702">
        <ele>112.5</ele>
        <time>2015-01-12T20:27:47.618Z</time>
      </trkpt>
      <trkpt lat="48.85527" lon="2.38696">
        <ele>112.2</ele>
        <time>2015-01-12T20:27:48.632Z</time>
      </trkpt>
      <trkpt lat="48.85532" lon="2.38686">
        <ele>111.9</ele>
        <time>2015-01-12T20:27:50.645Z</time>
      </trkpt>
      <trkpt lat="48.85535" lon="2.38683">
        <ele>111.3</ele>
        <time>2015-01-12T20:27:51.652Z</time>
      </trkpt>
      <trkpt lat="48.85539" lon="2.38674">
        <ele>110.3</ele>
        <time>2015-01-12T20:27:53.701Z</time>
      </trkpt>
      <trkpt lat="48.8554" lon="2.38668">
        <ele>110.2</ele>
        <time>2015-01-12T20:27:54.703Z</time>
      </trkpt>
      <trkpt lat="48.85541" lon="2.38658">
        <ele>110.1</ele>
        <time>2015-01-12T20:27:56.748Z</time>
      </trkpt>
      <trkpt lat="48.85544" lon="2.38654">
        <ele>110.1</ele>
        <time>2015-01-12T20:27:57.635Z</time>
      </trkpt>
      <trkpt lat="48.85551" lon="2.38648">
        <ele>109.7</ele>
        <time>2015-01-12T20:27:58.639Z</time>
      </trkpt>
      <trkpt lat="48.85557" lon="2.38641">
        <ele>109.8</ele>
        <time>2015-01-12T20:27:59.708Z</time>
      </trkpt>
      <trkpt lat="48.85563" lon="2.38637">
        <ele>109.7</ele>
        <time>2015-01-12T20:28:00.597Z</time>
      </trkpt>
      <trkpt lat="48.85567" lon="2.38634">
        <ele>109.7</ele>
        <time>2015-01-12T20:28:01.661Z</time>
      </trkpt>
      <trkpt lat="48.85575" lon="2.38634">
        <ele>109.8</ele>
        <time>2015-01-12T20:28:06.774Z</time>
      </trkpt>
      <trkpt lat="48.85581" lon="2.3863">
        <ele>109.8</ele>
        <time>2015-01-12T20:28:07.797Z</time>
      </trkpt>
      <trkpt lat="48.85587" lon="2.38626">
        <ele>110</ele>
        <time>2015-01-12T20:28:09.313Z</time>
      </trkpt>
      <trkpt lat="48.85593" lon="2.3862">
        <ele>110.3</ele>
        <time>2015-01-12T20:28:09.639Z</time>
      </trkpt>
      <trkpt lat="48.856" lon="2.38613">
        <ele>110.3</ele>
        <time>2015-01-12T20:28:10.647Z</time>
      </trkpt>
      <trkpt lat="48.85609" lon="2.38605">
        <ele>109.5</ele>
        <time>2015-01-12T20:28:11.661Z</time>
      </trkpt>
      <trkpt lat="48.85617" lon="2.38599">
        <ele>109.1</ele>
        <time>2015-01-12T20:28:12.664Z</time>
      </trkpt>
      <trkpt lat="48.85625" lon="2.38593">
        <ele>109</ele>
        <time>2015-01-12T20:28:13.670Z</time>
      </trkpt>
      <trkpt lat="48.85632" lon="2.38589">
        <ele>108.5</ele>
        <time>2015-01-12T20:28:14.587Z</time>
      </trkpt>
      <trkpt lat="48.8564" lon="2.38586">
        <ele>108.3</ele>
        <time>2015-01-12T20:28:15.613Z</time>
      </trkpt>
      <trkpt lat="48.85648" lon="2.38584">
        <ele>108.3</ele>
        <time>2015-01-12T20:28:16.630Z</time>
      </trkpt>
      <trkpt lat="48.85655" lon="2.3858">
        <ele>108.1</ele>
        <time>2015-01-12T20:28:17.636Z</time>
      </trkpt>
      <trkpt lat="48.8566" lon="2.38575">
        <ele>107.7</ele>
        <time>2015-01-12T20:28:18.654Z</time>
      </trkpt>
      <trkpt lat="48.85663" lon="2.38568">
        <ele>107.5</ele>
        <time>2015-01-12T20:28:19.662Z</time>
      </trkpt>
      <trkpt lat="48.85666" lon="2.38562">
        <ele>107.5</ele>
        <time>2015-01-12T20:28:20.677Z</time>
      </trkpt>
      <trkpt lat="48.8567" lon="2.38557">
        <ele>107.3</ele>
        <time>2015-01-12T20:28:21.683Z</time>
      </trkpt>
      <trkpt lat="48.85676" lon="2.38553">
        <ele>107.7</ele>
        <time>2015-01-12T20:28:22.686Z</time>
      </trkpt>
      <trkpt lat="48.8568" lon="2.38549">
        <ele>108.4</ele>
        <time>2015-01-12T20:28:23.697Z</time>
      </trkpt>
      <trkpt lat="48.85684" lon="2.38544">
        <ele>109.1</ele>
        <time>2015-01-12T20:28:24.715Z</time>
      </trkpt>
      <trkpt lat="48.85691" lon="2.38542">
        <ele>109.6</ele>
        <time>2015-01-12T20:28:25.725Z</time>
      </trkpt>
      <trkpt lat="48.85696" lon="2.38537">
        <ele>110</ele>
        <time>2015-01-12T20:28:26.629Z</time>
      </trkpt>
      <trkpt lat="48.85698" lon="2.3853">
        <ele>110.5</ele>
        <time>2015-01-12T20:28:27.640Z</time>
      </trkpt>
      <trkpt lat="48.85702" lon="2.38526">
        <ele>110.4</ele>
        <time>2015-01-12T20:28:28.644Z</time>
      </trkpt>
      <trkpt lat="48.85706" lon="2.38521">
        <ele>110.4</ele>
        <time>2015-01-12T20:28:29.659Z</time>
      </trkpt>
      <trkpt lat="48.85711" lon="2.3851">
        <ele>110.8</ele>
        <time>2015-01-12T20:28:31.681Z</time>
      </trkpt>
      <trkpt lat="48.85714" lon="2.38507">
        <ele>111.2</ele>
        <time>2015-01-12T20:28:32.724Z</time>
      </trkpt>
      <trkpt lat="48.85718" lon="2.385">
        <ele>111.2</ele>
        <time>2015-01-12T20:28:35.624Z</time>
      </trkpt>
      <trkpt lat="48.85721" lon="2.38495">
        <ele>111.8</ele>
        <time>2015-01-12T20:28:36.649Z</time>
      </trkpt>
      <trkpt lat="48.85724" lon="2.38489">
        <ele>112</ele>
        <time>2015-01-12T20:28:37.696Z</time>
      </trkpt>
      <trkpt lat="48.85729" lon="2.38486">
        <ele>111.9</ele>
        <time>2015-01-12T20:28:38.692Z</time>
      </trkpt>
      <trkpt lat="48.85735" lon="2.38483">
        <ele>112.2</ele>
        <time>2015-01-12T20:28:39.737Z</time>
      </trkpt>
      <trkpt lat="48.8574" lon="2.3848">
        <ele>112.4</ele>
        <time>2015-01-12T20:28:40.639Z</time>
      </trkpt>
      <trkpt lat="48.85746" lon="2.38475">
        <ele>112.8</ele>
        <time>2015-01-12T20:28:41.639Z</time>
      </trkpt>
      <trkpt lat="48.85753" lon="2.38472">
        <ele>113.2</ele>
        <time>2015-01-12T20:28:42.643Z</time>
      </trkpt>
      <trkpt lat="48.8576" lon="2.3847">
        <ele>113.6</ele>
        <time>2015-01-12T20:28:43.681Z</time>
      </trkpt>
      <trkpt lat="48.85767" lon="2.38468">
        <ele>113.5</ele>
        <time>2015-01-12T20:28:44.708Z</time>
      </trkpt>
      <trkpt lat="48.85772" lon="2.38461">
        <ele>113.7</ele>
        <time>2015-01-12T20:28:45.647Z</time>
      </trkpt>
      <trkpt lat="48.85776" lon="2.38457">
        <ele>114.3</ele>
        <time>2015-01-12T20:28:46.658Z</time>
      </trkpt>
      <trkpt lat="48.85781" lon="2.38454">
        <ele>114.9</ele>
        <time>2015-01-12T20:28:47.684Z</time>
      </trkpt>
      <trkpt lat="48.85784" lon="2.3845">
        <ele>115.6</ele>
        <time>2015-01-12T20:28:48.666Z</time>
      </trkpt>
      <trkpt lat="48.85787" lon="2.38446">
        <ele>116.2</ele>
        <time>2015-01-12T20:28:49.742Z</time>
      </trkpt>
      <trkpt lat="48.85791" lon="2.38442">
        <ele>116.6</ele>
        <time>2015-01-12T20:28:50.631Z</time>
      </trkpt>
      <trkpt lat="48.85798" lon="2.38435">
        <ele>117.8</ele>
        <time>2015-01-12T20:28:52.627Z</time>
      </trkpt>
      <trkpt lat="48.85803" lon="2.3843">
        <ele>118.4</ele>
        <time>2015-01-12T20:28:53.675Z</time>
      </trkpt>
      <trkpt lat="48.85809" lon="2.38427">
        <ele>118.8</ele>
        <time>2015-01-12T20:28:54.713Z</time>
      </trkpt>
      <trkpt lat="48.85814" lon="2.38425">
        <ele>119.3</ele>
        <time>2015-01-12T20:28:55.721Z</time>
      </trkpt>
      <trkpt lat="48.85819" lon="2.38422">
        <ele>119.6</ele>
        <time>2015-01-12T20:28:56.631Z</time>
      </trkpt>
      <trkpt lat="48.85825" lon="2.38416">
        <ele>120.1</ele>
        <time>2015-01-12T20:28:57.632Z</time>
      </trkpt>
      <trkpt lat="48.85828" lon="2.3841">
        <ele>120.6</ele>
        <time>2015-01-12T20:28:58.646Z</time>
      </trkpt>
      <trkpt lat="48.85831" lon="2.38403">
        <ele>120.7</ele>
        <time>2015-01-12T20:28:59.660Z</time>
      </trkpt>
      <trkpt lat="48.85831" lon="2.38394">
        <ele>120.4</ele>
        <time>2015-01-12T20:29:16.676Z</time>
      </trkpt>
      <trkpt lat="48.85847" lon="2.38366">
        <ele>117.6</ele>
        <time>2015-01-12T20:29:17.731Z</time>
      </trkpt>
      <trkpt lat="48.85853" lon="2.38364">
        <ele>117</ele>
        <time>2015-01-12T20:29:19.648Z</time>
      </trkpt>
      <trkpt lat="48.85857" lon="2.38362">
        <ele>117.3</ele>
        <time>2015-01-12T20:29:20.659Z</time>
      </trkpt>
      <trkpt lat="48.85864" lon="2.3836">
        <ele>117.2</ele>
        <time>2015-01-12T20:29:22.679Z</time>
      </trkpt>
      <trkpt lat="48.8587" lon="2.38359">
        <ele>117.4</ele>
        <time>2015-01-12T20:29:23.715Z</time>
      </trkpt>
      <trkpt lat="48.85875" lon="2.38357">
        <ele>117.6</ele>
        <time>2015-01-12T20:29:24.666Z</time>
      </trkpt>
      <trkpt lat="48.8588" lon="2.38355">
        <ele>117.7</ele>
        <time>2015-01-12T20:29:25.683Z</time>
      </trkpt>
      <trkpt lat="48.85885" lon="2.38354">
        <ele>117.9</ele>
        <time>2015-01-12T20:29:26.786Z</time>
      </trkpt>
      <trkpt lat="48.85891" lon="2.38353">
        <ele>118.1</ele>
        <time>2015-01-12T20:29:27.664Z</time>
      </trkpt>
      <trkpt lat="48.85897" lon="2.38353">
        <ele>118.6</ele>
        <time>2015-01-12T20:29:28.679Z</time>
      </trkpt>
      <trkpt lat="48.85903" lon="2.3835">
        <ele>118.8</ele>
        <time>2015-01-12T20:29:29.845Z</time>
      </trkpt>
      <trkpt lat="48.85907" lon="2.38345">
        <ele>118.7</ele>
        <time>2015-01-12T20:29:30.673Z</time>
      </trkpt>
      <trkpt lat="48.85911" lon="2.38341">
        <ele>118.7</ele>
        <time>2015-01-12T20:29:31.685Z</time>
      </trkpt>
      <trkpt lat="48.85916" lon="2.38338">
        <ele>118.9</ele>
        <time>2015-01-12T20:29:32.606Z</time>
      </trkpt>
      <trkpt lat="48.85919" lon="2.38334">
        <ele>118.6</ele>
        <time>2015-01-12T20:29:33.644Z</time>
      </trkpt>
      <trkpt lat="48.85924" lon="2.38331">
        <ele>118.6</ele>
        <time>2015-01-12T20:29:34.690Z</time>
      </trkpt>
      <trkpt lat="48.85927" lon="2.38326">
        <ele>118.3</ele>
        <time>2015-01-12T20:29:35.698Z</time>
      </trkpt>
      <trkpt lat="48.8593" lon="2.38321">
        <ele>118.1</ele>
        <time>2015-01-12T20:29:36.592Z</time>
      </trkpt>
      <trkpt lat="48.85933" lon="2.38316">
        <ele>117.7</ele>
        <time>2015-01-12T20:29:37.629Z</time>
      </trkpt>
      <trkpt lat="48.85936" lon="2.38305">
        <ele>115.7</ele>
        <time>2015-01-12T20:29:38.660Z</time>
      </trkpt>
      <trkpt lat="48.85939" lon="2.38299">
        <ele>115.2</ele>
        <time>2015-01-12T20:29:39.674Z</time>
      </trkpt>
      <trkpt lat="48.85942" lon="2.38294">
        <ele>114.9</ele>
        <time>2015-01-12T20:29:40.720Z</time>
      </trkpt>
      <trkpt lat="48.85946" lon="2.38289">
        <ele>114.5</ele>
        <time>2015-01-12T20:29:41.623Z</time>
      </trkpt>
      <trkpt lat="48.85952" lon="2.3828">
        <ele>114</ele>
        <time>2015-01-12T20:29:43.663Z</time>
      </trkpt>
      <trkpt lat="48.85955" lon="2.38274">
        <ele>114.2</ele>
        <time>2015-01-12T20:29:44.667Z</time>
      </trkpt>
      <trkpt lat="48.85959" lon="2.38268">
        <ele>114.1</ele>
        <time>2015-01-12T20:29:45.814Z</time>
      </trkpt>
      <trkpt lat="48.85962" lon="2.38263">
        <ele>114</ele>
        <time>2015-01-12T20:29:46.643Z</time>
      </trkpt>
      <trkpt lat="48.85966" lon="2.38259">
        <ele>114.1</ele>
        <time>2015-01-12T20:29:47.639Z</time>
      </trkpt>
      <trkpt lat="48.8597" lon="2.38255">
        <ele>114.1</ele>
        <time>2015-01-12T20:29:48.644Z</time>
      </trkpt>
      <trkpt lat="48.85975" lon="2.38245">
        <ele>114</ele>
        <time>2015-01-12T20:29:50.719Z</time>
      </trkpt>
      <trkpt lat="48.85979" lon="2.38241">
        <ele>113.7</ele>
        <time>2015-01-12T20:29:51.685Z</time>
      </trkpt>
      <trkpt lat="48.85985" lon="2.38232">
        <ele>114</ele>
        <time>2015-01-12T20:29:53.629Z</time>
      </trkpt>
      <trkpt lat="48.85989" lon="2.38228">
        <ele>114.3</ele>
        <time>2015-01-12T20:29:54.643Z</time>
      </trkpt>
      <trkpt lat="48.85994" lon="2.38228">
        <ele>114.2</ele>
        <time>2015-01-12T20:29:55.673Z</time>
      </trkpt>
      <trkpt lat="48.86" lon="2.38228">
        <ele>113.8</ele>
        <time>2015-01-12T20:29:56.673Z</time>
      </trkpt>
      <trkpt lat="48.86004" lon="2.38226">
        <ele>113.8</ele>
        <time>2015-01-12T20:29:57.677Z</time>
      </trkpt>
      <trkpt lat="48.86008" lon="2.38222">
        <ele>113.5</ele>
        <time>2015-01-12T20:29:58.687Z</time>
      </trkpt>
      <trkpt lat="48.86014" lon="2.38214">
        <ele>113.7</ele>
        <time>2015-01-12T20:30:00.597Z</time>
      </trkpt>
      <trkpt lat="48.86018" lon="2.38211">
        <ele>113.7</ele>
        <time>2015-01-12T20:30:01.725Z</time>
      </trkpt>
      <trkpt lat="48.86022" lon="2.38209">
        <ele>113.9</ele>
        <time>2015-01-12T20:30:02.598Z</time>
      </trkpt>
      <trkpt lat="48.86027" lon="2.38207">
        <ele>113.8</ele>
        <time>2015-01-12T20:30:03.598Z</time>
      </trkpt>
      <trkpt lat="48.86031" lon="2.38203">
        <ele>113.8</ele>
        <time>2015-01-12T20:30:04.621Z</time>
      </trkpt>
      <trkpt lat="48.86037" lon="2.38199">
        <ele>113.8</ele>
        <time>2015-01-12T20:30:05.642Z</time>
      </trkpt>
      <trkpt lat="48.86043" lon="2.38195">
        <ele>113.8</ele>
        <time>2015-01-12T20:30:06.659Z</time>
      </trkpt>
      <trkpt lat="48.86049" lon="2.3819">
        <ele>113.8</ele>
        <time>2015-01-12T20:30:07.673Z</time>
      </trkpt>
      <trkpt lat="48.86054" lon="2.38185">
        <ele>114.1</ele>
        <time>2015-01-12T20:30:08.592Z</time>
      </trkpt>
      <trkpt lat="48.86058" lon="2.3818">
        <ele>114</ele>
        <time>2015-01-12T20:30:09.595Z</time>
      </trkpt>
      <trkpt lat="48.86064" lon="2.38174">
        <ele>114</ele>
        <time>2015-01-12T20:30:10.647Z</time>
      </trkpt>
      <trkpt lat="48.86069" lon="2.38169">
        <ele>114.1</ele>
        <time>2015-01-12T20:30:11.652Z</time>
      </trkpt>
      <trkpt lat="48.86074" lon="2.38163">
        <ele>114.1</ele>
        <time>2015-01-12T20:30:12.823Z</time>
      </trkpt>
      <trkpt lat="48.86079" lon="2.3816">
        <ele>114.2</ele>
        <time>2015-01-12T20:30:13.756Z</time>
      </trkpt>
      <trkpt lat="48.86084" lon="2.38157">
        <ele>114.2</ele>
        <time>2015-01-12T20:30:14.618Z</time>
      </trkpt>
      <trkpt lat="48.86088" lon="2.38154">
        <ele>114.2</ele>
        <time>2015-01-12T20:30:15.613Z</time>
      </trkpt>
      <trkpt lat="48.86093" lon="2.38153">
        <ele>114.2</ele>
        <time>2015-01-12T20:30:16.621Z</time>
      </trkpt>
      <trkpt lat="48.86097" lon="2.3815">
        <ele>114</ele>
        <time>2015-01-12T20:30:17.629Z</time>
      </trkpt>
      <trkpt lat="48.86103" lon="2.38141">
        <ele>113.1</ele>
        <time>2015-01-12T20:30:19.664Z</time>
      </trkpt>
      <trkpt lat="48.86108" lon="2.38135">
        <ele>112.9</ele>
        <time>2015-01-12T20:30:20.693Z</time>
      </trkpt>
      <trkpt lat="48.86114" lon="2.38131">
        <ele>112.5</ele>
        <time>2015-01-12T20:30:21.733Z</time>
      </trkpt>
      <trkpt lat="48.86118" lon="2.38127">
        <ele>112.1</ele>
        <time>2015-01-12T20:30:22.811Z</time>
      </trkpt>
      <trkpt lat="48.86123" lon="2.38116">
        <ele>111.7</ele>
        <time>2015-01-12T20:30:24.637Z</time>
      </trkpt>
      <trkpt lat="48.86125" lon="2.3811">
        <ele>111.8</ele>
        <time>2015-01-12T20:30:25.775Z</time>
      </trkpt>
      <trkpt lat="48.86129" lon="2.38102">
        <ele>111.6</ele>
        <time>2015-01-12T20:30:26.627Z</time>
      </trkpt>
      <trkpt lat="48.86133" lon="2.38095">
        <ele>111.5</ele>
        <time>2015-01-12T20:30:27.631Z</time>
      </trkpt>
      <trkpt lat="48.86137" lon="2.38086">
        <ele>111.1</ele>
        <time>2015-01-12T20:30:28.663Z</time>
      </trkpt>
      <trkpt lat="48.86143" lon="2.38077">
        <ele>111.2</ele>
        <time>2015-01-12T20:30:29.670Z</time>
      </trkpt>
      <trkpt lat="48.86148" lon="2.38071">
        <ele>110.8</ele>
        <time>2015-01-12T20:30:30.980Z</time>
      </trkpt>
      <trkpt lat="48.86154" lon="2.38066">
        <ele>110.6</ele>
        <time>2015-01-12T20:30:31.688Z</time>
      </trkpt>
      <trkpt lat="48.86157" lon="2.38059">
        <ele>110.8</ele>
        <time>2015-01-12T20:30:32.696Z</time>
      </trkpt>
      <trkpt lat="48.86162" lon="2.38051">
        <ele>110.9</ele>
        <time>2015-01-12T20:30:33.706Z</time>
      </trkpt>
      <trkpt lat="48.86167" lon="2.38045">
        <ele>111.6</ele>
        <time>2015-01-12T20:30:34.624Z</time>
      </trkpt>
      <trkpt lat="48.86171" lon="2.38038">
        <ele>112</ele>
        <time>2015-01-12T20:30:35.623Z</time>
      </trkpt>
      <trkpt lat="48.86175" lon="2.38032">
        <ele>112.4</ele>
        <time>2015-01-12T20:30:36.641Z</time>
      </trkpt>
      <trkpt lat="48.8618" lon="2.38026">
        <ele>112.6</ele>
        <time>2015-01-12T20:30:37.664Z</time>
      </trkpt>
      <trkpt lat="48.86185" lon="2.38021">
        <ele>112.8</ele>
        <time>2015-01-12T20:30:38.664Z</time>
      </trkpt>
      <trkpt lat="48.86189" lon="2.38015">
        <ele>112.6</ele>
        <time>2015-01-12T20:30:39.671Z</time>
      </trkpt>
      <trkpt lat="48.86195" lon="2.38009">
        <ele>112.4</ele>
        <time>2015-01-12T20:30:40.681Z</time>
      </trkpt>
      <trkpt lat="48.86199" lon="2.38004">
        <ele>112.4</ele>
        <time>2015-01-12T20:30:41.713Z</time>
      </trkpt>
      <trkpt lat="48.86204" lon="2.38001">
        <ele>112.6</ele>
        <time>2015-01-12T20:30:42.638Z</time>
      </trkpt>
      <trkpt lat="48.86209" lon="2.37997">
        <ele>112.7</ele>
        <time>2015-01-12T20:30:43.665Z</time>
      </trkpt>
      <trkpt lat="48.86215" lon="2.37994">
        <ele>112.5</ele>
        <time>2015-01-12T20:30:44.662Z</time>
      </trkpt>
      <trkpt lat="48.8622" lon="2.3799">
        <ele>112.6</ele>
        <time>2015-01-12T20:30:45.722Z</time>
      </trkpt>
      <trkpt lat="48.86226" lon="2.37986">
        <ele>112.4</ele>
        <time>2015-01-12T20:30:46.637Z</time>
      </trkpt>
      <trkpt lat="48.86233" lon="2.37986">
        <ele>111.3</ele>
        <time>2015-01-12T20:30:47.655Z</time>
      </trkpt>
      <trkpt lat="48.86241" lon="2.37987">
        <ele>111</ele>
        <time>2015-01-12T20:30:48.681Z</time>
      </trkpt>
      <trkpt lat="48.86248" lon="2.37983">
        <ele>111</ele>
        <time>2015-01-12T20:30:49.696Z</time>
      </trkpt>
      <trkpt lat="48.86254" lon="2.37979">
        <ele>111.1</ele>
        <time>2015-01-12T20:30:50.630Z</time>
      </trkpt>
      <trkpt lat="48.8626" lon="2.37977">
        <ele>111.1</ele>
        <time>2015-01-12T20:30:51.625Z</time>
      </trkpt>
      <trkpt lat="48.86264" lon="2.37973">
        <ele>111.1</ele>
        <time>2015-01-12T20:30:52.627Z</time>
      </trkpt>
      <trkpt lat="48.86268" lon="2.37969">
        <ele>111.1</ele>
        <time>2015-01-12T20:30:53.640Z</time>
      </trkpt>
      <trkpt lat="48.86273" lon="2.37963">
        <ele>111.7</ele>
        <time>2015-01-12T20:30:55.673Z</time>
      </trkpt>
      <trkpt lat="48.86278" lon="2.3796">
        <ele>112.2</ele>
        <time>2015-01-12T20:30:56.680Z</time>
      </trkpt>
      <trkpt lat="48.86283" lon="2.3795">
        <ele>112.9</ele>
        <time>2015-01-12T20:30:59.653Z</time>
      </trkpt>
      <trkpt lat="48.86286" lon="2.37948">
        <ele>112.7</ele>
        <time>2015-01-12T20:31:00.647Z</time>
      </trkpt>
      <trkpt lat="48.86289" lon="2.37941">
        <ele>113</ele>
        <time>2015-01-12T20:31:05.684Z</time>
      </trkpt>
      <trkpt lat="48.86295" lon="2.37932">
        <ele>112.8</ele>
        <time>2015-01-12T20:31:06.729Z</time>
      </trkpt>
      <trkpt lat="48.86299" lon="2.37922">
        <ele>114.4</ele>
        <time>2015-01-12T20:31:21.635Z</time>
      </trkpt>
      <trkpt lat="48.86308" lon="2.37916">
        <ele>114.7</ele>
        <time>2015-01-12T20:31:22.701Z</time>
      </trkpt>
      <trkpt lat="48.86308" lon="2.37916">
        <ele>114.7</ele>
        <time>2015-01-12T20:31:23.053Z</time>
      </trkpt>
      <trkpt lat="48.86317" lon="2.3791">
        <ele>115.1</ele>
        <time>2015-01-12T20:31:23.746Z</time>
      </trkpt>
      <trkpt lat="48.86326" lon="2.37904">
        <ele>115.5</ele>
        <time>2015-01-12T20:31:24.662Z</time>
      </trkpt>
      <trkpt lat="48.86336" lon="2.37898">
        <ele>115.6</ele>
        <time>2015-01-12T20:31:25.697Z</time>
      </trkpt>
      <trkpt lat="48.86347" lon="2.37898">
        <ele>115.6</ele>
        <time>2015-01-12T20:31:26.594Z</time>
      </trkpt>
      <trkpt lat="48.86355" lon="2.37901">
        <ele>115.6</ele>
        <time>2015-01-12T20:31:28.548Z</time>
      </trkpt>
      <trkpt lat="48.86364" lon="2.37891">
        <ele>114.8</ele>
        <time>2015-01-12T20:31:28.697Z</time>
      </trkpt>
      <trkpt lat="48.86369" lon="2.37885">
        <ele>115.3</ele>
        <time>2015-01-12T20:31:29.629Z</time>
      </trkpt>
      <trkpt lat="48.86374" lon="2.3788">
        <ele>115.7</ele>
        <time>2015-01-12T20:31:30.627Z</time>
      </trkpt>
      <trkpt lat="48.86385" lon="2.37868">
        <ele>114.2</ele>
        <time>2015-01-12T20:31:31.650Z</time>
      </trkpt>
      <trkpt lat="48.86397" lon="2.37852">
        <ele>110.6</ele>
        <time>2015-01-12T20:31:32.664Z</time>
      </trkpt>
      <trkpt lat="48.86408" lon="2.37837">
        <ele>107.5</ele>
        <time>2015-01-12T20:31:33.687Z</time>
      </trkpt>
      <trkpt lat="48.86419" lon="2.37826">
        <ele>107.3</ele>
        <time>2015-01-12T20:31:34.709Z</time>
      </trkpt>
      <trkpt lat="48.8643" lon="2.37813">
        <ele>105.8</ele>
        <time>2015-01-12T20:31:35.647Z</time>
      </trkpt>
      <trkpt lat="48.86437" lon="2.37805">
        <ele>104.2</ele>
        <time>2015-01-12T20:31:36.695Z</time>
      </trkpt>
      <trkpt lat="48.86442" lon="2.37801">
        <ele>105</ele>
        <time>2015-01-12T20:31:37.696Z</time>
      </trkpt>
      <trkpt lat="48.86445" lon="2.37797">
        <ele>106.2</ele>
        <time>2015-01-12T20:31:38.710Z</time>
      </trkpt>
      <trkpt lat="48.86448" lon="2.37791">
        <ele>107.7</ele>
        <time>2015-01-12T20:33:16.623Z</time>
      </trkpt>
      <trkpt lat="48.86466" lon="2.37783">
        <ele>128.8</ele>
        <time>2015-01-12T20:33:17.628Z</time>
      </trkpt>
      <trkpt lat="48.86473" lon="2.37785">
        <ele>129</ele>
        <time>2015-01-12T20:33:20.680Z</time>
      </trkpt>
      <trkpt lat="48.86477" lon="2.37783">
        <ele>129</ele>
        <time>2015-01-12T20:33:21.702Z</time>
      </trkpt>
      <trkpt lat="48.86481" lon="2.37782">
        <ele>128.8</ele>
        <time>2015-01-12T20:33:22.592Z</time>
      </trkpt>
      <trkpt lat="48.86487" lon="2.37779">
        <ele>128.2</ele>
        <time>2015-01-12T20:33:23.623Z</time>
      </trkpt>
      <trkpt lat="48.86492" lon="2.37774">
        <ele>127.4</ele>
        <time>2015-01-12T20:33:25.671Z</time>
      </trkpt>
      <trkpt lat="48.86494" lon="2.37769">
        <ele>127.2</ele>
        <time>2015-01-12T20:33:26.668Z</time>
      </trkpt>
      <trkpt lat="48.86501" lon="2.37761">
        <ele>126.2</ele>
        <time>2015-01-12T20:33:28.626Z</time>
      </trkpt>
      <trkpt lat="48.86504" lon="2.37759">
        <ele>125.9</ele>
        <time>2015-01-12T20:33:29.641Z</time>
      </trkpt>
      <trkpt lat="48.86512" lon="2.3776">
        <ele>125.1</ele>
        <time>2015-01-12T20:33:32.614Z</time>
      </trkpt>
      <trkpt lat="48.86518" lon="2.37761">
        <ele>125</ele>
        <time>2015-01-12T20:33:33.611Z</time>
      </trkpt>
      <trkpt lat="48.86525" lon="2.37759">
        <ele>124.7</ele>
        <time>2015-01-12T20:33:35.637Z</time>
      </trkpt>
      <trkpt lat="48.8653" lon="2.37758">
        <ele>124.9</ele>
        <time>2015-01-12T20:33:36.771Z</time>
      </trkpt>
      <trkpt lat="48.86537" lon="2.37757">
        <ele>124.6</ele>
        <time>2015-01-12T20:33:38.608Z</time>
      </trkpt>
      <trkpt lat="48.86541" lon="2.37756">
        <ele>124.5</ele>
        <time>2015-01-12T20:33:39.638Z</time>
      </trkpt>
      <trkpt lat="48.86546" lon="2.37755">
        <ele>123.6</ele>
        <time>2015-01-12T20:33:40.649Z</time>
      </trkpt>
      <trkpt lat="48.8655" lon="2.37747">
        <ele>121.3</ele>
        <time>2015-01-12T20:33:41.655Z</time>
      </trkpt>
      <trkpt lat="48.86556" lon="2.37738">
        <ele>118.3</ele>
        <time>2015-01-12T20:33:43.708Z</time>
      </trkpt>
      <trkpt lat="48.86558" lon="2.37737">
        <ele>117.8</ele>
        <time>2015-01-12T20:33:44.626Z</time>
      </trkpt>
      <trkpt lat="48.86565" lon="2.37731">
        <ele>117.6</ele>
        <time>2015-01-12T20:33:48.693Z</time>
      </trkpt>
      <trkpt lat="48.86568" lon="2.37729">
        <ele>117.6</ele>
        <time>2015-01-12T20:33:49.682Z</time>
      </trkpt>
      <trkpt lat="48.86575" lon="2.37722">
        <ele>117.8</ele>
        <time>2015-01-12T20:33:51.635Z</time>
      </trkpt>
      <trkpt lat="48.86579" lon="2.37717">
        <ele>117.9</ele>
        <time>2015-01-12T20:33:52.649Z</time>
      </trkpt>
      <trkpt lat="48.86582" lon="2.37713">
        <ele>117.7</ele>
        <time>2015-01-12T20:33:53.671Z</time>
      </trkpt>
      <trkpt lat="48.86585" lon="2.37707">
        <ele>117.2</ele>
        <time>2015-01-12T20:33:54.687Z</time>
      </trkpt>
      <trkpt lat="48.86589" lon="2.377">
        <ele>117</ele>
        <time>2015-01-12T20:33:55.687Z</time>
      </trkpt>
      <trkpt lat="48.86594" lon="2.37694">
        <ele>117</ele>
        <time>2015-01-12T20:33:56.702Z</time>
      </trkpt>
      <trkpt lat="48.86599" lon="2.37689">
        <ele>116.9</ele>
        <time>2015-01-12T20:33:57.750Z</time>
      </trkpt>
      <trkpt lat="48.86602" lon="2.37684">
        <ele>116.9</ele>
        <time>2015-01-12T20:33:58.618Z</time>
      </trkpt>
      <trkpt lat="48.86606" lon="2.3768">
        <ele>117.1</ele>
        <time>2015-01-12T20:33:59.645Z</time>
      </trkpt>
      <trkpt lat="48.86611" lon="2.37677">
        <ele>117.3</ele>
        <time>2015-01-12T20:34:00.665Z</time>
      </trkpt>
      <trkpt lat="48.8662" lon="2.37675">
        <ele>118</ele>
        <time>2015-01-12T20:34:02.628Z</time>
      </trkpt>
      <trkpt lat="48.86623" lon="2.37674">
        <ele>118.2</ele>
        <time>2015-01-12T20:34:03.649Z</time>
      </trkpt>
      <trkpt lat="48.86628" lon="2.37664">
        <ele>118.3</ele>
        <time>2015-01-12T20:34:06.958Z</time>
      </trkpt>
      <trkpt lat="48.86631" lon="2.3766">
        <ele>118.5</ele>
        <time>2015-01-12T20:34:07.698Z</time>
      </trkpt>
      <trkpt lat="48.86638" lon="2.37654">
        <ele>118.6</ele>
        <time>2015-01-12T20:34:10.611Z</time>
      </trkpt>
      <trkpt lat="48.86641" lon="2.37653">
        <ele>118.6</ele>
        <time>2015-01-12T20:34:11.625Z</time>
      </trkpt>
      <trkpt lat="48.86646" lon="2.37652">
        <ele>118.5</ele>
        <time>2015-01-12T20:34:12.640Z</time>
      </trkpt>
      <trkpt lat="48.86653" lon="2.37651">
        <ele>118.5</ele>
        <time>2015-01-12T20:34:13.662Z</time>
      </trkpt>
      <trkpt lat="48.86662" lon="2.37649">
        <ele>118.6</ele>
        <time>2015-01-12T20:34:14.670Z</time>
      </trkpt>
      <trkpt lat="48.8667" lon="2.37647">
        <ele>118.6</ele>
        <time>2015-01-12T20:34:15.639Z</time>
      </trkpt>
      <trkpt lat="48.86677" lon="2.37645">
        <ele>118.7</ele>
        <time>2015-01-12T20:34:17.084Z</time>
      </trkpt>
      <trkpt lat="48.86681" lon="2.37643">
        <ele>118.8</ele>
        <time>2015-01-12T20:34:17.733Z</time>
      </trkpt>
      <trkpt lat="48.86687" lon="2.37638">
        <ele>119</ele>
        <time>2015-01-12T20:34:19.661Z</time>
      </trkpt>
      <trkpt lat="48.86689" lon="2.37637">
        <ele>119.4</ele>
        <time>2015-01-12T20:34:20.795Z</time>
      </trkpt>
      <trkpt lat="48.86696" lon="2.37631">
        <ele>119</ele>
        <time>2015-01-12T20:34:22.629Z</time>
      </trkpt>
      <trkpt lat="48.86698" lon="2.37625">
        <ele>118.9</ele>
        <time>2015-01-12T20:34:23.654Z</time>
      </trkpt>
      <trkpt lat="48.86702" lon="2.37621">
        <ele>119</ele>
        <time>2015-01-12T20:34:25.684Z</time>
      </trkpt>
      <trkpt lat="48.86706" lon="2.37615">
        <ele>116.1</ele>
        <time>2015-01-12T20:34:26.713Z</time>
      </trkpt>
      <trkpt lat="48.86711" lon="2.37607">
        <ele>113.9</ele>
        <time>2015-01-12T20:34:27.730Z</time>
      </trkpt>
      <trkpt lat="48.86714" lon="2.37604">
        <ele>114</ele>
        <time>2015-01-12T20:34:28.727Z</time>
      </trkpt>
      <trkpt lat="48.86721" lon="2.376">
        <ele>114.4</ele>
        <time>2015-01-12T20:34:30.659Z</time>
      </trkpt>
      <trkpt lat="48.86725" lon="2.37597">
        <ele>114.1</ele>
        <time>2015-01-12T20:34:31.692Z</time>
      </trkpt>
      <trkpt lat="48.86732" lon="2.37594">
        <ele>113.6</ele>
        <time>2015-01-12T20:34:32.728Z</time>
      </trkpt>
      <trkpt lat="48.86736" lon="2.37589">
        <ele>113.1</ele>
        <time>2015-01-12T20:34:33.702Z</time>
      </trkpt>
      <trkpt lat="48.86741" lon="2.37582">
        <ele>113.2</ele>
        <time>2015-01-12T20:34:34.657Z</time>
      </trkpt>
      <trkpt lat="48.86743" lon="2.37577">
        <ele>113.2</ele>
        <time>2015-01-12T20:34:35.665Z</time>
      </trkpt>
      <trkpt lat="48.86746" lon="2.37566">
        <ele>112.5</ele>
        <time>2015-01-12T20:34:50.706Z</time>
      </trkpt>
      <trkpt lat="48.86779" lon="2.37542">
        <ele>115</ele>
        <time>2015-01-12T20:34:51.728Z</time>
      </trkpt>
      <trkpt lat="48.86787" lon="2.37537">
        <ele>114.8</ele>
        <time>2015-01-12T20:34:52.635Z</time>
      </trkpt>
      <trkpt lat="48.86796" lon="2.37534">
        <ele>114.7</ele>
        <time>2015-01-12T20:34:54.706Z</time>
      </trkpt>
      <trkpt lat="48.86803" lon="2.37532">
        <ele>114.3</ele>
        <time>2015-01-12T20:34:54.748Z</time>
      </trkpt>
      <trkpt lat="48.86811" lon="2.37525">
        <ele>113.9</ele>
        <time>2015-01-12T20:34:56.718Z</time>
      </trkpt>
      <trkpt lat="48.86815" lon="2.37512">
        <ele>111.4</ele>
        <time>2015-01-12T20:34:57.634Z</time>
      </trkpt>
      <trkpt lat="48.8682" lon="2.37504">
        <ele>109.8</ele>
        <time>2015-01-12T20:34:58.639Z</time>
      </trkpt>
      <trkpt lat="48.86824" lon="2.375">
        <ele>109.7</ele>
        <time>2015-01-12T20:34:59.658Z</time>
      </trkpt>
      <trkpt lat="48.86829" lon="2.37493">
        <ele>109.9</ele>
        <time>2015-01-12T20:35:02.097Z</time>
      </trkpt>
      <trkpt lat="48.86832" lon="2.37489">
        <ele>110.2</ele>
        <time>2015-01-12T20:35:02.704Z</time>
      </trkpt>
      <trkpt lat="48.86836" lon="2.37485">
        <ele>110.4</ele>
        <time>2015-01-12T20:35:03.603Z</time>
      </trkpt>
      <trkpt lat="48.86839" lon="2.37481">
        <ele>110.5</ele>
        <time>2015-01-12T20:35:04.639Z</time>
      </trkpt>
      <trkpt lat="48.86843" lon="2.37479">
        <ele>110.7</ele>
        <time>2015-01-12T20:35:05.688Z</time>
      </trkpt>
      <trkpt lat="48.86849" lon="2.37477">
        <ele>110.9</ele>
        <time>2015-01-12T20:35:06.694Z</time>
      </trkpt>
      <trkpt lat="48.86855" lon="2.37476">
        <ele>111</ele>
        <time>2015-01-12T20:35:07.709Z</time>
      </trkpt>
      <trkpt lat="48.86862" lon="2.37474">
        <ele>111</ele>
        <time>2015-01-12T20:35:08.654Z</time>
      </trkpt>
      <trkpt lat="48.86867" lon="2.3747">
        <ele>110.8</ele>
        <time>2015-01-12T20:35:09.637Z</time>
      </trkpt>
      <trkpt lat="48.86872" lon="2.37467">
        <ele>110.7</ele>
        <time>2015-01-12T20:35:10.654Z</time>
      </trkpt>
      <trkpt lat="48.86877" lon="2.37462">
        <ele>110.7</ele>
        <time>2015-01-12T20:35:11.666Z</time>
      </trkpt>
      <trkpt lat="48.8688" lon="2.37457">
        <ele>110.8</ele>
        <time>2015-01-12T20:35:12.672Z</time>
      </trkpt>
      <trkpt lat="48.86883" lon="2.37448">
        <ele>110.6</ele>
        <time>2015-01-12T20:35:14.683Z</time>
      </trkpt>
      <trkpt lat="48.86882" lon="2.37443">
        <ele>110.2</ele>
        <time>2015-01-12T20:35:15.708Z</time>
      </trkpt>
      <trkpt lat="48.86889" lon="2.37438">
        <ele>108.3</ele>
        <time>2015-01-12T20:35:19.701Z</time>
      </trkpt>
      <trkpt lat="48.86893" lon="2.37432">
        <ele>108.2</ele>
        <time>2015-01-12T20:35:20.716Z</time>
      </trkpt>
      <trkpt lat="48.86898" lon="2.37422">
        <ele>108.5</ele>
        <time>2015-01-12T20:35:22.635Z</time>
      </trkpt>
      <trkpt lat="48.86899" lon="2.37415">
        <ele>108.4</ele>
        <time>2015-01-12T20:35:23.661Z</time>
      </trkpt>
      <trkpt lat="48.86901" lon="2.37413">
        <ele>108.6</ele>
        <time>2015-01-12T20:35:24.718Z</time>
      </trkpt>
      <trkpt lat="48.86903" lon="2.37413">
        <ele>108.7</ele>
        <time>2015-01-12T20:35:40.138Z</time>
      </trkpt>
      <trkpt lat="48.86936" lon="2.37402">
        <ele>108.4</ele>
        <time>2015-01-12T20:35:40.706Z</time>
      </trkpt>
      <trkpt lat="48.86943" lon="2.37398">
        <ele>109.9</ele>
        <time>2015-01-12T20:35:45.256Z</time>
      </trkpt>
      <trkpt lat="48.86945" lon="2.37395">
        <ele>110.3</ele>
        <time>2015-01-12T20:35:45.637Z</time>
      </trkpt>
      <trkpt lat="48.8695" lon="2.37387">
        <ele>111.6</ele>
        <time>2015-01-12T20:35:47.659Z</time>
      </trkpt>
      <trkpt lat="48.86953" lon="2.37382">
        <ele>111.7</ele>
        <time>2015-01-12T20:35:48.687Z</time>
      </trkpt>
      <trkpt lat="48.86962" lon="2.37378">
        <ele>111.8</ele>
        <time>2015-01-12T20:35:50.628Z</time>
      </trkpt>
      <trkpt lat="48.86966" lon="2.37378">
        <ele>111.8</ele>
        <time>2015-01-12T20:35:51.680Z</time>
      </trkpt>
      <trkpt lat="48.86975" lon="2.37379">
        <ele>111.9</ele>
        <time>2015-01-12T20:35:53.589Z</time>
      </trkpt>
      <trkpt lat="48.86978" lon="2.37378">
        <ele>112.1</ele>
        <time>2015-01-12T20:35:54.640Z</time>
      </trkpt>
      <trkpt lat="48.86981" lon="2.37375">
        <ele>112.4</ele>
        <time>2015-01-12T20:35:55.661Z</time>
      </trkpt>
      <trkpt lat="48.86985" lon="2.37367">
        <ele>112.5</ele>
        <time>2015-01-12T20:35:56.664Z</time>
      </trkpt>
      <trkpt lat="48.86991" lon="2.37358">
        <ele>112.4</ele>
        <time>2015-01-12T20:35:57.595Z</time>
      </trkpt>
      <trkpt lat="48.86995" lon="2.37349">
        <ele>112.8</ele>
        <time>2015-01-12T20:35:58.612Z</time>
      </trkpt>
      <trkpt lat="48.86999" lon="2.37341">
        <ele>113.1</ele>
        <time>2015-01-12T20:35:59.692Z</time>
      </trkpt>
      <trkpt lat="48.87001" lon="2.37335">
        <ele>113.4</ele>
        <time>2015-01-12T20:36:00.589Z</time>
      </trkpt>
      <trkpt lat="48.87007" lon="2.37329">
        <ele>113.5</ele>
        <time>2015-01-12T20:36:02.587Z</time>
      </trkpt>
      <trkpt lat="48.8701" lon="2.37324">
        <ele>113.9</ele>
        <time>2015-01-12T20:36:03.607Z</time>
      </trkpt>
      <trkpt lat="48.87013" lon="2.37313">
        <ele>114.2</ele>
        <time>2015-01-12T20:36:05.608Z</time>
      </trkpt>
      <trkpt lat="48.87014" lon="2.37308">
        <ele>114.4</ele>
        <time>2015-01-12T20:36:06.620Z</time>
      </trkpt>
      <trkpt lat="48.87022" lon="2.37301">
        <ele>114.3</ele>
        <time>2015-01-12T20:36:09.637Z</time>
      </trkpt>
      <trkpt lat="48.87026" lon="2.373">
        <ele>113</ele>
        <time>2015-01-12T20:36:10.621Z</time>
      </trkpt>
      <trkpt lat="48.87032" lon="2.37297">
        <ele>111.8</ele>
        <time>2015-01-12T20:36:11.713Z</time>
      </trkpt>
      <trkpt lat="48.8704" lon="2.37294">
        <ele>111.9</ele>
        <time>2015-01-12T20:36:12.727Z</time>
      </trkpt>
      <trkpt lat="48.87048" lon="2.37292">
        <ele>113</ele>
        <time>2015-01-12T20:36:14.705Z</time>
      </trkpt>
      <trkpt lat="48.87051" lon="2.3729">
        <ele>113.7</ele>
        <time>2015-01-12T20:36:15.701Z</time>
      </trkpt>
      <trkpt lat="48.87057" lon="2.37286">
        <ele>115.1</ele>
        <time>2015-01-12T20:36:17.621Z</time>
      </trkpt>
      <trkpt lat="48.87061" lon="2.37283">
        <ele>115.8</ele>
        <time>2015-01-12T20:36:18.629Z</time>
      </trkpt>
      <trkpt lat="48.87068" lon="2.37278">
        <ele>116.4</ele>
        <time>2015-01-12T20:36:19.675Z</time>
      </trkpt>
      <trkpt lat="48.87073" lon="2.37277">
        <ele>116.9</ele>
        <time>2015-01-12T20:36:20.667Z</time>
      </trkpt>
      <trkpt lat="48.87079" lon="2.37273">
        <ele>117.4</ele>
        <time>2015-01-12T20:36:21.698Z</time>
      </trkpt>
      <trkpt lat="48.87084" lon="2.37271">
        <ele>118</ele>
        <time>2015-01-12T20:36:22.617Z</time>
      </trkpt>
      <trkpt lat="48.87089" lon="2.37269">
        <ele>118.5</ele>
        <time>2015-01-12T20:36:23.599Z</time>
      </trkpt>
      <trkpt lat="48.87093" lon="2.37265">
        <ele>118.5</ele>
        <time>2015-01-12T20:36:24.634Z</time>
      </trkpt>
      <trkpt lat="48.871" lon="2.3726">
        <ele>119.1</ele>
        <time>2015-01-12T20:36:28.648Z</time>
      </trkpt>
      <trkpt lat="48.87102" lon="2.3726">
        <ele>119.2</ele>
        <time>2015-01-12T20:36:29.704Z</time>
      </trkpt>
      <trkpt lat="48.87109" lon="2.37259">
        <ele>118.7</ele>
        <time>2015-01-12T20:36:35.625Z</time>
      </trkpt>
      <trkpt lat="48.87115" lon="2.3726">
        <ele>117.9</ele>
        <time>2015-01-12T20:36:36.623Z</time>
      </trkpt>
      <trkpt lat="48.87123" lon="2.37258">
        <ele>116.5</ele>
        <time>2015-01-12T20:36:38.627Z</time>
      </trkpt>
      <trkpt lat="48.87129" lon="2.37253">
        <ele>115.5</ele>
        <time>2015-01-12T20:36:39.630Z</time>
      </trkpt>
      <trkpt lat="48.87136" lon="2.3724">
        <ele>112.2</ele>
        <time>2015-01-12T20:36:40.642Z</time>
      </trkpt>
      <trkpt lat="48.87143" lon="2.37231">
        <ele>110.9</ele>
        <time>2015-01-12T20:36:41.664Z</time>
      </trkpt>
      <trkpt lat="48.87147" lon="2.37226">
        <ele>111</ele>
        <time>2015-01-12T20:36:42.667Z</time>
      </trkpt>
      <trkpt lat="48.87154" lon="2.3722">
        <ele>111.8</ele>
        <time>2015-01-12T20:36:43.689Z</time>
      </trkpt>
      <trkpt lat="48.87156" lon="2.37217">
        <ele>112.3</ele>
        <time>2015-01-12T20:36:44.697Z</time>
      </trkpt>
      <trkpt lat="48.87159" lon="2.3721">
        <ele>113.7</ele>
        <time>2015-01-12T20:36:47.630Z</time>
      </trkpt>
      <trkpt lat="48.87165" lon="2.37204">
        <ele>115.1</ele>
        <time>2015-01-12T20:36:48.643Z</time>
      </trkpt>
      <trkpt lat="48.87172" lon="2.37196">
        <ele>115.6</ele>
        <time>2015-01-12T20:36:50.676Z</time>
      </trkpt>
      <trkpt lat="48.87174" lon="2.37192">
        <ele>115.6</ele>
        <time>2015-01-12T20:36:51.711Z</time>
      </trkpt>
      <trkpt lat="48.87178" lon="2.37184">
        <ele>115.7</ele>
        <time>2015-01-12T20:36:52.622Z</time>
      </trkpt>
      <trkpt lat="48.87183" lon="2.37177">
        <ele>115.8</ele>
        <time>2015-01-12T20:36:53.630Z</time>
      </trkpt>
      <trkpt lat="48.87187" lon="2.3717">
        <ele>115.7</ele>
        <time>2015-01-12T20:36:54.633Z</time>
      </trkpt>
      <trkpt lat="48.87191" lon="2.37165">
        <ele>115.5</ele>
        <time>2015-01-12T20:36:55.684Z</time>
      </trkpt>
      <trkpt lat="48.87196" lon="2.37162">
        <ele>115.7</ele>
        <time>2015-01-12T20:36:56.618Z</time>
      </trkpt>
      <trkpt lat="48.87199" lon="2.37157">
        <ele>115.7</ele>
        <time>2015-01-12T20:36:57.640Z</time>
      </trkpt>
      <trkpt lat="48.87204" lon="2.37149">
        <ele>115.8</ele>
        <time>2015-01-12T20:36:58.653Z</time>
      </trkpt>
      <trkpt lat="48.87209" lon="2.37144">
        <ele>115.9</ele>
        <time>2015-01-12T20:36:59.670Z</time>
      </trkpt>
      <trkpt lat="48.87216" lon="2.37139">
        <ele>116</ele>
        <time>2015-01-12T20:37:01.665Z</time>
      </trkpt>
      <trkpt lat="48.8722" lon="2.37134">
        <ele>115.9</ele>
        <time>2015-01-12T20:37:02.744Z</time>
      </trkpt>
      <trkpt lat="48.87225" lon="2.37129">
        <ele>116.1</ele>
        <time>2015-01-12T20:37:03.611Z</time>
      </trkpt>
      <trkpt lat="48.87232" lon="2.37128">
        <ele>115.6</ele>
        <time>2015-01-12T20:37:04.606Z</time>
      </trkpt>
      <trkpt lat="48.87238" lon="2.37127">
        <ele>114.9</ele>
        <time>2015-01-12T20:37:05.651Z</time>
      </trkpt>
      <trkpt lat="48.87243" lon="2.37121">
        <ele>114.6</ele>
        <time>2015-01-12T20:37:06.665Z</time>
      </trkpt>
      <trkpt lat="48.87248" lon="2.37116">
        <ele>114.7</ele>
        <time>2015-01-12T20:37:07.702Z</time>
      </trkpt>
      <trkpt lat="48.87253" lon="2.37112">
        <ele>114.8</ele>
        <time>2015-01-12T20:37:08.601Z</time>
      </trkpt>
      <trkpt lat="48.87257" lon="2.3711">
        <ele>114.8</ele>
        <time>2015-01-12T20:37:09.609Z</time>
      </trkpt>
      <trkpt lat="48.87262" lon="2.37109">
        <ele>114.8</ele>
        <time>2015-01-12T20:37:10.617Z</time>
      </trkpt>
      <trkpt lat="48.87268" lon="2.37109">
        <ele>114.8</ele>
        <time>2015-01-12T20:37:11.636Z</time>
      </trkpt>
      <trkpt lat="48.87272" lon="2.37108">
        <ele>114.7</ele>
        <time>2015-01-12T20:37:12.650Z</time>
      </trkpt>
      <trkpt lat="48.87276" lon="2.37105">
        <ele>114.8</ele>
        <time>2015-01-12T20:37:13.675Z</time>
      </trkpt>
      <trkpt lat="48.87282" lon="2.37102">
        <ele>114.7</ele>
        <time>2015-01-12T20:37:14.690Z</time>
      </trkpt>
      <trkpt lat="48.87288" lon="2.37099">
        <ele>114.7</ele>
        <time>2015-01-12T20:37:15.709Z</time>
      </trkpt>
      <trkpt lat="48.87293" lon="2.37098">
        <ele>114.6</ele>
        <time>2015-01-12T20:37:16.593Z</time>
      </trkpt>
      <trkpt lat="48.87298" lon="2.37097">
        <ele>114.4</ele>
        <time>2015-01-12T20:37:17.629Z</time>
      </trkpt>
      <trkpt lat="48.87303" lon="2.37095">
        <ele>114.3</ele>
        <time>2015-01-12T20:37:18.646Z</time>
      </trkpt>
      <trkpt lat="48.87308" lon="2.37093">
        <ele>114.2</ele>
        <time>2015-01-12T20:37:19.691Z</time>
      </trkpt>
      <trkpt lat="48.87311" lon="2.37089">
        <ele>114.2</ele>
        <time>2015-01-12T20:37:20.592Z</time>
      </trkpt>
      <trkpt lat="48.87316" lon="2.37083">
        <ele>114.1</ele>
        <time>2015-01-12T20:37:21.622Z</time>
      </trkpt>
      <trkpt lat="48.8732" lon="2.37077">
        <ele>114</ele>
        <time>2015-01-12T20:37:22.628Z</time>
      </trkpt>
      <trkpt lat="48.87326" lon="2.37072">
        <ele>113.9</ele>
        <time>2015-01-12T20:37:23.740Z</time>
      </trkpt>
      <trkpt lat="48.8733" lon="2.37066">
        <ele>113.5</ele>
        <time>2015-01-12T20:37:24.612Z</time>
      </trkpt>
      <trkpt lat="48.87337" lon="2.37058">
        <ele>112.4</ele>
        <time>2015-01-12T20:37:26.663Z</time>
      </trkpt>
      <trkpt lat="48.87341" lon="2.37047">
        <ele>109.6</ele>
        <time>2015-01-12T20:37:27.674Z</time>
      </trkpt>
      <trkpt lat="48.87345" lon="2.37036">
        <ele>106.7</ele>
        <time>2015-01-12T20:37:29.624Z</time>
      </trkpt>
      <trkpt lat="48.87347" lon="2.37035">
        <ele>106.9</ele>
        <time>2015-01-12T20:37:30.633Z</time>
      </trkpt>
      <trkpt lat="48.87354" lon="2.37032">
        <ele>108.1</ele>
        <time>2015-01-12T20:37:32.611Z</time>
      </trkpt>
      <trkpt lat="48.87359" lon="2.37032">
        <ele>108.5</ele>
        <time>2015-01-12T20:37:33.710Z</time>
      </trkpt>
      <trkpt lat="48.87367" lon="2.37034">
        <ele>108.5</ele>
        <time>2015-01-12T20:37:35.638Z</time>
      </trkpt>
      <trkpt lat="48.87368" lon="2.37035">
        <ele>108.6</ele>
        <time>2015-01-12T20:37:36.653Z</time>
      </trkpt>
      <trkpt lat="48.8737" lon="2.37036">
        <ele>108.7</ele>
        <time>2015-01-12T20:37:58.690Z</time>
      </trkpt>
      <trkpt lat="48.87383" lon="2.37058">
        <ele>105.3</ele>
        <time>2015-01-12T20:37:59.633Z</time>
      </trkpt>
      <trkpt lat="48.87387" lon="2.37069">
        <ele>104.7</ele>
        <time>2015-01-12T20:38:02.668Z</time>
      </trkpt>
      <trkpt lat="48.87387" lon="2.37073">
        <ele>104.7</ele>
        <time>2015-01-12T20:38:03.697Z</time>
      </trkpt>
      <trkpt lat="48.8739" lon="2.37086">
        <ele>104.4</ele>
        <time>2015-01-12T20:38:06.617Z</time>
      </trkpt>
      <trkpt lat="48.87391" lon="2.3709">
        <ele>104.4</ele>
        <time>2015-01-12T20:38:07.651Z</time>
      </trkpt>
      <trkpt lat="48.87393" lon="2.371">
        <ele>103.9</ele>
        <time>2015-01-12T20:38:09.598Z</time>
      </trkpt>
      <trkpt lat="48.87394" lon="2.37103">
        <ele>103.5</ele>
        <time>2015-01-12T20:38:10.637Z</time>
      </trkpt>
      <trkpt lat="48.87398" lon="2.37113">
        <ele>102.8</ele>
        <time>2015-01-12T20:38:13.744Z</time>
      </trkpt>
      <trkpt lat="48.874" lon="2.37119">
        <ele>102.3</ele>
        <time>2015-01-12T20:38:14.645Z</time>
      </trkpt>
      <trkpt lat="48.87401" lon="2.37124">
        <ele>102.3</ele>
        <time>2015-01-12T20:38:16.515Z</time>
      </trkpt>
      <trkpt lat="48.87405" lon="2.37138">
        <ele>102.5</ele>
        <time>2015-01-12T20:38:18.623Z</time>
      </trkpt>
      <trkpt lat="48.87406" lon="2.37143">
        <ele>102.2</ele>
        <time>2015-01-12T20:38:19.720Z</time>
      </trkpt>
      <trkpt lat="48.87415" lon="2.37268">
        <ele>103.9</ele>
        <time>2015-01-12T20:38:37.625Z</time>
      </trkpt>
      <trkpt lat="48.87415" lon="2.37276">
        <ele>104.6</ele>
        <time>2015-01-12T20:38:38.587Z</time>
      </trkpt>
      <trkpt lat="48.87413" lon="2.37285">
        <ele>105.1</ele>
        <time>2015-01-12T20:38:39.590Z</time>
      </trkpt>
      <trkpt lat="48.87413" lon="2.37296">
        <ele>105.7</ele>
        <time>2015-01-12T20:38:41.616Z</time>
      </trkpt>
      <trkpt lat="48.87414" lon="2.37299">
        <ele>106</ele>
        <time>2015-01-12T20:38:42.629Z</time>
      </trkpt>
      <trkpt lat="48.87423" lon="2.373">
        <ele>105.5</ele>
        <time>2015-01-12T20:38:45.609Z</time>
      </trkpt>
      <trkpt lat="48.87426" lon="2.373">
        <ele>104.9</ele>
        <time>2015-01-12T20:38:46.650Z</time>
      </trkpt>
      <trkpt lat="48.87433" lon="2.37293">
        <ele>104.1</ele>
        <time>2015-01-12T20:38:48.604Z</time>
      </trkpt>
      <trkpt lat="48.87435" lon="2.37288">
        <ele>103.6</ele>
        <time>2015-01-12T20:38:49.672Z</time>
      </trkpt>
      <trkpt lat="48.87435" lon="2.37288">
        <ele>103.6</ele>
        <time>2015-01-12T20:39:03.662Z</time>
      </trkpt>
      <trkpt lat="48.87462" lon="2.37274">
        <ele>108.6</ele>
        <time>2015-01-12T20:39:04.603Z</time>
      </trkpt>
      <trkpt lat="48.87464" lon="2.37285">
        <ele>110.9</ele>
        <time>2015-01-12T20:39:08.601Z</time>
      </trkpt>
      <trkpt lat="48.87464" lon="2.37289">
        <ele>111.3</ele>
        <time>2015-01-12T20:39:09.607Z</time>
      </trkpt>
      <trkpt lat="48.87457" lon="2.37296">
        <ele>113.8</ele>
        <time>2015-01-12T20:39:15.629Z</time>
      </trkpt>
      <trkpt lat="48.87457" lon="2.373">
        <ele>114.2</ele>
        <time>2015-01-12T20:39:16.650Z</time>
      </trkpt>
      <trkpt lat="48.87455" lon="2.37306">
        <ele>114.9</ele>
        <time>2015-01-12T20:39:18.684Z</time>
      </trkpt>
      <trkpt lat="48.87453" lon="2.37313">
        <ele>114.7</ele>
        <time>2015-01-12T20:39:19.703Z</time>
      </trkpt>
      <trkpt lat="48.87452" lon="2.3732">
        <ele>114.9</ele>
        <time>2015-01-12T20:39:20.617Z</time>
      </trkpt>
      <trkpt lat="48.87451" lon="2.37328">
        <ele>115.3</ele>
        <time>2015-01-12T20:39:21.627Z</time>
      </trkpt>
      <trkpt lat="48.87449" lon="2.37338">
        <ele>116.6</ele>
        <time>2015-01-12T20:39:23.586Z</time>
      </trkpt>
      <trkpt lat="48.87449" lon="2.37341">
        <ele>116.9</ele>
        <time>2015-01-12T20:39:24.678Z</time>
      </trkpt>
      <trkpt lat="48.87446" lon="2.37353">
        <ele>117.7</ele>
        <time>2015-01-12T20:39:28.279Z</time>
      </trkpt>
      <trkpt lat="48.87445" lon="2.37361">
        <ele>117.4</ele>
        <time>2015-01-12T20:39:28.640Z</time>
      </trkpt>
      <trkpt lat="48.87444" lon="2.37371">
        <ele>116.5</ele>
        <time>2015-01-12T20:39:29.665Z</time>
      </trkpt>
      <trkpt lat="48.87444" lon="2.37379">
        <ele>116.4</ele>
        <time>2015-01-12T20:39:30.704Z</time>
      </trkpt>
      <trkpt lat="48.87442" lon="2.37388">
        <ele>116.6</ele>
        <time>2015-01-12T20:39:31.721Z</time>
      </trkpt>
      <trkpt lat="48.87442" lon="2.37395">
        <ele>116.7</ele>
        <time>2015-01-12T20:39:32.597Z</time>
      </trkpt>
      <trkpt lat="48.87446" lon="2.37404">
        <ele>116.6</ele>
        <time>2015-01-12T20:39:36.672Z</time>
      </trkpt>
      <trkpt lat="48.87446" lon="2.37406">
        <ele>116.8</ele>
        <time>2015-01-12T20:39:37.681Z</time>
      </trkpt>
      <trkpt lat="48.87446" lon="2.37406">
        <ele>116.8</ele>
        <time>2015-01-12T20:40:25.671Z</time>
      </trkpt>
      <trkpt lat="48.87456" lon="2.3745">
        <ele>126.5</ele>
        <time>2015-01-12T20:40:26.583Z</time>
      </trkpt>
      <trkpt lat="48.87458" lon="2.3746">
        <ele>126.2</ele>
        <time>2015-01-12T20:40:28.631Z</time>
      </trkpt>
      <trkpt lat="48.87459" lon="2.37466">
        <ele>125.8</ele>
        <time>2015-01-12T20:40:29.645Z</time>
      </trkpt>
      <trkpt lat="48.87459" lon="2.37479">
        <ele>124.8</ele>
        <time>2015-01-12T20:40:31.693Z</time>
      </trkpt>
      <trkpt lat="48.87457" lon="2.37485">
        <ele>124.5</ele>
        <time>2015-01-12T20:40:32.588Z</time>
      </trkpt>
      <trkpt lat="48.87457" lon="2.37496">
        <ele>124.2</ele>
        <time>2015-01-12T20:40:34.640Z</time>
      </trkpt>
      <trkpt lat="48.87458" lon="2.37501">
        <ele>124.2</ele>
        <time>2015-01-12T20:40:35.646Z</time>
      </trkpt>
      <trkpt lat="48.87461" lon="2.37509">
        <ele>124.4</ele>
        <time>2015-01-12T20:40:39.588Z</time>
      </trkpt>
      <trkpt lat="48.87462" lon="2.37513">
        <ele>124</ele>
        <time>2015-01-12T20:40:40.587Z</time>
      </trkpt>
      <trkpt lat="48.87465" lon="2.3752">
        <ele>123.2</ele>
        <time>2015-01-12T20:40:46.699Z</time>
      </trkpt>
      <trkpt lat="48.87477" lon="2.3753">
        <ele>125.8</ele>
        <time>2015-01-12T20:41:03.589Z</time>
      </trkpt>
      <trkpt lat="48.87477" lon="2.3753">
        <ele>125.8</ele>
        <time>2015-01-12T20:41:12.625Z</time>
      </trkpt>
      <trkpt lat="48.87489" lon="2.37536">
        <ele>130.4</ele>
        <time>2015-01-12T20:41:13.639Z</time>
      </trkpt>
      <trkpt lat="48.87493" lon="2.37548">
        <ele>131.1</ele>
        <time>2015-01-12T20:41:17.669Z</time>
      </trkpt>
      <trkpt lat="48.87517" lon="2.37596">
        <ele>125.6</ele>
        <time>2015-01-12T20:41:29.697Z</time>
      </trkpt>
      <trkpt lat="48.87523" lon="2.37593">
        <ele>125.4</ele>
        <time>2015-01-12T20:41:33.678Z</time>
      </trkpt>
      <trkpt lat="48.87526" lon="2.3759">
        <ele>125.2</ele>
        <time>2015-01-12T20:41:34.606Z</time>
      </trkpt>
      <trkpt lat="48.8753" lon="2.3758">
        <ele>124.2</ele>
        <time>2015-01-12T20:41:36.745Z</time>
      </trkpt>
      <trkpt lat="48.87532" lon="2.37577">
        <ele>124.2</ele>
        <time>2015-01-12T20:41:37.694Z</time>
      </trkpt>
      <trkpt lat="48.87534" lon="2.37574">
        <ele>124.3</ele>
        <time>2015-01-12T20:42:31.771Z</time>
      </trkpt>
      <trkpt lat="48.8756" lon="2.37587">
        <ele>131.2</ele>
        <time>2015-01-12T20:42:49.602Z</time>
      </trkpt>
      <trkpt lat="48.87566" lon="2.37591">
        <ele>131</ele>
        <time>2015-01-12T20:42:52.651Z</time>
      </trkpt>
      <trkpt lat="48.87569" lon="2.37592">
        <ele>130.8</ele>
        <time>2015-01-12T20:42:53.562Z</time>
      </trkpt>
      <trkpt lat="48.87574" lon="2.3759">
        <ele>130.5</ele>
        <time>2015-01-12T20:42:56.773Z</time>
      </trkpt>
      <trkpt lat="48.87586" lon="2.37588">
        <ele>130.3</ele>
        <time>2015-01-12T20:43:02.630Z</time>
      </trkpt>
      <trkpt lat="48.87592" lon="2.37595">
        <ele>130.8</ele>
        <time>2015-01-12T20:43:06.630Z</time>
      </trkpt>
      <trkpt lat="48.87593" lon="2.37597">
        <ele>131.7</ele>
        <time>2015-01-12T20:43:07.659Z</time>
      </trkpt>
      <trkpt lat="48.87601" lon="2.37595">
        <ele>134.8</ele>
        <time>2015-01-12T20:43:12.645Z</time>
      </trkpt>
      <trkpt lat="48.87604" lon="2.37597">
        <ele>135.5</ele>
        <time>2015-01-12T20:43:13.679Z</time>
      </trkpt>
      <trkpt lat="48.87612" lon="2.37599">
        <ele>136.7</ele>
        <time>2015-01-12T20:44:12.723Z</time>
      </trkpt>
      <trkpt lat="48.87637" lon="2.37605">
        <ele>135.2</ele>
        <time>2015-01-12T20:44:13.633Z</time>
      </trkpt>
      <trkpt lat="48.8764" lon="2.37596">
        <ele>134.1</ele>
        <time>2015-01-12T20:44:16.319Z</time>
      </trkpt>
      <trkpt lat="48.87641" lon="2.37592">
        <ele>133.7</ele>
        <time>2015-01-12T20:44:16.719Z</time>
      </trkpt>
      <trkpt lat="48.87641" lon="2.37581">
        <ele>132.9</ele>
        <time>2015-01-12T20:44:18.635Z</time>
      </trkpt>
      <trkpt lat="48.87641" lon="2.37575">
        <ele>132.4</ele>
        <time>2015-01-12T20:44:19.622Z</time>
      </trkpt>
      <trkpt lat="48.87641" lon="2.37562">
        <ele>132</ele>
        <time>2015-01-12T20:44:22.650Z</time>
      </trkpt>
      <trkpt lat="48.87641" lon="2.37556">
        <ele>131.8</ele>
        <time>2015-01-12T20:44:23.659Z</time>
      </trkpt>
      <trkpt lat="48.8764" lon="2.37546">
        <ele>132.4</ele>
        <time>2015-01-12T20:44:25.748Z</time>
      </trkpt>
      <trkpt lat="48.8764" lon="2.37541">
        <ele>132.9</ele>
        <time>2015-01-12T20:44:26.685Z</time>
      </trkpt>
      <trkpt lat="48.87641" lon="2.37528">
        <ele>133</ele>
        <time>2015-01-12T20:44:28.674Z</time>
      </trkpt>
      <trkpt lat="48.87643" lon="2.37523">
        <ele>133.6</ele>
        <time>2015-01-12T20:44:29.831Z</time>
      </trkpt>
      <trkpt lat="48.87647" lon="2.37515">
        <ele>133.9</ele>
        <time>2015-01-12T20:44:31.674Z</time>
      </trkpt>
      <trkpt lat="48.87649" lon="2.3751">
        <ele>134</ele>
        <time>2015-01-12T20:44:32.699Z</time>
      </trkpt>
      <trkpt lat="48.87653" lon="2.37499">
        <ele>134.4</ele>
        <time>2015-01-12T20:44:35.332Z</time>
      </trkpt>
      <trkpt lat="48.87655" lon="2.37494">
        <ele>134.5</ele>
        <time>2015-01-12T20:44:35.712Z</time>
      </trkpt>
      <trkpt lat="48.87659" lon="2.37485">
        <ele>134.7</ele>
        <time>2015-01-12T20:44:37.629Z</time>
      </trkpt>
      <trkpt lat="48.87661" lon="2.3748">
        <ele>134.8</ele>
        <time>2015-01-12T20:44:38.649Z</time>
      </trkpt>
      <trkpt lat="48.87669" lon="2.37474">
        <ele>134.9</ele>
        <time>2015-01-12T20:44:40.613Z</time>
      </trkpt>
      <trkpt lat="48.87674" lon="2.37473">
        <ele>134.1</ele>
        <time>2015-01-12T20:44:41.600Z</time>
      </trkpt>
      <trkpt lat="48.87678" lon="2.3747">
        <ele>133.9</ele>
        <time>2015-01-12T20:44:42.634Z</time>
      </trkpt>
      <trkpt lat="48.87683" lon="2.37467">
        <ele>133.7</ele>
        <time>2015-01-12T20:44:43.650Z</time>
      </trkpt>
      <trkpt lat="48.87689" lon="2.37464">
        <ele>134</ele>
        <time>2015-01-12T20:44:45.656Z</time>
      </trkpt>
      <trkpt lat="48.87692" lon="2.37462">
        <ele>134.5</ele>
        <time>2015-01-12T20:44:46.680Z</time>
      </trkpt>
      <trkpt lat="48.87699" lon="2.37457">
        <ele>135</ele>
        <time>2015-01-12T20:44:49.543Z</time>
      </trkpt>
      <trkpt lat="48.87702" lon="2.37456">
        <ele>135.3</ele>
        <time>2015-01-12T20:44:49.639Z</time>
      </trkpt>
      <trkpt lat="48.8771" lon="2.37453">
        <ele>135.3</ele>
        <time>2015-01-12T20:44:51.670Z</time>
      </trkpt>
      <trkpt lat="48.87714" lon="2.37452">
        <ele>135.5</ele>
        <time>2015-01-12T20:44:52.675Z</time>
      </trkpt>
      <trkpt lat="48.87719" lon="2.3745">
        <ele>135.8</ele>
        <time>2015-01-12T20:44:54.553Z</time>
      </trkpt>
      <trkpt lat="48.87723" lon="2.37448">
        <ele>135.7</ele>
        <time>2015-01-12T20:44:54.592Z</time>
      </trkpt>
      <trkpt lat="48.8773" lon="2.37443">
        <ele>135.9</ele>
        <time>2015-01-12T20:44:56.615Z</time>
      </trkpt>
      <trkpt lat="48.87736" lon="2.37436">
        <ele>136</ele>
        <time>2015-01-12T20:44:57.612Z</time>
      </trkpt>
      <trkpt lat="48.87743" lon="2.37429">
        <ele>135.9</ele>
        <time>2015-01-12T20:44:58.619Z</time>
      </trkpt>
      <trkpt lat="48.8775" lon="2.37417">
        <ele>136.3</ele>
        <time>2015-01-12T20:44:59.686Z</time>
      </trkpt>
      <trkpt lat="48.87756" lon="2.37413">
        <ele>136.3</ele>
        <time>2015-01-12T20:45:00.603Z</time>
      </trkpt>
      <trkpt lat="48.87763" lon="2.37412">
        <ele>136.3</ele>
        <time>2015-01-12T20:45:01.661Z</time>
      </trkpt>
      <trkpt lat="48.8777" lon="2.37415">
        <ele>136.8</ele>
        <time>2015-01-12T20:45:03.663Z</time>
      </trkpt>
      <trkpt lat="48.87773" lon="2.37417">
        <ele>137</ele>
        <time>2015-01-12T20:45:04.678Z</time>
      </trkpt>
      <trkpt lat="48.87781" lon="2.37416">
        <ele>136.1</ele>
        <time>2015-01-12T20:45:06.636Z</time>
      </trkpt>
      <trkpt lat="48.87785" lon="2.37414">
        <ele>135.3</ele>
        <time>2015-01-12T20:45:07.707Z</time>
      </trkpt>
      <trkpt lat="48.87793" lon="2.37419">
        <ele>135.2</ele>
        <time>2015-01-12T20:45:09.608Z</time>
      </trkpt>
      <trkpt lat="48.87797" lon="2.37423">
        <ele>135.5</ele>
        <time>2015-01-12T20:45:10.625Z</time>
      </trkpt>
      <trkpt lat="48.87802" lon="2.37427">
        <ele>135.5</ele>
        <time>2015-01-12T20:45:11.633Z</time>
      </trkpt>
      <trkpt lat="48.87809" lon="2.37427">
        <ele>135.2</ele>
        <time>2015-01-12T20:45:12.645Z</time>
      </trkpt>
      <trkpt lat="48.87816" lon="2.37429">
        <ele>134.6</ele>
        <time>2015-01-12T20:45:13.655Z</time>
      </trkpt>
      <trkpt lat="48.87822" lon="2.37433">
        <ele>134.2</ele>
        <time>2015-01-12T20:45:14.659Z</time>
      </trkpt>
      <trkpt lat="48.87829" lon="2.37435">
        <ele>133.1</ele>
        <time>2015-01-12T20:45:16.600Z</time>
      </trkpt>
      <trkpt lat="48.87833" lon="2.37435">
        <ele>133.1</ele>
        <time>2015-01-12T20:45:17.609Z</time>
      </trkpt>
      <trkpt lat="48.87839" lon="2.37432">
        <ele>132</ele>
        <time>2015-01-12T20:45:18.645Z</time>
      </trkpt>
      <trkpt lat="48.87848" lon="2.37429">
        <ele>131.4</ele>
        <time>2015-01-12T20:45:19.648Z</time>
      </trkpt>
      <trkpt lat="48.87856" lon="2.37427">
        <ele>130.9</ele>
        <time>2015-01-12T20:45:20.677Z</time>
      </trkpt>
      <trkpt lat="48.87861" lon="2.37425">
        <ele>130.6</ele>
        <time>2015-01-12T20:45:21.595Z</time>
      </trkpt>
      <trkpt lat="48.87866" lon="2.37426">
        <ele>130.6</ele>
        <time>2015-01-12T20:45:22.628Z</time>
      </trkpt>
      <trkpt lat="48.87873" lon="2.37429">
        <ele>130.7</ele>
        <time>2015-01-12T20:45:23.682Z</time>
      </trkpt>
      <trkpt lat="48.8788" lon="2.3743">
        <ele>131.1</ele>
        <time>2015-01-12T20:45:24.596Z</time>
      </trkpt>
      <trkpt lat="48.87887" lon="2.37432">
        <ele>131.5</ele>
        <time>2015-01-12T20:45:25.636Z</time>
      </trkpt>
      <trkpt lat="48.87894" lon="2.37435">
        <ele>132</ele>
        <time>2015-01-12T20:45:26.650Z</time>
      </trkpt>
      <trkpt lat="48.879" lon="2.37437">
        <ele>132.5</ele>
        <time>2015-01-12T20:45:27.655Z</time>
      </trkpt>
      <trkpt lat="48.87912" lon="2.37445">
        <ele>132.8</ele>
        <time>2015-01-12T20:45:30.601Z</time>
      </trkpt>
      <trkpt lat="48.87919" lon="2.37445">
        <ele>132.6</ele>
        <time>2015-01-12T20:45:31.684Z</time>
      </trkpt>
      <trkpt lat="48.87926" lon="2.37447">
        <ele>131.9</ele>
        <time>2015-01-12T20:45:32.582Z</time>
      </trkpt>
      <trkpt lat="48.87932" lon="2.37448">
        <ele>131.9</ele>
        <time>2015-01-12T20:45:33.610Z</time>
      </trkpt>
      <trkpt lat="48.87938" lon="2.37447">
        <ele>131.8</ele>
        <time>2015-01-12T20:45:34.626Z</time>
      </trkpt>
      <trkpt lat="48.87945" lon="2.37446">
        <ele>131.6</ele>
        <time>2015-01-12T20:45:35.640Z</time>
      </trkpt>
      <trkpt lat="48.87952" lon="2.37444">
        <ele>131.1</ele>
        <time>2015-01-12T20:45:36.652Z</time>
      </trkpt>
      <trkpt lat="48.87959" lon="2.37446">
        <ele>130</ele>
        <time>2015-01-12T20:45:37.657Z</time>
      </trkpt>
      <trkpt lat="48.87965" lon="2.37446">
        <ele>129</ele>
        <time>2015-01-12T20:45:38.669Z</time>
      </trkpt>
      <trkpt lat="48.87971" lon="2.37445">
        <ele>128.5</ele>
        <time>2015-01-12T20:45:39.735Z</time>
      </trkpt>
      <trkpt lat="48.87976" lon="2.37443">
        <ele>128.1</ele>
        <time>2015-01-12T20:45:40.569Z</time>
      </trkpt>
      <trkpt lat="48.87985" lon="2.37443">
        <ele>128.1</ele>
        <time>2015-01-12T20:45:42.616Z</time>
      </trkpt>
      <trkpt lat="48.8799" lon="2.37443">
        <ele>128.6</ele>
        <time>2015-01-12T20:45:43.659Z</time>
      </trkpt>
      <trkpt lat="48.87994" lon="2.37443">
        <ele>128.9</ele>
        <time>2015-01-12T20:45:44.681Z</time>
      </trkpt>
      <trkpt lat="48.88" lon="2.37441">
        <ele>129.3</ele>
        <time>2015-01-12T20:45:45.585Z</time>
      </trkpt>
      <trkpt lat="48.88004" lon="2.37438">
        <ele>128.8</ele>
        <time>2015-01-12T20:45:46.588Z</time>
      </trkpt>
      <trkpt lat="48.88009" lon="2.37435">
        <ele>128.6</ele>
        <time>2015-01-12T20:45:47.602Z</time>
      </trkpt>
      <trkpt lat="48.88013" lon="2.37431">
        <ele>128.2</ele>
        <time>2015-01-12T20:45:48.610Z</time>
      </trkpt>
      <trkpt lat="48.88018" lon="2.37428">
        <ele>127.9</ele>
        <time>2015-01-12T20:45:49.613Z</time>
      </trkpt>
      <trkpt lat="48.88025" lon="2.37425">
        <ele>126.9</ele>
        <time>2015-01-12T20:45:51.672Z</time>
      </trkpt>
      <trkpt lat="48.88029" lon="2.37423">
        <ele>126.3</ele>
        <time>2015-01-12T20:45:52.665Z</time>
      </trkpt>
      <trkpt lat="48.88034" lon="2.37421">
        <ele>125.7</ele>
        <time>2015-01-12T20:45:53.577Z</time>
      </trkpt>
      <trkpt lat="48.88041" lon="2.37419">
        <ele>126</ele>
        <time>2015-01-12T20:45:54.595Z</time>
      </trkpt>
      <trkpt lat="48.88046" lon="2.37416">
        <ele>126.6</ele>
        <time>2015-01-12T20:45:55.617Z</time>
      </trkpt>
      <trkpt lat="48.8805" lon="2.37414">
        <ele>125.9</ele>
        <time>2015-01-12T20:45:56.622Z</time>
      </trkpt>
      <trkpt lat="48.88055" lon="2.37411">
        <ele>125.9</ele>
        <time>2015-01-12T20:45:57.645Z</time>
      </trkpt>
      <trkpt lat="48.8806" lon="2.37407">
        <ele>125.7</ele>
        <time>2015-01-12T20:45:58.655Z</time>
      </trkpt>
      <trkpt lat="48.88065" lon="2.37402">
        <ele>125.4</ele>
        <time>2015-01-12T20:45:59.681Z</time>
      </trkpt>
      <trkpt lat="48.8807" lon="2.37398">
        <ele>125</ele>
        <time>2015-01-12T20:46:00.601Z</time>
      </trkpt>
      <trkpt lat="48.88076" lon="2.37394">
        <ele>124.8</ele>
        <time>2015-01-12T20:46:01.627Z</time>
      </trkpt>
      <trkpt lat="48.88081" lon="2.37389">
        <ele>124.8</ele>
        <time>2015-01-12T20:46:02.640Z</time>
      </trkpt>
      <trkpt lat="48.88088" lon="2.37381">
        <ele>124</ele>
        <time>2015-01-12T20:46:03.643Z</time>
      </trkpt>
      <trkpt lat="48.88094" lon="2.37373">
        <ele>123.6</ele>
        <time>2015-01-12T20:46:04.659Z</time>
      </trkpt>
      <trkpt lat="48.881" lon="2.37364">
        <ele>123.2</ele>
        <time>2015-01-12T20:46:05.583Z</time>
      </trkpt>
      <trkpt lat="48.88106" lon="2.37358">
        <ele>122.8</ele>
        <time>2015-01-12T20:46:06.594Z</time>
      </trkpt>
      <trkpt lat="48.88111" lon="2.37351">
        <ele>122.7</ele>
        <time>2015-01-12T20:46:07.629Z</time>
      </trkpt>
      <trkpt lat="48.88115" lon="2.37343">
        <ele>122.7</ele>
        <time>2015-01-12T20:46:08.653Z</time>
      </trkpt>
      <trkpt lat="48.88119" lon="2.37335">
        <ele>122.5</ele>
        <time>2015-01-12T20:46:09.585Z</time>
      </trkpt>
      <trkpt lat="48.88122" lon="2.37329">
        <ele>122.9</ele>
        <time>2015-01-12T20:46:10.588Z</time>
      </trkpt>
      <trkpt lat="48.88126" lon="2.3732">
        <ele>123.2</ele>
        <time>2015-01-12T20:46:12.608Z</time>
      </trkpt>
      <trkpt lat="48.88132" lon="2.37321">
        <ele>122.8</ele>
        <time>2015-01-12T20:46:13.658Z</time>
      </trkpt>
      <trkpt lat="48.88137" lon="2.37324">
        <ele>122.5</ele>
        <time>2015-01-12T20:46:14.632Z</time>
      </trkpt>
      <trkpt lat="48.8814" lon="2.37328">
        <ele>122.2</ele>
        <time>2015-01-12T20:46:15.637Z</time>
      </trkpt>
      <trkpt lat="48.88142" lon="2.37335">
        <ele>121.9</ele>
        <time>2015-01-12T20:46:16.651Z</time>
      </trkpt>
      <trkpt lat="48.88143" lon="2.37342">
        <ele>121.7</ele>
        <time>2015-01-12T20:46:17.687Z</time>
      </trkpt>
      <trkpt lat="48.88148" lon="2.37348">
        <ele>122.1</ele>
        <time>2015-01-12T20:46:18.572Z</time>
      </trkpt>
      <trkpt lat="48.8815" lon="2.37356">
        <ele>122.2</ele>
        <time>2015-01-12T20:46:19.630Z</time>
      </trkpt>
      <trkpt lat="48.88151" lon="2.37363">
        <ele>121.9</ele>
        <time>2015-01-12T20:46:20.617Z</time>
      </trkpt>
      <trkpt lat="48.88153" lon="2.37369">
        <ele>122.2</ele>
        <time>2015-01-12T20:46:21.611Z</time>
      </trkpt>
      <trkpt lat="48.88155" lon="2.37382">
        <ele>122.4</ele>
        <time>2015-01-12T20:46:23.660Z</time>
      </trkpt>
      <trkpt lat="48.88158" lon="2.37387">
        <ele>122.9</ele>
        <time>2015-01-12T20:46:24.687Z</time>
      </trkpt>
      <trkpt lat="48.88163" lon="2.37397">
        <ele>123.6</ele>
        <time>2015-01-12T20:46:26.608Z</time>
      </trkpt>
      <trkpt lat="48.88165" lon="2.374">
        <ele>123.4</ele>
        <time>2015-01-12T20:46:27.615Z</time>
      </trkpt>
      <trkpt lat="48.88169" lon="2.374">
        <ele>122.9</ele>
        <time>2015-01-12T20:46:28.646Z</time>
      </trkpt>
      <trkpt lat="48.88174" lon="2.37398">
        <ele>122.4</ele>
        <time>2015-01-12T20:46:29.665Z</time>
      </trkpt>
      <trkpt lat="48.88182" lon="2.37401">
        <ele>122</ele>
        <time>2015-01-12T20:46:31.632Z</time>
      </trkpt>
      <trkpt lat="48.88185" lon="2.37404">
        <ele>121.4</ele>
        <time>2015-01-12T20:46:32.654Z</time>
      </trkpt>
      <trkpt lat="48.88189" lon="2.3741">
        <ele>120.7</ele>
        <time>2015-01-12T20:46:34.655Z</time>
      </trkpt>
      <trkpt lat="48.88191" lon="2.37414">
        <ele>120.6</ele>
        <time>2015-01-12T20:46:35.656Z</time>
      </trkpt>
      <trkpt lat="48.88196" lon="2.37423">
        <ele>119.7</ele>
        <time>2015-01-12T20:46:37.665Z</time>
      </trkpt>
      <trkpt lat="48.88198" lon="2.37428">
        <ele>119.7</ele>
        <time>2015-01-12T20:46:38.642Z</time>
      </trkpt>
      <trkpt lat="48.88203" lon="2.37437">
        <ele>119.9</ele>
        <time>2015-01-12T20:46:40.585Z</time>
      </trkpt>
      <trkpt lat="48.88205" lon="2.37442">
        <ele>119.9</ele>
        <time>2015-01-12T20:46:41.648Z</time>
      </trkpt>
      <trkpt lat="48.88211" lon="2.37452">
        <ele>120</ele>
        <time>2015-01-12T20:46:43.658Z</time>
      </trkpt>
      <trkpt lat="48.88213" lon="2.37455">
        <ele>120.2</ele>
        <time>2015-01-12T20:46:44.582Z</time>
      </trkpt>
      <trkpt lat="48.88221" lon="2.37461">
        <ele>120</ele>
        <time>2015-01-12T20:46:46.617Z</time>
      </trkpt>
      <trkpt lat="48.88227" lon="2.3746">
        <ele>118.7</ele>
        <time>2015-01-12T20:46:47.623Z</time>
      </trkpt>
      <trkpt lat="48.88232" lon="2.37469">
        <ele>118.4</ele>
        <time>2015-01-12T20:46:49.689Z</time>
      </trkpt>
      <trkpt lat="48.88235" lon="2.37474">
        <ele>118.3</ele>
        <time>2015-01-12T20:46:50.602Z</time>
      </trkpt>
      <trkpt lat="48.88241" lon="2.37483">
        <ele>117.7</ele>
        <time>2015-01-12T20:46:52.628Z</time>
      </trkpt>
      <trkpt lat="48.88246" lon="2.37485">
        <ele>117.2</ele>
        <time>2015-01-12T20:46:53.640Z</time>
      </trkpt>
      <trkpt lat="48.88251" lon="2.37488">
        <ele>117.1</ele>
        <time>2015-01-12T20:46:54.653Z</time>
      </trkpt>
      <trkpt lat="48.88255" lon="2.37491">
        <ele>116.5</ele>
        <time>2015-01-12T20:46:55.656Z</time>
      </trkpt>
      <trkpt lat="48.88261" lon="2.37492">
        <ele>115.9</ele>
        <time>2015-01-12T20:46:56.586Z</time>
      </trkpt>
      <trkpt lat="48.88263" lon="2.37497">
        <ele>115.8</ele>
        <time>2015-01-12T20:46:57.617Z</time>
      </trkpt>
      <trkpt lat="48.88259" lon="2.37511">
        <ele>116.1</ele>
        <time>2015-01-12T20:46:58.622Z</time>
      </trkpt>
      <trkpt lat="48.88265" lon="2.37522">
        <ele>116.1</ele>
        <time>2015-01-12T20:47:00.650Z</time>
      </trkpt>
      <trkpt lat="48.88268" lon="2.37526">
        <ele>116.3</ele>
        <time>2015-01-12T20:47:01.659Z</time>
      </trkpt>
      <trkpt lat="48.88273" lon="2.37536">
        <ele>116.7</ele>
        <time>2015-01-12T20:47:03.603Z</time>
      </trkpt>
      <trkpt lat="48.88279" lon="2.3754">
        <ele>117.7</ele>
        <time>2015-01-12T20:47:04.672Z</time>
      </trkpt>
      <trkpt lat="48.88285" lon="2.37542">
        <ele>118.7</ele>
        <time>2015-01-12T20:47:05.591Z</time>
      </trkpt>
      <trkpt lat="48.8829" lon="2.37546">
        <ele>119.2</ele>
        <time>2015-01-12T20:47:06.593Z</time>
      </trkpt>
      <trkpt lat="48.88293" lon="2.37551">
        <ele>119.6</ele>
        <time>2015-01-12T20:47:07.670Z</time>
      </trkpt>
      <trkpt lat="48.88296" lon="2.37557">
        <ele>119.8</ele>
        <time>2015-01-12T20:47:08.590Z</time>
      </trkpt>
      <trkpt lat="48.88299" lon="2.37562">
        <ele>119.6</ele>
        <time>2015-01-12T20:47:09.614Z</time>
      </trkpt>
      <trkpt lat="48.88302" lon="2.37568">
        <ele>119.8</ele>
        <time>2015-01-12T20:47:10.601Z</time>
      </trkpt>
      <trkpt lat="48.88304" lon="2.37574">
        <ele>119.7</ele>
        <time>2015-01-12T20:47:11.641Z</time>
      </trkpt>
      <trkpt lat="48.88305" lon="2.37582">
        <ele>120</ele>
        <time>2015-01-12T20:47:12.649Z</time>
      </trkpt>
      <trkpt lat="48.88308" lon="2.37587">
        <ele>120</ele>
        <time>2015-01-12T20:47:13.668Z</time>
      </trkpt>
      <trkpt lat="48.88309" lon="2.37594">
        <ele>119.9</ele>
        <time>2015-01-12T20:47:14.584Z</time>
      </trkpt>
      <trkpt lat="48.88312" lon="2.37602">
        <ele>119.8</ele>
        <time>2015-01-12T20:47:15.596Z</time>
      </trkpt>
      <trkpt lat="48.88313" lon="2.3761">
        <ele>119.4</ele>
        <time>2015-01-12T20:47:16.602Z</time>
      </trkpt>
      <trkpt lat="48.88315" lon="2.37617">
        <ele>119.2</ele>
        <time>2015-01-12T20:47:17.605Z</time>
      </trkpt>
      <trkpt lat="48.88318" lon="2.37622">
        <ele>118.9</ele>
        <time>2015-01-12T20:47:18.614Z</time>
      </trkpt>
      <trkpt lat="48.88319" lon="2.37629">
        <ele>118.3</ele>
        <time>2015-01-12T20:47:19.624Z</time>
      </trkpt>
      <trkpt lat="48.88319" lon="2.37638">
        <ele>117.7</ele>
        <time>2015-01-12T20:47:20.640Z</time>
      </trkpt>
      <trkpt lat="48.88319" lon="2.37647">
        <ele>117.3</ele>
        <time>2015-01-12T20:47:21.648Z</time>
      </trkpt>
      <trkpt lat="48.8832" lon="2.37656">
        <ele>116.8</ele>
        <time>2015-01-12T20:47:22.670Z</time>
      </trkpt>
      <trkpt lat="48.88321" lon="2.37663">
        <ele>116.6</ele>
        <time>2015-01-12T20:47:23.578Z</time>
      </trkpt>
      <trkpt lat="48.88322" lon="2.3767">
        <ele>116.6</ele>
        <time>2015-01-12T20:47:24.578Z</time>
      </trkpt>
      <trkpt lat="48.88323" lon="2.37678">
        <ele>116.2</ele>
        <time>2015-01-12T20:47:25.607Z</time>
      </trkpt>
      <trkpt lat="48.88323" lon="2.37687">
        <ele>115.5</ele>
        <time>2015-01-12T20:47:26.608Z</time>
      </trkpt>
      <trkpt lat="48.88323" lon="2.37695">
        <ele>114.9</ele>
        <time>2015-01-12T20:47:27.620Z</time>
      </trkpt>
      <trkpt lat="48.88333" lon="2.37691">
        <ele>114</ele>
        <time>2015-01-12T20:47:28.634Z</time>
      </trkpt>
      <trkpt lat="48.88338" lon="2.37695">
        <ele>113.5</ele>
        <time>2015-01-12T20:47:29.566Z</time>
      </trkpt>
      <trkpt lat="48.88344" lon="2.37697">
        <ele>113.2</ele>
        <time>2015-01-12T20:47:30.605Z</time>
      </trkpt>
      <trkpt lat="48.88352" lon="2.37697">
        <ele>113.1</ele>
        <time>2015-01-12T20:47:31.652Z</time>
      </trkpt>
      <trkpt lat="48.8836" lon="2.37697">
        <ele>113</ele>
        <time>2015-01-12T20:47:32.674Z</time>
      </trkpt>
      <trkpt lat="48.88363" lon="2.37703">
        <ele>112.8</ele>
        <time>2015-01-12T20:47:33.695Z</time>
      </trkpt>
      <trkpt lat="48.88366" lon="2.37709">
        <ele>112.8</ele>
        <time>2015-01-12T20:47:34.608Z</time>
      </trkpt>
      <trkpt lat="48.88367" lon="2.37716">
        <ele>112.5</ele>
        <time>2015-01-12T20:47:35.590Z</time>
      </trkpt>
      <trkpt lat="48.88371" lon="2.37723">
        <ele>112.4</ele>
        <time>2015-01-12T20:47:36.596Z</time>
      </trkpt>
      <trkpt lat="48.88374" lon="2.37728">
        <ele>112.3</ele>
        <time>2015-01-12T20:47:37.634Z</time>
      </trkpt>
      <trkpt lat="48.88378" lon="2.37733">
        <ele>111.9</ele>
        <time>2015-01-12T20:47:38.628Z</time>
      </trkpt>
      <trkpt lat="48.88381" lon="2.37739">
        <ele>111.5</ele>
        <time>2015-01-12T20:47:39.645Z</time>
      </trkpt>
      <trkpt lat="48.88384" lon="2.37748">
        <ele>111.3</ele>
        <time>2015-01-12T20:47:40.589Z</time>
      </trkpt>
      <trkpt lat="48.88385" lon="2.37758">
        <ele>111.3</ele>
        <time>2015-01-12T20:47:41.570Z</time>
      </trkpt>
      <trkpt lat="48.88387" lon="2.3777">
        <ele>111.9</ele>
        <time>2015-01-12T20:47:42.595Z</time>
      </trkpt>
      <trkpt lat="48.8839" lon="2.3778">
        <ele>112.5</ele>
        <time>2015-01-12T20:47:43.617Z</time>
      </trkpt>
      <trkpt lat="48.88395" lon="2.37786">
        <ele>112.1</ele>
        <time>2015-01-12T20:47:44.627Z</time>
      </trkpt>
      <trkpt lat="48.88399" lon="2.37792">
        <ele>111.8</ele>
        <time>2015-01-12T20:47:45.638Z</time>
      </trkpt>
      <trkpt lat="48.88403" lon="2.37799">
        <ele>111.8</ele>
        <time>2015-01-12T20:47:46.689Z</time>
      </trkpt>
      <trkpt lat="48.88404" lon="2.37809">
        <ele>111.7</ele>
        <time>2015-01-12T20:47:47.595Z</time>
      </trkpt>
      <trkpt lat="48.88409" lon="2.37814">
        <ele>111.7</ele>
        <time>2015-01-12T20:47:48.600Z</time>
      </trkpt>
      <trkpt lat="48.88412" lon="2.37821">
        <ele>111.7</ele>
        <time>2015-01-12T20:47:49.631Z</time>
      </trkpt>
      <trkpt lat="48.88417" lon="2.37825">
        <ele>111.6</ele>
        <time>2015-01-12T20:47:50.635Z</time>
      </trkpt>
      <trkpt lat="48.88421" lon="2.3783">
        <ele>111.2</ele>
        <time>2015-01-12T20:47:51.643Z</time>
      </trkpt>
      <trkpt lat="48.88424" lon="2.37837">
        <ele>111</ele>
        <time>2015-01-12T20:47:52.657Z</time>
      </trkpt>
      <trkpt lat="48.88427" lon="2.37845">
        <ele>110.7</ele>
        <time>2015-01-12T20:47:53.606Z</time>
      </trkpt>
      <trkpt lat="48.88431" lon="2.37849">
        <ele>110.5</ele>
        <time>2015-01-12T20:47:54.605Z</time>
      </trkpt>
      <trkpt lat="48.88435" lon="2.37854">
        <ele>109.9</ele>
        <time>2015-01-12T20:47:55.646Z</time>
      </trkpt>
      <trkpt lat="48.8844" lon="2.37858">
        <ele>109.4</ele>
        <time>2015-01-12T20:47:56.594Z</time>
      </trkpt>
      <trkpt lat="48.88444" lon="2.37861">
        <ele>109.1</ele>
        <time>2015-01-12T20:47:57.596Z</time>
      </trkpt>
      <trkpt lat="48.88448" lon="2.37865">
        <ele>108.9</ele>
        <time>2015-01-12T20:47:58.606Z</time>
      </trkpt>
      <trkpt lat="48.88453" lon="2.37875">
        <ele>108.5</ele>
        <time>2015-01-12T20:48:00.685Z</time>
      </trkpt>
      <trkpt lat="48.88455" lon="2.3788">
        <ele>108.2</ele>
        <time>2015-01-12T20:48:01.643Z</time>
      </trkpt>
      <trkpt lat="48.88459" lon="2.3789">
        <ele>108.7</ele>
        <time>2015-01-12T20:48:03.651Z</time>
      </trkpt>
      <trkpt lat="48.8846" lon="2.37897">
        <ele>109.2</ele>
        <time>2015-01-12T20:48:04.701Z</time>
      </trkpt>
      <trkpt lat="48.88461" lon="2.37905">
        <ele>109.5</ele>
        <time>2015-01-12T20:48:05.679Z</time>
      </trkpt>
      <trkpt lat="48.88461" lon="2.37918">
        <ele>109.3</ele>
        <time>2015-01-12T20:48:06.592Z</time>
      </trkpt>
      <trkpt lat="48.88465" lon="2.37931">
        <ele>109.8</ele>
        <time>2015-01-12T20:48:08.590Z</time>
      </trkpt>
      <trkpt lat="48.88467" lon="2.37936">
        <ele>109.8</ele>
        <time>2015-01-12T20:48:09.616Z</time>
      </trkpt>
      <trkpt lat="48.88472" lon="2.37947">
        <ele>110.5</ele>
        <time>2015-01-12T20:48:11.646Z</time>
      </trkpt>
      <trkpt lat="48.88471" lon="2.37954">
        <ele>110.9</ele>
        <time>2015-01-12T20:48:12.659Z</time>
      </trkpt>
      <trkpt lat="48.88468" lon="2.37966">
        <ele>112.8</ele>
        <time>2015-01-12T20:48:14.755Z</time>
      </trkpt>
      <trkpt lat="48.88466" lon="2.37972">
        <ele>113.9</ele>
        <time>2015-01-12T20:48:15.598Z</time>
      </trkpt>
      <trkpt lat="48.88465" lon="2.37983">
        <ele>116.6</ele>
        <time>2015-01-12T20:48:19.681Z</time>
      </trkpt>
      <trkpt lat="48.88465" lon="2.37986">
        <ele>116.7</ele>
        <time>2015-01-12T20:48:20.641Z</time>
      </trkpt>
      <trkpt lat="48.88468" lon="2.37995">
        <ele>117.2</ele>
        <time>2015-01-12T20:48:23.598Z</time>
      </trkpt>
      <trkpt lat="48.8847" lon="2.38002">
        <ele>117.3</ele>
        <time>2015-01-12T20:48:24.644Z</time>
      </trkpt>
      <trkpt lat="48.88472" lon="2.38013">
        <ele>117.3</ele>
        <time>2015-01-12T20:48:26.583Z</time>
      </trkpt>
      <trkpt lat="48.88475" lon="2.38018">
        <ele>117.3</ele>
        <time>2015-01-12T20:48:27.596Z</time>
      </trkpt>
      <trkpt lat="48.8848" lon="2.38025">
        <ele>117.3</ele>
        <time>2015-01-12T20:48:29.624Z</time>
      </trkpt>
      <trkpt lat="48.88483" lon="2.38028">
        <ele>117.3</ele>
        <time>2015-01-12T20:48:30.633Z</time>
      </trkpt>
      <trkpt lat="48.88488" lon="2.38035">
        <ele>116.7</ele>
        <time>2015-01-12T20:48:32.588Z</time>
      </trkpt>
      <trkpt lat="48.8849" lon="2.38039">
        <ele>116.4</ele>
        <time>2015-01-12T20:48:33.598Z</time>
      </trkpt>
      <trkpt lat="48.88491" lon="2.3805">
        <ele>116.2</ele>
        <time>2015-01-12T20:48:35.626Z</time>
      </trkpt>
      <trkpt lat="48.8849" lon="2.38057">
        <ele>116.2</ele>
        <time>2015-01-12T20:48:36.639Z</time>
      </trkpt>
      <trkpt lat="48.88488" lon="2.38065">
        <ele>116.3</ele>
        <time>2015-01-12T20:48:37.662Z</time>
      </trkpt>
      <trkpt lat="48.88484" lon="2.38073">
        <ele>116.5</ele>
        <time>2015-01-12T20:48:38.558Z</time>
      </trkpt>
      <trkpt lat="48.88481" lon="2.38082">
        <ele>117</ele>
        <time>2015-01-12T20:48:39.581Z</time>
      </trkpt>
      <trkpt lat="48.8848" lon="2.38087">
        <ele>117.8</ele>
        <time>2015-01-12T20:48:40.578Z</time>
      </trkpt>
      <trkpt lat="48.88478" lon="2.38097">
        <ele>118.6</ele>
        <time>2015-01-12T20:48:42.607Z</time>
      </trkpt>
      <trkpt lat="48.88479" lon="2.38102">
        <ele>118.9</ele>
        <time>2015-01-12T20:48:43.628Z</time>
      </trkpt>
      <trkpt lat="48.88481" lon="2.38111">
        <ele>119.7</ele>
        <time>2015-01-12T20:48:45.649Z</time>
      </trkpt>
      <trkpt lat="48.88483" lon="2.38117">
        <ele>119.7</ele>
        <time>2015-01-12T20:48:46.654Z</time>
      </trkpt>
      <trkpt lat="48.88485" lon="2.38126">
        <ele>119.1</ele>
        <time>2015-01-12T20:48:47.586Z</time>
      </trkpt>
      <trkpt lat="48.88487" lon="2.38136">
        <ele>118.5</ele>
        <time>2015-01-12T20:48:48.588Z</time>
      </trkpt>
      <trkpt lat="48.8849" lon="2.38149">
        <ele>116.9</ele>
        <time>2015-01-12T20:48:49.615Z</time>
      </trkpt>
      <trkpt lat="48.88492" lon="2.38167">
        <ele>115.7</ele>
        <time>2015-01-12T20:48:51.664Z</time>
      </trkpt>
      <trkpt lat="48.88492" lon="2.38176">
        <ele>114.9</ele>
        <time>2015-01-12T20:48:52.581Z</time>
      </trkpt>
      <trkpt lat="48.88491" lon="2.38184">
        <ele>114.3</ele>
        <time>2015-01-12T20:48:53.577Z</time>
      </trkpt>
      <trkpt lat="48.88489" lon="2.38193">
        <ele>113.8</ele>
        <time>2015-01-12T20:48:54.580Z</time>
      </trkpt>
      <trkpt lat="48.88486" lon="2.38204">
        <ele>113.9</ele>
        <time>2015-01-12T20:48:55.599Z</time>
      </trkpt>
      <trkpt lat="48.88487" lon="2.38211">
        <ele>113.9</ele>
        <time>2015-01-12T20:48:56.605Z</time>
      </trkpt>
      <trkpt lat="48.88487" lon="2.38219">
        <ele>114</ele>
        <time>2015-01-12T20:48:57.628Z</time>
      </trkpt>
      <trkpt lat="48.8849" lon="2.3823">
        <ele>114.6</ele>
        <time>2015-01-12T20:48:59.652Z</time>
      </trkpt>
      <trkpt lat="48.88492" lon="2.38235">
        <ele>115.7</ele>
        <time>2015-01-12T20:49:00.567Z</time>
      </trkpt>
      <trkpt lat="48.88497" lon="2.38244">
        <ele>117.1</ele>
        <time>2015-01-12T20:49:02.635Z</time>
      </trkpt>
      <trkpt lat="48.88498" lon="2.38249">
        <ele>117.4</ele>
        <time>2015-01-12T20:49:03.687Z</time>
      </trkpt>
      <trkpt lat="48.88498" lon="2.38259">
        <ele>118.1</ele>
        <time>2015-01-12T20:49:05.637Z</time>
      </trkpt>
      <trkpt lat="48.88497" lon="2.38264">
        <ele>118</ele>
        <time>2015-01-12T20:49:06.655Z</time>
      </trkpt>
      <trkpt lat="48.88499" lon="2.38276">
        <ele>118.6</ele>
        <time>2015-01-12T20:49:09.590Z</time>
      </trkpt>
      <trkpt lat="48.885" lon="2.38282">
        <ele>118.9</ele>
        <time>2015-01-12T20:49:10.602Z</time>
      </trkpt>
      <trkpt lat="48.88503" lon="2.38291">
        <ele>119.4</ele>
        <time>2015-01-12T20:49:12.640Z</time>
      </trkpt>
      <trkpt lat="48.88504" lon="2.38296">
        <ele>119.7</ele>
        <time>2015-01-12T20:49:13.649Z</time>
      </trkpt>
      <trkpt lat="48.8851" lon="2.38304">
        <ele>123.6</ele>
        <time>2015-01-12T20:49:29.630Z</time>
      </trkpt>
      <trkpt lat="48.88511" lon="2.38304">
        <ele>123.8</ele>
        <time>2015-01-12T20:49:30.604Z</time>
      </trkpt>
      <trkpt lat="48.88515" lon="2.38295">
        <ele>125.3</ele>
        <time>2015-01-12T20:49:34.653Z</time>
      </trkpt>
      <trkpt lat="48.88519" lon="2.38289">
        <ele>125.3</ele>
        <time>2015-01-12T20:49:35.588Z</time>
      </trkpt>
      <trkpt lat="48.88525" lon="2.38287">
        <ele>125.7</ele>
        <time>2015-01-12T20:49:36.589Z</time>
      </trkpt>
      <trkpt lat="48.8853" lon="2.38285">
        <ele>125.9</ele>
        <time>2015-01-12T20:49:37.623Z</time>
      </trkpt>
      <trkpt lat="48.88537" lon="2.38282">
        <ele>126.2</ele>
        <time>2015-01-12T20:49:38.638Z</time>
      </trkpt>
      <trkpt lat="48.88543" lon="2.3828">
        <ele>126.5</ele>
        <time>2015-01-12T20:49:39.604Z</time>
      </trkpt>
      <trkpt lat="48.8855" lon="2.38277">
        <ele>127</ele>
        <time>2015-01-12T20:49:40.663Z</time>
      </trkpt>
      <trkpt lat="48.88556" lon="2.38274">
        <ele>127.4</ele>
        <time>2015-01-12T20:49:41.679Z</time>
      </trkpt>
      <trkpt lat="48.8856" lon="2.3827">
        <ele>127.8</ele>
        <time>2015-01-12T20:49:42.687Z</time>
      </trkpt>
      <trkpt lat="48.88565" lon="2.38267">
        <ele>128</ele>
        <time>2015-01-12T20:49:43.786Z</time>
      </trkpt>
      <trkpt lat="48.88569" lon="2.38264">
        <ele>128.3</ele>
        <time>2015-01-12T20:49:44.611Z</time>
      </trkpt>
      <trkpt lat="48.88573" lon="2.38261">
        <ele>128.8</ele>
        <time>2015-01-12T20:49:45.663Z</time>
      </trkpt>
      <trkpt lat="48.88578" lon="2.38256">
        <ele>129.2</ele>
        <time>2015-01-12T20:49:46.682Z</time>
      </trkpt>
      <trkpt lat="48.88583" lon="2.38253">
        <ele>129.6</ele>
        <time>2015-01-12T20:49:47.697Z</time>
      </trkpt>
      <trkpt lat="48.8859" lon="2.38245">
        <ele>129.6</ele>
        <time>2015-01-12T20:49:49.690Z</time>
      </trkpt>
      <trkpt lat="48.88593" lon="2.3824">
        <ele>129.6</ele>
        <time>2015-01-12T20:49:50.603Z</time>
      </trkpt>
      <trkpt lat="48.88594" lon="2.38228">
        <ele>128.3</ele>
        <time>2015-01-12T20:49:52.618Z</time>
      </trkpt>
      <trkpt lat="48.88595" lon="2.38224">
        <ele>128.2</ele>
        <time>2015-01-12T20:49:53.627Z</time>
      </trkpt>
      <trkpt lat="48.88602" lon="2.38215">
        <ele>122.9</ele>
        <time>2015-01-12T20:50:02.664Z</time>
      </trkpt>
      <trkpt lat="48.88604" lon="2.38212">
        <ele>122.7</ele>
        <time>2015-01-12T20:50:03.680Z</time>
      </trkpt>
      <trkpt lat="48.88608" lon="2.38204">
        <ele>121.9</ele>
        <time>2015-01-12T20:50:05.599Z</time>
      </trkpt>
      <trkpt lat="48.8861" lon="2.382">
        <ele>121.3</ele>
        <time>2015-01-12T20:50:06.611Z</time>
      </trkpt>
      <trkpt lat="48.88616" lon="2.38192">
        <ele>119.9</ele>
        <time>2015-01-12T20:50:09.657Z</time>
      </trkpt>
      <trkpt lat="48.88618" lon="2.3819">
        <ele>118.8</ele>
        <time>2015-01-12T20:50:10.683Z</time>
      </trkpt>
      <trkpt lat="48.88626" lon="2.38184">
        <ele>117.3</ele>
        <time>2015-01-12T20:50:13.635Z</time>
      </trkpt>
      <trkpt lat="48.88629" lon="2.3818">
        <ele>117.4</ele>
        <time>2015-01-12T20:50:14.637Z</time>
      </trkpt>
      <trkpt lat="48.88637" lon="2.38174">
        <ele>117.3</ele>
        <time>2015-01-12T20:50:16.670Z</time>
      </trkpt>
      <trkpt lat="48.88641" lon="2.38171">
        <ele>117.4</ele>
        <time>2015-01-12T20:50:17.677Z</time>
      </trkpt>
      <trkpt lat="48.88649" lon="2.38168">
        <ele>117.7</ele>
        <time>2015-01-12T20:50:19.625Z</time>
      </trkpt>
      <trkpt lat="48.88653" lon="2.38166">
        <ele>117.8</ele>
        <time>2015-01-12T20:50:20.653Z</time>
      </trkpt>
      <trkpt lat="48.8866" lon="2.38162">
        <ele>118.5</ele>
        <time>2015-01-12T20:50:22.612Z</time>
      </trkpt>
      <trkpt lat="48.88663" lon="2.38157">
        <ele>119.3</ele>
        <time>2015-01-12T20:50:23.615Z</time>
      </trkpt>
      <trkpt lat="48.88668" lon="2.38147">
        <ele>120.2</ele>
        <time>2015-01-12T20:50:25.694Z</time>
      </trkpt>
      <trkpt lat="48.8867" lon="2.38142">
        <ele>120.6</ele>
        <time>2015-01-12T20:50:26.582Z</time>
      </trkpt>
      <trkpt lat="48.88676" lon="2.38136">
        <ele>120.6</ele>
        <time>2015-01-12T20:50:28.613Z</time>
      </trkpt>
      <trkpt lat="48.88679" lon="2.38133">
        <ele>120.7</ele>
        <time>2015-01-12T20:50:29.644Z</time>
      </trkpt>
      <trkpt lat="48.88683" lon="2.38128">
        <ele>121.6</ele>
        <time>2015-01-12T20:50:30.688Z</time>
      </trkpt>
      <trkpt lat="48.88686" lon="2.38125">
        <ele>121.7</ele>
        <time>2015-01-12T20:50:31.713Z</time>
      </trkpt>
      <trkpt lat="48.8869" lon="2.38117">
        <ele>121</ele>
        <time>2015-01-12T20:50:33.602Z</time>
      </trkpt>
      <trkpt lat="48.88693" lon="2.38113">
        <ele>120.3</ele>
        <time>2015-01-12T20:50:34.648Z</time>
      </trkpt>
      <trkpt lat="48.88699" lon="2.38105">
        <ele>120.1</ele>
        <time>2015-01-12T20:50:36.587Z</time>
      </trkpt>
      <trkpt lat="48.88701" lon="2.38102">
        <ele>119.8</ele>
        <time>2015-01-12T20:50:37.622Z</time>
      </trkpt>
      <trkpt lat="48.88708" lon="2.38096">
        <ele>118.9</ele>
        <time>2015-01-12T20:50:39.592Z</time>
      </trkpt>
      <trkpt lat="48.88711" lon="2.38093">
        <ele>118.6</ele>
        <time>2015-01-12T20:50:40.617Z</time>
      </trkpt>
      <trkpt lat="48.88716" lon="2.38087">
        <ele>118.1</ele>
        <time>2015-01-12T20:50:42.684Z</time>
      </trkpt>
      <trkpt lat="48.8872" lon="2.38085">
        <ele>118</ele>
        <time>2015-01-12T20:50:43.739Z</time>
      </trkpt>
      <trkpt lat="48.88724" lon="2.38082">
        <ele>118</ele>
        <time>2015-01-12T20:50:44.608Z</time>
      </trkpt>
      <trkpt lat="48.88727" lon="2.38077">
        <ele>118.4</ele>
        <time>2015-01-12T20:50:45.800Z</time>
      </trkpt>
      <trkpt lat="48.88731" lon="2.38073">
        <ele>118.2</ele>
        <time>2015-01-12T20:50:46.651Z</time>
      </trkpt>
      <trkpt lat="48.88734" lon="2.38067">
        <ele>117.8</ele>
        <time>2015-01-12T20:50:47.670Z</time>
      </trkpt>
      <trkpt lat="48.88737" lon="2.38063">
        <ele>117.5</ele>
        <time>2015-01-12T20:50:48.691Z</time>
      </trkpt>
      <trkpt lat="48.8874" lon="2.38057">
        <ele>117.5</ele>
        <time>2015-01-12T20:50:49.895Z</time>
      </trkpt>
      <trkpt lat="48.88745" lon="2.38047">
        <ele>117</ele>
        <time>2015-01-12T20:50:51.602Z</time>
      </trkpt>
      <trkpt lat="48.88748" lon="2.38042">
        <ele>116.7</ele>
        <time>2015-01-12T20:50:52.624Z</time>
      </trkpt>
      <trkpt lat="48.88753" lon="2.38033">
        <ele>116.1</ele>
        <time>2015-01-12T20:50:54.779Z</time>
      </trkpt>
      <trkpt lat="48.88756" lon="2.38029">
        <ele>116.1</ele>
        <time>2015-01-12T20:50:55.624Z</time>
      </trkpt>
      <trkpt lat="48.88761" lon="2.38019">
        <ele>116.7</ele>
        <time>2015-01-12T20:50:57.578Z</time>
      </trkpt>
      <trkpt lat="48.88765" lon="2.38015">
        <ele>116.4</ele>
        <time>2015-01-12T20:50:58.779Z</time>
      </trkpt>
      <trkpt lat="48.88773" lon="2.38009">
        <ele>116.5</ele>
        <time>2015-01-12T20:51:00.606Z</time>
      </trkpt>
      <trkpt lat="48.88777" lon="2.38006">
        <ele>116.6</ele>
        <time>2015-01-12T20:51:01.670Z</time>
      </trkpt>
      <trkpt lat="48.88784" lon="2.38">
        <ele>116.6</ele>
        <time>2015-01-12T20:51:04.176Z</time>
      </trkpt>
      <trkpt lat="48.88788" lon="2.37998">
        <ele>117</ele>
        <time>2015-01-12T20:51:04.592Z</time>
      </trkpt>
      <trkpt lat="48.88794" lon="2.3799">
        <ele>117.3</ele>
        <time>2015-01-12T20:51:07.692Z</time>
      </trkpt>
      <trkpt lat="48.88796" lon="2.37987">
        <ele>117</ele>
        <time>2015-01-12T20:51:08.594Z</time>
      </trkpt>
      <trkpt lat="48.88803" lon="2.3798">
        <ele>116.6</ele>
        <time>2015-01-12T20:51:11.614Z</time>
      </trkpt>
      <trkpt lat="48.88807" lon="2.37977">
        <ele>116.5</ele>
        <time>2015-01-12T20:51:12.651Z</time>
      </trkpt>
      <trkpt lat="48.88815" lon="2.37972">
        <ele>116.7</ele>
        <time>2015-01-12T20:51:15.662Z</time>
      </trkpt>
      <trkpt lat="48.88816" lon="2.3797">
        <ele>116.1</ele>
        <time>2015-01-12T20:51:16.671Z</time>
      </trkpt>
      <trkpt lat="48.88824" lon="2.37964">
        <ele>116.3</ele>
        <time>2015-01-12T20:51:19.806Z</time>
      </trkpt>
      <trkpt lat="48.88825" lon="2.37962">
        <ele>116.4</ele>
        <time>2015-01-12T20:51:20.615Z</time>
      </trkpt>
      <trkpt lat="48.88833" lon="2.37955">
        <ele>116.6</ele>
        <time>2015-01-12T20:51:25.692Z</time>
      </trkpt>
      <trkpt lat="48.88834" lon="2.37954">
        <ele>117</ele>
        <time>2015-01-12T20:51:26.594Z</time>
      </trkpt>
      <trkpt lat="48.88839" lon="2.37944">
        <ele>117</ele>
        <time>2015-01-12T20:51:29.850Z</time>
      </trkpt>
      <trkpt lat="48.88842" lon="2.3794">
        <ele>117.3</ele>
        <time>2015-01-12T20:51:30.676Z</time>
      </trkpt>
      <trkpt lat="48.88848" lon="2.3793">
        <ele>118.2</ele>
        <time>2015-01-12T20:51:33.597Z</time>
      </trkpt>
      <trkpt lat="48.88849" lon="2.37928">
        <ele>118.6</ele>
        <time>2015-01-12T20:51:34.654Z</time>
      </trkpt>
      <trkpt lat="48.88854" lon="2.37919">
        <ele>116.1</ele>
        <time>2015-01-12T20:51:40.695Z</time>
      </trkpt>
      <trkpt lat="48.88856" lon="2.37917">
        <ele>115.9</ele>
        <time>2015-01-12T20:51:41.714Z</time>
      </trkpt>
      <trkpt lat="48.8886" lon="2.37906">
        <ele>115.2</ele>
        <time>2015-01-12T20:51:46.590Z</time>
      </trkpt>
      <trkpt lat="48.88863" lon="2.37905">
        <ele>115.4</ele>
        <time>2015-01-12T20:51:47.600Z</time>
      </trkpt>
      <trkpt lat="48.8887" lon="2.37899">
        <ele>115.5</ele>
        <time>2015-01-12T20:51:49.626Z</time>
      </trkpt>
      <trkpt lat="48.88871" lon="2.37895">
        <ele>115.5</ele>
        <time>2015-01-12T20:51:50.633Z</time>
      </trkpt>
      <trkpt lat="48.88875" lon="2.37888">
        <ele>115.5</ele>
        <time>2015-01-12T20:51:52.657Z</time>
      </trkpt>
      <trkpt lat="48.88877" lon="2.37884">
        <ele>115.3</ele>
        <time>2015-01-12T20:51:53.667Z</time>
      </trkpt>
      <trkpt lat="48.88881" lon="2.37876">
        <ele>114.6</ele>
        <time>2015-01-12T20:51:55.628Z</time>
      </trkpt>
      <trkpt lat="48.88882" lon="2.37871">
        <ele>114.3</ele>
        <time>2015-01-12T20:51:56.634Z</time>
      </trkpt>
      <trkpt lat="48.88882" lon="2.37862">
        <ele>114.9</ele>
        <time>2015-01-12T20:51:58.571Z</time>
      </trkpt>
      <trkpt lat="48.88881" lon="2.37856">
        <ele>115.1</ele>
        <time>2015-01-12T20:51:59.603Z</time>
      </trkpt>
      <trkpt lat="48.88875" lon="2.37847">
        <ele>115.5</ele>
        <time>2015-01-12T20:52:01.657Z</time>
      </trkpt>
      <trkpt lat="48.88873" lon="2.37843">
        <ele>115.7</ele>
        <time>2015-01-12T20:52:02.660Z</time>
      </trkpt>
      <trkpt lat="48.88866" lon="2.37836">
        <ele>115.6</ele>
        <time>2015-01-12T20:52:04.592Z</time>
      </trkpt>
      <trkpt lat="48.88863" lon="2.37833">
        <ele>115.8</ele>
        <time>2015-01-12T20:52:05.599Z</time>
      </trkpt>
      <trkpt lat="48.88865" lon="2.37823">
        <ele>116.7</ele>
        <time>2015-01-12T20:52:08.659Z</time>
      </trkpt>
      <trkpt lat="48.88868" lon="2.37818">
        <ele>117.5</ele>
        <time>2015-01-12T20:52:09.681Z</time>
      </trkpt>
      <trkpt lat="48.88874" lon="2.37812">
        <ele>117.1</ele>
        <time>2015-01-12T20:52:11.606Z</time>
      </trkpt>
      <trkpt lat="48.88877" lon="2.37808">
        <ele>117.2</ele>
        <time>2015-01-12T20:52:12.614Z</time>
      </trkpt>
      <trkpt lat="48.88882" lon="2.37801">
        <ele>117.9</ele>
        <time>2015-01-12T20:52:14.676Z</time>
      </trkpt>
      <trkpt lat="48.88885" lon="2.37796">
        <ele>117.9</ele>
        <time>2015-01-12T20:52:15.682Z</time>
      </trkpt>
      <trkpt lat="48.88889" lon="2.37791">
        <ele>117.9</ele>
        <time>2015-01-12T20:52:16.568Z</time>
      </trkpt>
      <trkpt lat="48.88895" lon="2.37785">
        <ele>118.2</ele>
        <time>2015-01-12T20:52:17.624Z</time>
      </trkpt>
      <trkpt lat="48.88901" lon="2.37776">
        <ele>117.8</ele>
        <time>2015-01-12T20:52:19.834Z</time>
      </trkpt>
      <trkpt lat="48.88904" lon="2.37772">
        <ele>117.7</ele>
        <time>2015-01-12T20:52:20.637Z</time>
      </trkpt>
      <trkpt lat="48.88908" lon="2.37762">
        <ele>117.8</ele>
        <time>2015-01-12T20:52:22.649Z</time>
      </trkpt>
      <trkpt lat="48.88911" lon="2.37757">
        <ele>117.9</ele>
        <time>2015-01-12T20:52:23.651Z</time>
      </trkpt>
      <trkpt lat="48.88914" lon="2.37751">
        <ele>117.9</ele>
        <time>2015-01-12T20:52:24.658Z</time>
      </trkpt>
      <trkpt lat="48.88917" lon="2.37746">
        <ele>118</ele>
        <time>2015-01-12T20:52:25.671Z</time>
      </trkpt>
      <trkpt lat="48.8892" lon="2.37738">
        <ele>118.3</ele>
        <time>2015-01-12T20:52:27.457Z</time>
      </trkpt>
      <trkpt lat="48.88923" lon="2.37733">
        <ele>118.5</ele>
        <time>2015-01-12T20:52:27.588Z</time>
      </trkpt>
      <trkpt lat="48.88927" lon="2.37727">
        <ele>119</ele>
        <time>2015-01-12T20:52:28.625Z</time>
      </trkpt>
      <trkpt lat="48.8893" lon="2.3772">
        <ele>119.4</ele>
        <time>2015-01-12T20:52:29.627Z</time>
      </trkpt>
      <trkpt lat="48.88933" lon="2.37711">
        <ele>119.7</ele>
        <time>2015-01-12T20:52:30.650Z</time>
      </trkpt>
      <trkpt lat="48.88936" lon="2.37704">
        <ele>120</ele>
        <time>2015-01-12T20:52:31.667Z</time>
      </trkpt>
      <trkpt lat="48.88941" lon="2.37697">
        <ele>120.4</ele>
        <time>2015-01-12T20:52:32.679Z</time>
      </trkpt>
      <trkpt lat="48.88944" lon="2.37689">
        <ele>120.6</ele>
        <time>2015-01-12T20:52:33.589Z</time>
      </trkpt>
      <trkpt lat="48.88946" lon="2.37682">
        <ele>120.8</ele>
        <time>2015-01-12T20:52:34.610Z</time>
      </trkpt>
      <trkpt lat="48.88949" lon="2.37676">
        <ele>120.8</ele>
        <time>2015-01-12T20:52:35.622Z</time>
      </trkpt>
      <trkpt lat="48.88952" lon="2.37669">
        <ele>120.9</ele>
        <time>2015-01-12T20:52:36.635Z</time>
      </trkpt>
      <trkpt lat="48.88955" lon="2.37663">
        <ele>120.9</ele>
        <time>2015-01-12T20:52:37.646Z</time>
      </trkpt>
      <trkpt lat="48.88961" lon="2.37653">
        <ele>120.5</ele>
        <time>2015-01-12T20:52:39.575Z</time>
      </trkpt>
      <trkpt lat="48.88963" lon="2.37648">
        <ele>120.4</ele>
        <time>2015-01-12T20:52:40.578Z</time>
      </trkpt>
      <trkpt lat="48.88968" lon="2.3764">
        <ele>120.3</ele>
        <time>2015-01-12T20:52:42.687Z</time>
      </trkpt>
      <trkpt lat="48.8897" lon="2.37635">
        <ele>120.2</ele>
        <time>2015-01-12T20:52:43.574Z</time>
      </trkpt>
      <trkpt lat="48.88976" lon="2.37626">
        <ele>119.7</ele>
        <time>2015-01-12T20:52:45.641Z</time>
      </trkpt>
      <trkpt lat="48.88978" lon="2.37621">
        <ele>119.7</ele>
        <time>2015-01-12T20:52:46.726Z</time>
      </trkpt>
      <trkpt lat="48.88984" lon="2.37613">
        <ele>120.1</ele>
        <time>2015-01-12T20:52:48.566Z</time>
      </trkpt>
      <trkpt lat="48.88987" lon="2.3761">
        <ele>120.2</ele>
        <time>2015-01-12T20:52:49.630Z</time>
      </trkpt>
      <trkpt lat="48.88991" lon="2.37605">
        <ele>120.8</ele>
        <time>2015-01-12T20:52:51.570Z</time>
      </trkpt>
      <trkpt lat="48.8899" lon="2.37597">
        <ele>120.5</ele>
        <time>2015-01-12T20:52:52.627Z</time>
      </trkpt>
      <trkpt lat="48.88989" lon="2.37584">
        <ele>120.8</ele>
        <time>2015-01-12T20:52:55.621Z</time>
      </trkpt>
      <trkpt lat="48.88988" lon="2.37582">
        <ele>121</ele>
        <time>2015-01-12T20:52:56.644Z</time>
      </trkpt>
      <trkpt lat="48.88985" lon="2.37573">
        <ele>121.6</ele>
        <time>2015-01-12T20:52:59.587Z</time>
      </trkpt>
      <trkpt lat="48.88982" lon="2.37571">
        <ele>121.2</ele>
        <time>2015-01-12T20:53:00.592Z</time>
      </trkpt>
      <trkpt lat="48.88975" lon="2.37565">
        <ele>119.5</ele>
        <time>2015-01-12T20:53:02.645Z</time>
      </trkpt>
      <trkpt lat="48.88969" lon="2.37563">
        <ele>118.5</ele>
        <time>2015-01-12T20:53:03.668Z</time>
      </trkpt>
      <trkpt lat="48.88962" lon="2.3756">
        <ele>117</ele>
        <time>2015-01-12T20:53:05.578Z</time>
      </trkpt>
      <trkpt lat="48.8896" lon="2.37558">
        <ele>117.2</ele>
        <time>2015-01-12T20:53:06.588Z</time>
      </trkpt>
      <trkpt lat="48.88958" lon="2.37549">
        <ele>116.3</ele>
        <time>2015-01-12T20:53:15.595Z</time>
      </trkpt>
      <trkpt lat="48.88953" lon="2.37544">
        <ele>114.9</ele>
        <time>2015-01-12T20:53:16.607Z</time>
      </trkpt>
      <trkpt lat="48.88947" lon="2.37535">
        <ele>112.8</ele>
        <time>2015-01-12T20:53:19.628Z</time>
      </trkpt>
      <trkpt lat="48.88946" lon="2.37533">
        <ele>112.1</ele>
        <time>2015-01-12T20:53:20.574Z</time>
      </trkpt>
      <trkpt lat="48.88941" lon="2.37522">
        <ele>111.7</ele>
        <time>2015-01-12T20:53:25.633Z</time>
      </trkpt>
      <trkpt lat="48.8894" lon="2.37517">
        <ele>112.3</ele>
        <time>2015-01-12T20:53:26.646Z</time>
      </trkpt>
      <trkpt lat="48.88933" lon="2.37509">
        <ele>114.8</ele>
        <time>2015-01-12T20:53:29.709Z</time>
      </trkpt>
      <trkpt lat="48.88931" lon="2.37506">
        <ele>115.5</ele>
        <time>2015-01-12T20:53:30.599Z</time>
      </trkpt>
      <trkpt lat="48.88924" lon="2.37497">
        <ele>116.1</ele>
        <time>2015-01-12T20:53:33.666Z</time>
      </trkpt>
      <trkpt lat="48.88922" lon="2.37494">
        <ele>116.2</ele>
        <time>2015-01-12T20:53:34.640Z</time>
      </trkpt>
      <trkpt lat="48.88915" lon="2.37491">
        <ele>116.2</ele>
        <time>2015-01-12T20:53:37.693Z</time>
      </trkpt>
      <trkpt lat="48.88912" lon="2.3749">
        <ele>115.8</ele>
        <time>2015-01-12T20:53:38.566Z</time>
      </trkpt>
      <trkpt lat="48.88906" lon="2.37487">
        <ele>114.4</ele>
        <time>2015-01-12T20:53:40.629Z</time>
      </trkpt>
      <trkpt lat="48.88903" lon="2.37484">
        <ele>114.1</ele>
        <time>2015-01-12T20:53:41.670Z</time>
      </trkpt>
      <trkpt lat="48.88897" lon="2.37478">
        <ele>114.5</ele>
        <time>2015-01-12T20:53:43.736Z</time>
      </trkpt>
      <trkpt lat="48.88894" lon="2.37474">
        <ele>114.2</ele>
        <time>2015-01-12T20:53:44.642Z</time>
      </trkpt>
      <trkpt lat="48.88888" lon="2.37466">
        <ele>114.3</ele>
        <time>2015-01-12T20:53:46.671Z</time>
      </trkpt>
      <trkpt lat="48.88884" lon="2.37462">
        <ele>114.4</ele>
        <time>2015-01-12T20:53:47.685Z</time>
      </trkpt>
      <trkpt lat="48.88878" lon="2.37454">
        <ele>114.3</ele>
        <time>2015-01-12T20:53:49.608Z</time>
      </trkpt>
      <trkpt lat="48.88875" lon="2.37451">
        <ele>114.1</ele>
        <time>2015-01-12T20:53:50.623Z</time>
      </trkpt>
      <trkpt lat="48.88872" lon="2.37446">
        <ele>113.6</ele>
        <time>2015-01-12T20:53:51.652Z</time>
      </trkpt>
      <trkpt lat="48.88868" lon="2.37442">
        <ele>113.4</ele>
        <time>2015-01-12T20:53:52.661Z</time>
      </trkpt>
      <trkpt lat="48.88864" lon="2.37437">
        <ele>113.3</ele>
        <time>2015-01-12T20:53:53.670Z</time>
      </trkpt>
      <trkpt lat="48.88861" lon="2.37433">
        <ele>113.1</ele>
        <time>2015-01-12T20:53:54.677Z</time>
      </trkpt>
      <trkpt lat="48.88854" lon="2.37424">
        <ele>112.4</ele>
        <time>2015-01-12T20:53:57.625Z</time>
      </trkpt>
      <trkpt lat="48.88852" lon="2.37423">
        <ele>112.3</ele>
        <time>2015-01-12T20:53:58.626Z</time>
      </trkpt>
      <trkpt lat="48.88848" lon="2.37414">
        <ele>112.5</ele>
        <time>2015-01-12T20:54:01.660Z</time>
      </trkpt>
      <trkpt lat="48.88848" lon="2.3741">
        <ele>112.8</ele>
        <time>2015-01-12T20:54:02.699Z</time>
      </trkpt>
      <trkpt lat="48.88848" lon="2.37396">
        <ele>113</ele>
        <time>2015-01-12T20:54:05.592Z</time>
      </trkpt>
      <trkpt lat="48.88848" lon="2.3739">
        <ele>113.3</ele>
        <time>2015-01-12T20:54:06.611Z</time>
      </trkpt>
      <trkpt lat="48.88851" lon="2.37381">
        <ele>113.2</ele>
        <time>2015-01-12T20:54:09.647Z</time>
      </trkpt>
      <trkpt lat="48.88852" lon="2.37376">
        <ele>113.2</ele>
        <time>2015-01-12T20:54:10.666Z</time>
      </trkpt>
      <trkpt lat="48.88855" lon="2.37366">
        <ele>113.2</ele>
        <time>2015-01-12T20:54:12.605Z</time>
      </trkpt>
      <trkpt lat="48.88856" lon="2.3736">
        <ele>113.3</ele>
        <time>2015-01-12T20:54:13.638Z</time>
      </trkpt>
      <trkpt lat="48.88859" lon="2.37352">
        <ele>112.2</ele>
        <time>2015-01-12T20:54:14.688Z</time>
      </trkpt>
      <trkpt lat="48.88862" lon="2.37344">
        <ele>110.7</ele>
        <time>2015-01-12T20:54:15.702Z</time>
      </trkpt>
      <trkpt lat="48.88866" lon="2.37337">
        <ele>109.6</ele>
        <time>2015-01-12T20:54:16.590Z</time>
      </trkpt>
      <trkpt lat="48.8887" lon="2.37331">
        <ele>108.8</ele>
        <time>2015-01-12T20:54:17.589Z</time>
      </trkpt>
      <trkpt lat="48.88875" lon="2.37325">
        <ele>108.4</ele>
        <time>2015-01-12T20:54:19.039Z</time>
      </trkpt>
      <trkpt lat="48.88879" lon="2.37319">
        <ele>108</ele>
        <time>2015-01-12T20:54:19.623Z</time>
      </trkpt>
      <trkpt lat="48.88881" lon="2.37313">
        <ele>108.3</ele>
        <time>2015-01-12T20:54:20.629Z</time>
      </trkpt>
      <trkpt lat="48.88884" lon="2.37307">
        <ele>108.3</ele>
        <time>2015-01-12T20:54:21.642Z</time>
      </trkpt>
      <trkpt lat="48.88886" lon="2.37299">
        <ele>108.4</ele>
        <time>2015-01-12T20:54:22.656Z</time>
      </trkpt>
      <trkpt lat="48.88888" lon="2.37292">
        <ele>108.5</ele>
        <time>2015-01-12T20:54:23.661Z</time>
      </trkpt>
      <trkpt lat="48.88889" lon="2.37285">
        <ele>108.9</ele>
        <time>2015-01-12T20:54:24.674Z</time>
      </trkpt>
      <trkpt lat="48.88893" lon="2.37278">
        <ele>109.1</ele>
        <time>2015-01-12T20:54:25.683Z</time>
      </trkpt>
      <trkpt lat="48.88897" lon="2.37273">
        <ele>109.3</ele>
        <time>2015-01-12T20:54:26.588Z</time>
      </trkpt>
      <trkpt lat="48.88899" lon="2.37265">
        <ele>109.6</ele>
        <time>2015-01-12T20:54:27.591Z</time>
      </trkpt>
      <trkpt lat="48.88898" lon="2.37257">
        <ele>109.5</ele>
        <time>2015-01-12T20:54:28.594Z</time>
      </trkpt>
      <trkpt lat="48.889" lon="2.3725">
        <ele>109.8</ele>
        <time>2015-01-12T20:54:29.598Z</time>
      </trkpt>
      <trkpt lat="48.88902" lon="2.37243">
        <ele>110.1</ele>
        <time>2015-01-12T20:54:30.612Z</time>
      </trkpt>
      <trkpt lat="48.88905" lon="2.37236">
        <ele>110.5</ele>
        <time>2015-01-12T20:54:31.629Z</time>
      </trkpt>
      <trkpt lat="48.88908" lon="2.37224">
        <ele>110.5</ele>
        <time>2015-01-12T20:54:33.587Z</time>
      </trkpt>
      <trkpt lat="48.88909" lon="2.37218">
        <ele>110.2</ele>
        <time>2015-01-12T20:54:34.689Z</time>
      </trkpt>
      <trkpt lat="48.88912" lon="2.37206">
        <ele>110.7</ele>
        <time>2015-01-12T20:54:36.603Z</time>
      </trkpt>
      <trkpt lat="48.88914" lon="2.372">
        <ele>110.7</ele>
        <time>2015-01-12T20:54:37.657Z</time>
      </trkpt>
      <trkpt lat="48.88918" lon="2.3719">
        <ele>110.8</ele>
        <time>2015-01-12T20:54:39.594Z</time>
      </trkpt>
      <trkpt lat="48.8892" lon="2.37184">
        <ele>110.8</ele>
        <time>2015-01-12T20:54:40.631Z</time>
      </trkpt>
      <trkpt lat="48.88926" lon="2.37176">
        <ele>111.1</ele>
        <time>2015-01-12T20:54:42.669Z</time>
      </trkpt>
      <trkpt lat="48.88927" lon="2.3717">
        <ele>110.8</ele>
        <time>2015-01-12T20:54:43.690Z</time>
      </trkpt>
      <trkpt lat="48.88928" lon="2.37157">
        <ele>108.6</ele>
        <time>2015-01-12T20:54:46.812Z</time>
      </trkpt>
      <trkpt lat="48.88931" lon="2.37153">
        <ele>108.7</ele>
        <time>2015-01-12T20:54:47.655Z</time>
      </trkpt>
      <trkpt lat="48.88934" lon="2.37142">
        <ele>109</ele>
        <time>2015-01-12T20:54:49.637Z</time>
      </trkpt>
      <trkpt lat="48.88935" lon="2.37136">
        <ele>109.4</ele>
        <time>2015-01-12T20:54:50.632Z</time>
      </trkpt>
      <trkpt lat="48.88936" lon="2.37125">
        <ele>110</ele>
        <time>2015-01-12T20:54:52.665Z</time>
      </trkpt>
      <trkpt lat="48.88936" lon="2.37119">
        <ele>110.3</ele>
        <time>2015-01-12T20:54:53.577Z</time>
      </trkpt>
      <trkpt lat="48.88933" lon="2.37108">
        <ele>109.2</ele>
        <time>2015-01-12T20:54:55.635Z</time>
      </trkpt>
      <trkpt lat="48.88932" lon="2.37103">
        <ele>108.5</ele>
        <time>2015-01-12T20:54:56.627Z</time>
      </trkpt>
      <trkpt lat="48.88931" lon="2.37092">
        <ele>107.5</ele>
        <time>2015-01-12T20:54:59.654Z</time>
      </trkpt>
      <trkpt lat="48.88932" lon="2.37087">
        <ele>107.5</ele>
        <time>2015-01-12T20:54:59.741Z</time>
      </trkpt>
      <trkpt lat="48.88935" lon="2.37076">
        <ele>107.3</ele>
        <time>2015-01-12T20:55:01.662Z</time>
      </trkpt>
      <trkpt lat="48.88937" lon="2.37071">
        <ele>107.5</ele>
        <time>2015-01-12T20:55:02.642Z</time>
      </trkpt>
      <trkpt lat="48.8894" lon="2.37059">
        <ele>108</ele>
        <time>2015-01-12T20:55:04.706Z</time>
      </trkpt>
      <trkpt lat="48.8894" lon="2.37052">
        <ele>108.4</ele>
        <time>2015-01-12T20:55:05.552Z</time>
      </trkpt>
      <trkpt lat="48.88942" lon="2.3704">
        <ele>109.2</ele>
        <time>2015-01-12T20:55:07.643Z</time>
      </trkpt>
      <trkpt lat="48.88943" lon="2.37034">
        <ele>109.6</ele>
        <time>2015-01-12T20:55:08.649Z</time>
      </trkpt>
      <trkpt lat="48.88946" lon="2.37023">
        <ele>110.8</ele>
        <time>2015-01-12T20:55:10.555Z</time>
      </trkpt>
      <trkpt lat="48.88947" lon="2.37017">
        <ele>111.6</ele>
        <time>2015-01-12T20:55:11.633Z</time>
      </trkpt>
      <trkpt lat="48.88949" lon="2.37005">
        <ele>112.4</ele>
        <time>2015-01-12T20:55:13.653Z</time>
      </trkpt>
      <trkpt lat="48.88951" lon="2.37">
        <ele>112.6</ele>
        <time>2015-01-12T20:55:14.565Z</time>
      </trkpt>
      <trkpt lat="48.88952" lon="2.3699">
        <ele>112.2</ele>
        <time>2015-01-12T20:55:16.578Z</time>
      </trkpt>
      <trkpt lat="48.88953" lon="2.36984">
        <ele>112.2</ele>
        <time>2015-01-12T20:55:17.593Z</time>
      </trkpt>
      <trkpt lat="48.88955" lon="2.36972">
        <ele>112.7</ele>
        <time>2015-01-12T20:55:20.180Z</time>
      </trkpt>
      <trkpt lat="48.88957" lon="2.36967">
        <ele>113</ele>
        <time>2015-01-12T20:55:20.659Z</time>
      </trkpt>
      <trkpt lat="48.88961" lon="2.36955">
        <ele>114.2</ele>
        <time>2015-01-12T20:55:22.677Z</time>
      </trkpt>
      <trkpt lat="48.88963" lon="2.36949">
        <ele>114.5</ele>
        <time>2015-01-12T20:55:23.681Z</time>
      </trkpt>
      <trkpt lat="48.88968" lon="2.3694">
        <ele>114.8</ele>
        <time>2015-01-12T20:55:25.603Z</time>
      </trkpt>
      <trkpt lat="48.8897" lon="2.36934">
        <ele>115.1</ele>
        <time>2015-01-12T20:55:26.615Z</time>
      </trkpt>
      <trkpt lat="48.88973" lon="2.36923">
        <ele>115.3</ele>
        <time>2015-01-12T20:55:28.765Z</time>
      </trkpt>
      <trkpt lat="48.88974" lon="2.36917">
        <ele>115.3</ele>
        <time>2015-01-12T20:55:29.599Z</time>
      </trkpt>
      <trkpt lat="48.88974" lon="2.36907">
        <ele>114.1</ele>
        <time>2015-01-12T20:55:32.307Z</time>
      </trkpt>
      <trkpt lat="48.88974" lon="2.36901">
        <ele>113.9</ele>
        <time>2015-01-12T20:55:32.649Z</time>
      </trkpt>
      <trkpt lat="48.88975" lon="2.36888">
        <ele>114.3</ele>
        <time>2015-01-12T20:55:35.468Z</time>
      </trkpt>
      <trkpt lat="48.88975" lon="2.36881">
        <ele>114.9</ele>
        <time>2015-01-12T20:55:35.560Z</time>
      </trkpt>
      <trkpt lat="48.88977" lon="2.36868">
        <ele>115.7</ele>
        <time>2015-01-12T20:55:37.663Z</time>
      </trkpt>
      <trkpt lat="48.88977" lon="2.36862">
        <ele>116.3</ele>
        <time>2015-01-12T20:55:38.560Z</time>
      </trkpt>
      <trkpt lat="48.88977" lon="2.3685">
        <ele>116.7</ele>
        <time>2015-01-12T20:55:40.586Z</time>
      </trkpt>
      <trkpt lat="48.88976" lon="2.36844">
        <ele>116.2</ele>
        <time>2015-01-12T20:55:41.600Z</time>
      </trkpt>
      <trkpt lat="48.88975" lon="2.36834">
        <ele>115.7</ele>
        <time>2015-01-12T20:55:43.630Z</time>
      </trkpt>
      <trkpt lat="48.88975" lon="2.36829">
        <ele>115.5</ele>
        <time>2015-01-12T20:55:44.629Z</time>
      </trkpt>
      <trkpt lat="48.88973" lon="2.36819">
        <ele>115.2</ele>
        <time>2015-01-12T20:55:46.667Z</time>
      </trkpt>
      <trkpt lat="48.88973" lon="2.36814">
        <ele>115.1</ele>
        <time>2015-01-12T20:55:47.586Z</time>
      </trkpt>
      <trkpt lat="48.88973" lon="2.36804">
        <ele>115</ele>
        <time>2015-01-12T20:55:49.817Z</time>
      </trkpt>
      <trkpt lat="48.88974" lon="2.36798">
        <ele>115</ele>
        <time>2015-01-12T20:55:50.626Z</time>
      </trkpt>
      <trkpt lat="48.88974" lon="2.36786">
        <ele>115.3</ele>
        <time>2015-01-12T20:55:52.666Z</time>
      </trkpt>
      <trkpt lat="48.88973" lon="2.36779">
        <ele>115</ele>
        <time>2015-01-12T20:55:53.589Z</time>
      </trkpt>
      <trkpt lat="48.88973" lon="2.36766">
        <ele>114.2</ele>
        <time>2015-01-12T20:55:55.705Z</time>
      </trkpt>
      <trkpt lat="48.88973" lon="2.3676">
        <ele>114</ele>
        <time>2015-01-12T20:55:56.561Z</time>
      </trkpt>
      <trkpt lat="48.88974" lon="2.36753">
        <ele>113.5</ele>
        <time>2015-01-12T20:55:57.584Z</time>
      </trkpt>
      <trkpt lat="48.88974" lon="2.36745">
        <ele>112.9</ele>
        <time>2015-01-12T20:55:58.602Z</time>
      </trkpt>
      <trkpt lat="48.88975" lon="2.36738">
        <ele>112.2</ele>
        <time>2015-01-12T20:55:59.832Z</time>
      </trkpt>
      <trkpt lat="48.88977" lon="2.36731">
        <ele>111.8</ele>
        <time>2015-01-12T20:56:00.637Z</time>
      </trkpt>
      <trkpt lat="48.88977" lon="2.36724">
        <ele>111.3</ele>
        <time>2015-01-12T20:56:01.698Z</time>
      </trkpt>
      <trkpt lat="48.88977" lon="2.36715">
        <ele>111.3</ele>
        <time>2015-01-12T20:56:02.582Z</time>
      </trkpt>
      <trkpt lat="48.88978" lon="2.36708">
        <ele>111.1</ele>
        <time>2015-01-12T20:56:03.597Z</time>
      </trkpt>
      <trkpt lat="48.88979" lon="2.36702">
        <ele>110.9</ele>
        <time>2015-01-12T20:56:04.602Z</time>
      </trkpt>
      <trkpt lat="48.88979" lon="2.36688">
        <ele>110.6</ele>
        <time>2015-01-12T20:56:06.595Z</time>
      </trkpt>
      <trkpt lat="48.88979" lon="2.36681">
        <ele>110.4</ele>
        <time>2015-01-12T20:56:07.633Z</time>
      </trkpt>
      <trkpt lat="48.8898" lon="2.36674">
        <ele>110.3</ele>
        <time>2015-01-12T20:56:08.593Z</time>
      </trkpt>
      <trkpt lat="48.88981" lon="2.36667">
        <ele>110.5</ele>
        <time>2015-01-12T20:56:09.618Z</time>
      </trkpt>
      <trkpt lat="48.88981" lon="2.36659">
        <ele>110.3</ele>
        <time>2015-01-12T20:56:10.647Z</time>
      </trkpt>
      <trkpt lat="48.88981" lon="2.36652">
        <ele>109.6</ele>
        <time>2015-01-12T20:56:11.661Z</time>
      </trkpt>
      <trkpt lat="48.88981" lon="2.36644">
        <ele>109.3</ele>
        <time>2015-01-12T20:56:12.635Z</time>
      </trkpt>
      <trkpt lat="48.88981" lon="2.36637">
        <ele>109</ele>
        <time>2015-01-12T20:56:13.642Z</time>
      </trkpt>
      <trkpt lat="48.88982" lon="2.3663">
        <ele>108.8</ele>
        <time>2015-01-12T20:56:14.656Z</time>
      </trkpt>
      <trkpt lat="48.88982" lon="2.36623">
        <ele>108.8</ele>
        <time>2015-01-12T20:56:15.673Z</time>
      </trkpt>
      <trkpt lat="48.88983" lon="2.3661">
        <ele>108</ele>
        <time>2015-01-12T20:56:17.583Z</time>
      </trkpt>
      <trkpt lat="48.88983" lon="2.36603">
        <ele>107.9</ele>
        <time>2015-01-12T20:56:18.636Z</time>
      </trkpt>
      <trkpt lat="48.88984" lon="2.3659">
        <ele>107.8</ele>
        <time>2015-01-12T20:56:20.659Z</time>
      </trkpt>
      <trkpt lat="48.88985" lon="2.36584">
        <ele>107.9</ele>
        <time>2015-01-12T20:56:21.740Z</time>
      </trkpt>
      <trkpt lat="48.88985" lon="2.36572">
        <ele>107.7</ele>
        <time>2015-01-12T20:56:23.636Z</time>
      </trkpt>
      <trkpt lat="48.88986" lon="2.36565">
        <ele>107.9</ele>
        <time>2015-01-12T20:56:24.650Z</time>
      </trkpt>
      <trkpt lat="48.88986" lon="2.36553">
        <ele>107.6</ele>
        <time>2015-01-12T20:56:27.611Z</time>
      </trkpt>
      <trkpt lat="48.88987" lon="2.36546">
        <ele>107.6</ele>
        <time>2015-01-12T20:56:27.682Z</time>
      </trkpt>
      <trkpt lat="48.88987" lon="2.36539">
        <ele>107.5</ele>
        <time>2015-01-12T20:56:28.619Z</time>
      </trkpt>
      <trkpt lat="48.88988" lon="2.36532">
        <ele>107.4</ele>
        <time>2015-01-12T20:56:29.628Z</time>
      </trkpt>
      <trkpt lat="48.88988" lon="2.36524">
        <ele>107.3</ele>
        <time>2015-01-12T20:56:30.687Z</time>
      </trkpt>
      <trkpt lat="48.88988" lon="2.36516">
        <ele>107.2</ele>
        <time>2015-01-12T20:56:31.648Z</time>
      </trkpt>
      <trkpt lat="48.88988" lon="2.36509">
        <ele>107.4</ele>
        <time>2015-01-12T20:56:32.643Z</time>
      </trkpt>
      <trkpt lat="48.88989" lon="2.36502">
        <ele>107.6</ele>
        <time>2015-01-12T20:56:33.659Z</time>
      </trkpt>
      <trkpt lat="48.88989" lon="2.36493">
        <ele>107.6</ele>
        <time>2015-01-12T20:56:34.672Z</time>
      </trkpt>
      <trkpt lat="48.88989" lon="2.36486">
        <ele>107.8</ele>
        <time>2015-01-12T20:56:35.682Z</time>
      </trkpt>
      <trkpt lat="48.88989" lon="2.36478">
        <ele>107.7</ele>
        <time>2015-01-12T20:56:36.573Z</time>
      </trkpt>
      <trkpt lat="48.88989" lon="2.3647">
        <ele>107.9</ele>
        <time>2015-01-12T20:56:37.642Z</time>
      </trkpt>
      <trkpt lat="48.88988" lon="2.36457">
        <ele>107.9</ele>
        <time>2015-01-12T20:56:40.714Z</time>
      </trkpt>
      <trkpt lat="48.88988" lon="2.36453">
        <ele>107.5</ele>
        <time>2015-01-12T20:56:41.563Z</time>
      </trkpt>
      <trkpt lat="48.8899" lon="2.36441">
        <ele>107.8</ele>
        <time>2015-01-12T20:56:45.595Z</time>
      </trkpt>
      <trkpt lat="48.88991" lon="2.36438">
        <ele>108</ele>
        <time>2015-01-12T20:56:46.627Z</time>
      </trkpt>
      <trkpt lat="48.8899" lon="2.36428">
        <ele>108.3</ele>
        <time>2015-01-12T20:56:49.702Z</time>
      </trkpt>
      <trkpt lat="48.8899" lon="2.36424">
        <ele>108.2</ele>
        <time>2015-01-12T20:56:50.587Z</time>
      </trkpt>
      <trkpt lat="48.88989" lon="2.36412">
        <ele>108.3</ele>
        <time>2015-01-12T20:56:53.665Z</time>
      </trkpt>
      <trkpt lat="48.88989" lon="2.36407">
        <ele>108.4</ele>
        <time>2015-01-12T20:56:54.667Z</time>
      </trkpt>
      <trkpt lat="48.8899" lon="2.36394">
        <ele>107.2</ele>
        <time>2015-01-12T20:56:57.676Z</time>
      </trkpt>
      <trkpt lat="48.8899" lon="2.36389">
        <ele>106.8</ele>
        <time>2015-01-12T20:56:58.677Z</time>
      </trkpt>
      <trkpt lat="48.88992" lon="2.3638">
        <ele>106.3</ele>
        <time>2015-01-12T20:57:00.600Z</time>
      </trkpt>
      <trkpt lat="48.88993" lon="2.36376">
        <ele>106.1</ele>
        <time>2015-01-12T20:57:01.647Z</time>
      </trkpt>
      <trkpt lat="48.88993" lon="2.36362">
        <ele>105.6</ele>
        <time>2015-01-12T20:57:04.595Z</time>
      </trkpt>
      <trkpt lat="48.88994" lon="2.36358">
        <ele>105.3</ele>
        <time>2015-01-12T20:57:05.602Z</time>
      </trkpt>
      <trkpt lat="48.88993" lon="2.36346">
        <ele>104.9</ele>
        <time>2015-01-12T20:57:07.634Z</time>
      </trkpt>
      <trkpt lat="48.88992" lon="2.36342">
        <ele>104.8</ele>
        <time>2015-01-12T20:57:08.647Z</time>
      </trkpt>
      <trkpt lat="48.88988" lon="2.3633">
        <ele>108</ele>
        <time>2015-01-12T20:57:10.671Z</time>
      </trkpt>
      <trkpt lat="48.88987" lon="2.36327">
        <ele>108.4</ele>
        <time>2015-01-12T20:57:11.571Z</time>
      </trkpt>
      <trkpt lat="48.88985" lon="2.36315">
        <ele>109.8</ele>
        <time>2015-01-12T20:57:14.657Z</time>
      </trkpt>
      <trkpt lat="48.88984" lon="2.36312">
        <ele>110.6</ele>
        <time>2015-01-12T20:57:15.676Z</time>
      </trkpt>
      <trkpt lat="48.88983" lon="2.36308">
        <ele>112.2</ele>
        <time>2015-01-12T20:57:43.713Z</time>
      </trkpt>
      <trkpt lat="48.88984" lon="2.36285">
        <ele>122.3</ele>
        <time>2015-01-12T20:57:44.611Z</time>
      </trkpt>
      <trkpt lat="48.88985" lon="2.36275">
        <ele>121.9</ele>
        <time>2015-01-12T20:57:46.594Z</time>
      </trkpt>
      <trkpt lat="48.88986" lon="2.36269">
        <ele>121.8</ele>
        <time>2015-01-12T20:57:47.607Z</time>
      </trkpt>
      <trkpt lat="48.88987" lon="2.36257">
        <ele>121.1</ele>
        <time>2015-01-12T20:57:49.639Z</time>
      </trkpt>
      <trkpt lat="48.88988" lon="2.36252">
        <ele>120.7</ele>
        <time>2015-01-12T20:57:50.615Z</time>
      </trkpt>
      <trkpt lat="48.88994" lon="2.36242">
        <ele>120</ele>
        <time>2015-01-12T20:57:53.767Z</time>
      </trkpt>
      <trkpt lat="48.88996" lon="2.36237">
        <ele>119.8</ele>
        <time>2015-01-12T20:57:54.582Z</time>
      </trkpt>
      <trkpt lat="48.89" lon="2.36228">
        <ele>119.6</ele>
        <time>2015-01-12T20:57:57.595Z</time>
      </trkpt>
      <trkpt lat="48.89001" lon="2.36224">
        <ele>119.5</ele>
        <time>2015-01-12T20:57:58.626Z</time>
      </trkpt>
      <trkpt lat="48.89006" lon="2.36216">
        <ele>119.5</ele>
        <time>2015-01-12T20:58:00.934Z</time>
      </trkpt>
      <trkpt lat="48.89007" lon="2.36213">
        <ele>119.4</ele>
        <time>2015-01-12T20:58:01.621Z</time>
      </trkpt>
      <trkpt lat="48.89011" lon="2.36201">
        <ele>119.2</ele>
        <time>2015-01-12T20:58:05.617Z</time>
      </trkpt>
      <trkpt lat="48.89012" lon="2.36197">
        <ele>119.2</ele>
        <time>2015-01-12T20:58:06.633Z</time>
      </trkpt>
      <trkpt lat="48.89012" lon="2.36187">
        <ele>118.9</ele>
        <time>2015-01-12T20:58:08.632Z</time>
      </trkpt>
      <trkpt lat="48.89012" lon="2.36181">
        <ele>118.7</ele>
        <time>2015-01-12T20:58:09.565Z</time>
      </trkpt>
      <trkpt lat="48.8901" lon="2.36169">
        <ele>118.1</ele>
        <time>2015-01-12T20:58:11.653Z</time>
      </trkpt>
      <trkpt lat="48.8901" lon="2.36163">
        <ele>118.2</ele>
        <time>2015-01-12T20:58:12.626Z</time>
      </trkpt>
      <trkpt lat="48.89013" lon="2.36151">
        <ele>117.8</ele>
        <time>2015-01-12T20:58:14.616Z</time>
      </trkpt>
      <trkpt lat="48.89014" lon="2.36145">
        <ele>117.8</ele>
        <time>2015-01-12T20:58:15.668Z</time>
      </trkpt>
      <trkpt lat="48.89013" lon="2.36134">
        <ele>117.5</ele>
        <time>2015-01-12T20:58:17.561Z</time>
      </trkpt>
      <trkpt lat="48.89013" lon="2.3613">
        <ele>117.1</ele>
        <time>2015-01-12T20:58:18.700Z</time>
      </trkpt>
      <trkpt lat="48.89017" lon="2.36122">
        <ele>116.1</ele>
        <time>2015-01-12T20:58:20.566Z</time>
      </trkpt>
      <trkpt lat="48.8902" lon="2.36119">
        <ele>116</ele>
        <time>2015-01-12T20:58:21.733Z</time>
      </trkpt>
      <trkpt lat="48.89027" lon="2.36112">
        <ele>115.1</ele>
        <time>2015-01-12T20:58:23.671Z</time>
      </trkpt>
      <trkpt lat="48.89031" lon="2.36109">
        <ele>114.7</ele>
        <time>2015-01-12T20:58:24.686Z</time>
      </trkpt>
      <trkpt lat="48.89035" lon="2.36098">
        <ele>113.3</ele>
        <time>2015-01-12T20:58:27.573Z</time>
      </trkpt>
      <trkpt lat="48.89034" lon="2.36091">
        <ele>113</ele>
        <time>2015-01-12T20:58:28.610Z</time>
      </trkpt>
      <trkpt lat="48.89031" lon="2.36078">
        <ele>111.9</ele>
        <time>2015-01-12T20:58:30.648Z</time>
      </trkpt>
      <trkpt lat="48.8903" lon="2.36072">
        <ele>111.5</ele>
        <time>2015-01-12T20:58:31.672Z</time>
      </trkpt>
      <trkpt lat="48.89029" lon="2.36066">
        <ele>111.2</ele>
        <time>2015-01-12T20:58:32.580Z</time>
      </trkpt>
      <trkpt lat="48.89027" lon="2.36058">
        <ele>110.8</ele>
        <time>2015-01-12T20:58:33.589Z</time>
      </trkpt>
      <trkpt lat="48.89027" lon="2.36052">
        <ele>110.8</ele>
        <time>2015-01-12T20:58:34.606Z</time>
      </trkpt>
      <trkpt lat="48.89027" lon="2.36045">
        <ele>110.9</ele>
        <time>2015-01-12T20:58:35.616Z</time>
      </trkpt>
      <trkpt lat="48.89029" lon="2.36032">
        <ele>110.3</ele>
        <time>2015-01-12T20:58:37.633Z</time>
      </trkpt>
      <trkpt lat="48.89029" lon="2.36029">
        <ele>109.7</ele>
        <time>2015-01-12T20:58:38.645Z</time>
      </trkpt>
      <trkpt lat="48.89029" lon="2.36018">
        <ele>110.3</ele>
        <time>2015-01-12T20:58:41.619Z</time>
      </trkpt>
      <trkpt lat="48.8903" lon="2.36015">
        <ele>111.1</ele>
        <time>2015-01-12T20:58:42.630Z</time>
      </trkpt>
      <trkpt lat="48.8903" lon="2.36017">
        <ele>110.4</ele>
        <time>2015-01-12T20:59:13.596Z</time>
      </trkpt>
      <trkpt lat="48.89026" lon="2.35997">
        <ele>118.8</ele>
        <time>2015-01-12T20:59:14.610Z</time>
      </trkpt>
      <trkpt lat="48.89027" lon="2.35986">
        <ele>118.6</ele>
        <time>2015-01-12T20:59:17.636Z</time>
      </trkpt>
      <trkpt lat="48.89027" lon="2.35982">
        <ele>118.5</ele>
        <time>2015-01-12T20:59:18.696Z</time>
      </trkpt>
      <trkpt lat="48.89026" lon="2.3597">
        <ele>118</ele>
        <time>2015-01-12T20:59:21.617Z</time>
      </trkpt>
      <trkpt lat="48.89026" lon="2.35966">
        <ele>117.5</ele>
        <time>2015-01-12T20:59:22.644Z</time>
      </trkpt>
      <trkpt lat="48.89026" lon="2.35955">
        <ele>117.1</ele>
        <time>2015-01-12T20:59:26.089Z</time>
      </trkpt>
      <trkpt lat="48.89027" lon="2.35952">
        <ele>117.1</ele>
        <time>2015-01-12T20:59:26.577Z</time>
      </trkpt>
      <trkpt lat="48.8903" lon="2.3594">
        <ele>117.1</ele>
        <time>2015-01-12T20:59:30.565Z</time>
      </trkpt>
      <trkpt lat="48.89031" lon="2.35936">
        <ele>117.2</ele>
        <time>2015-01-12T20:59:31.627Z</time>
      </trkpt>
      <trkpt lat="48.8903" lon="2.35926">
        <ele>117.8</ele>
        <time>2015-01-12T20:59:33.669Z</time>
      </trkpt>
      <trkpt lat="48.8903" lon="2.35919">
        <ele>118.1</ele>
        <time>2015-01-12T20:59:34.600Z</time>
      </trkpt>
      <trkpt lat="48.8903" lon="2.35907">
        <ele>118.7</ele>
        <time>2015-01-12T20:59:36.595Z</time>
      </trkpt>
      <trkpt lat="48.8903" lon="2.35899">
        <ele>119</ele>
        <time>2015-01-12T20:59:37.634Z</time>
      </trkpt>
      <trkpt lat="48.8903" lon="2.35891">
        <ele>119.1</ele>
        <time>2015-01-12T20:59:38.647Z</time>
      </trkpt>
      <trkpt lat="48.8903" lon="2.35883">
        <ele>119</ele>
        <time>2015-01-12T20:59:39.655Z</time>
      </trkpt>
      <trkpt lat="48.8903" lon="2.35875">
        <ele>118.9</ele>
        <time>2015-01-12T20:59:40.558Z</time>
      </trkpt>
      <trkpt lat="48.89029" lon="2.35868">
        <ele>118.6</ele>
        <time>2015-01-12T20:59:41.617Z</time>
      </trkpt>
      <trkpt lat="48.8903" lon="2.35856">
        <ele>118.6</ele>
        <time>2015-01-12T20:59:43.664Z</time>
      </trkpt>
      <trkpt lat="48.8903" lon="2.35852">
        <ele>118.7</ele>
        <time>2015-01-12T20:59:44.668Z</time>
      </trkpt>
      <trkpt lat="48.89035" lon="2.35841">
        <ele>119.7</ele>
        <time>2015-01-12T20:59:46.613Z</time>
      </trkpt>
      <trkpt lat="48.89036" lon="2.35835">
        <ele>119.3</ele>
        <time>2015-01-12T20:59:47.623Z</time>
      </trkpt>
      <trkpt lat="48.89036" lon="2.35826">
        <ele>119</ele>
        <time>2015-01-12T20:59:48.636Z</time>
      </trkpt>
      <trkpt lat="48.89036" lon="2.35817">
        <ele>118.3</ele>
        <time>2015-01-12T20:59:49.642Z</time>
      </trkpt>
      <trkpt lat="48.89036" lon="2.3581">
        <ele>117.7</ele>
        <time>2015-01-12T20:59:50.648Z</time>
      </trkpt>
      <trkpt lat="48.89036" lon="2.35802">
        <ele>117.2</ele>
        <time>2015-01-12T20:59:51.655Z</time>
      </trkpt>
      <trkpt lat="48.89036" lon="2.35794">
        <ele>116.5</ele>
        <time>2015-01-12T20:59:52.660Z</time>
      </trkpt>
      <trkpt lat="48.89036" lon="2.35785">
        <ele>116.2</ele>
        <time>2015-01-12T20:59:53.671Z</time>
      </trkpt>
      <trkpt lat="48.89036" lon="2.35777">
        <ele>116.2</ele>
        <time>2015-01-12T20:59:54.745Z</time>
      </trkpt>
      <trkpt lat="48.89036" lon="2.35769">
        <ele>115.8</ele>
        <time>2015-01-12T20:59:55.770Z</time>
      </trkpt>
      <trkpt lat="48.89035" lon="2.35762">
        <ele>114.4</ele>
        <time>2015-01-12T20:59:56.598Z</time>
      </trkpt>
      <trkpt lat="48.89036" lon="2.35755">
        <ele>113.6</ele>
        <time>2015-01-12T20:59:57.615Z</time>
      </trkpt>
      <trkpt lat="48.89036" lon="2.35741">
        <ele>112.6</ele>
        <time>2015-01-12T20:59:59.801Z</time>
      </trkpt>
      <trkpt lat="48.89036" lon="2.35734">
        <ele>111.9</ele>
        <time>2015-01-12T21:00:00.652Z</time>
      </trkpt>
      <trkpt lat="48.89036" lon="2.35726">
        <ele>111.2</ele>
        <time>2015-01-12T21:00:01.678Z</time>
      </trkpt>
      <trkpt lat="48.89037" lon="2.35718">
        <ele>111.2</ele>
        <time>2015-01-12T21:00:02.701Z</time>
      </trkpt>
      <trkpt lat="48.89037" lon="2.35705">
        <ele>110.9</ele>
        <time>2015-01-12T21:00:04.850Z</time>
      </trkpt>
      <trkpt lat="48.89037" lon="2.35697">
        <ele>109.9</ele>
        <time>2015-01-12T21:00:05.681Z</time>
      </trkpt>
      <trkpt lat="48.89038" lon="2.3569">
        <ele>109.8</ele>
        <time>2015-01-12T21:00:06.610Z</time>
      </trkpt>
      <trkpt lat="48.89038" lon="2.35681">
        <ele>109.4</ele>
        <time>2015-01-12T21:00:07.672Z</time>
      </trkpt>
      <trkpt lat="48.89038" lon="2.35672">
        <ele>110.4</ele>
        <time>2015-01-12T21:00:08.596Z</time>
      </trkpt>
      <trkpt lat="48.89039" lon="2.35664">
        <ele>110.2</ele>
        <time>2015-01-12T21:00:09.599Z</time>
      </trkpt>
      <trkpt lat="48.89038" lon="2.35656">
        <ele>110.2</ele>
        <time>2015-01-12T21:00:10.610Z</time>
      </trkpt>
      <trkpt lat="48.89038" lon="2.35648">
        <ele>110.3</ele>
        <time>2015-01-12T21:00:11.623Z</time>
      </trkpt>
      <trkpt lat="48.89038" lon="2.35641">
        <ele>110.2</ele>
        <time>2015-01-12T21:00:12.636Z</time>
      </trkpt>
      <trkpt lat="48.89038" lon="2.35634">
        <ele>110.3</ele>
        <time>2015-01-12T21:00:13.655Z</time>
      </trkpt>
      <trkpt lat="48.89039" lon="2.35627">
        <ele>110.1</ele>
        <time>2015-01-12T21:00:14.967Z</time>
      </trkpt>
      <trkpt lat="48.89039" lon="2.3562">
        <ele>110</ele>
        <time>2015-01-12T21:00:15.712Z</time>
      </trkpt>
      <trkpt lat="48.89039" lon="2.35611">
        <ele>110.1</ele>
        <time>2015-01-12T21:00:16.604Z</time>
      </trkpt>
      <trkpt lat="48.89039" lon="2.35603">
        <ele>110.1</ele>
        <time>2015-01-12T21:00:17.643Z</time>
      </trkpt>
      <trkpt lat="48.8904" lon="2.35596">
        <ele>110.2</ele>
        <time>2015-01-12T21:00:18.681Z</time>
      </trkpt>
      <trkpt lat="48.8904" lon="2.35589">
        <ele>110.1</ele>
        <time>2015-01-12T21:00:19.699Z</time>
      </trkpt>
      <trkpt lat="48.8904" lon="2.35582">
        <ele>110.2</ele>
        <time>2015-01-12T21:00:20.586Z</time>
      </trkpt>
      <trkpt lat="48.8904" lon="2.35574">
        <ele>110</ele>
        <time>2015-01-12T21:00:21.588Z</time>
      </trkpt>
      <trkpt lat="48.89039" lon="2.3556">
        <ele>109.9</ele>
        <time>2015-01-12T21:00:23.655Z</time>
      </trkpt>
      <trkpt lat="48.89039" lon="2.35555">
        <ele>109.9</ele>
        <time>2015-01-12T21:00:24.578Z</time>
      </trkpt>
      <trkpt lat="48.89038" lon="2.35542">
        <ele>109.3</ele>
        <time>2015-01-12T21:00:27.586Z</time>
      </trkpt>
      <trkpt lat="48.89038" lon="2.3554">
        <ele>109.2</ele>
        <time>2015-01-12T21:00:28.601Z</time>
      </trkpt>
      <trkpt lat="48.89039" lon="2.35529">
        <ele>109</ele>
        <time>2015-01-12T21:00:31.656Z</time>
      </trkpt>
      <trkpt lat="48.89038" lon="2.35524">
        <ele>109.2</ele>
        <time>2015-01-12T21:00:32.594Z</time>
      </trkpt>
      <trkpt lat="48.89041" lon="2.35513">
        <ele>109.5</ele>
        <time>2015-01-12T21:00:35.650Z</time>
      </trkpt>
      <trkpt lat="48.89042" lon="2.3551">
        <ele>109.7</ele>
        <time>2015-01-12T21:00:36.558Z</time>
      </trkpt>
      <trkpt lat="48.89045" lon="2.35497">
        <ele>109.9</ele>
        <time>2015-01-12T21:00:39.675Z</time>
      </trkpt>
      <trkpt lat="48.89044" lon="2.35491">
        <ele>109.9</ele>
        <time>2015-01-12T21:00:40.585Z</time>
      </trkpt>
      <trkpt lat="48.89042" lon="2.35478">
        <ele>109.5</ele>
        <time>2015-01-12T21:00:42.607Z</time>
      </trkpt>
      <trkpt lat="48.89041" lon="2.35471">
        <ele>109.5</ele>
        <time>2015-01-12T21:00:43.627Z</time>
      </trkpt>
      <trkpt lat="48.89038" lon="2.35458">
        <ele>109.2</ele>
        <time>2015-01-12T21:00:45.647Z</time>
      </trkpt>
      <trkpt lat="48.89037" lon="2.35451">
        <ele>109.3</ele>
        <time>2015-01-12T21:00:46.653Z</time>
      </trkpt>
      <trkpt lat="48.89037" lon="2.35445">
        <ele>109.7</ele>
        <time>2015-01-12T21:00:47.657Z</time>
      </trkpt>
      <trkpt lat="48.89037" lon="2.35438">
        <ele>109.8</ele>
        <time>2015-01-12T21:00:48.608Z</time>
      </trkpt>
      <trkpt lat="48.89037" lon="2.35429">
        <ele>109.8</ele>
        <time>2015-01-12T21:00:50.645Z</time>
      </trkpt>
      <trkpt lat="48.89038" lon="2.35424">
        <ele>109.8</ele>
        <time>2015-01-12T21:00:51.651Z</time>
      </trkpt>
      <trkpt lat="48.89037" lon="2.35411">
        <ele>109.9</ele>
        <time>2015-01-12T21:00:53.580Z</time>
      </trkpt>
      <trkpt lat="48.89037" lon="2.35404">
        <ele>109.9</ele>
        <time>2015-01-12T21:00:54.596Z</time>
      </trkpt>
      <trkpt lat="48.89037" lon="2.35393">
        <ele>109.9</ele>
        <time>2015-01-12T21:00:56.624Z</time>
      </trkpt>
      <trkpt lat="48.89038" lon="2.35388">
        <ele>109.9</ele>
        <time>2015-01-12T21:00:57.559Z</time>
      </trkpt>
      <trkpt lat="48.89041" lon="2.35375">
        <ele>109</ele>
        <time>2015-01-12T21:00:59.638Z</time>
      </trkpt>
      <trkpt lat="48.89043" lon="2.35366">
        <ele>108.4</ele>
        <time>2015-01-12T21:01:00.651Z</time>
      </trkpt>
      <trkpt lat="48.89044" lon="2.35358">
        <ele>108.1</ele>
        <time>2015-01-12T21:01:01.703Z</time>
      </trkpt>
      <trkpt lat="48.89044" lon="2.35351">
        <ele>108.4</ele>
        <time>2015-01-12T21:01:02.575Z</time>
      </trkpt>
      <trkpt lat="48.89042" lon="2.35343">
        <ele>108.1</ele>
        <time>2015-01-12T21:01:03.575Z</time>
      </trkpt>
      <trkpt lat="48.89041" lon="2.35338">
        <ele>107.9</ele>
        <time>2015-01-12T21:01:04.593Z</time>
      </trkpt>
      <trkpt lat="48.89041" lon="2.35325">
        <ele>108.4</ele>
        <time>2015-01-12T21:01:07.703Z</time>
      </trkpt>
      <trkpt lat="48.89041" lon="2.3532">
        <ele>108.6</ele>
        <time>2015-01-12T21:01:08.585Z</time>
      </trkpt>
      <trkpt lat="48.89041" lon="2.35307">
        <ele>109.4</ele>
        <time>2015-01-12T21:01:11.591Z</time>
      </trkpt>
      <trkpt lat="48.89041" lon="2.35303">
        <ele>109.8</ele>
        <time>2015-01-12T21:01:12.580Z</time>
      </trkpt>
      <trkpt lat="48.89043" lon="2.35293">
        <ele>110.6</ele>
        <time>2015-01-12T21:01:14.641Z</time>
      </trkpt>
      <trkpt lat="48.89045" lon="2.35287">
        <ele>110.7</ele>
        <time>2015-01-12T21:01:15.658Z</time>
      </trkpt>
      <trkpt lat="48.89047" lon="2.35275">
        <ele>111.5</ele>
        <time>2015-01-12T21:01:17.600Z</time>
      </trkpt>
      <trkpt lat="48.89046" lon="2.35269">
        <ele>112.3</ele>
        <time>2015-01-12T21:01:18.572Z</time>
      </trkpt>
      <trkpt lat="48.89047" lon="2.35256">
        <ele>112.9</ele>
        <time>2015-01-12T21:01:20.621Z</time>
      </trkpt>
      <trkpt lat="48.89047" lon="2.35251">
        <ele>113.3</ele>
        <time>2015-01-12T21:01:21.663Z</time>
      </trkpt>
      <trkpt lat="48.89049" lon="2.35238">
        <ele>113.9</ele>
        <time>2015-01-12T21:01:23.594Z</time>
      </trkpt>
      <trkpt lat="48.89049" lon="2.35233">
        <ele>114.1</ele>
        <time>2015-01-12T21:01:24.615Z</time>
      </trkpt>
      <trkpt lat="48.89049" lon="2.35225">
        <ele>113.6</ele>
        <time>2015-01-12T21:01:25.624Z</time>
      </trkpt>
      <trkpt lat="48.89049" lon="2.35217">
        <ele>113.6</ele>
        <time>2015-01-12T21:01:26.563Z</time>
      </trkpt>
      <trkpt lat="48.89048" lon="2.35209">
        <ele>113.6</ele>
        <time>2015-01-12T21:01:27.584Z</time>
      </trkpt>
      <trkpt lat="48.89047" lon="2.35198">
        <ele>112.8</ele>
        <time>2015-01-12T21:01:28.592Z</time>
      </trkpt>
      <trkpt lat="48.89046" lon="2.3519">
        <ele>112.8</ele>
        <time>2015-01-12T21:01:29.649Z</time>
      </trkpt>
      <trkpt lat="48.89046" lon="2.35182">
        <ele>113.2</ele>
        <time>2015-01-12T21:01:30.584Z</time>
      </trkpt>
      <trkpt lat="48.89046" lon="2.35176">
        <ele>113.5</ele>
        <time>2015-01-12T21:01:31.605Z</time>
      </trkpt>
      <trkpt lat="48.89046" lon="2.35168">
        <ele>113.7</ele>
        <time>2015-01-12T21:01:32.607Z</time>
      </trkpt>
      <trkpt lat="48.89046" lon="2.35162">
        <ele>114.1</ele>
        <time>2015-01-12T21:01:33.640Z</time>
      </trkpt>
      <trkpt lat="48.89046" lon="2.35154">
        <ele>114.7</ele>
        <time>2015-01-12T21:01:34.659Z</time>
      </trkpt>
      <trkpt lat="48.89047" lon="2.35142">
        <ele>115.2</ele>
        <time>2015-01-12T21:01:36.572Z</time>
      </trkpt>
      <trkpt lat="48.89049" lon="2.35137">
        <ele>115.3</ele>
        <time>2015-01-12T21:01:37.671Z</time>
      </trkpt>
      <trkpt lat="48.89049" lon="2.35125">
        <ele>114.6</ele>
        <time>2015-01-12T21:01:40.599Z</time>
      </trkpt>
      <trkpt lat="48.89048" lon="2.3512">
        <ele>114.9</ele>
        <time>2015-01-12T21:01:41.632Z</time>
      </trkpt>
      <trkpt lat="48.89046" lon="2.35108">
        <ele>115.2</ele>
        <time>2015-01-12T21:01:45.581Z</time>
      </trkpt>
      <trkpt lat="48.89046" lon="2.35104">
        <ele>115.3</ele>
        <time>2015-01-12T21:01:46.587Z</time>
      </trkpt>
      <trkpt lat="48.89046" lon="2.35091">
        <ele>115.8</ele>
        <time>2015-01-12T21:01:49.698Z</time>
      </trkpt>
      <trkpt lat="48.89048" lon="2.35086">
        <ele>115.9</ele>
        <time>2015-01-12T21:01:50.559Z</time>
      </trkpt>
      <trkpt lat="48.89051" lon="2.35075">
        <ele>116.9</ele>
        <time>2015-01-12T21:01:52.621Z</time>
      </trkpt>
      <trkpt lat="48.89051" lon="2.3507">
        <ele>117.1</ele>
        <time>2015-01-12T21:01:53.627Z</time>
      </trkpt>
      <trkpt lat="48.89051" lon="2.3506">
        <ele>117.5</ele>
        <time>2015-01-12T21:01:55.619Z</time>
      </trkpt>
      <trkpt lat="48.89052" lon="2.35054">
        <ele>117.5</ele>
        <time>2015-01-12T21:01:56.622Z</time>
      </trkpt>
      <trkpt lat="48.89053" lon="2.35042">
        <ele>117.8</ele>
        <time>2015-01-12T21:01:58.637Z</time>
      </trkpt>
      <trkpt lat="48.89054" lon="2.35035">
        <ele>117.8</ele>
        <time>2015-01-12T21:01:59.559Z</time>
      </trkpt>
      <trkpt lat="48.89055" lon="2.35021">
        <ele>117.6</ele>
        <time>2015-01-12T21:02:01.633Z</time>
      </trkpt>
      <trkpt lat="48.89055" lon="2.35015">
        <ele>117.4</ele>
        <time>2015-01-12T21:02:02.619Z</time>
      </trkpt>
      <trkpt lat="48.89053" lon="2.35007">
        <ele>117.2</ele>
        <time>2015-01-12T21:02:03.638Z</time>
      </trkpt>
      <trkpt lat="48.89053" lon="2.35">
        <ele>116.9</ele>
        <time>2015-01-12T21:02:04.560Z</time>
      </trkpt>
      <trkpt lat="48.89053" lon="2.34993">
        <ele>117</ele>
        <time>2015-01-12T21:02:06.050Z</time>
      </trkpt>
      <trkpt lat="48.89051" lon="2.34987">
        <ele>117</ele>
        <time>2015-01-12T21:02:06.600Z</time>
      </trkpt>
      <trkpt lat="48.89045" lon="2.34977">
        <ele>117.5</ele>
        <time>2015-01-12T21:02:10.013Z</time>
      </trkpt>
      <trkpt lat="48.89042" lon="2.34974">
        <ele>117.4</ele>
        <time>2015-01-12T21:02:10.606Z</time>
      </trkpt>
      <trkpt lat="48.89038" lon="2.34963">
        <ele>119.3</ele>
        <time>2015-01-12T21:02:15.056Z</time>
      </trkpt>
      <trkpt lat="48.89037" lon="2.34961">
        <ele>119.4</ele>
        <time>2015-01-12T21:02:15.672Z</time>
      </trkpt>
      <trkpt lat="48.89036" lon="2.34949">
        <ele>117.9</ele>
        <time>2015-01-12T21:02:20.679Z</time>
      </trkpt>
      <trkpt lat="48.89036" lon="2.34944">
        <ele>117.6</ele>
        <time>2015-01-12T21:02:21.556Z</time>
      </trkpt>
      <trkpt lat="48.89036" lon="2.3493">
        <ele>117.2</ele>
        <time>2015-01-12T21:02:23.611Z</time>
      </trkpt>
      <trkpt lat="48.89036" lon="2.34925">
        <ele>117.2</ele>
        <time>2015-01-12T21:02:24.662Z</time>
      </trkpt>
      <trkpt lat="48.89038" lon="2.34913">
        <ele>117.4</ele>
        <time>2015-01-12T21:02:26.554Z</time>
      </trkpt>
      <trkpt lat="48.89039" lon="2.34906">
        <ele>117.4</ele>
        <time>2015-01-12T21:02:27.637Z</time>
      </trkpt>
      <trkpt lat="48.8904" lon="2.34899">
        <ele>117.3</ele>
        <time>2015-01-12T21:02:28.646Z</time>
      </trkpt>
      <trkpt lat="48.8904" lon="2.34891">
        <ele>117</ele>
        <time>2015-01-12T21:02:29.661Z</time>
      </trkpt>
      <trkpt lat="48.89042" lon="2.34879">
        <ele>116.8</ele>
        <time>2015-01-12T21:02:31.629Z</time>
      </trkpt>
      <trkpt lat="48.89045" lon="2.34875">
        <ele>116.5</ele>
        <time>2015-01-12T21:02:32.629Z</time>
      </trkpt>
      <trkpt lat="48.89049" lon="2.34866">
        <ele>116</ele>
        <time>2015-01-12T21:02:34.675Z</time>
      </trkpt>
      <trkpt lat="48.89051" lon="2.34861">
        <ele>115.9</ele>
        <time>2015-01-12T21:02:35.553Z</time>
      </trkpt>
      <trkpt lat="48.89048" lon="2.34851">
        <ele>114.4</ele>
        <time>2015-01-12T21:02:37.651Z</time>
      </trkpt>
      <trkpt lat="48.89049" lon="2.34846">
        <ele>114.4</ele>
        <time>2015-01-12T21:02:38.671Z</time>
      </trkpt>
      <trkpt lat="48.8905" lon="2.34834">
        <ele>114.9</ele>
        <time>2015-01-12T21:02:40.589Z</time>
      </trkpt>
      <trkpt lat="48.89049" lon="2.34827">
        <ele>115.2</ele>
        <time>2015-01-12T21:02:41.604Z</time>
      </trkpt>
      <trkpt lat="48.89049" lon="2.34819">
        <ele>115.4</ele>
        <time>2015-01-12T21:02:42.617Z</time>
      </trkpt>
      <trkpt lat="48.89046" lon="2.34812">
        <ele>115.6</ele>
        <time>2015-01-12T21:02:43.644Z</time>
      </trkpt>
      <trkpt lat="48.89043" lon="2.34804">
        <ele>115.8</ele>
        <time>2015-01-12T21:02:44.586Z</time>
      </trkpt>
      <trkpt lat="48.8904" lon="2.34795">
        <ele>115.9</ele>
        <time>2015-01-12T21:02:45.590Z</time>
      </trkpt>
      <trkpt lat="48.89038" lon="2.34787">
        <ele>116.3</ele>
        <time>2015-01-12T21:02:46.602Z</time>
      </trkpt>
      <trkpt lat="48.89036" lon="2.34779">
        <ele>116.5</ele>
        <time>2015-01-12T21:02:47.628Z</time>
      </trkpt>
      <trkpt lat="48.89034" lon="2.34772">
        <ele>116.6</ele>
        <time>2015-01-12T21:02:48.622Z</time>
      </trkpt>
      <trkpt lat="48.89033" lon="2.34765">
        <ele>117</ele>
        <time>2015-01-12T21:02:49.669Z</time>
      </trkpt>
      <trkpt lat="48.89031" lon="2.34757">
        <ele>117.3</ele>
        <time>2015-01-12T21:02:50.639Z</time>
      </trkpt>
      <trkpt lat="48.8903" lon="2.34749">
        <ele>117.4</ele>
        <time>2015-01-12T21:02:51.573Z</time>
      </trkpt>
      <trkpt lat="48.89028" lon="2.34739">
        <ele>117.3</ele>
        <time>2015-01-12T21:02:53.587Z</time>
      </trkpt>
      <trkpt lat="48.89028" lon="2.34735">
        <ele>117.9</ele>
        <time>2015-01-12T21:02:54.601Z</time>
      </trkpt>
      <trkpt lat="48.89026" lon="2.34726">
        <ele>119</ele>
        <time>2015-01-12T21:02:56.749Z</time>
      </trkpt>
      <trkpt lat="48.89024" lon="2.34719">
        <ele>119.2</ele>
        <time>2015-01-12T21:02:57.583Z</time>
      </trkpt>
      <trkpt lat="48.89023" lon="2.34708">
        <ele>119.7</ele>
        <time>2015-01-12T21:02:59.608Z</time>
      </trkpt>
      <trkpt lat="48.89025" lon="2.34702">
        <ele>120.2</ele>
        <time>2015-01-12T21:03:00.765Z</time>
      </trkpt>
      <trkpt lat="48.89026" lon="2.34691">
        <ele>121</ele>
        <time>2015-01-12T21:03:02.536Z</time>
      </trkpt>
      <trkpt lat="48.89026" lon="2.34686">
        <ele>121.2</ele>
        <time>2015-01-12T21:03:03.631Z</time>
      </trkpt>
      <trkpt lat="48.89026" lon="2.34674">
        <ele>121.6</ele>
        <time>2015-01-12T21:03:05.651Z</time>
      </trkpt>
      <trkpt lat="48.89026" lon="2.34664">
        <ele>121.6</ele>
        <time>2015-01-12T21:03:06.534Z</time>
      </trkpt>
      <trkpt lat="48.89029" lon="2.34655">
        <ele>121.7</ele>
        <time>2015-01-12T21:03:07.562Z</time>
      </trkpt>
      <trkpt lat="48.89031" lon="2.34645">
        <ele>121.8</ele>
        <time>2015-01-12T21:03:08.579Z</time>
      </trkpt>
      <trkpt lat="48.89034" lon="2.34635">
        <ele>122.1</ele>
        <time>2015-01-12T21:03:09.605Z</time>
      </trkpt>
      <trkpt lat="48.89038" lon="2.34626">
        <ele>122.3</ele>
        <time>2015-01-12T21:03:10.703Z</time>
      </trkpt>
      <trkpt lat="48.89043" lon="2.34615">
        <ele>122.4</ele>
        <time>2015-01-12T21:03:11.565Z</time>
      </trkpt>
      <trkpt lat="48.89046" lon="2.34607">
        <ele>122.8</ele>
        <time>2015-01-12T21:03:12.560Z</time>
      </trkpt>
      <trkpt lat="48.8905" lon="2.346">
        <ele>123</ele>
        <time>2015-01-12T21:03:13.583Z</time>
      </trkpt>
      <trkpt lat="48.89052" lon="2.34592">
        <ele>123</ele>
        <time>2015-01-12T21:03:14.587Z</time>
      </trkpt>
      <trkpt lat="48.89055" lon="2.34584">
        <ele>123.1</ele>
        <time>2015-01-12T21:03:15.599Z</time>
      </trkpt>
      <trkpt lat="48.89057" lon="2.34578">
        <ele>123.3</ele>
        <time>2015-01-12T21:03:16.609Z</time>
      </trkpt>
      <trkpt lat="48.8906" lon="2.34571">
        <ele>123.8</ele>
        <time>2015-01-12T21:03:17.629Z</time>
      </trkpt>
      <trkpt lat="48.89063" lon="2.34561">
        <ele>124.6</ele>
        <time>2015-01-12T21:03:18.661Z</time>
      </trkpt>
      <trkpt lat="48.89066" lon="2.34552">
        <ele>125.4</ele>
        <time>2015-01-12T21:03:19.626Z</time>
      </trkpt>
      <trkpt lat="48.8907" lon="2.34546">
        <ele>125.9</ele>
        <time>2015-01-12T21:03:20.627Z</time>
      </trkpt>
      <trkpt lat="48.89075" lon="2.34535">
        <ele>127.1</ele>
        <time>2015-01-12T21:03:23.603Z</time>
      </trkpt>
      <trkpt lat="48.89075" lon="2.34532">
        <ele>127.1</ele>
        <time>2015-01-12T21:03:24.627Z</time>
      </trkpt>
      <trkpt lat="48.89082" lon="2.34527">
        <ele>136.3</ele>
        <time>2015-01-12T21:03:57.632Z</time>
      </trkpt>
      <trkpt lat="48.89083" lon="2.34525">
        <ele>136.1</ele>
        <time>2015-01-12T21:03:58.626Z</time>
      </trkpt>
      <trkpt lat="48.89088" lon="2.34518">
        <ele>136.1</ele>
        <time>2015-01-12T21:04:00.544Z</time>
      </trkpt>
      <trkpt lat="48.89089" lon="2.34512">
        <ele>136</ele>
        <time>2015-01-12T21:04:01.791Z</time>
      </trkpt>
      <trkpt lat="48.89092" lon="2.34506">
        <ele>135.9</ele>
        <time>2015-01-12T21:04:02.573Z</time>
      </trkpt>
      <trkpt lat="48.89096" lon="2.345">
        <ele>135.9</ele>
        <time>2015-01-12T21:04:03.580Z</time>
      </trkpt>
      <trkpt lat="48.89099" lon="2.34495">
        <ele>135.8</ele>
        <time>2015-01-12T21:04:04.608Z</time>
      </trkpt>
      <trkpt lat="48.89101" lon="2.34488">
        <ele>135.8</ele>
        <time>2015-01-12T21:04:05.587Z</time>
      </trkpt>
      <trkpt lat="48.89106" lon="2.34477">
        <ele>136</ele>
        <time>2015-01-12T21:04:07.649Z</time>
      </trkpt>
      <trkpt lat="48.89109" lon="2.34471">
        <ele>136.2</ele>
        <time>2015-01-12T21:04:08.557Z</time>
      </trkpt>
      <trkpt lat="48.89112" lon="2.34464">
        <ele>136.2</ele>
        <time>2015-01-12T21:04:09.812Z</time>
      </trkpt>
      <trkpt lat="48.89116" lon="2.34456">
        <ele>136.2</ele>
        <time>2015-01-12T21:04:10.564Z</time>
      </trkpt>
      <trkpt lat="48.89118" lon="2.34448">
        <ele>136.1</ele>
        <time>2015-01-12T21:04:11.655Z</time>
      </trkpt>
      <trkpt lat="48.89118" lon="2.34436">
        <ele>134.5</ele>
        <time>2015-01-12T21:04:12.675Z</time>
      </trkpt>
      <trkpt lat="48.89116" lon="2.34426">
        <ele>133.4</ele>
        <time>2015-01-12T21:04:13.677Z</time>
      </trkpt>
      <trkpt lat="48.89115" lon="2.34418">
        <ele>132.5</ele>
        <time>2015-01-12T21:04:14.585Z</time>
      </trkpt>
      <trkpt lat="48.89115" lon="2.3441">
        <ele>131.7</ele>
        <time>2015-01-12T21:04:15.605Z</time>
      </trkpt>
      <trkpt lat="48.89115" lon="2.34403">
        <ele>131</ele>
        <time>2015-01-12T21:04:16.655Z</time>
      </trkpt>
      <trkpt lat="48.89116" lon="2.34394">
        <ele>130.2</ele>
        <time>2015-01-12T21:04:17.572Z</time>
      </trkpt>
      <trkpt lat="48.89117" lon="2.34386">
        <ele>129.6</ele>
        <time>2015-01-12T21:04:18.584Z</time>
      </trkpt>
      <trkpt lat="48.89118" lon="2.34378">
        <ele>129</ele>
        <time>2015-01-12T21:04:19.613Z</time>
      </trkpt>
      <trkpt lat="48.8912" lon="2.3437">
        <ele>128.6</ele>
        <time>2015-01-12T21:04:20.617Z</time>
      </trkpt>
      <trkpt lat="48.89119" lon="2.34357">
        <ele>127.5</ele>
        <time>2015-01-12T21:04:22.571Z</time>
      </trkpt>
      <trkpt lat="48.89118" lon="2.34355">
        <ele>127.2</ele>
        <time>2015-01-12T21:04:23.665Z</time>
      </trkpt>
      <trkpt lat="48.89124" lon="2.34358">
        <ele>127.5</ele>
        <time>2015-01-12T21:04:38.644Z</time>
      </trkpt>
      <trkpt lat="48.89133" lon="2.3435">
        <ele>129.2</ele>
        <time>2015-01-12T21:04:39.585Z</time>
      </trkpt>
      <trkpt lat="48.89135" lon="2.34342">
        <ele>128.3</ele>
        <time>2015-01-12T21:04:41.575Z</time>
      </trkpt>
      <trkpt lat="48.89138" lon="2.34337">
        <ele>127.9</ele>
        <time>2015-01-12T21:04:42.595Z</time>
      </trkpt>
      <trkpt lat="48.89141" lon="2.34326">
        <ele>127.8</ele>
        <time>2015-01-12T21:04:44.615Z</time>
      </trkpt>
      <trkpt lat="48.89142" lon="2.34318">
        <ele>127.3</ele>
        <time>2015-01-12T21:04:45.627Z</time>
      </trkpt>
      <trkpt lat="48.89142" lon="2.34311">
        <ele>127</ele>
        <time>2015-01-12T21:04:46.578Z</time>
      </trkpt>
      <trkpt lat="48.89143" lon="2.34303">
        <ele>126.8</ele>
        <time>2015-01-12T21:04:47.577Z</time>
      </trkpt>
      <trkpt lat="48.89144" lon="2.34296">
        <ele>126.5</ele>
        <time>2015-01-12T21:04:48.586Z</time>
      </trkpt>
      <trkpt lat="48.89145" lon="2.34289">
        <ele>126.4</ele>
        <time>2015-01-12T21:04:49.610Z</time>
      </trkpt>
      <trkpt lat="48.89148" lon="2.34283">
        <ele>126.3</ele>
        <time>2015-01-12T21:04:50.609Z</time>
      </trkpt>
      <trkpt lat="48.89149" lon="2.34276">
        <ele>126.3</ele>
        <time>2015-01-12T21:04:51.618Z</time>
      </trkpt>
      <trkpt lat="48.89148" lon="2.34269">
        <ele>126.4</ele>
        <time>2015-01-12T21:04:52.627Z</time>
      </trkpt>
      <trkpt lat="48.89148" lon="2.34261">
        <ele>126.5</ele>
        <time>2015-01-12T21:04:53.644Z</time>
      </trkpt>
      <trkpt lat="48.89147" lon="2.34253">
        <ele>126.7</ele>
        <time>2015-01-12T21:04:54.562Z</time>
      </trkpt>
      <trkpt lat="48.89147" lon="2.34245">
        <ele>126.8</ele>
        <time>2015-01-12T21:04:55.675Z</time>
      </trkpt>
      <trkpt lat="48.89148" lon="2.34237">
        <ele>126.9</ele>
        <time>2015-01-12T21:04:56.582Z</time>
      </trkpt>
      <trkpt lat="48.89148" lon="2.3423">
        <ele>127.1</ele>
        <time>2015-01-12T21:04:57.588Z</time>
      </trkpt>
      <trkpt lat="48.89146" lon="2.34223">
        <ele>126.8</ele>
        <time>2015-01-12T21:04:58.598Z</time>
      </trkpt>
      <trkpt lat="48.89144" lon="2.34217">
        <ele>126.3</ele>
        <time>2015-01-12T21:04:59.609Z</time>
      </trkpt>
      <trkpt lat="48.89144" lon="2.34206">
        <ele>125.5</ele>
        <time>2015-01-12T21:05:01.642Z</time>
      </trkpt>
      <trkpt lat="48.89144" lon="2.342">
        <ele>125.7</ele>
        <time>2015-01-12T21:05:02.562Z</time>
      </trkpt>
      <trkpt lat="48.89142" lon="2.34187">
        <ele>125.8</ele>
        <time>2015-01-12T21:05:04.585Z</time>
      </trkpt>
      <trkpt lat="48.8914" lon="2.3418">
        <ele>125.9</ele>
        <time>2015-01-12T21:05:05.619Z</time>
      </trkpt>
      <trkpt lat="48.89137" lon="2.34172">
        <ele>126.5</ele>
        <time>2015-01-12T21:05:06.655Z</time>
      </trkpt>
      <trkpt lat="48.89136" lon="2.34164">
        <ele>126.4</ele>
        <time>2015-01-12T21:05:07.679Z</time>
      </trkpt>
      <trkpt lat="48.89135" lon="2.34157">
        <ele>126.3</ele>
        <time>2015-01-12T21:05:08.585Z</time>
      </trkpt>
      <trkpt lat="48.89135" lon="2.34148">
        <ele>126.1</ele>
        <time>2015-01-12T21:05:09.566Z</time>
      </trkpt>
      <trkpt lat="48.89134" lon="2.3414">
        <ele>126.4</ele>
        <time>2015-01-12T21:05:10.578Z</time>
      </trkpt>
      <trkpt lat="48.89133" lon="2.34131">
        <ele>127.1</ele>
        <time>2015-01-12T21:05:11.589Z</time>
      </trkpt>
      <trkpt lat="48.89131" lon="2.34122">
        <ele>127.7</ele>
        <time>2015-01-12T21:05:12.615Z</time>
      </trkpt>
      <trkpt lat="48.89131" lon="2.34113">
        <ele>128.1</ele>
        <time>2015-01-12T21:05:13.608Z</time>
      </trkpt>
      <trkpt lat="48.8913" lon="2.34103">
        <ele>128.9</ele>
        <time>2015-01-12T21:05:14.627Z</time>
      </trkpt>
      <trkpt lat="48.8913" lon="2.34096">
        <ele>129.1</ele>
        <time>2015-01-12T21:05:15.639Z</time>
      </trkpt>
      <trkpt lat="48.89129" lon="2.34088">
        <ele>129.7</ele>
        <time>2015-01-12T21:05:16.642Z</time>
      </trkpt>
      <trkpt lat="48.89129" lon="2.34081">
        <ele>130.2</ele>
        <time>2015-01-12T21:05:17.551Z</time>
      </trkpt>
      <trkpt lat="48.89125" lon="2.3407">
        <ele>130.7</ele>
        <time>2015-01-12T21:05:19.589Z</time>
      </trkpt>
      <trkpt lat="48.89125" lon="2.34064">
        <ele>130.7</ele>
        <time>2015-01-12T21:05:20.632Z</time>
      </trkpt>
      <trkpt lat="48.89124" lon="2.34051">
        <ele>131.1</ele>
        <time>2015-01-12T21:05:22.575Z</time>
      </trkpt>
      <trkpt lat="48.89124" lon="2.34044">
        <ele>131.2</ele>
        <time>2015-01-12T21:05:23.626Z</time>
      </trkpt>
      <trkpt lat="48.89124" lon="2.34037">
        <ele>131.3</ele>
        <time>2015-01-12T21:05:24.577Z</time>
      </trkpt>
      <trkpt lat="48.89123" lon="2.34027">
        <ele>131.2</ele>
        <time>2015-01-12T21:05:25.641Z</time>
      </trkpt>
      <trkpt lat="48.89122" lon="2.34019">
        <ele>131.4</ele>
        <time>2015-01-12T21:05:26.634Z</time>
      </trkpt>
      <trkpt lat="48.89121" lon="2.34011">
        <ele>131.6</ele>
        <time>2015-01-12T21:05:27.652Z</time>
      </trkpt>
      <trkpt lat="48.8912" lon="2.34002">
        <ele>131.1</ele>
        <time>2015-01-12T21:05:28.804Z</time>
      </trkpt>
      <trkpt lat="48.89119" lon="2.33994">
        <ele>130.8</ele>
        <time>2015-01-12T21:05:29.682Z</time>
      </trkpt>
      <trkpt lat="48.89118" lon="2.33986">
        <ele>130.6</ele>
        <time>2015-01-12T21:05:30.596Z</time>
      </trkpt>
      <trkpt lat="48.89117" lon="2.33978">
        <ele>131</ele>
        <time>2015-01-12T21:05:31.621Z</time>
      </trkpt>
      <trkpt lat="48.89118" lon="2.33965">
        <ele>131.9</ele>
        <time>2015-01-12T21:05:33.659Z</time>
      </trkpt>
      <trkpt lat="48.89117" lon="2.3396">
        <ele>132.1</ele>
        <time>2015-01-12T21:05:34.696Z</time>
      </trkpt>
      <trkpt lat="48.89117" lon="2.3395">
        <ele>132.1</ele>
        <time>2015-01-12T21:05:36.614Z</time>
      </trkpt>
      <trkpt lat="48.89116" lon="2.33944">
        <ele>132.7</ele>
        <time>2015-01-12T21:05:37.675Z</time>
      </trkpt>
      <trkpt lat="48.89116" lon="2.33936">
        <ele>132.2</ele>
        <time>2015-01-12T21:05:53.621Z</time>
      </trkpt>
      <trkpt lat="48.89118" lon="2.33921">
        <ele>127.1</ele>
        <time>2015-01-12T21:05:54.640Z</time>
      </trkpt>
      <trkpt lat="48.89122" lon="2.33909">
        <ele>127.3</ele>
        <time>2015-01-12T21:05:57.674Z</time>
      </trkpt>
      <trkpt lat="48.89123" lon="2.33905">
        <ele>127.4</ele>
        <time>2015-01-12T21:05:58.571Z</time>
      </trkpt>
      <trkpt lat="48.89127" lon="2.33895">
        <ele>127.4</ele>
        <time>2015-01-12T21:06:00.592Z</time>
      </trkpt>
      <trkpt lat="48.89129" lon="2.3389">
        <ele>127.6</ele>
        <time>2015-01-12T21:06:01.682Z</time>
      </trkpt>
      <trkpt lat="48.89133" lon="2.33879">
        <ele>128.2</ele>
        <time>2015-01-12T21:06:03.578Z</time>
      </trkpt>
      <trkpt lat="48.89135" lon="2.33874">
        <ele>128.4</ele>
        <time>2015-01-12T21:06:04.620Z</time>
      </trkpt>
      <trkpt lat="48.89139" lon="2.33863">
        <ele>128.9</ele>
        <time>2015-01-12T21:06:06.639Z</time>
      </trkpt>
      <trkpt lat="48.89141" lon="2.33857">
        <ele>129</ele>
        <time>2015-01-12T21:06:07.648Z</time>
      </trkpt>
      <trkpt lat="48.89144" lon="2.33845">
        <ele>129.6</ele>
        <time>2015-01-12T21:06:10.116Z</time>
      </trkpt>
      <trkpt lat="48.89146" lon="2.3384">
        <ele>129.8</ele>
        <time>2015-01-12T21:06:10.592Z</time>
      </trkpt>
      <trkpt lat="48.89148" lon="2.33827">
        <ele>129.9</ele>
        <time>2015-01-12T21:06:12.603Z</time>
      </trkpt>
      <trkpt lat="48.89148" lon="2.33821">
        <ele>130</ele>
        <time>2015-01-12T21:06:13.619Z</time>
      </trkpt>
      <trkpt lat="48.89151" lon="2.33814">
        <ele>130.3</ele>
        <time>2015-01-12T21:06:15.288Z</time>
      </trkpt>
      <trkpt lat="48.89154" lon="2.33809">
        <ele>130.7</ele>
        <time>2015-01-12T21:06:15.641Z</time>
      </trkpt>
      <trkpt lat="48.89157" lon="2.33803">
        <ele>130.7</ele>
        <time>2015-01-12T21:06:16.656Z</time>
      </trkpt>
      <trkpt lat="48.89159" lon="2.33796">
        <ele>130.8</ele>
        <time>2015-01-12T21:06:17.734Z</time>
      </trkpt>
      <trkpt lat="48.89161" lon="2.33783">
        <ele>130.8</ele>
        <time>2015-01-12T21:06:20.388Z</time>
      </trkpt>
      <trkpt lat="48.89162" lon="2.33777">
        <ele>130.7</ele>
        <time>2015-01-12T21:06:20.539Z</time>
      </trkpt>
      <trkpt lat="48.89163" lon="2.33763">
        <ele>130.3</ele>
        <time>2015-01-12T21:06:22.561Z</time>
      </trkpt>
      <trkpt lat="48.89162" lon="2.33756">
        <ele>130.4</ele>
        <time>2015-01-12T21:06:23.571Z</time>
      </trkpt>
      <trkpt lat="48.89163" lon="2.33744">
        <ele>130.5</ele>
        <time>2015-01-12T21:06:25.587Z</time>
      </trkpt>
      <trkpt lat="48.89164" lon="2.33738">
        <ele>130.4</ele>
        <time>2015-01-12T21:06:26.593Z</time>
      </trkpt>
      <trkpt lat="48.89166" lon="2.33731">
        <ele>130.5</ele>
        <time>2015-01-12T21:06:27.606Z</time>
      </trkpt>
      <trkpt lat="48.89167" lon="2.33724">
        <ele>130.5</ele>
        <time>2015-01-12T21:06:28.653Z</time>
      </trkpt>
      <trkpt lat="48.89168" lon="2.33717">
        <ele>130.6</ele>
        <time>2015-01-12T21:06:30.658Z</time>
      </trkpt>
      <trkpt lat="48.89168" lon="2.3371">
        <ele>130.7</ele>
        <time>2015-01-12T21:06:30.684Z</time>
      </trkpt>
      <trkpt lat="48.89167" lon="2.33701">
        <ele>130.6</ele>
        <time>2015-01-12T21:06:31.694Z</time>
      </trkpt>
      <trkpt lat="48.89165" lon="2.33693">
        <ele>131</ele>
        <time>2015-01-12T21:06:32.594Z</time>
      </trkpt>
      <trkpt lat="48.89163" lon="2.33685">
        <ele>131.2</ele>
        <time>2015-01-12T21:06:33.647Z</time>
      </trkpt>
      <trkpt lat="48.89162" lon="2.33678">
        <ele>131.3</ele>
        <time>2015-01-12T21:06:34.641Z</time>
      </trkpt>
      <trkpt lat="48.89161" lon="2.33671">
        <ele>131.3</ele>
        <time>2015-01-12T21:06:35.698Z</time>
      </trkpt>
      <trkpt lat="48.8916" lon="2.33664">
        <ele>131.3</ele>
        <time>2015-01-12T21:06:36.593Z</time>
      </trkpt>
      <trkpt lat="48.89158" lon="2.33656">
        <ele>131.5</ele>
        <time>2015-01-12T21:06:37.610Z</time>
      </trkpt>
      <trkpt lat="48.89157" lon="2.33648">
        <ele>131.5</ele>
        <time>2015-01-12T21:06:38.642Z</time>
      </trkpt>
      <trkpt lat="48.89158" lon="2.33635">
        <ele>131.3</ele>
        <time>2015-01-12T21:06:40.614Z</time>
      </trkpt>
      <trkpt lat="48.89158" lon="2.33628">
        <ele>131.1</ele>
        <time>2015-01-12T21:06:41.617Z</time>
      </trkpt>
      <trkpt lat="48.89162" lon="2.33618">
        <ele>130.6</ele>
        <time>2015-01-12T21:06:43.657Z</time>
      </trkpt>
      <trkpt lat="48.89163" lon="2.33612">
        <ele>130.6</ele>
        <time>2015-01-12T21:06:44.644Z</time>
      </trkpt>
      <trkpt lat="48.89162" lon="2.33599">
        <ele>129.9</ele>
        <time>2015-01-12T21:06:46.568Z</time>
      </trkpt>
      <trkpt lat="48.89163" lon="2.33594">
        <ele>129.6</ele>
        <time>2015-01-12T21:06:47.651Z</time>
      </trkpt>
      <trkpt lat="48.89162" lon="2.33582">
        <ele>129.7</ele>
        <time>2015-01-12T21:06:49.620Z</time>
      </trkpt>
      <trkpt lat="48.89162" lon="2.33576">
        <ele>129.6</ele>
        <time>2015-01-12T21:06:50.574Z</time>
      </trkpt>
      <trkpt lat="48.89162" lon="2.33564">
        <ele>129.2</ele>
        <time>2015-01-12T21:06:52.561Z</time>
      </trkpt>
      <trkpt lat="48.89162" lon="2.33558">
        <ele>129.1</ele>
        <time>2015-01-12T21:06:53.572Z</time>
      </trkpt>
      <trkpt lat="48.89162" lon="2.33546">
        <ele>128.7</ele>
        <time>2015-01-12T21:06:55.635Z</time>
      </trkpt>
      <trkpt lat="48.89162" lon="2.3354">
        <ele>128.6</ele>
        <time>2015-01-12T21:06:56.651Z</time>
      </trkpt>
      <trkpt lat="48.89162" lon="2.3353">
        <ele>128.3</ele>
        <time>2015-01-12T21:06:58.565Z</time>
      </trkpt>
      <trkpt lat="48.89163" lon="2.33526">
        <ele>128.2</ele>
        <time>2015-01-12T21:06:59.576Z</time>
      </trkpt>
      <trkpt lat="48.89164" lon="2.33514">
        <ele>127.5</ele>
        <time>2015-01-12T21:07:02.652Z</time>
      </trkpt>
      <trkpt lat="48.89163" lon="2.33509">
        <ele>127.2</ele>
        <time>2015-01-12T21:07:03.556Z</time>
      </trkpt>
      <trkpt lat="48.89166" lon="2.33498">
        <ele>126.5</ele>
        <time>2015-01-12T21:07:06.683Z</time>
      </trkpt>
      <trkpt lat="48.89168" lon="2.33495">
        <ele>126.6</ele>
        <time>2015-01-12T21:07:07.701Z</time>
      </trkpt>
      <trkpt lat="48.89171" lon="2.33487">
        <ele>126.9</ele>
        <time>2015-01-12T21:07:09.590Z</time>
      </trkpt>
      <trkpt lat="48.89171" lon="2.33482">
        <ele>127.1</ele>
        <time>2015-01-12T21:07:10.600Z</time>
      </trkpt>
      <trkpt lat="48.89172" lon="2.33473">
        <ele>127.2</ele>
        <time>2015-01-12T21:07:12.562Z</time>
      </trkpt>
      <trkpt lat="48.89173" lon="2.33469">
        <ele>126.9</ele>
        <time>2015-01-12T21:07:13.605Z</time>
      </trkpt>
      <trkpt lat="48.89173" lon="2.33458">
        <ele>126.6</ele>
        <time>2015-01-12T21:07:15.572Z</time>
      </trkpt>
      <trkpt lat="48.89174" lon="2.33453">
        <ele>126.4</ele>
        <time>2015-01-12T21:07:16.577Z</time>
      </trkpt>
      <trkpt lat="48.89176" lon="2.33441">
        <ele>126.3</ele>
        <time>2015-01-12T21:07:18.611Z</time>
      </trkpt>
      <trkpt lat="48.89177" lon="2.33435">
        <ele>126.5</ele>
        <time>2015-01-12T21:07:19.641Z</time>
      </trkpt>
      <trkpt lat="48.89178" lon="2.33427">
        <ele>126.6</ele>
        <time>2015-01-12T21:07:20.563Z</time>
      </trkpt>
      <trkpt lat="48.8918" lon="2.33419">
        <ele>126.7</ele>
        <time>2015-01-12T21:07:21.565Z</time>
      </trkpt>
      <trkpt lat="48.8918" lon="2.33411">
        <ele>126.7</ele>
        <time>2015-01-12T21:07:22.569Z</time>
      </trkpt>
      <trkpt lat="48.89181" lon="2.33403">
        <ele>126.7</ele>
        <time>2015-01-12T21:07:23.578Z</time>
      </trkpt>
      <trkpt lat="48.89182" lon="2.33396">
        <ele>126.6</ele>
        <time>2015-01-12T21:07:24.608Z</time>
      </trkpt>
      <trkpt lat="48.89182" lon="2.33389">
        <ele>126.2</ele>
        <time>2015-01-12T21:07:25.619Z</time>
      </trkpt>
      <trkpt lat="48.89183" lon="2.33381">
        <ele>126</ele>
        <time>2015-01-12T21:07:26.653Z</time>
      </trkpt>
      <trkpt lat="48.89184" lon="2.33374">
        <ele>125.8</ele>
        <time>2015-01-12T21:07:27.561Z</time>
      </trkpt>
      <trkpt lat="48.89184" lon="2.33362">
        <ele>125.9</ele>
        <time>2015-01-12T21:07:29.567Z</time>
      </trkpt>
      <trkpt lat="48.89185" lon="2.33356">
        <ele>125.9</ele>
        <time>2015-01-12T21:07:30.592Z</time>
      </trkpt>
      <trkpt lat="48.89184" lon="2.33349">
        <ele>125.9</ele>
        <time>2015-01-12T21:07:31.691Z</time>
      </trkpt>
      <trkpt lat="48.89182" lon="2.33343">
        <ele>125.8</ele>
        <time>2015-01-12T21:07:32.565Z</time>
      </trkpt>
      <trkpt lat="48.89177" lon="2.33335">
        <ele>125.1</ele>
        <time>2015-01-12T21:07:34.647Z</time>
      </trkpt>
      <trkpt lat="48.89174" lon="2.33331">
        <ele>124.6</ele>
        <time>2015-01-12T21:07:35.555Z</time>
      </trkpt>
      <trkpt lat="48.89169" lon="2.3332">
        <ele>124.6</ele>
        <time>2015-01-12T21:07:37.687Z</time>
      </trkpt>
      <trkpt lat="48.89165" lon="2.33315">
        <ele>124.6</ele>
        <time>2015-01-12T21:07:38.570Z</time>
      </trkpt>
      <trkpt lat="48.89161" lon="2.33309">
        <ele>124.9</ele>
        <time>2015-01-12T21:07:39.685Z</time>
      </trkpt>
      <trkpt lat="48.89157" lon="2.33303">
        <ele>125</ele>
        <time>2015-01-12T21:07:40.555Z</time>
      </trkpt>
      <trkpt lat="48.89154" lon="2.33297">
        <ele>125</ele>
        <time>2015-01-12T21:07:41.638Z</time>
      </trkpt>
      <trkpt lat="48.89152" lon="2.33291">
        <ele>124.8</ele>
        <time>2015-01-12T21:07:42.648Z</time>
      </trkpt>
      <trkpt lat="48.8915" lon="2.33282">
        <ele>124.8</ele>
        <time>2015-01-12T21:07:43.656Z</time>
      </trkpt>
      <trkpt lat="48.89149" lon="2.33275">
        <ele>124.9</ele>
        <time>2015-01-12T21:07:44.673Z</time>
      </trkpt>
      <trkpt lat="48.89148" lon="2.33267">
        <ele>124.7</ele>
        <time>2015-01-12T21:07:45.594Z</time>
      </trkpt>
      <trkpt lat="48.89146" lon="2.33262">
        <ele>124.2</ele>
        <time>2015-01-12T21:07:46.610Z</time>
      </trkpt>
      <trkpt lat="48.89143" lon="2.33256">
        <ele>123.7</ele>
        <time>2015-01-12T21:07:47.622Z</time>
      </trkpt>
      <trkpt lat="48.89139" lon="2.33251">
        <ele>123.9</ele>
        <time>2015-01-12T21:07:48.630Z</time>
      </trkpt>
      <trkpt lat="48.89136" lon="2.33242">
        <ele>124.7</ele>
        <time>2015-01-12T21:07:49.670Z</time>
      </trkpt>
      <trkpt lat="48.89136" lon="2.33235">
        <ele>124.7</ele>
        <time>2015-01-12T21:07:50.570Z</time>
      </trkpt>
      <trkpt lat="48.89134" lon="2.33229">
        <ele>124.5</ele>
        <time>2015-01-12T21:07:51.586Z</time>
      </trkpt>
      <trkpt lat="48.89131" lon="2.33223">
        <ele>124.6</ele>
        <time>2015-01-12T21:07:52.596Z</time>
      </trkpt>
      <trkpt lat="48.89129" lon="2.33217">
        <ele>124.2</ele>
        <time>2015-01-12T21:07:53.640Z</time>
      </trkpt>
      <trkpt lat="48.89126" lon="2.33211">
        <ele>124.8</ele>
        <time>2015-01-12T21:07:54.646Z</time>
      </trkpt>
      <trkpt lat="48.89124" lon="2.33204">
        <ele>125</ele>
        <time>2015-01-12T21:07:55.662Z</time>
      </trkpt>
      <trkpt lat="48.89122" lon="2.33199">
        <ele>124.7</ele>
        <time>2015-01-12T21:07:56.584Z</time>
      </trkpt>
      <trkpt lat="48.8912" lon="2.33192">
        <ele>124.8</ele>
        <time>2015-01-12T21:07:57.624Z</time>
      </trkpt>
      <trkpt lat="48.89117" lon="2.33186">
        <ele>124.6</ele>
        <time>2015-01-12T21:07:58.630Z</time>
      </trkpt>
      <trkpt lat="48.89112" lon="2.33176">
        <ele>124.4</ele>
        <time>2015-01-12T21:08:00.556Z</time>
      </trkpt>
      <trkpt lat="48.89109" lon="2.33173">
        <ele>123.9</ele>
        <time>2015-01-12T21:08:01.668Z</time>
      </trkpt>
      <trkpt lat="48.89104" lon="2.33165">
        <ele>122.7</ele>
        <time>2015-01-12T21:08:03.585Z</time>
      </trkpt>
      <trkpt lat="48.89102" lon="2.3316">
        <ele>122.4</ele>
        <time>2015-01-12T21:08:04.599Z</time>
      </trkpt>
      <trkpt lat="48.89099" lon="2.33149">
        <ele>122</ele>
        <time>2015-01-12T21:08:06.623Z</time>
      </trkpt>
      <trkpt lat="48.89097" lon="2.33145">
        <ele>121.8</ele>
        <time>2015-01-12T21:08:07.637Z</time>
      </trkpt>
      <trkpt lat="48.89093" lon="2.33135">
        <ele>121.5</ele>
        <time>2015-01-12T21:08:09.718Z</time>
      </trkpt>
      <trkpt lat="48.89092" lon="2.3313">
        <ele>121.3</ele>
        <time>2015-01-12T21:08:10.569Z</time>
      </trkpt>
      <trkpt lat="48.89086" lon="2.33123">
        <ele>120.5</ele>
        <time>2015-01-12T21:08:12.587Z</time>
      </trkpt>
      <trkpt lat="48.89082" lon="2.33119">
        <ele>120.5</ele>
        <time>2015-01-12T21:08:13.603Z</time>
      </trkpt>
      <trkpt lat="48.89076" lon="2.33111">
        <ele>121.8</ele>
        <time>2015-01-12T21:08:17.577Z</time>
      </trkpt>
      <trkpt lat="48.89074" lon="2.33108">
        <ele>121.8</ele>
        <time>2015-01-12T21:08:18.538Z</time>
      </trkpt>
      <trkpt lat="48.89069" lon="2.33103">
        <ele>121.6</ele>
        <time>2015-01-12T21:08:20.603Z</time>
      </trkpt>
      <trkpt lat="48.89067" lon="2.33098">
        <ele>122.3</ele>
        <time>2015-01-12T21:08:21.618Z</time>
      </trkpt>
      <trkpt lat="48.89064" lon="2.33086">
        <ele>123.1</ele>
        <time>2015-01-12T21:08:23.651Z</time>
      </trkpt>
      <trkpt lat="48.89063" lon="2.33081">
        <ele>123.1</ele>
        <time>2015-01-12T21:08:24.664Z</time>
      </trkpt>
      <trkpt lat="48.8906" lon="2.33069">
        <ele>123.3</ele>
        <time>2015-01-12T21:08:26.549Z</time>
      </trkpt>
      <trkpt lat="48.89057" lon="2.33063">
        <ele>123.2</ele>
        <time>2015-01-12T21:08:27.585Z</time>
      </trkpt>
      <trkpt lat="48.89053" lon="2.33053">
        <ele>123.1</ele>
        <time>2015-01-12T21:08:29.617Z</time>
      </trkpt>
      <trkpt lat="48.8905" lon="2.33049">
        <ele>122.9</ele>
        <time>2015-01-12T21:08:30.622Z</time>
      </trkpt>
      <trkpt lat="48.89046" lon="2.3304">
        <ele>122.3</ele>
        <time>2015-01-12T21:08:32.559Z</time>
      </trkpt>
      <trkpt lat="48.89044" lon="2.33035">
        <ele>121.8</ele>
        <time>2015-01-12T21:08:33.565Z</time>
      </trkpt>
      <trkpt lat="48.89041" lon="2.33026">
        <ele>121.3</ele>
        <time>2015-01-12T21:08:35.614Z</time>
      </trkpt>
      <trkpt lat="48.89039" lon="2.3302">
        <ele>121.2</ele>
        <time>2015-01-12T21:08:36.648Z</time>
      </trkpt>
      <trkpt lat="48.89035" lon="2.33009">
        <ele>120.7</ele>
        <time>2015-01-12T21:08:38.564Z</time>
      </trkpt>
      <trkpt lat="48.89033" lon="2.33004">
        <ele>120.3</ele>
        <time>2015-01-12T21:08:39.642Z</time>
      </trkpt>
      <trkpt lat="48.89027" lon="2.32994">
        <ele>120</ele>
        <time>2015-01-12T21:08:41.584Z</time>
      </trkpt>
      <trkpt lat="48.89025" lon="2.32989">
        <ele>119.7</ele>
        <time>2015-01-12T21:08:42.651Z</time>
      </trkpt>
      <trkpt lat="48.89022" lon="2.32978">
        <ele>119.2</ele>
        <time>2015-01-12T21:08:44.627Z</time>
      </trkpt>
      <trkpt lat="48.88955" lon="2.3287">
        <ele>120</ele>
        <time>2015-01-12T21:09:10.579Z</time>
      </trkpt>
      <trkpt lat="48.88951" lon="2.32868">
        <ele>119.9</ele>
        <time>2015-01-12T21:09:11.621Z</time>
      </trkpt>
      <trkpt lat="48.88947" lon="2.32862">
        <ele>119.6</ele>
        <time>2015-01-12T21:09:12.628Z</time>
      </trkpt>
      <trkpt lat="48.88943" lon="2.32859">
        <ele>119.6</ele>
        <time>2015-01-12T21:09:13.641Z</time>
      </trkpt>
      <trkpt lat="48.88939" lon="2.32855">
        <ele>119.7</ele>
        <time>2015-01-12T21:09:14.523Z</time>
      </trkpt>
      <trkpt lat="48.88931" lon="2.32848">
        <ele>119.9</ele>
        <time>2015-01-12T21:09:16.587Z</time>
      </trkpt>
      <trkpt lat="48.88927" lon="2.32843">
        <ele>120.3</ele>
        <time>2015-01-12T21:09:17.607Z</time>
      </trkpt>
      <trkpt lat="48.8892" lon="2.32837">
        <ele>120.3</ele>
        <time>2015-01-12T21:09:20.183Z</time>
      </trkpt>
      <trkpt lat="48.88916" lon="2.32834">
        <ele>120.1</ele>
        <time>2015-01-12T21:09:20.562Z</time>
      </trkpt>
      <trkpt lat="48.8891" lon="2.32828">
        <ele>119.6</ele>
        <time>2015-01-12T21:09:22.594Z</time>
      </trkpt>
      <trkpt lat="48.88907" lon="2.32826">
        <ele>119.6</ele>
        <time>2015-01-12T21:09:23.629Z</time>
      </trkpt>
      <trkpt lat="48.88902" lon="2.32819">
        <ele>119.2</ele>
        <time>2015-01-12T21:09:25.669Z</time>
      </trkpt>
      <trkpt lat="48.88899" lon="2.32816">
        <ele>119</ele>
        <time>2015-01-12T21:09:26.556Z</time>
      </trkpt>
      <trkpt lat="48.88895" lon="2.3281">
        <ele>118.6</ele>
        <time>2015-01-12T21:09:27.551Z</time>
      </trkpt>
      <trkpt lat="48.88891" lon="2.32806">
        <ele>118</ele>
        <time>2015-01-12T21:09:28.563Z</time>
      </trkpt>
      <trkpt lat="48.88887" lon="2.328">
        <ele>117.4</ele>
        <time>2015-01-12T21:09:30.526Z</time>
      </trkpt>
      <trkpt lat="48.88883" lon="2.32795">
        <ele>117.2</ele>
        <time>2015-01-12T21:09:30.569Z</time>
      </trkpt>
      <trkpt lat="48.88871" lon="2.32785">
        <ele>116.6</ele>
        <time>2015-01-12T21:09:33.633Z</time>
      </trkpt>
      <trkpt lat="48.88866" lon="2.32781">
        <ele>116.6</ele>
        <time>2015-01-12T21:09:34.669Z</time>
      </trkpt>
      <trkpt lat="48.88862" lon="2.32778">
        <ele>116.6</ele>
        <time>2015-01-12T21:09:35.590Z</time>
      </trkpt>
      <trkpt lat="48.88857" lon="2.32777">
        <ele>116.5</ele>
        <time>2015-01-12T21:09:36.572Z</time>
      </trkpt>
      <trkpt lat="48.88852" lon="2.32775">
        <ele>116.5</ele>
        <time>2015-01-12T21:09:37.680Z</time>
      </trkpt>
      <trkpt lat="48.88847" lon="2.32771">
        <ele>116.8</ele>
        <time>2015-01-12T21:09:38.561Z</time>
      </trkpt>
      <trkpt lat="48.88822" lon="2.32762">
        <ele>119.3</ele>
        <time>2015-01-12T21:09:45.626Z</time>
      </trkpt>
      <trkpt lat="48.88817" lon="2.32769">
        <ele>120</ele>
        <time>2015-01-12T21:09:48.576Z</time>
      </trkpt>
      <trkpt lat="48.88814" lon="2.32772">
        <ele>120.3</ele>
        <time>2015-01-12T21:09:49.636Z</time>
      </trkpt>
      <trkpt lat="48.8881" lon="2.32782">
        <ele>123.3</ele>
        <time>2015-01-12T21:09:55.607Z</time>
      </trkpt>
      <trkpt lat="48.88806" lon="2.32787">
        <ele>124.2</ele>
        <time>2015-01-12T21:09:56.679Z</time>
      </trkpt>
      <trkpt lat="48.88803" lon="2.32789">
        <ele>124.6</ele>
        <time>2015-01-12T21:10:01.634Z</time>
      </trkpt>
      <trkpt lat="48.88789" lon="2.32808">
        <ele>125</ele>
        <time>2015-01-12T21:10:02.554Z</time>
      </trkpt>
      <trkpt lat="48.88785" lon="2.32812">
        <ele>124.9</ele>
        <time>2015-01-12T21:10:03.557Z</time>
      </trkpt>
      <trkpt lat="48.88782" lon="2.32816">
        <ele>124.9</ele>
        <time>2015-01-12T21:10:04.591Z</time>
      </trkpt>
      <trkpt lat="48.88776" lon="2.32818">
        <ele>124.8</ele>
        <time>2015-01-12T21:10:06.634Z</time>
      </trkpt>
      <trkpt lat="48.88771" lon="2.32819">
        <ele>124.4</ele>
        <time>2015-01-12T21:10:07.638Z</time>
      </trkpt>
      <trkpt lat="48.88765" lon="2.32824">
        <ele>123.3</ele>
        <time>2015-01-12T21:10:08.649Z</time>
      </trkpt>
      <trkpt lat="48.88753" lon="2.3283">
        <ele>119.9</ele>
        <time>2015-01-12T21:10:09.745Z</time>
      </trkpt>
      <trkpt lat="48.88749" lon="2.32834">
        <ele>119.3</ele>
        <time>2015-01-12T21:10:10.556Z</time>
      </trkpt>
      <trkpt lat="48.88744" lon="2.32838">
        <ele>118.9</ele>
        <time>2015-01-12T21:10:11.566Z</time>
      </trkpt>
      <trkpt lat="48.88737" lon="2.32843">
        <ele>119.4</ele>
        <time>2015-01-12T21:10:13.718Z</time>
      </trkpt>
      <trkpt lat="48.88734" lon="2.32843">
        <ele>119.5</ele>
        <time>2015-01-12T21:10:14.666Z</time>
      </trkpt>
      <trkpt lat="48.88727" lon="2.32837">
        <ele>119.5</ele>
        <time>2015-01-12T21:10:17.597Z</time>
      </trkpt>
      <trkpt lat="48.88725" lon="2.32835">
        <ele>119.8</ele>
        <time>2015-01-12T21:10:18.633Z</time>
      </trkpt>
      <trkpt lat="48.88718" lon="2.32829">
        <ele>119.9</ele>
        <time>2015-01-12T21:10:21.571Z</time>
      </trkpt>
      <trkpt lat="48.88715" lon="2.32825">
        <ele>119.8</ele>
        <time>2015-01-12T21:10:22.580Z</time>
      </trkpt>
      <trkpt lat="48.8871" lon="2.32815">
        <ele>121.9</ele>
        <time>2015-01-12T21:10:26.601Z</time>
      </trkpt>
      <trkpt lat="48.88708" lon="2.32811">
        <ele>122.3</ele>
        <time>2015-01-12T21:10:27.608Z</time>
      </trkpt>
      <trkpt lat="48.88702" lon="2.32803">
        <ele>123.8</ele>
        <time>2015-01-12T21:10:31.652Z</time>
      </trkpt>
      <trkpt lat="48.887" lon="2.32801">
        <ele>124</ele>
        <time>2015-01-12T21:10:32.579Z</time>
      </trkpt>
      <trkpt lat="48.88695" lon="2.32791">
        <ele>124.4</ele>
        <time>2015-01-12T21:10:36.643Z</time>
      </trkpt>
      <trkpt lat="48.88694" lon="2.32788">
        <ele>124.1</ele>
        <time>2015-01-12T21:10:37.649Z</time>
      </trkpt>
      <trkpt lat="48.88689" lon="2.32788">
        <ele>124.1</ele>
        <time>2015-01-12T21:10:39.570Z</time>
      </trkpt>
      <trkpt lat="48.8868" lon="2.32784">
        <ele>124.3</ele>
        <time>2015-01-12T21:10:46.645Z</time>
      </trkpt>
      <trkpt lat="48.8868" lon="2.32784">
        <ele>124.3</ele>
        <time>2015-01-12T21:12:12.580Z</time>
      </trkpt>
      <trkpt lat="48.88678" lon="2.3277">
        <ele>125.8</ele>
        <time>2015-01-12T21:12:13.579Z</time>
      </trkpt>
      <trkpt lat="48.88655" lon="2.32788">
        <ele>125.1</ele>
        <time>2015-01-12T21:12:20.529Z</time>
      </trkpt>
      <trkpt lat="48.88647" lon="2.32789">
        <ele>124.9</ele>
        <time>2015-01-12T21:12:23.524Z</time>
      </trkpt>
      <trkpt lat="48.88645" lon="2.32791">
        <ele>124.6</ele>
        <time>2015-01-12T21:12:24.528Z</time>
      </trkpt>
      <trkpt lat="48.8864" lon="2.32796">
        <ele>124.1</ele>
        <time>2015-01-12T21:12:26.581Z</time>
      </trkpt>
      <trkpt lat="48.88637" lon="2.32799">
        <ele>123.9</ele>
        <time>2015-01-12T21:12:27.548Z</time>
      </trkpt>
      <trkpt lat="48.88621" lon="2.32801">
        <ele>123.5</ele>
        <time>2015-01-12T21:12:31.615Z</time>
      </trkpt>
      <trkpt lat="48.88573" lon="2.32864">
        <ele>124.7</ele>
        <time>2015-01-12T21:12:58.552Z</time>
      </trkpt>
      <trkpt lat="48.88573" lon="2.32864">
        <ele>124.7</ele>
        <time>2015-01-12T21:13:00.554Z</time>
      </trkpt>
      <trkpt lat="48.88567" lon="2.32877">
        <ele>125.4</ele>
        <time>2015-01-12T21:13:01.592Z</time>
      </trkpt>
      <trkpt lat="48.88562" lon="2.32883">
        <ele>126.1</ele>
        <time>2015-01-12T21:13:03.549Z</time>
      </trkpt>
      <trkpt lat="48.8847" lon="2.32966">
        <ele>125.3</ele>
        <time>2015-01-12T21:13:28.636Z</time>
      </trkpt>
      <trkpt lat="48.88463" lon="2.32972">
        <ele>125.3</ele>
        <time>2015-01-12T21:13:30.571Z</time>
      </trkpt>
      <trkpt lat="48.88461" lon="2.32973">
        <ele>125.2</ele>
        <time>2015-01-12T21:13:31.645Z</time>
      </trkpt>
      <trkpt lat="48.88455" lon="2.3298">
        <ele>124.9</ele>
        <time>2015-01-12T21:13:41.636Z</time>
      </trkpt>
      <trkpt lat="48.88455" lon="2.3299">
        <ele>129</ele>
        <time>2015-01-12T21:13:42.656Z</time>
      </trkpt>
      <trkpt lat="48.88454" lon="2.33003">
        <ele>130.6</ele>
        <time>2015-01-12T21:13:45.631Z</time>
      </trkpt>
      <trkpt lat="48.88454" lon="2.33007">
        <ele>131</ele>
        <time>2015-01-12T21:13:46.715Z</time>
      </trkpt>
      <trkpt lat="48.88453" lon="2.33018">
        <ele>130.8</ele>
        <time>2015-01-12T21:13:48.599Z</time>
      </trkpt>
      <trkpt lat="48.88452" lon="2.33023">
        <ele>130.8</ele>
        <time>2015-01-12T21:13:49.747Z</time>
      </trkpt>
      <trkpt lat="48.88444" lon="2.33019">
        <ele>137.7</ele>
        <time>2015-01-12T21:14:26.681Z</time>
      </trkpt>
      <trkpt lat="48.88439" lon="2.33016">
        <ele>137.4</ele>
        <time>2015-01-12T21:14:27.585Z</time>
      </trkpt>
      <trkpt lat="48.88431" lon="2.33014">
        <ele>137.4</ele>
        <time>2015-01-12T21:14:29.609Z</time>
      </trkpt>
      <trkpt lat="48.88427" lon="2.33013">
        <ele>137.5</ele>
        <time>2015-01-12T21:14:30.621Z</time>
      </trkpt>
      <trkpt lat="48.88421" lon="2.33011">
        <ele>137.8</ele>
        <time>2015-01-12T21:14:31.670Z</time>
      </trkpt>
      <trkpt lat="48.88417" lon="2.33008">
        <ele>137.8</ele>
        <time>2015-01-12T21:14:32.553Z</time>
      </trkpt>
      <trkpt lat="48.88412" lon="2.33004">
        <ele>137.5</ele>
        <time>2015-01-12T21:14:33.553Z</time>
      </trkpt>
      <trkpt lat="48.88407" lon="2.33">
        <ele>137.4</ele>
        <time>2015-01-12T21:14:34.557Z</time>
      </trkpt>
      <trkpt lat="48.88399" lon="2.32995">
        <ele>136.8</ele>
        <time>2015-01-12T21:14:36.566Z</time>
      </trkpt>
      <trkpt lat="48.88396" lon="2.32992">
        <ele>136.2</ele>
        <time>2015-01-12T21:14:37.594Z</time>
      </trkpt>
      <trkpt lat="48.88388" lon="2.32987">
        <ele>134.6</ele>
        <time>2015-01-12T21:14:40.617Z</time>
      </trkpt>
      <trkpt lat="48.88385" lon="2.32988">
        <ele>134.6</ele>
        <time>2015-01-12T21:14:41.631Z</time>
      </trkpt>
      <trkpt lat="48.88377" lon="2.32989">
        <ele>134.2</ele>
        <time>2015-01-12T21:14:43.598Z</time>
      </trkpt>
      <trkpt lat="48.88373" lon="2.3299">
        <ele>134.2</ele>
        <time>2015-01-12T21:14:44.598Z</time>
      </trkpt>
      <trkpt lat="48.88367" lon="2.3299">
        <ele>134.3</ele>
        <time>2015-01-12T21:14:46.633Z</time>
      </trkpt>
      <trkpt lat="48.88364" lon="2.32991">
        <ele>135</ele>
        <time>2015-01-12T21:14:47.640Z</time>
      </trkpt>
      <trkpt lat="48.8836" lon="2.32991">
        <ele>135</ele>
        <time>2015-01-12T21:14:50.606Z</time>
      </trkpt>
      <trkpt lat="48.88355" lon="2.32988">
        <ele>135.3</ele>
        <time>2015-01-12T21:14:51.647Z</time>
      </trkpt>
      <trkpt lat="48.88351" lon="2.32985">
        <ele>135.6</ele>
        <time>2015-01-12T21:14:52.657Z</time>
      </trkpt>
      <trkpt lat="48.88346" lon="2.32981">
        <ele>136</ele>
        <time>2015-01-12T21:14:53.551Z</time>
      </trkpt>
      <trkpt lat="48.88341" lon="2.32977">
        <ele>136.5</ele>
        <time>2015-01-12T21:14:54.576Z</time>
      </trkpt>
      <trkpt lat="48.88335" lon="2.32974">
        <ele>136.4</ele>
        <time>2015-01-12T21:14:55.590Z</time>
      </trkpt>
      <trkpt lat="48.88328" lon="2.32971">
        <ele>136.9</ele>
        <time>2015-01-12T21:14:57.646Z</time>
      </trkpt>
      <trkpt lat="48.88325" lon="2.32971">
        <ele>136.9</ele>
        <time>2015-01-12T21:14:58.563Z</time>
      </trkpt>
      <trkpt lat="48.88317" lon="2.32968">
        <ele>137.5</ele>
        <time>2015-01-12T21:15:02.642Z</time>
      </trkpt>
      <trkpt lat="48.88316" lon="2.3297">
        <ele>137.3</ele>
        <time>2015-01-12T21:15:03.565Z</time>
      </trkpt>
      <trkpt lat="48.88311" lon="2.32973">
        <ele>136.3</ele>
        <time>2015-01-12T21:15:06.561Z</time>
      </trkpt>
      <trkpt lat="48.88305" lon="2.32978">
        <ele>136.7</ele>
        <time>2015-01-12T21:15:07.601Z</time>
      </trkpt>
      <trkpt lat="48.88298" lon="2.32985">
        <ele>136.7</ele>
        <time>2015-01-12T21:15:08.540Z</time>
      </trkpt>
      <trkpt lat="48.88291" lon="2.32991">
        <ele>136.9</ele>
        <time>2015-01-12T21:15:09.548Z</time>
      </trkpt>
      <trkpt lat="48.88287" lon="2.32998">
        <ele>136.9</ele>
        <time>2015-01-12T21:15:10.670Z</time>
      </trkpt>
      <trkpt lat="48.88284" lon="2.33006">
        <ele>136.8</ele>
        <time>2015-01-12T21:15:11.666Z</time>
      </trkpt>
      <trkpt lat="48.88282" lon="2.33014">
        <ele>136.8</ele>
        <time>2015-01-12T21:15:12.585Z</time>
      </trkpt>
      <trkpt lat="48.88279" lon="2.33022">
        <ele>136.6</ele>
        <time>2015-01-12T21:15:13.560Z</time>
      </trkpt>
      <trkpt lat="48.88275" lon="2.33034">
        <ele>136.4</ele>
        <time>2015-01-12T21:15:15.592Z</time>
      </trkpt>
      <trkpt lat="48.88266" lon="2.33052">
        <ele>135.8</ele>
        <time>2015-01-12T21:15:18.545Z</time>
      </trkpt>
      <trkpt lat="48.88263" lon="2.33059">
        <ele>135.8</ele>
        <time>2015-01-12T21:15:19.571Z</time>
      </trkpt>
      <trkpt lat="48.8826" lon="2.33066">
        <ele>135.8</ele>
        <time>2015-01-12T21:15:20.591Z</time>
      </trkpt>
      <trkpt lat="48.88256" lon="2.33072">
        <ele>135.6</ele>
        <time>2015-01-12T21:15:21.618Z</time>
      </trkpt>
      <trkpt lat="48.88252" lon="2.33079">
        <ele>135.5</ele>
        <time>2015-01-12T21:15:22.532Z</time>
      </trkpt>
      <trkpt lat="48.88234" lon="2.33124">
        <ele>134.8</ele>
        <time>2015-01-12T21:15:29.545Z</time>
      </trkpt>
      <trkpt lat="48.88231" lon="2.33135">
        <ele>135.1</ele>
        <time>2015-01-12T21:15:31.588Z</time>
      </trkpt>
      <trkpt lat="48.88228" lon="2.33139">
        <ele>134.9</ele>
        <time>2015-01-12T21:15:32.542Z</time>
      </trkpt>
      <trkpt lat="48.88225" lon="2.33147">
        <ele>134.5</ele>
        <time>2015-01-12T21:15:33.549Z</time>
      </trkpt>
      <trkpt lat="48.8822" lon="2.33151">
        <ele>133.7</ele>
        <time>2015-01-12T21:15:34.559Z</time>
      </trkpt>
      <trkpt lat="48.88215" lon="2.33154">
        <ele>133</ele>
        <time>2015-01-12T21:15:35.571Z</time>
      </trkpt>
      <trkpt lat="48.88211" lon="2.33156">
        <ele>132.1</ele>
        <time>2015-01-12T21:15:36.602Z</time>
      </trkpt>
      <trkpt lat="48.88205" lon="2.33156">
        <ele>130.1</ele>
        <time>2015-01-12T21:15:38.540Z</time>
      </trkpt>
      <trkpt lat="48.88185" lon="2.33155">
        <ele>128.1</ele>
        <time>2015-01-12T21:15:41.514Z</time>
      </trkpt>
      <trkpt lat="48.8818" lon="2.33154">
        <ele>127.7</ele>
        <time>2015-01-12T21:15:42.528Z</time>
      </trkpt>
      <trkpt lat="48.88176" lon="2.33153">
        <ele>127.3</ele>
        <time>2015-01-12T21:15:43.571Z</time>
      </trkpt>
      <trkpt lat="48.88171" lon="2.33152">
        <ele>126.9</ele>
        <time>2015-01-12T21:15:44.583Z</time>
      </trkpt>
      <trkpt lat="48.88167" lon="2.33149">
        <ele>126.6</ele>
        <time>2015-01-12T21:15:45.589Z</time>
      </trkpt>
      <trkpt lat="48.88138" lon="2.33145">
        <ele>127</ele>
        <time>2015-01-12T21:15:50.555Z</time>
      </trkpt>
      <trkpt lat="48.88133" lon="2.33147">
        <ele>126.9</ele>
        <time>2015-01-12T21:15:51.629Z</time>
      </trkpt>
      <trkpt lat="48.87976" lon="2.33136">
        <ele>130.1</ele>
        <time>2015-01-12T21:16:18.516Z</time>
      </trkpt>
      <trkpt lat="48.87968" lon="2.33127">
        <ele>129.2</ele>
        <time>2015-01-12T21:16:20.574Z</time>
      </trkpt>
      <trkpt lat="48.87963" lon="2.33123">
        <ele>128.8</ele>
        <time>2015-01-12T21:16:21.583Z</time>
      </trkpt>
      <trkpt lat="48.87959" lon="2.33119">
        <ele>128.5</ele>
        <time>2015-01-12T21:16:22.532Z</time>
      </trkpt>
      <trkpt lat="48.87872" lon="2.33136">
        <ele>129.9</ele>
        <time>2015-01-12T21:16:38.593Z</time>
      </trkpt>
      <trkpt lat="48.87865" lon="2.33143">
        <ele>129.7</ele>
        <time>2015-01-12T21:16:40.531Z</time>
      </trkpt>
      <trkpt lat="48.87861" lon="2.33146">
        <ele>129.6</ele>
        <time>2015-01-12T21:16:41.553Z</time>
      </trkpt>
      <trkpt lat="48.87856" lon="2.33148">
        <ele>129.4</ele>
        <time>2015-01-12T21:16:42.560Z</time>
      </trkpt>
      <trkpt lat="48.87851" lon="2.3315">
        <ele>129.3</ele>
        <time>2015-01-12T21:16:43.580Z</time>
      </trkpt>
      <trkpt lat="48.87843" lon="2.33153">
        <ele>128.8</ele>
        <time>2015-01-12T21:16:45.600Z</time>
      </trkpt>
      <trkpt lat="48.87839" lon="2.33155">
        <ele>128.5</ele>
        <time>2015-01-12T21:16:46.607Z</time>
      </trkpt>
      <trkpt lat="48.87834" lon="2.33158">
        <ele>128.3</ele>
        <time>2015-01-12T21:16:47.527Z</time>
      </trkpt>
      <trkpt lat="48.87829" lon="2.33161">
        <ele>128.1</ele>
        <time>2015-01-12T21:16:48.526Z</time>
      </trkpt>
      <trkpt lat="48.87821" lon="2.33163">
        <ele>127.8</ele>
        <time>2015-01-12T21:16:49.615Z</time>
      </trkpt>
      <trkpt lat="48.87815" lon="2.33166">
        <ele>127.4</ele>
        <time>2015-01-12T21:16:50.547Z</time>
      </trkpt>
      <trkpt lat="48.87809" lon="2.33169">
        <ele>127.1</ele>
        <time>2015-01-12T21:16:51.544Z</time>
      </trkpt>
      <trkpt lat="48.87804" lon="2.33171">
        <ele>126.5</ele>
        <time>2015-01-12T21:16:52.561Z</time>
      </trkpt>
      <trkpt lat="48.87799" lon="2.33174">
        <ele>126.3</ele>
        <time>2015-01-12T21:16:53.605Z</time>
      </trkpt>
      <trkpt lat="48.87793" lon="2.33178">
        <ele>125.9</ele>
        <time>2015-01-12T21:16:54.614Z</time>
      </trkpt>
      <trkpt lat="48.87789" lon="2.33182">
        <ele>125.8</ele>
        <time>2015-01-12T21:16:55.620Z</time>
      </trkpt>
      <trkpt lat="48.87784" lon="2.33184">
        <ele>125.1</ele>
        <time>2015-01-12T21:16:56.540Z</time>
      </trkpt>
      <trkpt lat="48.87779" lon="2.33187">
        <ele>120.7</ele>
        <time>2015-01-12T21:16:59.557Z</time>
      </trkpt>
      <trkpt lat="48.87774" lon="2.33187">
        <ele>119.8</ele>
        <time>2015-01-12T21:17:00.599Z</time>
      </trkpt>
      <trkpt lat="48.87769" lon="2.3319">
        <ele>118.4</ele>
        <time>2015-01-12T21:17:01.631Z</time>
      </trkpt>
      <trkpt lat="48.87765" lon="2.33193">
        <ele>118.3</ele>
        <time>2015-01-12T21:17:02.544Z</time>
      </trkpt>
      <trkpt lat="48.87756" lon="2.33196">
        <ele>117.7</ele>
        <time>2015-01-12T21:17:04.591Z</time>
      </trkpt>
      <trkpt lat="48.87752" lon="2.33198">
        <ele>117.4</ele>
        <time>2015-01-12T21:17:05.537Z</time>
      </trkpt>
      <trkpt lat="48.87747" lon="2.33198">
        <ele>117</ele>
        <time>2015-01-12T21:17:06.695Z</time>
      </trkpt>
      <trkpt lat="48.87743" lon="2.33198">
        <ele>116.6</ele>
        <time>2015-01-12T21:17:07.678Z</time>
      </trkpt>
      <trkpt lat="48.87737" lon="2.33198">
        <ele>116.3</ele>
        <time>2015-01-12T21:17:08.540Z</time>
      </trkpt>
      <trkpt lat="48.87732" lon="2.33198">
        <ele>116.1</ele>
        <time>2015-01-12T21:17:09.548Z</time>
      </trkpt>
      <trkpt lat="48.87726" lon="2.33198">
        <ele>115.5</ele>
        <time>2015-01-12T21:17:10.734Z</time>
      </trkpt>
      <trkpt lat="48.8772" lon="2.33198">
        <ele>115.2</ele>
        <time>2015-01-12T21:17:11.558Z</time>
      </trkpt>
      <trkpt lat="48.87716" lon="2.33197">
        <ele>115</ele>
        <time>2015-01-12T21:17:12.566Z</time>
      </trkpt>
      <trkpt lat="48.87711" lon="2.33197">
        <ele>114.5</ele>
        <time>2015-01-12T21:17:13.579Z</time>
      </trkpt>
      <trkpt lat="48.87706" lon="2.33197">
        <ele>114.3</ele>
        <time>2015-01-12T21:17:14.616Z</time>
      </trkpt>
      <trkpt lat="48.87702" lon="2.33198">
        <ele>114</ele>
        <time>2015-01-12T21:17:15.536Z</time>
      </trkpt>
      <trkpt lat="48.87697" lon="2.33205">
        <ele>113.1</ele>
        <time>2015-01-12T21:17:16.533Z</time>
      </trkpt>
      <trkpt lat="48.87693" lon="2.3321">
        <ele>112.4</ele>
        <time>2015-01-12T21:17:17.530Z</time>
      </trkpt>
      <trkpt lat="48.87689" lon="2.33216">
        <ele>111.8</ele>
        <time>2015-01-12T21:17:18.554Z</time>
      </trkpt>
      <trkpt lat="48.87684" lon="2.33219">
        <ele>111.5</ele>
        <time>2015-01-12T21:17:19.596Z</time>
      </trkpt>
      <trkpt lat="48.8768" lon="2.33222">
        <ele>111.1</ele>
        <time>2015-01-12T21:17:20.603Z</time>
      </trkpt>
      <trkpt lat="48.87676" lon="2.33226">
        <ele>111</ele>
        <time>2015-01-12T21:17:21.509Z</time>
      </trkpt>
      <trkpt lat="48.87672" lon="2.33229">
        <ele>110.5</ele>
        <time>2015-01-12T21:17:22.526Z</time>
      </trkpt>
      <trkpt lat="48.87667" lon="2.33231">
        <ele>110.4</ele>
        <time>2015-01-12T21:17:23.530Z</time>
      </trkpt>
      <trkpt lat="48.8766" lon="2.33231">
        <ele>110.1</ele>
        <time>2015-01-12T21:17:25.583Z</time>
      </trkpt>
      <trkpt lat="48.87656" lon="2.3323">
        <ele>109.8</ele>
        <time>2015-01-12T21:17:26.596Z</time>
      </trkpt>
      <trkpt lat="48.8765" lon="2.33223">
        <ele>110.3</ele>
        <time>2015-01-12T21:17:28.541Z</time>
      </trkpt>
      <trkpt lat="48.87648" lon="2.33217">
        <ele>110.8</ele>
        <time>2015-01-12T21:17:29.554Z</time>
      </trkpt>
      <trkpt lat="48.87645" lon="2.33212">
        <ele>111.3</ele>
        <time>2015-01-12T21:17:30.563Z</time>
      </trkpt>
      <trkpt lat="48.87643" lon="2.33206">
        <ele>112.1</ele>
        <time>2015-01-12T21:17:31.603Z</time>
      </trkpt>
      <trkpt lat="48.87638" lon="2.33194">
        <ele>112.9</ele>
        <time>2015-01-12T21:17:33.638Z</time>
      </trkpt>
      <trkpt lat="48.87635" lon="2.33187">
        <ele>113.4</ele>
        <time>2015-01-12T21:17:34.648Z</time>
      </trkpt>
      <trkpt lat="48.87629" lon="2.33178">
        <ele>114.5</ele>
        <time>2015-01-12T21:17:36.556Z</time>
      </trkpt>
      <trkpt lat="48.87627" lon="2.33175">
        <ele>114.9</ele>
        <time>2015-01-12T21:17:37.593Z</time>
      </trkpt>
      <trkpt lat="48.87621" lon="2.3318">
        <ele>105.7</ele>
        <time>2015-01-12T21:18:00.601Z</time>
      </trkpt>
      <trkpt lat="48.87619" lon="2.33184">
        <ele>103.3</ele>
        <time>2015-01-12T21:18:01.625Z</time>
      </trkpt>
      <trkpt lat="48.87614" lon="2.3319">
        <ele>101.3</ele>
        <time>2015-01-12T21:18:03.663Z</time>
      </trkpt>
      <trkpt lat="48.87612" lon="2.33191">
        <ele>101.2</ele>
        <time>2015-01-12T21:18:04.570Z</time>
      </trkpt>
      <trkpt lat="48.87603" lon="2.33193">
        <ele>100.9</ele>
        <time>2015-01-12T21:18:06.602Z</time>
      </trkpt>
      <trkpt lat="48.87597" lon="2.33195">
        <ele>100.3</ele>
        <time>2015-01-12T21:18:07.844Z</time>
      </trkpt>
      <trkpt lat="48.87588" lon="2.33196">
        <ele>99.5</ele>
        <time>2015-01-12T21:18:09.564Z</time>
      </trkpt>
      <trkpt lat="48.87522" lon="2.33233">
        <ele>100.7</ele>
        <time>2015-01-12T21:18:23.542Z</time>
      </trkpt>
      <trkpt lat="48.87515" lon="2.33236">
        <ele>100.9</ele>
        <time>2015-01-12T21:18:24.555Z</time>
      </trkpt>
      <trkpt lat="48.875" lon="2.33245">
        <ele>101.1</ele>
        <time>2015-01-12T21:18:26.506Z</time>
      </trkpt>
      <trkpt lat="48.87492" lon="2.33247">
        <ele>101</ele>
        <time>2015-01-12T21:18:27.616Z</time>
      </trkpt>
      <trkpt lat="48.87485" lon="2.33249">
        <ele>100.9</ele>
        <time>2015-01-12T21:18:28.636Z</time>
      </trkpt>
      <trkpt lat="48.87477" lon="2.33248">
        <ele>100.6</ele>
        <time>2015-01-12T21:18:29.528Z</time>
      </trkpt>
      <trkpt lat="48.8747" lon="2.33248">
        <ele>100.2</ele>
        <time>2015-01-12T21:18:30.527Z</time>
      </trkpt>
      <trkpt lat="48.87464" lon="2.33253">
        <ele>99.7</ele>
        <time>2015-01-12T21:18:31.638Z</time>
      </trkpt>
      <trkpt lat="48.87458" lon="2.33257">
        <ele>99.4</ele>
        <time>2015-01-12T21:18:32.651Z</time>
      </trkpt>
      <trkpt lat="48.87452" lon="2.33261">
        <ele>99.2</ele>
        <time>2015-01-12T21:18:33.535Z</time>
      </trkpt>
      <trkpt lat="48.87444" lon="2.33265">
        <ele>99.2</ele>
        <time>2015-01-12T21:18:34.538Z</time>
      </trkpt>
      <trkpt lat="48.87437" lon="2.33268">
        <ele>99.2</ele>
        <time>2015-01-12T21:18:35.636Z</time>
      </trkpt>
      <trkpt lat="48.8743" lon="2.33271">
        <ele>98.9</ele>
        <time>2015-01-12T21:18:36.650Z</time>
      </trkpt>
      <trkpt lat="48.87423" lon="2.33274">
        <ele>98.6</ele>
        <time>2015-01-12T21:18:37.578Z</time>
      </trkpt>
      <trkpt lat="48.87416" lon="2.33278">
        <ele>98.5</ele>
        <time>2015-01-12T21:18:38.576Z</time>
      </trkpt>
      <trkpt lat="48.8741" lon="2.33283">
        <ele>98.3</ele>
        <time>2015-01-12T21:18:39.618Z</time>
      </trkpt>
      <trkpt lat="48.87403" lon="2.33284">
        <ele>98.3</ele>
        <time>2015-01-12T21:18:40.623Z</time>
      </trkpt>
      <trkpt lat="48.87398" lon="2.33285">
        <ele>98.1</ele>
        <time>2015-01-12T21:18:41.544Z</time>
      </trkpt>
      <trkpt lat="48.87392" lon="2.33289">
        <ele>98</ele>
        <time>2015-01-12T21:18:42.543Z</time>
      </trkpt>
      <trkpt lat="48.87386" lon="2.33292">
        <ele>98</ele>
        <time>2015-01-12T21:18:43.553Z</time>
      </trkpt>
      <trkpt lat="48.87379" lon="2.33295">
        <ele>98.1</ele>
        <time>2015-01-12T21:18:44.558Z</time>
      </trkpt>
      <trkpt lat="48.87372" lon="2.33299">
        <ele>98</ele>
        <time>2015-01-12T21:18:45.570Z</time>
      </trkpt>
      <trkpt lat="48.87358" lon="2.33309">
        <ele>98.8</ele>
        <time>2015-01-12T21:18:48.602Z</time>
      </trkpt>
      <trkpt lat="48.87353" lon="2.33311">
        <ele>99.4</ele>
        <time>2015-01-12T21:18:49.635Z</time>
      </trkpt>
      <trkpt lat="48.8733" lon="2.33316">
        <ele>99.4</ele>
        <time>2015-01-12T21:18:53.581Z</time>
      </trkpt>
      <trkpt lat="48.87322" lon="2.33318">
        <ele>98.9</ele>
        <time>2015-01-12T21:18:55.606Z</time>
      </trkpt>
      <trkpt lat="48.87319" lon="2.33319">
        <ele>98.3</ele>
        <time>2015-01-12T21:18:56.705Z</time>
      </trkpt>
      <trkpt lat="48.87311" lon="2.33318">
        <ele>103.7</ele>
        <time>2015-01-12T21:19:13.652Z</time>
      </trkpt>
      <trkpt lat="48.87289" lon="2.33321">
        <ele>112.9</ele>
        <time>2015-01-12T21:19:14.578Z</time>
      </trkpt>
      <trkpt lat="48.87281" lon="2.33328">
        <ele>113.8</ele>
        <time>2015-01-12T21:19:16.557Z</time>
      </trkpt>
      <trkpt lat="48.87278" lon="2.33331">
        <ele>113.7</ele>
        <time>2015-01-12T21:19:17.587Z</time>
      </trkpt>
      <trkpt lat="48.87274" lon="2.33338">
        <ele>112.4</ele>
        <time>2015-01-12T21:19:20.626Z</time>
      </trkpt>
      <trkpt lat="48.87271" lon="2.33339">
        <ele>112.3</ele>
        <time>2015-01-12T21:19:21.648Z</time>
      </trkpt>
      <trkpt lat="48.87264" lon="2.33339">
        <ele>112.2</ele>
        <time>2015-01-12T21:19:23.568Z</time>
      </trkpt>
      <trkpt lat="48.87261" lon="2.33339">
        <ele>112</ele>
        <time>2015-01-12T21:19:24.576Z</time>
      </trkpt>
      <trkpt lat="48.87255" lon="2.33339">
        <ele>111.3</ele>
        <time>2015-01-12T21:19:25.635Z</time>
      </trkpt>
      <trkpt lat="48.8725" lon="2.33341">
        <ele>111.2</ele>
        <time>2015-01-12T21:19:26.546Z</time>
      </trkpt>
      <trkpt lat="48.87246" lon="2.33343">
        <ele>110.8</ele>
        <time>2015-01-12T21:19:27.548Z</time>
      </trkpt>
      <trkpt lat="48.87241" lon="2.33344">
        <ele>110.2</ele>
        <time>2015-01-12T21:19:28.551Z</time>
      </trkpt>
      <trkpt lat="48.87235" lon="2.33344">
        <ele>109.6</ele>
        <time>2015-01-12T21:19:29.559Z</time>
      </trkpt>
      <trkpt lat="48.87229" lon="2.33343">
        <ele>108.7</ele>
        <time>2015-01-12T21:19:30.575Z</time>
      </trkpt>
      <trkpt lat="48.87223" lon="2.33342">
        <ele>108.2</ele>
        <time>2015-01-12T21:19:31.586Z</time>
      </trkpt>
      <trkpt lat="48.87218" lon="2.33343">
        <ele>107.3</ele>
        <time>2015-01-12T21:19:32.601Z</time>
      </trkpt>
      <trkpt lat="48.87214" lon="2.33346">
        <ele>106.8</ele>
        <time>2015-01-12T21:19:33.608Z</time>
      </trkpt>
      <trkpt lat="48.87208" lon="2.33348">
        <ele>106.2</ele>
        <time>2015-01-12T21:19:34.618Z</time>
      </trkpt>
      <trkpt lat="48.87203" lon="2.3335">
        <ele>105.2</ele>
        <time>2015-01-12T21:19:35.536Z</time>
      </trkpt>
      <trkpt lat="48.87198" lon="2.33352">
        <ele>104.5</ele>
        <time>2015-01-12T21:19:36.540Z</time>
      </trkpt>
      <trkpt lat="48.87192" lon="2.33354">
        <ele>104.2</ele>
        <time>2015-01-12T21:19:37.558Z</time>
      </trkpt>
      <trkpt lat="48.87186" lon="2.33357">
        <ele>103.9</ele>
        <time>2015-01-12T21:19:38.559Z</time>
      </trkpt>
      <trkpt lat="48.87181" lon="2.33362">
        <ele>104.2</ele>
        <time>2015-01-12T21:19:39.577Z</time>
      </trkpt>
      <trkpt lat="48.87176" lon="2.33368">
        <ele>104.4</ele>
        <time>2015-01-12T21:19:40.586Z</time>
      </trkpt>
      <trkpt lat="48.87172" lon="2.33372">
        <ele>104.8</ele>
        <time>2015-01-12T21:19:41.596Z</time>
      </trkpt>
      <trkpt lat="48.87167" lon="2.33376">
        <ele>105</ele>
        <time>2015-01-12T21:19:42.595Z</time>
      </trkpt>
      <trkpt lat="48.87162" lon="2.33382">
        <ele>105.1</ele>
        <time>2015-01-12T21:19:43.609Z</time>
      </trkpt>
      <trkpt lat="48.87157" lon="2.33387">
        <ele>105.3</ele>
        <time>2015-01-12T21:19:44.618Z</time>
      </trkpt>
      <trkpt lat="48.87152" lon="2.33389">
        <ele>105.6</ele>
        <time>2015-01-12T21:19:45.629Z</time>
      </trkpt>
      <trkpt lat="48.87144" lon="2.33394">
        <ele>105.2</ele>
        <time>2015-01-12T21:19:46.632Z</time>
      </trkpt>
      <trkpt lat="48.87138" lon="2.33395">
        <ele>105</ele>
        <time>2015-01-12T21:19:47.680Z</time>
      </trkpt>
      <trkpt lat="48.87133" lon="2.33395">
        <ele>104.8</ele>
        <time>2015-01-12T21:19:48.565Z</time>
      </trkpt>
      <trkpt lat="48.87128" lon="2.33395">
        <ele>104.5</ele>
        <time>2015-01-12T21:19:49.732Z</time>
      </trkpt>
      <trkpt lat="48.87123" lon="2.33396">
        <ele>104.4</ele>
        <time>2015-01-12T21:19:50.587Z</time>
      </trkpt>
      <trkpt lat="48.87117" lon="2.33399">
        <ele>105.5</ele>
        <time>2015-01-12T21:19:52.596Z</time>
      </trkpt>
      <trkpt lat="48.87113" lon="2.33397">
        <ele>106.1</ele>
        <time>2015-01-12T21:19:53.606Z</time>
      </trkpt>
      <trkpt lat="48.87107" lon="2.33402">
        <ele>108.3</ele>
        <time>2015-01-12T21:19:56.643Z</time>
      </trkpt>
      <trkpt lat="48.87105" lon="2.33405">
        <ele>108.5</ele>
        <time>2015-01-12T21:19:57.666Z</time>
      </trkpt>
      <trkpt lat="48.871" lon="2.33406">
        <ele>109.7</ele>
        <time>2015-01-12T21:20:03.565Z</time>
      </trkpt>
      <trkpt lat="48.87095" lon="2.33407">
        <ele>111.4</ele>
        <time>2015-01-12T21:20:04.552Z</time>
      </trkpt>
      <trkpt lat="48.87096" lon="2.33407">
        <ele>111.3</ele>
        <time>2015-01-12T21:20:21.565Z</time>
      </trkpt>
      <trkpt lat="48.87091" lon="2.33433">
        <ele>116.7</ele>
        <time>2015-01-12T21:20:22.587Z</time>
      </trkpt>
      <trkpt lat="48.87096" lon="2.33444">
        <ele>118.1</ele>
        <time>2015-01-12T21:20:27.667Z</time>
      </trkpt>
      <trkpt lat="48.87097" lon="2.33447">
        <ele>118.6</ele>
        <time>2015-01-12T21:20:28.568Z</time>
      </trkpt>
      <trkpt lat="48.871" lon="2.33459">
        <ele>119.4</ele>
        <time>2015-01-12T21:20:32.607Z</time>
      </trkpt>
      <trkpt lat="48.87101" lon="2.3346">
        <ele>119.5</ele>
        <time>2015-01-12T21:20:33.640Z</time>
      </trkpt>
      <trkpt lat="48.87094" lon="2.3346">
        <ele>118.3</ele>
        <time>2015-01-12T21:20:35.538Z</time>
      </trkpt>
      <trkpt lat="48.87089" lon="2.33458">
        <ele>117.3</ele>
        <time>2015-01-12T21:20:36.561Z</time>
      </trkpt>
      <trkpt lat="48.87081" lon="2.3346">
        <ele>116.2</ele>
        <time>2015-01-12T21:20:38.590Z</time>
      </trkpt>
      <trkpt lat="48.87077" lon="2.33462">
        <ele>115.5</ele>
        <time>2015-01-12T21:20:39.592Z</time>
      </trkpt>
      <trkpt lat="48.8707" lon="2.33461">
        <ele>114.2</ele>
        <time>2015-01-12T21:20:40.643Z</time>
      </trkpt>
      <trkpt lat="48.87065" lon="2.33459">
        <ele>113.4</ele>
        <time>2015-01-12T21:20:41.631Z</time>
      </trkpt>
      <trkpt lat="48.8706" lon="2.33461">
        <ele>112.8</ele>
        <time>2015-01-12T21:20:42.553Z</time>
      </trkpt>
      <trkpt lat="48.87054" lon="2.33462">
        <ele>111.6</ele>
        <time>2015-01-12T21:20:43.647Z</time>
      </trkpt>
      <trkpt lat="48.87047" lon="2.33465">
        <ele>110.2</ele>
        <time>2015-01-12T21:20:45.780Z</time>
      </trkpt>
      <trkpt lat="48.87044" lon="2.33467">
        <ele>109.4</ele>
        <time>2015-01-12T21:20:46.562Z</time>
      </trkpt>
      <trkpt lat="48.87038" lon="2.33471">
        <ele>108</ele>
        <time>2015-01-12T21:20:49.692Z</time>
      </trkpt>
      <trkpt lat="48.87035" lon="2.33475">
        <ele>107.2</ele>
        <time>2015-01-12T21:20:49.736Z</time>
      </trkpt>
      <trkpt lat="48.87021" lon="2.33483">
        <ele>107.5</ele>
        <time>2015-01-12T21:20:53.613Z</time>
      </trkpt>
      <trkpt lat="48.87013" lon="2.3348">
        <ele>107.9</ele>
        <time>2015-01-12T21:20:56.575Z</time>
      </trkpt>
      <trkpt lat="48.87012" lon="2.33479">
        <ele>108</ele>
        <time>2015-01-12T21:20:57.616Z</time>
      </trkpt>
      <trkpt lat="48.87003" lon="2.33477">
        <ele>108.4</ele>
        <time>2015-01-12T21:21:10.568Z</time>
      </trkpt>
      <trkpt lat="48.87" lon="2.3348">
        <ele>109.7</ele>
        <time>2015-01-12T21:21:11.583Z</time>
      </trkpt>
      <trkpt lat="48.86992" lon="2.33478">
        <ele>110.1</ele>
        <time>2015-01-12T21:21:15.108Z</time>
      </trkpt>
      <trkpt lat="48.86894" lon="2.33438">
        <ele>107.7</ele>
        <time>2015-01-12T21:21:39.531Z</time>
      </trkpt>
      <trkpt lat="48.86889" lon="2.33447">
        <ele>107.2</ele>
        <time>2015-01-12T21:21:42.566Z</time>
      </trkpt>
      <trkpt lat="48.86887" lon="2.33452">
        <ele>107.2</ele>
        <time>2015-01-12T21:21:43.582Z</time>
      </trkpt>
      <trkpt lat="48.86883" lon="2.33463">
        <ele>106.8</ele>
        <time>2015-01-12T21:21:45.531Z</time>
      </trkpt>
      <trkpt lat="48.86879" lon="2.33483">
        <ele>106.1</ele>
        <time>2015-01-12T21:21:48.576Z</time>
      </trkpt>
      <trkpt lat="48.86871" lon="2.33537">
        <ele>106.3</ele>
        <time>2015-01-12T21:21:56.538Z</time>
      </trkpt>
      <trkpt lat="48.86865" lon="2.33538">
        <ele>106.1</ele>
        <time>2015-01-12T21:21:58.558Z</time>
      </trkpt>
      <trkpt lat="48.86859" lon="2.33537">
        <ele>105.7</ele>
        <time>2015-01-12T21:21:59.582Z</time>
      </trkpt>
      <trkpt lat="48.86852" lon="2.33534">
        <ele>106.3</ele>
        <time>2015-01-12T21:22:03.559Z</time>
      </trkpt>
      <trkpt lat="48.8685" lon="2.33532">
        <ele>106.3</ele>
        <time>2015-01-12T21:22:04.571Z</time>
      </trkpt>
      <trkpt lat="48.86846" lon="2.33525">
        <ele>106.2</ele>
        <time>2015-01-12T21:22:07.612Z</time>
      </trkpt>
      <trkpt lat="48.86839" lon="2.33516">
        <ele>106.6</ele>
        <time>2015-01-12T21:22:18.579Z</time>
      </trkpt>
      <trkpt lat="48.86839" lon="2.33516">
        <ele>106.6</ele>
        <time>2015-01-12T21:22:26.527Z</time>
      </trkpt>
      <trkpt lat="48.86824" lon="2.33505">
        <ele>109.9</ele>
        <time>2015-01-12T21:22:27.546Z</time>
      </trkpt>
      <trkpt lat="48.86825" lon="2.33494">
        <ele>110.8</ele>
        <time>2015-01-12T21:22:31.617Z</time>
      </trkpt>
      <trkpt lat="48.86825" lon="2.3349">
        <ele>110.9</ele>
        <time>2015-01-12T21:22:32.628Z</time>
      </trkpt>
      <trkpt lat="48.8683" lon="2.33479">
        <ele>111.4</ele>
        <time>2015-01-12T21:22:35.544Z</time>
      </trkpt>
      <trkpt lat="48.86832" lon="2.33475">
        <ele>111.3</ele>
        <time>2015-01-12T21:22:36.543Z</time>
      </trkpt>
      <trkpt lat="48.86831" lon="2.33466">
        <ele>110.1</ele>
        <time>2015-01-12T21:22:48.550Z</time>
      </trkpt>
      <trkpt lat="48.8682" lon="2.33461">
        <ele>108.6</ele>
        <time>2015-01-12T21:22:49.577Z</time>
      </trkpt>
      <trkpt lat="48.86814" lon="2.33466">
        <ele>107.7</ele>
        <time>2015-01-12T21:22:51.555Z</time>
      </trkpt>
      <trkpt lat="48.86811" lon="2.33469">
        <ele>107.3</ele>
        <time>2015-01-12T21:22:52.568Z</time>
      </trkpt>
      <trkpt lat="48.86803" lon="2.33474">
        <ele>106.1</ele>
        <time>2015-01-12T21:22:54.598Z</time>
      </trkpt>
      <trkpt lat="48.86801" lon="2.33478">
        <ele>105.7</ele>
        <time>2015-01-12T21:22:55.610Z</time>
      </trkpt>
      <trkpt lat="48.86796" lon="2.33485">
        <ele>104.5</ele>
        <time>2015-01-12T21:22:58.551Z</time>
      </trkpt>
      <trkpt lat="48.86792" lon="2.33485">
        <ele>103.9</ele>
        <time>2015-01-12T21:22:59.597Z</time>
      </trkpt>
      <trkpt lat="48.86785" lon="2.33484">
        <ele>103.1</ele>
        <time>2015-01-12T21:23:01.558Z</time>
      </trkpt>
      <trkpt lat="48.86779" lon="2.33481">
        <ele>103.1</ele>
        <time>2015-01-12T21:23:02.571Z</time>
      </trkpt>
      <trkpt lat="48.86771" lon="2.33476">
        <ele>102.3</ele>
        <time>2015-01-12T21:23:04.589Z</time>
      </trkpt>
      <trkpt lat="48.86768" lon="2.33474">
        <ele>102.5</ele>
        <time>2015-01-12T21:23:05.580Z</time>
      </trkpt>
      <trkpt lat="48.86763" lon="2.33472">
        <ele>102.5</ele>
        <time>2015-01-12T21:23:06.666Z</time>
      </trkpt>
      <trkpt lat="48.86758" lon="2.33473">
        <ele>102.5</ele>
        <time>2015-01-12T21:23:07.548Z</time>
      </trkpt>
      <trkpt lat="48.86749" lon="2.33476">
        <ele>102.6</ele>
        <time>2015-01-12T21:23:10.526Z</time>
      </trkpt>
      <trkpt lat="48.86747" lon="2.33479">
        <ele>102.7</ele>
        <time>2015-01-12T21:23:11.533Z</time>
      </trkpt>
      <trkpt lat="48.86742" lon="2.33483">
        <ele>102.7</ele>
        <time>2015-01-12T21:23:14.582Z</time>
      </trkpt>
      <trkpt lat="48.86737" lon="2.33487">
        <ele>103.2</ele>
        <time>2015-01-12T21:23:15.670Z</time>
      </trkpt>
      <trkpt lat="48.8673" lon="2.33494">
        <ele>103.5</ele>
        <time>2015-01-12T21:23:17.525Z</time>
      </trkpt>
      <trkpt lat="48.86722" lon="2.33504">
        <ele>103.7</ele>
        <time>2015-01-12T21:23:20.536Z</time>
      </trkpt>
      <trkpt lat="48.86714" lon="2.3351">
        <ele>103.9</ele>
        <time>2015-01-12T21:23:23.559Z</time>
      </trkpt>
      <trkpt lat="48.86708" lon="2.3351">
        <ele>104.9</ele>
        <time>2015-01-12T21:23:24.567Z</time>
      </trkpt>
      <trkpt lat="48.86641" lon="2.33491">
        <ele>105.2</ele>
        <time>2015-01-12T21:23:48.578Z</time>
      </trkpt>
      <trkpt lat="48.86633" lon="2.33491">
        <ele>105.3</ele>
        <time>2015-01-12T21:23:52.509Z</time>
      </trkpt>
      <trkpt lat="48.8663" lon="2.33492">
        <ele>105.2</ele>
        <time>2015-01-12T21:23:53.538Z</time>
      </trkpt>
      <trkpt lat="48.86538" lon="2.3368">
        <ele>104</ele>
        <time>2015-01-12T21:24:44.612Z</time>
      </trkpt>
      <trkpt lat="48.8653" lon="2.3368">
        <ele>103.6</ele>
        <time>2015-01-12T21:24:45.980Z</time>
      </trkpt>
      <trkpt lat="48.86523" lon="2.33677">
        <ele>103.7</ele>
        <time>2015-01-12T21:24:46.534Z</time>
      </trkpt>
      <trkpt lat="48.86516" lon="2.33674">
        <ele>103.6</ele>
        <time>2015-01-12T21:24:47.543Z</time>
      </trkpt>
      <trkpt lat="48.86511" lon="2.33672">
        <ele>103.5</ele>
        <time>2015-01-12T21:24:48.554Z</time>
      </trkpt>
      <trkpt lat="48.86503" lon="2.33669">
        <ele>103.4</ele>
        <time>2015-01-12T21:24:50.546Z</time>
      </trkpt>
      <trkpt lat="48.865" lon="2.33668">
        <ele>103.4</ele>
        <time>2015-01-12T21:24:51.554Z</time>
      </trkpt>
      <trkpt lat="48.86493" lon="2.33665">
        <ele>103.6</ele>
        <time>2015-01-12T21:24:53.623Z</time>
      </trkpt>
      <trkpt lat="48.86491" lon="2.33663">
        <ele>103.6</ele>
        <time>2015-01-12T21:24:54.554Z</time>
      </trkpt>
      <trkpt lat="48.86484" lon="2.33655">
        <ele>101.8</ele>
        <time>2015-01-12T21:24:58.587Z</time>
      </trkpt>
      <trkpt lat="48.86482" lon="2.33651">
        <ele>101.6</ele>
        <time>2015-01-12T21:24:59.601Z</time>
      </trkpt>
      <trkpt lat="48.86478" lon="2.33643">
        <ele>101.7</ele>
        <time>2015-01-12T21:25:01.565Z</time>
      </trkpt>
      <trkpt lat="48.86476" lon="2.33637">
        <ele>101.6</ele>
        <time>2015-01-12T21:25:02.596Z</time>
      </trkpt>
      <trkpt lat="48.8647" lon="2.33629">
        <ele>101.2</ele>
        <time>2015-01-12T21:25:04.640Z</time>
      </trkpt>
      <trkpt lat="48.86468" lon="2.33628">
        <ele>101</ele>
        <time>2015-01-12T21:25:06.580Z</time>
      </trkpt>
      <trkpt lat="48.86462" lon="2.33626">
        <ele>100.5</ele>
        <time>2015-01-12T21:25:09.619Z</time>
      </trkpt>
      <trkpt lat="48.86303" lon="2.33834">
        <ele>100</ele>
        <time>2015-01-12T21:29:17.521Z</time>
      </trkpt>
      <trkpt lat="48.86303" lon="2.33834">
        <ele>100</ele>
        <time>2015-01-12T21:29:21.572Z</time>
      </trkpt>
      <trkpt lat="48.86301" lon="2.33867">
        <ele>111</ele>
        <time>2015-01-12T21:29:22.483Z</time>
      </trkpt>
      <trkpt lat="48.86305" lon="2.33873">
        <ele>112.6</ele>
        <time>2015-01-12T21:29:23.488Z</time>
      </trkpt>
      <trkpt lat="48.86308" lon="2.33879">
        <ele>114.5</ele>
        <time>2015-01-12T21:29:24.503Z</time>
      </trkpt>
      <trkpt lat="48.86313" lon="2.33889">
        <ele>117.2</ele>
        <time>2015-01-12T21:29:26.549Z</time>
      </trkpt>
      <trkpt lat="48.86313" lon="2.33895">
        <ele>114.9</ele>
        <time>2015-01-12T21:29:27.465Z</time>
      </trkpt>
      <trkpt lat="48.8631" lon="2.33903">
        <ele>111.8</ele>
        <time>2015-01-12T21:29:29.676Z</time>
      </trkpt>
      <trkpt lat="48.86308" lon="2.33909">
        <ele>109.3</ele>
        <time>2015-01-12T21:29:30.471Z</time>
      </trkpt>
      <trkpt lat="48.86306" lon="2.3392">
        <ele>106.8</ele>
        <time>2015-01-12T21:29:32.492Z</time>
      </trkpt>
      <trkpt lat="48.86305" lon="2.33924">
        <ele>105.2</ele>
        <time>2015-01-12T21:29:33.506Z</time>
      </trkpt>
      <trkpt lat="48.86302" lon="2.33935">
        <ele>110.7</ele>
        <time>2015-01-12T21:29:37.555Z</time>
      </trkpt>
      <trkpt lat="48.86299" lon="2.33937">
        <ele>111.4</ele>
        <time>2015-01-12T21:29:38.560Z</time>
      </trkpt>
      <trkpt lat="48.86291" lon="2.33938">
        <ele>112.7</ele>
        <time>2015-01-12T21:29:41.695Z</time>
      </trkpt>
      <trkpt lat="48.86288" lon="2.33938">
        <ele>112.8</ele>
        <time>2015-01-12T21:29:42.476Z</time>
      </trkpt>
      <trkpt lat="48.86279" lon="2.33937">
        <ele>112.6</ele>
        <time>2015-01-12T21:29:45.542Z</time>
      </trkpt>
      <trkpt lat="48.86276" lon="2.33937">
        <ele>112.8</ele>
        <time>2015-01-12T21:29:46.448Z</time>
      </trkpt>
      <trkpt lat="48.86268" lon="2.33942">
        <ele>112.9</ele>
        <time>2015-01-12T21:29:49.525Z</time>
      </trkpt>
      <trkpt lat="48.86266" lon="2.33945">
        <ele>112.8</ele>
        <time>2015-01-12T21:29:50.544Z</time>
      </trkpt>
      <trkpt lat="48.86261" lon="2.33952">
        <ele>112.9</ele>
        <time>2015-01-12T21:29:52.467Z</time>
      </trkpt>
      <trkpt lat="48.86259" lon="2.33956">
        <ele>113</ele>
        <time>2015-01-12T21:29:53.462Z</time>
      </trkpt>
      <trkpt lat="48.86254" lon="2.33962">
        <ele>114.9</ele>
        <time>2015-01-12T21:29:56.538Z</time>
      </trkpt>
      <trkpt lat="48.86251" lon="2.33964">
        <ele>115.6</ele>
        <time>2015-01-12T21:29:57.430Z</time>
      </trkpt>
      <trkpt lat="48.86197" lon="2.33965">
        <ele>110.5</ele>
        <time>2015-01-12T21:30:32.570Z</time>
      </trkpt>
      <trkpt lat="48.8618" lon="2.33997">
        <ele>106.8</ele>
        <time>2015-01-12T21:30:39.535Z</time>
      </trkpt>
      <trkpt lat="48.86177" lon="2.34001">
        <ele>106.3</ele>
        <time>2015-01-12T21:30:40.453Z</time>
      </trkpt>
      <trkpt lat="48.86173" lon="2.34006">
        <ele>106.5</ele>
        <time>2015-01-12T21:30:41.469Z</time>
      </trkpt>
      <trkpt lat="48.86169" lon="2.34016">
        <ele>106.8</ele>
        <time>2015-01-12T21:30:43.505Z</time>
      </trkpt>
      <trkpt lat="48.86165" lon="2.3402">
        <ele>107.1</ele>
        <time>2015-01-12T21:30:44.549Z</time>
      </trkpt>
      <trkpt lat="48.86119" lon="2.34055">
        <ele>107.4</ele>
        <time>2015-01-12T21:30:52.466Z</time>
      </trkpt>
      <trkpt lat="48.86116" lon="2.34064">
        <ele>108.2</ele>
        <time>2015-01-12T21:30:54.540Z</time>
      </trkpt>
      <trkpt lat="48.86113" lon="2.34068">
        <ele>108.4</ele>
        <time>2015-01-12T21:30:55.454Z</time>
      </trkpt>
      <trkpt lat="48.8611" lon="2.34078">
        <ele>109.6</ele>
        <time>2015-01-12T21:31:02.510Z</time>
      </trkpt>
      <trkpt lat="48.86111" lon="2.34082">
        <ele>109.1</ele>
        <time>2015-01-12T21:31:03.542Z</time>
      </trkpt>
      <trkpt lat="48.86113" lon="2.34087">
        <ele>108.5</ele>
        <time>2015-01-12T21:31:06.482Z</time>
      </trkpt>
      <trkpt lat="48.86124" lon="2.34106">
        <ele>108.3</ele>
        <time>2015-01-12T21:31:07.505Z</time>
      </trkpt>
      <trkpt lat="48.86129" lon="2.34113">
        <ele>108.3</ele>
        <time>2015-01-12T21:31:08.563Z</time>
      </trkpt>
      <trkpt lat="48.86131" lon="2.34122">
        <ele>107.4</ele>
        <time>2015-01-12T21:31:09.451Z</time>
      </trkpt>
      <trkpt lat="48.86133" lon="2.34129">
        <ele>106.8</ele>
        <time>2015-01-12T21:31:10.464Z</time>
      </trkpt>
      <trkpt lat="48.86134" lon="2.34135">
        <ele>106.5</ele>
        <time>2015-01-12T21:31:11.532Z</time>
      </trkpt>
      <trkpt lat="48.86135" lon="2.34147">
        <ele>106.6</ele>
        <time>2015-01-12T21:31:13.471Z</time>
      </trkpt>
      <trkpt lat="48.86134" lon="2.34151">
        <ele>106.9</ele>
        <time>2015-01-12T21:31:14.569Z</time>
      </trkpt>
      <trkpt lat="48.86101" lon="2.34196">
        <ele>107.1</ele>
        <time>2015-01-12T21:31:22.461Z</time>
      </trkpt>
      <trkpt lat="48.86105" lon="2.34208">
        <ele>108.7</ele>
        <time>2015-01-12T21:31:24.493Z</time>
      </trkpt>
      <trkpt lat="48.86109" lon="2.34217">
        <ele>109.3</ele>
        <time>2015-01-12T21:31:25.664Z</time>
      </trkpt>
      <trkpt lat="48.86112" lon="2.34227">
        <ele>109.7</ele>
        <time>2015-01-12T21:31:26.488Z</time>
      </trkpt>
      <trkpt lat="48.86112" lon="2.34233">
        <ele>109.9</ele>
        <time>2015-01-12T21:31:27.500Z</time>
      </trkpt>
      <trkpt lat="48.86112" lon="2.34241">
        <ele>110.1</ele>
        <time>2015-01-12T21:31:28.520Z</time>
      </trkpt>
      <trkpt lat="48.86112" lon="2.3425">
        <ele>110.6</ele>
        <time>2015-01-12T21:31:29.549Z</time>
      </trkpt>
      <trkpt lat="48.8611" lon="2.3426">
        <ele>112.7</ele>
        <time>2015-01-12T21:31:30.466Z</time>
      </trkpt>
      <trkpt lat="48.86111" lon="2.34267">
        <ele>113.4</ele>
        <time>2015-01-12T21:31:31.459Z</time>
      </trkpt>
      <trkpt lat="48.86113" lon="2.34274">
        <ele>113.9</ele>
        <time>2015-01-12T21:31:32.485Z</time>
      </trkpt>
      <trkpt lat="48.86116" lon="2.34281">
        <ele>114.2</ele>
        <time>2015-01-12T21:31:33.496Z</time>
      </trkpt>
      <trkpt lat="48.86116" lon="2.34281">
        <ele>114.2</ele>
        <time>2015-01-12T21:31:33.818Z</time>
      </trkpt>
      <trkpt lat="48.8614" lon="2.34318">
        <ele>112.6</ele>
        <time>2015-01-12T21:31:41.542Z</time>
      </trkpt>
      <trkpt lat="48.86143" lon="2.34326">
        <ele>112.5</ele>
        <time>2015-01-12T21:31:42.416Z</time>
      </trkpt>
      <trkpt lat="48.86145" lon="2.34333">
        <ele>112.5</ele>
        <time>2015-01-12T21:31:43.445Z</time>
      </trkpt>
      <trkpt lat="48.86165" lon="2.34402">
        <ele>109.5</ele>
        <time>2015-01-12T21:32:00.434Z</time>
      </trkpt>
      <trkpt lat="48.8616" lon="2.34405">
        <ele>108.9</ele>
        <time>2015-01-12T21:32:03.488Z</time>
      </trkpt>
      <trkpt lat="48.86155" lon="2.34405">
        <ele>109.4</ele>
        <time>2015-01-12T21:32:04.509Z</time>
      </trkpt>
      <trkpt lat="48.86155" lon="2.34405">
        <ele>109.4</ele>
        <time>2015-01-12T21:32:09.550Z</time>
      </trkpt>
      <trkpt lat="48.86136" lon="2.34424">
        <ele>107.4</ele>
        <time>2015-01-12T21:32:10.549Z</time>
      </trkpt>
      <trkpt lat="48.86131" lon="2.34428">
        <ele>107.2</ele>
        <time>2015-01-12T21:32:11.484Z</time>
      </trkpt>
      <trkpt lat="48.86126" lon="2.34433">
        <ele>107.2</ele>
        <time>2015-01-12T21:32:12.480Z</time>
      </trkpt>
      <trkpt lat="48.86121" lon="2.34438">
        <ele>107</ele>
        <time>2015-01-12T21:32:13.490Z</time>
      </trkpt>
      <trkpt lat="48.86116" lon="2.34443">
        <ele>106.9</ele>
        <time>2015-01-12T21:32:14.499Z</time>
      </trkpt>
      <trkpt lat="48.86111" lon="2.34447">
        <ele>107</ele>
        <time>2015-01-12T21:32:15.505Z</time>
      </trkpt>
      <trkpt lat="48.86107" lon="2.34452">
        <ele>107.5</ele>
        <time>2015-01-12T21:32:16.518Z</time>
      </trkpt>
      <trkpt lat="48.86103" lon="2.34458">
        <ele>107.8</ele>
        <time>2015-01-12T21:32:17.531Z</time>
      </trkpt>
      <trkpt lat="48.86098" lon="2.34465">
        <ele>108.1</ele>
        <time>2015-01-12T21:32:18.556Z</time>
      </trkpt>
      <trkpt lat="48.86093" lon="2.34471">
        <ele>108.5</ele>
        <time>2015-01-12T21:32:19.545Z</time>
      </trkpt>
      <trkpt lat="48.86088" lon="2.34476">
        <ele>109</ele>
        <time>2015-01-12T21:32:20.555Z</time>
      </trkpt>
      <trkpt lat="48.86083" lon="2.34484">
        <ele>109.4</ele>
        <time>2015-01-12T21:32:21.584Z</time>
      </trkpt>
      <trkpt lat="48.8608" lon="2.34494">
        <ele>109.7</ele>
        <time>2015-01-12T21:32:22.460Z</time>
      </trkpt>
      <trkpt lat="48.86078" lon="2.34502">
        <ele>110.1</ele>
        <time>2015-01-12T21:32:23.474Z</time>
      </trkpt>
      <trkpt lat="48.86076" lon="2.3451">
        <ele>110.8</ele>
        <time>2015-01-12T21:32:24.479Z</time>
      </trkpt>
      <trkpt lat="48.86075" lon="2.3452">
        <ele>111.4</ele>
        <time>2015-01-12T21:32:25.494Z</time>
      </trkpt>
      <trkpt lat="48.86074" lon="2.34531">
        <ele>111.7</ele>
        <time>2015-01-12T21:32:26.502Z</time>
      </trkpt>
      <trkpt lat="48.86074" lon="2.34541">
        <ele>112.3</ele>
        <time>2015-01-12T21:32:27.512Z</time>
      </trkpt>
      <trkpt lat="48.86074" lon="2.34549">
        <ele>112.7</ele>
        <time>2015-01-12T21:32:28.520Z</time>
      </trkpt>
      <trkpt lat="48.86073" lon="2.34559">
        <ele>113.1</ele>
        <time>2015-01-12T21:32:29.529Z</time>
      </trkpt>
      <trkpt lat="48.86074" lon="2.3457">
        <ele>113.7</ele>
        <time>2015-01-12T21:32:30.534Z</time>
      </trkpt>
      <trkpt lat="48.86073" lon="2.3458">
        <ele>114</ele>
        <time>2015-01-12T21:32:31.557Z</time>
      </trkpt>
      <trkpt lat="48.86071" lon="2.34591">
        <ele>113.8</ele>
        <time>2015-01-12T21:32:32.547Z</time>
      </trkpt>
      <trkpt lat="48.86071" lon="2.346">
        <ele>113.8</ele>
        <time>2015-01-12T21:32:33.457Z</time>
      </trkpt>
      <trkpt lat="48.86071" lon="2.34611">
        <ele>113.1</ele>
        <time>2015-01-12T21:32:34.471Z</time>
      </trkpt>
      <trkpt lat="48.86067" lon="2.34621">
        <ele>112.5</ele>
        <time>2015-01-12T21:32:35.532Z</time>
      </trkpt>
      <trkpt lat="48.86062" lon="2.34628">
        <ele>112.3</ele>
        <time>2015-01-12T21:32:36.441Z</time>
      </trkpt>
      <trkpt lat="48.86057" lon="2.34637">
        <ele>112.3</ele>
        <time>2015-01-12T21:32:37.452Z</time>
      </trkpt>
      <trkpt lat="48.86053" lon="2.34646">
        <ele>112.5</ele>
        <time>2015-01-12T21:32:38.490Z</time>
      </trkpt>
      <trkpt lat="48.86047" lon="2.34653">
        <ele>112.8</ele>
        <time>2015-01-12T21:32:39.463Z</time>
      </trkpt>
      <trkpt lat="48.8604" lon="2.34658">
        <ele>112.9</ele>
        <time>2015-01-12T21:32:40.464Z</time>
      </trkpt>
      <trkpt lat="48.8603" lon="2.34657">
        <ele>112</ele>
        <time>2015-01-12T21:32:41.474Z</time>
      </trkpt>
      <trkpt lat="48.86022" lon="2.34657">
        <ele>111.1</ele>
        <time>2015-01-12T21:32:42.490Z</time>
      </trkpt>
      <trkpt lat="48.86017" lon="2.34663">
        <ele>110.7</ele>
        <time>2015-01-12T21:32:43.500Z</time>
      </trkpt>
      <trkpt lat="48.86013" lon="2.34666">
        <ele>110.4</ele>
        <time>2015-01-12T21:32:44.520Z</time>
      </trkpt>
      <trkpt lat="48.86009" lon="2.34668">
        <ele>110.3</ele>
        <time>2015-01-12T21:32:45.535Z</time>
      </trkpt>
      <trkpt lat="48.86002" lon="2.34676">
        <ele>109.9</ele>
        <time>2015-01-12T21:32:48.462Z</time>
      </trkpt>
      <trkpt lat="48.85998" lon="2.34677">
        <ele>109.6</ele>
        <time>2015-01-12T21:32:49.498Z</time>
      </trkpt>
      <trkpt lat="48.85992" lon="2.34681">
        <ele>109.3</ele>
        <time>2015-01-12T21:32:51.546Z</time>
      </trkpt>
      <trkpt lat="48.85987" lon="2.34684">
        <ele>109.3</ele>
        <time>2015-01-12T21:32:52.559Z</time>
      </trkpt>
      <trkpt lat="48.85979" lon="2.34689">
        <ele>109.1</ele>
        <time>2015-01-12T21:32:54.454Z</time>
      </trkpt>
      <trkpt lat="48.85975" lon="2.34691">
        <ele>108.9</ele>
        <time>2015-01-12T21:32:55.451Z</time>
      </trkpt>
      <trkpt lat="48.85972" lon="2.34693">
        <ele>108.9</ele>
        <time>2015-01-12T21:32:56.548Z</time>
      </trkpt>
      <trkpt lat="48.85967" lon="2.34697">
        <ele>109.1</ele>
        <time>2015-01-12T21:32:57.458Z</time>
      </trkpt>
      <trkpt lat="48.85968" lon="2.34708">
        <ele>110.4</ele>
        <time>2015-01-12T21:33:32.481Z</time>
      </trkpt>
      <trkpt lat="48.85984" lon="2.34741">
        <ele>113.3</ele>
        <time>2015-01-12T21:33:33.415Z</time>
      </trkpt>
    </trkseg>
  </trk>
</gpx>